<?xml version='1.0' encoding='UTF-8'?><gpx version="1.1" creator="JPX - https://github.com/jenetics/jpx" xmlns="http://www.topografix.com/GPX/1/1"><trk><trkseg><trkpt lat="14.55819797284808" lon="120.99550917021844"><ele>9.0</ele><time>2026-04-05T05:29:01.979Z</time></trkpt><trkpt lat="14.558119079377306" lon="120.99558680828332"><ele>9.0</ele><time>2026-04-05T05:29:03.979Z</time></trkpt><trkpt lat="14.558048029682249" lon="120.99567598917278"><ele>9.0</ele><time>2026-04-05T05:29:05.979Z</time></trkpt><trkpt lat="14.557973929837344" lon="120.99575803476115"><ele>9.0</ele><time>2026-04-05T05:29:07.979Z</time></trkpt><trkpt lat="14.55803740733641" lon="120.9959591939161"><ele>9.0</ele><time>2026-04-05T05:29:08.98Z</time></trkpt><trkpt lat="14.557896589901999" lon="120.99584542547184"><ele>9.0</ele><time>2026-04-05T05:29:10.065Z</time></trkpt><trkpt lat="14.557823291035902" lon="120.99592734626364"><ele>9.0</ele><time>2026-04-05T05:29:12.037Z</time></trkpt><trkpt lat="14.558181037056029" lon="120.9960759250913"><ele>9.0</ele><time>2026-04-05T05:30:15.002Z</time></trkpt><trkpt lat="14.558191945845865" lon="120.9961635761328"><ele>9.0</ele><time>2026-04-05T05:30:19.002Z</time></trkpt><trkpt lat="14.558238160365459" lon="120.99621283879073"><ele>9.0</ele><time>2026-04-05T05:30:27.002Z</time></trkpt><trkpt lat="14.558307643370595" lon="120.99623609849634"><ele>9.0</ele><time>2026-04-05T05:30:29.002Z</time></trkpt><trkpt lat="14.558436254443112" lon="120.99623390114668"><ele>9.0</ele><time>2026-04-05T05:30:31.002Z</time></trkpt><trkpt lat="14.558506842289399" lon="120.996207510775"><ele>9.0</ele><time>2026-04-05T05:30:32.002Z</time></trkpt><trkpt lat="14.55858523028983" lon="120.99618599583503"><ele>9.0</ele><time>2026-04-05T05:30:33.002Z</time></trkpt><trkpt lat="14.558685622764946" lon="120.99617927707176"><ele>9.0</ele><time>2026-04-05T05:30:34.002Z</time></trkpt><trkpt lat="14.558779853319063" lon="120.99615913894088"><ele>9.0</ele><time>2026-04-05T05:30:35.002Z</time></trkpt><trkpt lat="14.558875300919059" lon="120.99613914625132"><ele>9.0</ele><time>2026-04-05T05:30:36.002Z</time></trkpt><trkpt lat="14.558968722004842" lon="120.996122231097"><ele>9.0</ele><time>2026-04-05T05:30:37.002Z</time></trkpt><trkpt lat="14.559076021052462" lon="120.99609641602414"><ele>9.0</ele><time>2026-04-05T05:30:38.002Z</time></trkpt><trkpt lat="14.559186079586745" lon="120.9960729701748"><ele>9.0</ele><time>2026-04-05T05:30:39.002Z</time></trkpt><trkpt lat="14.559297577438716" lon="120.99604629760826"><ele>9.0</ele><time>2026-04-05T05:30:40.002Z</time></trkpt><trkpt lat="14.559404597061231" lon="120.99602082934642"><ele>9.0</ele><time>2026-04-05T05:30:41.002Z</time></trkpt><trkpt lat="14.55950309536499" lon="120.99600091493262"><ele>9.0</ele><time>2026-04-05T05:30:42.002Z</time></trkpt><trkpt lat="14.559598400799496" lon="120.99598033407439"><ele>8.75</ele><time>2026-04-05T05:30:43.002Z</time></trkpt><trkpt lat="14.559703306691798" lon="120.99595288222193"><ele>8.5</ele><time>2026-04-05T05:30:44.003Z</time></trkpt><trkpt lat="14.55981556849812" lon="120.99592474140114"><ele>8.25</ele><time>2026-04-05T05:30:45.003Z</time></trkpt><trkpt lat="14.559932934094919" lon="120.99589260035667"><ele>8.0</ele><time>2026-04-05T05:30:46.003Z</time></trkpt><trkpt lat="14.56004089828667" lon="120.99586518924386"><ele>8.0</ele><time>2026-04-05T05:30:47.003Z</time></trkpt><trkpt lat="14.560151832746213" lon="120.99584403232659"><ele>8.0</ele><time>2026-04-05T05:30:48.003Z</time></trkpt><trkpt lat="14.560264809169434" lon="120.99582221444925"><ele>8.0</ele><time>2026-04-05T05:30:49.003Z</time></trkpt><trkpt lat="14.560377847977318" lon="120.99579745676867"><ele>8.0</ele><time>2026-04-05T05:30:50.003Z</time></trkpt><trkpt lat="14.560500120008081" lon="120.99576867284277"><ele>7.800000000000001</ele><time>2026-04-05T05:30:51.003Z</time></trkpt><trkpt lat="14.560616577487474" lon="120.99573564249384"><ele>7.6000000000000005</ele><time>2026-04-05T05:30:52.003Z</time></trkpt><trkpt lat="14.560723745251073" lon="120.99571134289923"><ele>7.3999999999999995</ele><time>2026-04-05T05:30:53.003Z</time></trkpt><trkpt lat="14.560821892687088" lon="120.99569610673525"><ele>7.199999999999999</ele><time>2026-04-05T05:30:54.003Z</time></trkpt><trkpt lat="14.560916540204017" lon="120.99566415591393"><ele>7.0</ele><time>2026-04-05T05:30:55.003Z</time></trkpt><trkpt lat="14.56101634486696" lon="120.9956342075841"><ele>7.0</ele><time>2026-04-05T05:30:56.003Z</time></trkpt><trkpt lat="14.561127570037394" lon="120.9956092410649"><ele>7.0</ele><time>2026-04-05T05:30:57.003Z</time></trkpt><trkpt lat="14.561242597832408" lon="120.99558163900579"><ele>7.0</ele><time>2026-04-05T05:30:58.003Z</time></trkpt><trkpt lat="14.561354466380914" lon="120.99555725946611"><ele>7.0</ele><time>2026-04-05T05:30:59.003Z</time></trkpt><trkpt lat="14.561464529192028" lon="120.99552693103311"><ele>7.333333333333334</ele><time>2026-04-05T05:31:00.003Z</time></trkpt><trkpt lat="14.561555767430987" lon="120.9954939943021"><ele>7.666666666666667</ele><time>2026-04-05T05:31:01.003Z</time></trkpt><trkpt lat="14.561639283243863" lon="120.99546487736538"><ele>8.0</ele><time>2026-04-05T05:31:02.003Z</time></trkpt><trkpt lat="14.561719958077559" lon="120.99543951673236"><ele>8.333333333333334</ele><time>2026-04-05T05:31:03.003Z</time></trkpt><trkpt lat="14.561799766896085" lon="120.9954216400124"><ele>8.666666666666666</ele><time>2026-04-05T05:31:04.003Z</time></trkpt><trkpt lat="14.561863966876572" lon="120.99540647803153"><ele>9.0</ele><time>2026-04-05T05:31:05.003Z</time></trkpt><trkpt lat="14.5619799358953" lon="120.9953786570515"><ele>9.166666666666666</ele><time>2026-04-05T05:31:07.003Z</time></trkpt><trkpt lat="14.56205404668088" lon="120.995363308873"><ele>9.333333333333334</ele><time>2026-04-05T05:31:09.003Z</time></trkpt><trkpt lat="14.562117619620155" lon="120.99533537753607"><ele>9.5</ele><time>2026-04-05T05:31:11.003Z</time></trkpt><trkpt lat="14.562198962087225" lon="120.99532094707412"><ele>9.666666666666668</ele><time>2026-04-05T05:31:14.002Z</time></trkpt><trkpt lat="14.56229587607413" lon="120.99530965601363"><ele>9.833333333333334</ele><time>2026-04-05T05:31:17.002Z</time></trkpt><trkpt lat="14.562373006386542" lon="120.99529069293865"><ele>10.0</ele><time>2026-04-05T05:31:19.001Z</time></trkpt><trkpt lat="14.5624555363002" lon="120.99526241180651"><ele>10.0</ele><time>2026-04-05T05:31:22.001Z</time></trkpt><trkpt lat="14.562554044328104" lon="120.99526999490152"><ele>10.0</ele><time>2026-04-05T05:31:35.001Z</time></trkpt><trkpt lat="14.562662025920359" lon="120.9953453274384"><ele>10.0</ele><time>2026-04-05T05:31:37.001Z</time></trkpt><trkpt lat="14.562742755520683" lon="120.99543147067556"><ele>10.0</ele><time>2026-04-05T05:31:39.001Z</time></trkpt><trkpt lat="14.56281083624424" lon="120.99554022830128"><ele>10.0</ele><time>2026-04-05T05:31:41.001Z</time></trkpt><trkpt lat="14.562829016681581" lon="120.99561325450698"><ele>10.0</ele><time>2026-04-05T05:31:42.001Z</time></trkpt><trkpt lat="14.562883966258191" lon="120.99569758374989"><ele>10.0</ele><time>2026-04-05T05:31:43.001Z</time></trkpt><trkpt lat="14.562919205156097" lon="120.99577150659916"><ele>10.0</ele><time>2026-04-05T05:31:44.001Z</time></trkpt><trkpt lat="14.562952959437538" lon="120.99584960361692"><ele>10.0</ele><time>2026-04-05T05:31:45.001Z</time></trkpt><trkpt lat="14.562989050260658" lon="120.99592951470879"><ele>10.0</ele><time>2026-04-05T05:31:46.001Z</time></trkpt><trkpt lat="14.563024047616375" lon="120.99601034183085"><ele>9.8</ele><time>2026-04-05T05:31:47.001Z</time></trkpt><trkpt lat="14.563042259558662" lon="120.99609986981862"><ele>9.6</ele><time>2026-04-05T05:31:48.001Z</time></trkpt><trkpt lat="14.56306874119629" lon="120.99617891511193"><ele>9.4</ele><time>2026-04-05T05:31:49.001Z</time></trkpt><trkpt lat="14.563137869568118" lon="120.99626132997794"><ele>9.2</ele><time>2026-04-05T05:31:50.001Z</time></trkpt><trkpt lat="14.563181722216667" lon="120.99635012628866"><ele>9.0</ele><time>2026-04-05T05:31:51.001Z</time></trkpt><trkpt lat="14.563208047708214" lon="120.99642774371615"><ele>9.0</ele><time>2026-04-05T05:31:52.001Z</time></trkpt><trkpt lat="14.563245432472065" lon="120.99651732076067"><ele>9.0</ele><time>2026-04-05T05:31:53.001Z</time></trkpt><trkpt lat="14.56328307390518" lon="120.99660281889587"><ele>9.0</ele><time>2026-04-05T05:31:54.001Z</time></trkpt><trkpt lat="14.56332880399695" lon="120.99669977536652"><ele>9.0</ele><time>2026-04-05T05:31:55.001Z</time></trkpt><trkpt lat="14.563379135328638" lon="120.99679909216621"><ele>9.0</ele><time>2026-04-05T05:31:56.001Z</time></trkpt><trkpt lat="14.563417776303114" lon="120.99690423421144"><ele>8.6</ele><time>2026-04-05T05:31:57.001Z</time></trkpt><trkpt lat="14.563466528926922" lon="120.9969920929831"><ele>8.2</ele><time>2026-04-05T05:31:58.001Z</time></trkpt><trkpt lat="14.56348377693177" lon="120.99708680112724"><ele>7.799999999999999</ele><time>2026-04-05T05:31:59.001Z</time></trkpt><trkpt lat="14.563533806535585" lon="120.9971832123046"><ele>7.3999999999999995</ele><time>2026-04-05T05:32:00.001Z</time></trkpt><trkpt lat="14.563578221030937" lon="120.9972661746396"><ele>7.0</ele><time>2026-04-05T05:32:01.001Z</time></trkpt><trkpt lat="14.563600410569528" lon="120.99734143930178"><ele>7.000000000000001</ele><time>2026-04-05T05:32:02.001Z</time></trkpt><trkpt lat="14.563618845533131" lon="120.99743235607134"><ele>7.0</ele><time>2026-04-05T05:32:04.001Z</time></trkpt><trkpt lat="14.563652970975946" lon="120.99748790060242"><ele>7.0</ele><time>2026-04-05T05:32:08.001Z</time></trkpt><trkpt lat="14.56369684100661" lon="120.9975685821184"><ele>7.0</ele><time>2026-04-05T05:32:35.001Z</time></trkpt><trkpt lat="14.563727988040398" lon="120.99763303933149"><ele>7.000000000000001</ele><time>2026-04-05T05:32:36.001Z</time></trkpt><trkpt lat="14.563746109871467" lon="120.99770304561186"><ele>7.0</ele><time>2026-04-05T05:32:37.001Z</time></trkpt><trkpt lat="14.56377746121855" lon="120.99779007875595"><ele>7.0</ele><time>2026-04-05T05:32:38.001Z</time></trkpt><trkpt lat="14.563824320856007" lon="120.9978714389604"><ele>6.999999999999999</ele><time>2026-04-05T05:32:39.001Z</time></trkpt><trkpt lat="14.563874095646138" lon="120.99796586742961"><ele>6.999999999999999</ele><time>2026-04-05T05:32:40.001Z</time></trkpt><trkpt lat="14.563933729554094" lon="120.9980792434445"><ele>7.0</ele><time>2026-04-05T05:32:41.001Z</time></trkpt><trkpt lat="14.563991738424747" lon="120.99819128261697"><ele>7.0</ele><time>2026-04-05T05:32:42.001Z</time></trkpt><trkpt lat="14.564032359212517" lon="120.99826973820194"><ele>7.0</ele><time>2026-04-05T05:32:43.001Z</time></trkpt><trkpt lat="14.563889358268368" lon="120.99834646340942"><ele>7.0</ele><time>2026-04-05T05:32:48.001Z</time></trkpt><trkpt lat="14.563756291254522" lon="120.99838260008431"><ele>7.0</ele><time>2026-04-05T05:32:50.001Z</time></trkpt><trkpt lat="14.563675991225784" lon="120.99840444747507"><ele>7.0</ele><time>2026-04-05T05:32:51.001Z</time></trkpt><trkpt lat="14.563589165353221" lon="120.99842807037109"><ele>7.0</ele><time>2026-04-05T05:32:52.001Z</time></trkpt><trkpt lat="14.563500427892128" lon="120.99846333801898"><ele>6.999999999999999</ele><time>2026-04-05T05:32:53.001Z</time></trkpt><trkpt lat="14.563404603480405" lon="120.99848524854718"><ele>6.999999999999999</ele><time>2026-04-05T05:32:54.001Z</time></trkpt><trkpt lat="14.563304046647586" lon="120.9985110330127"><ele>7.0</ele><time>2026-04-05T05:32:55.001Z</time></trkpt><trkpt lat="14.563202216664369" lon="120.99852972312846"><ele>7.0</ele><time>2026-04-05T05:32:56.001Z</time></trkpt><trkpt lat="14.563093220776805" lon="120.99855269703129"><ele>7.0</ele><time>2026-04-05T05:32:57.001Z</time></trkpt><trkpt lat="14.562986066109634" lon="120.998596724264"><ele>7.0</ele><time>2026-04-05T05:32:58.001Z</time></trkpt><trkpt lat="14.562879642489369" lon="120.9986430111491"><ele>7.0</ele><time>2026-04-05T05:32:59.001Z</time></trkpt><trkpt lat="14.562770907898452" lon="120.99867612903618"><ele>7.0</ele><time>2026-04-05T05:33:00.001Z</time></trkpt><trkpt lat="14.562664253861087" lon="120.99871786367746"><ele>7.3999999999999995</ele><time>2026-04-05T05:33:01.001Z</time></trkpt><trkpt lat="14.562559977082023" lon="120.99875577419225"><ele>7.799999999999999</ele><time>2026-04-05T05:33:02.001Z</time></trkpt><trkpt lat="14.562469905120354" lon="120.99878241293835"><ele>8.2</ele><time>2026-04-05T05:33:03.001Z</time></trkpt><trkpt lat="14.56238998557478" lon="120.99881667225652"><ele>8.6</ele><time>2026-04-05T05:33:04.001Z</time></trkpt><trkpt lat="14.562314769641915" lon="120.99884622022117"><ele>9.0</ele><time>2026-04-05T05:33:05.001Z</time></trkpt><trkpt lat="14.562235412893019" lon="120.99888606346995"><ele>9.0</ele><time>2026-04-05T05:33:06.001Z</time></trkpt><trkpt lat="14.56215180526439" lon="120.99893064678129"><ele>9.0</ele><time>2026-04-05T05:33:07.001Z</time></trkpt><trkpt lat="14.562087908581812" lon="120.99892576520291"><ele>9.0</ele><time>2026-04-05T05:33:08.001Z</time></trkpt><trkpt lat="14.562034829582181" lon="120.99896651378862"><ele>9.0</ele><time>2026-04-05T05:33:10.001Z</time></trkpt><trkpt lat="14.562013734278613" lon="120.9990376235573"><ele>9.0</ele><time>2026-04-05T05:33:12.001Z</time></trkpt><trkpt lat="14.562048551073948" lon="120.99911743372351"><ele>9.0</ele><time>2026-04-05T05:33:14.001Z</time></trkpt><trkpt lat="14.56215340280658" lon="120.99920904478326"><ele>8.8</ele><time>2026-04-05T05:33:16.001Z</time></trkpt><trkpt lat="14.562218899076683" lon="120.99927052569161"><ele>8.600000000000001</ele><time>2026-04-05T05:33:17.001Z</time></trkpt><trkpt lat="14.562284730459819" lon="120.99933306200285"><ele>8.4</ele><time>2026-04-05T05:33:18.001Z</time></trkpt><trkpt lat="14.562349657465806" lon="120.99939555764983"><ele>8.200000000000001</ele><time>2026-04-05T05:33:19.001Z</time></trkpt><trkpt lat="14.56241289309846" lon="120.99946002933312"><ele>8.0</ele><time>2026-04-05T05:33:20.001Z</time></trkpt><trkpt lat="14.562478541291167" lon="120.99952986742304"><ele>8.0</ele><time>2026-04-05T05:33:21.001Z</time></trkpt><trkpt lat="14.562547859602992" lon="120.99960610230231"><ele>8.0</ele><time>2026-04-05T05:33:22.001Z</time></trkpt><trkpt lat="14.562617739218881" lon="120.99969144773503"><ele>8.0</ele><time>2026-04-05T05:33:23.001Z</time></trkpt><trkpt lat="14.5626852389619" lon="120.99978907505312"><ele>8.0</ele><time>2026-04-05T05:33:24.001Z</time></trkpt><trkpt lat="14.562760649330974" lon="120.99987069548307"><ele>8.0</ele><time>2026-04-05T05:33:25.001Z</time></trkpt><trkpt lat="14.562852779138392" lon="120.99994419647167"><ele>7.75</ele><time>2026-04-05T05:33:26.001Z</time></trkpt><trkpt lat="14.56294705683259" lon="121.00001886082796"><ele>7.5</ele><time>2026-04-05T05:33:27.001Z</time></trkpt><trkpt lat="14.563048182500715" lon="121.00010655837113"><ele>7.25</ele><time>2026-04-05T05:33:28.001Z</time></trkpt><trkpt lat="14.563135618965525" lon="121.00019441443193"><ele>7.0</ele><time>2026-04-05T05:33:29.001Z</time></trkpt><trkpt lat="14.563233493713456" lon="121.00028997109365"><ele>7.0</ele><time>2026-04-05T05:33:30.001Z</time></trkpt><trkpt lat="14.563312688548855" lon="121.00037698749414"><ele>6.999999999999999</ele><time>2026-04-05T05:33:31.001Z</time></trkpt><trkpt lat="14.5633883921026" lon="121.00045381990095"><ele>6.999999999999999</ele><time>2026-04-05T05:33:32.001Z</time></trkpt><trkpt lat="14.563465574741631" lon="121.0005379443139"><ele>7.0</ele><time>2026-04-05T05:33:33.001Z</time></trkpt><trkpt lat="14.56353499162329" lon="121.00061299525696"><ele>7.0</ele><time>2026-04-05T05:33:34.001Z</time></trkpt><trkpt lat="14.563619738288047" lon="121.00069958259036"><ele>7.25</ele><time>2026-04-05T05:33:35.001Z</time></trkpt><trkpt lat="14.56370808871647" lon="121.00079058382748"><ele>7.5</ele><time>2026-04-05T05:33:36.001Z</time></trkpt><trkpt lat="14.563802853287788" lon="121.00087721158236"><ele>7.75</ele><time>2026-04-05T05:33:37.001Z</time></trkpt><trkpt lat="14.563883193030597" lon="121.00096172374637"><ele>8.0</ele><time>2026-04-05T05:33:38.001Z</time></trkpt><trkpt lat="14.563970319615656" lon="121.00104343349992"><ele>8.0</ele><time>2026-04-05T05:33:39.001Z</time></trkpt><trkpt lat="14.564064484041415" lon="121.00112961446563"><ele>8.0</ele><time>2026-04-05T05:33:40.001Z</time></trkpt><trkpt lat="14.564148847389347" lon="121.00121861657048"><ele>8.0</ele><time>2026-04-05T05:33:41.001Z</time></trkpt><trkpt lat="14.564248346435791" lon="121.00131001966392"><ele>8.0</ele><time>2026-04-05T05:33:42.001Z</time></trkpt><trkpt lat="14.564333874373933" lon="121.0013931361242"><ele>8.0</ele><time>2026-04-05T05:33:43.001Z</time></trkpt><trkpt lat="14.564428755326015" lon="121.0014876419068"><ele>8.0</ele><time>2026-04-05T05:33:44.001Z</time></trkpt><trkpt lat="14.56451102389978" lon="121.00157412558275"><ele>8.0</ele><time>2026-04-05T05:33:45.001Z</time></trkpt><trkpt lat="14.564598211345793" lon="121.00166189421293"><ele>8.0</ele><time>2026-04-05T05:33:46.001Z</time></trkpt><trkpt lat="14.564684343439957" lon="121.00175201688069"><ele>7.6000000000000005</ele><time>2026-04-05T05:33:47.001Z</time></trkpt><trkpt lat="14.56475803288563" lon="121.00182142945536"><ele>7.200000000000001</ele><time>2026-04-05T05:33:48.001Z</time></trkpt><trkpt lat="14.564835619906951" lon="121.0018961702741"><ele>6.8</ele><time>2026-04-05T05:33:49.001Z</time></trkpt><trkpt lat="14.564912405032263" lon="121.00197627753819"><ele>6.4</ele><time>2026-04-05T05:33:50.001Z</time></trkpt><trkpt lat="14.564995456580393" lon="121.00205862001587"><ele>6.0</ele><time>2026-04-05T05:33:51.001Z</time></trkpt><trkpt lat="14.565066722664218" lon="121.0021390235821"><ele>6.0</ele><time>2026-04-05T05:33:52.001Z</time></trkpt><trkpt lat="14.565138825074575" lon="121.00222454315461"><ele>6.0</ele><time>2026-04-05T05:33:53.001Z</time></trkpt><trkpt lat="14.565214067028798" lon="121.0023073942217"><ele>6.0</ele><time>2026-04-05T05:33:54.001Z</time></trkpt><trkpt lat="14.565296788455305" lon="121.00238435568916"><ele>6.0</ele><time>2026-04-05T05:33:55.001Z</time></trkpt><trkpt lat="14.565365624696508" lon="121.00247079222329"><ele>6.0</ele><time>2026-04-05T05:33:56.001Z</time></trkpt><trkpt lat="14.565437496723433" lon="121.0025541098987"><ele>6.333333333333333</ele><time>2026-04-05T05:33:57.001Z</time></trkpt><trkpt lat="14.565508440451742" lon="121.00262883297911"><ele>6.666666666666666</ele><time>2026-04-05T05:33:58.001Z</time></trkpt><trkpt lat="14.565573939836957" lon="121.00268412837333"><ele>7.0</ele><time>2026-04-05T05:33:59.001Z</time></trkpt><trkpt lat="14.56563540921423" lon="121.00274047085499"><ele>7.333333333333333</ele><time>2026-04-05T05:34:00.001Z</time></trkpt><trkpt lat="14.565690253364501" lon="121.0027907406892"><ele>7.666666666666666</ele><time>2026-04-05T05:34:01.001Z</time></trkpt><trkpt lat="14.565744571695651" lon="121.00284052855739"><ele>8.0</ele><time>2026-04-05T05:34:02.001Z</time></trkpt><trkpt lat="14.565792850781325" lon="121.00288478090133"><ele>8.0</ele><time>2026-04-05T05:34:03.001Z</time></trkpt><trkpt lat="14.565777504158778" lon="121.00297281740355"><ele>8.0</ele><time>2026-04-05T05:34:04.001Z</time></trkpt><trkpt lat="14.565750196145572" lon="121.00309486123638"><ele>8.0</ele><time>2026-04-05T05:34:06.001Z</time></trkpt><trkpt lat="14.565654283701617" lon="121.00319188147036"><ele>8.0</ele><time>2026-04-05T05:34:08.001Z</time></trkpt><trkpt lat="14.565586622521424" lon="121.00325331643131"><ele>8.0</ele><time>2026-04-05T05:34:09.001Z</time></trkpt><trkpt lat="14.565510368741368" lon="121.00330514373972"><ele>7.6000000000000005</ele><time>2026-04-05T05:34:10.001Z</time></trkpt><trkpt lat="14.565433457231256" lon="121.00335317185983"><ele>7.200000000000001</ele><time>2026-04-05T05:34:11.001Z</time></trkpt><trkpt lat="14.565358916320308" lon="121.00340990218777"><ele>6.8</ele><time>2026-04-05T05:34:12.001Z</time></trkpt><trkpt lat="14.565267388217265" lon="121.00346320963347"><ele>6.4</ele><time>2026-04-05T05:34:13.001Z</time></trkpt><trkpt lat="14.565183473333489" lon="121.00353712097522"><ele>6.0</ele><time>2026-04-05T05:34:14.001Z</time></trkpt><trkpt lat="14.565084448956574" lon="121.00360281389048"><ele>6.0</ele><time>2026-04-05T05:34:15.001Z</time></trkpt><trkpt lat="14.564993157150855" lon="121.00366806819926"><ele>6.0</ele><time>2026-04-05T05:34:16.001Z</time></trkpt><trkpt lat="14.564872939580486" lon="121.00372976694531"><ele>6.0</ele><time>2026-04-05T05:34:17.001Z</time></trkpt><trkpt lat="14.564720124555535" lon="121.0037616182038"><ele>6.0</ele><time>2026-04-05T05:34:18.001Z</time></trkpt><trkpt lat="14.564587509962195" lon="121.00383390286142"><ele>6.0</ele><time>2026-04-05T05:34:19.001Z</time></trkpt><trkpt lat="14.564482027430847" lon="121.00392648431594"><ele>6.0</ele><time>2026-04-05T05:34:20.001Z</time></trkpt><trkpt lat="14.564335382228293" lon="121.00402079274505"><ele>6.0</ele><time>2026-04-05T05:34:21.001Z</time></trkpt><trkpt lat="14.564185708879855" lon="121.00409353031986"><ele>6.0</ele><time>2026-04-05T05:34:22.001Z</time></trkpt><trkpt lat="14.564020824926597" lon="121.00417439419837"><ele>6.0</ele><time>2026-04-05T05:34:23.001Z</time></trkpt><trkpt lat="14.56385554562151" lon="121.00421474310549"><ele>6.0</ele><time>2026-04-05T05:34:24.001Z</time></trkpt><trkpt lat="14.563687333577308" lon="121.0042978456547"><ele>6.333333333333334</ele><time>2026-04-05T05:34:25.001Z</time></trkpt><trkpt lat="14.563528480777249" lon="121.00437632442454"><ele>6.666666666666667</ele><time>2026-04-05T05:34:26.001Z</time></trkpt><trkpt lat="14.563372770319877" lon="121.00445325076309"><ele>7.0</ele><time>2026-04-05T05:34:27.001Z</time></trkpt><trkpt lat="14.563219921989893" lon="121.00452521651984"><ele>7.0</ele><time>2026-04-05T05:34:28.001Z</time></trkpt><trkpt lat="14.563058673376506" lon="121.0045989089868"><ele>7.0</ele><time>2026-04-05T05:34:29.001Z</time></trkpt><trkpt lat="14.562895362626898" lon="121.00467334908107"><ele>7.0</ele><time>2026-04-05T05:34:30.001Z</time></trkpt><trkpt lat="14.562720868286833" lon="121.00475288686197"><ele>6.333333333333334</ele><time>2026-04-05T05:34:31.001Z</time></trkpt><trkpt lat="14.562536760126592" lon="121.00484965701618"><ele>5.666666666666667</ele><time>2026-04-05T05:34:32.001Z</time></trkpt><trkpt lat="14.562371951432095" lon="121.00493682712326"><ele>5.0</ele><time>2026-04-05T05:34:33.001Z</time></trkpt><trkpt lat="14.562190846957465" lon="121.00503236647063"><ele>5.333333333333334</ele><time>2026-04-05T05:34:34.001Z</time></trkpt><trkpt lat="14.562009949089711" lon="121.00513053291374"><ele>5.666666666666667</ele><time>2026-04-05T05:34:35.001Z</time></trkpt><trkpt lat="14.561834783035895" lon="121.00522558892462"><ele>6.0</ele><time>2026-04-05T05:34:36.001Z</time></trkpt><trkpt lat="14.561660390996447" lon="121.00531993169395"><ele>6.0</ele><time>2026-04-05T05:34:37.001Z</time></trkpt><trkpt lat="14.56148589485166" lon="121.00541433513081"><ele>6.0</ele><time>2026-04-05T05:34:38.001Z</time></trkpt><trkpt lat="14.561309997400473" lon="121.00551005637082"><ele>6.0</ele><time>2026-04-05T05:34:39.001Z</time></trkpt><trkpt lat="14.56112707217791" lon="121.00561020957028"><ele>6.333333333333334</ele><time>2026-04-05T05:34:40.001Z</time></trkpt><trkpt lat="14.560951018816445" lon="121.0057059612631"><ele>6.666666666666667</ele><time>2026-04-05T05:34:41.001Z</time></trkpt><trkpt lat="14.560769268455285" lon="121.00580338159212"><ele>7.0</ele><time>2026-04-05T05:34:42.001Z</time></trkpt><trkpt lat="14.560583825135112" lon="121.00590278137696"><ele>6.666666666666667</ele><time>2026-04-05T05:34:43.001Z</time></trkpt><trkpt lat="14.560396436861579" lon="121.00600620712099"><ele>6.333333333333334</ele><time>2026-04-05T05:34:44.001Z</time></trkpt><trkpt lat="14.560221225312265" lon="121.00612270095256"><ele>6.0</ele><time>2026-04-05T05:34:45.001Z</time></trkpt><trkpt lat="14.560032908884615" lon="121.00622129058115"><ele>6.0</ele><time>2026-04-05T05:34:46.001Z</time></trkpt><trkpt lat="14.559848860944431" lon="121.00631786427772"><ele>6.0</ele><time>2026-04-05T05:34:47.001Z</time></trkpt><trkpt lat="14.559670201611036" lon="121.0064165918521"><ele>6.0</ele><time>2026-04-05T05:34:48.001Z</time></trkpt><trkpt lat="14.559488804567017" lon="121.00652065651023"><ele>6.333333333333334</ele><time>2026-04-05T05:34:49.001Z</time></trkpt><trkpt lat="14.559301122142953" lon="121.0066201445808"><ele>6.666666666666667</ele><time>2026-04-05T05:34:50.001Z</time></trkpt><trkpt lat="14.559111712857456" lon="121.00672695967098"><ele>7.0</ele><time>2026-04-05T05:34:51.001Z</time></trkpt><trkpt lat="14.5589260570929" lon="121.0068317566726"><ele>7.0</ele><time>2026-04-05T05:34:52.001Z</time></trkpt><trkpt lat="14.55874128860141" lon="121.0069253487606"><ele>7.0</ele><time>2026-04-05T05:34:53.001Z</time></trkpt><trkpt lat="14.558556798172805" lon="121.0070309573915"><ele>7.0</ele><time>2026-04-05T05:34:54.001Z</time></trkpt><trkpt lat="14.558374126816227" lon="121.00711930694965"><ele>7.333333333333334</ele><time>2026-04-05T05:34:55.001Z</time></trkpt><trkpt lat="14.55819689647504" lon="121.0072105071489"><ele>7.666666666666666</ele><time>2026-04-05T05:34:56.001Z</time></trkpt><trkpt lat="14.558015236231347" lon="121.00731267900862"><ele>8.0</ele><time>2026-04-05T05:34:57.001Z</time></trkpt><trkpt lat="14.557834828446289" lon="121.00740968991477"><ele>7.666666666666666</ele><time>2026-04-05T05:34:58.001Z</time></trkpt><trkpt lat="14.55765622242734" lon="121.00751017083019"><ele>7.333333333333334</ele><time>2026-04-05T05:34:59.001Z</time></trkpt><trkpt lat="14.557471886853945" lon="121.0076101135664"><ele>7.0</ele><time>2026-04-05T05:35:00.001Z</time></trkpt><trkpt lat="14.557285699502653" lon="121.00769381564076"><ele>7.0</ele><time>2026-04-05T05:35:01.001Z</time></trkpt><trkpt lat="14.55709639878732" lon="121.00779600308688"><ele>7.0</ele><time>2026-04-05T05:35:02.001Z</time></trkpt><trkpt lat="14.556906148876113" lon="121.00790663140313"><ele>7.0</ele><time>2026-04-05T05:35:03.001Z</time></trkpt><trkpt lat="14.556705794047152" lon="121.00800391971568"><ele>7.0</ele><time>2026-04-05T05:35:04.001Z</time></trkpt><trkpt lat="14.556518455179564" lon="121.00811667269105"><ele>7.0</ele><time>2026-04-05T05:35:05.001Z</time></trkpt><trkpt lat="14.556329991797364" lon="121.00820984442365"><ele>7.0</ele><time>2026-04-05T05:35:06.001Z</time></trkpt><trkpt lat="14.556145487635042" lon="121.00830599031124"><ele>7.333333333333334</ele><time>2026-04-05T05:35:07.001Z</time></trkpt><trkpt lat="14.55596559183897" lon="121.00841250942844"><ele>7.666666666666666</ele><time>2026-04-05T05:35:08.001Z</time></trkpt><trkpt lat="14.555788322083924" lon="121.00851095296483"><ele>8.0</ele><time>2026-04-05T05:35:09.001Z</time></trkpt><trkpt lat="14.555605437643981" lon="121.00860647225628"><ele>8.0</ele><time>2026-04-05T05:35:10.001Z</time></trkpt><trkpt lat="14.555425189219385" lon="121.00869304069265"><ele>8.0</ele><time>2026-04-05T05:35:11.001Z</time></trkpt><trkpt lat="14.555248707445726" lon="121.00878477614428"><ele>8.0</ele><time>2026-04-05T05:35:12.001Z</time></trkpt><trkpt lat="14.555078200319254" lon="121.00889025382406"><ele>7.0</ele><time>2026-04-05T05:35:13.001Z</time></trkpt><trkpt lat="14.554906032798806" lon="121.00897519050098"><ele>6.0</ele><time>2026-04-05T05:35:14.001Z</time></trkpt><trkpt lat="14.554729575199614" lon="121.00906488450553"><ele>5.0</ele><time>2026-04-05T05:35:15.001Z</time></trkpt><trkpt lat="14.554568223309671" lon="121.00915202664736"><ele>5.666666666666667</ele><time>2026-04-05T05:35:16.001Z</time></trkpt><trkpt lat="14.554404656007732" lon="121.00924041214446"><ele>6.333333333333334</ele><time>2026-04-05T05:35:17.001Z</time></trkpt><trkpt lat="14.554244329143263" lon="121.00933041541902"><ele>7.0</ele><time>2026-04-05T05:35:18.001Z</time></trkpt><trkpt lat="14.554088416504744" lon="121.00941303902444"><ele>7.0</ele><time>2026-04-05T05:35:19.001Z</time></trkpt><trkpt lat="14.553944553227257" lon="121.00949222858428"><ele>7.0</ele><time>2026-04-05T05:35:20.001Z</time></trkpt><trkpt lat="14.553805938815618" lon="121.0095712462088"><ele>7.0</ele><time>2026-04-05T05:35:21.001Z</time></trkpt><trkpt lat="14.553664524544141" lon="121.00965641551855"><ele>7.0</ele><time>2026-04-05T05:35:22.001Z</time></trkpt><trkpt lat="14.553526368334094" lon="121.00973291457088"><ele>7.0</ele><time>2026-04-05T05:35:23.001Z</time></trkpt><trkpt lat="14.553389761098284" lon="121.00981295579825"><ele>7.0</ele><time>2026-04-05T05:35:24Z</time></trkpt><trkpt lat="14.553251431714221" lon="121.00988719001127"><ele>7.0</ele><time>2026-04-05T05:35:25Z</time></trkpt><trkpt lat="14.553110961608088" lon="121.00998480925264"><ele>7.0</ele><time>2026-04-05T05:35:26Z</time></trkpt><trkpt lat="14.552986730883774" lon="121.0100328625664"><ele>7.0</ele><time>2026-04-05T05:35:27Z</time></trkpt><trkpt lat="14.552852968896948" lon="121.01010537405286"><ele>7.0</ele><time>2026-04-05T05:35:28Z</time></trkpt><trkpt lat="14.552745211676815" lon="121.01015368511119"><ele>7.0</ele><time>2026-04-05T05:35:29Z</time></trkpt><trkpt lat="14.552609630746097" lon="121.01022287006525"><ele>7.0</ele><time>2026-04-05T05:35:30Z</time></trkpt><trkpt lat="14.552466715372685" lon="121.01029197376782"><ele>7.0</ele><time>2026-04-05T05:35:31Z</time></trkpt><trkpt lat="14.552314258083232" lon="121.01037566568846"><ele>7.0</ele><time>2026-04-05T05:35:32Z</time></trkpt><trkpt lat="14.552182305842583" lon="121.01044556103355"><ele>7.0</ele><time>2026-04-05T05:35:33Z</time></trkpt><trkpt lat="14.552058014959252" lon="121.01050773971546"><ele>7.0</ele><time>2026-04-05T05:35:34Z</time></trkpt><trkpt lat="14.551945231006266" lon="121.01057027883785"><ele>7.0</ele><time>2026-04-05T05:35:35Z</time></trkpt><trkpt lat="14.551821190527432" lon="121.01063590074669"><ele>7.25</ele><time>2026-04-05T05:35:36Z</time></trkpt><trkpt lat="14.551707073327464" lon="121.01069901528162"><ele>7.5</ele><time>2026-04-05T05:35:37Z</time></trkpt><trkpt lat="14.55159170152107" lon="121.01076990843175"><ele>7.75</ele><time>2026-04-05T05:35:38Z</time></trkpt><trkpt lat="14.551478391534014" lon="121.01082923235565"><ele>8.0</ele><time>2026-04-05T05:35:39Z</time></trkpt><trkpt lat="14.551366681389919" lon="121.01088252912139"><ele>8.25</ele><time>2026-04-05T05:35:40Z</time></trkpt><trkpt lat="14.551273656689968" lon="121.01093714589504"><ele>8.5</ele><time>2026-04-05T05:35:41Z</time></trkpt><trkpt lat="14.551162395000459" lon="121.01098775339871"><ele>8.75</ele><time>2026-04-05T05:35:42Z</time></trkpt><trkpt lat="14.551056369193384" lon="121.01105322484888"><ele>9.0</ele><time>2026-04-05T05:35:43Z</time></trkpt><trkpt lat="14.550940175661339" lon="121.01112561589133"><ele>9.0</ele><time>2026-04-05T05:35:44Z</time></trkpt><trkpt lat="14.55081155315759" lon="121.01119996913197"><ele>9.0</ele><time>2026-04-05T05:35:45Z</time></trkpt><trkpt lat="14.550673584267475" lon="121.01127621130743"><ele>9.0</ele><time>2026-04-05T05:35:46Z</time></trkpt><trkpt lat="14.550539009594603" lon="121.0113437881635"><ele>9.0</ele><time>2026-04-05T05:35:47Z</time></trkpt><trkpt lat="14.550403489459027" lon="121.01142315144227"><ele>9.0</ele><time>2026-04-05T05:35:48Z</time></trkpt><trkpt lat="14.550256401534618" lon="121.01150716882508"><ele>9.0</ele><time>2026-04-05T05:35:49Z</time></trkpt><trkpt lat="14.550101349954009" lon="121.01159031171251"><ele>9.666666666666666</ele><time>2026-04-05T05:35:50Z</time></trkpt><trkpt lat="14.549947807467689" lon="121.01166619786534"><ele>10.333333333333332</ele><time>2026-04-05T05:35:51Z</time></trkpt><trkpt lat="14.54979381360625" lon="121.01175813886204"><ele>11.0</ele><time>2026-04-05T05:35:52Z</time></trkpt><trkpt lat="14.54962586816517" lon="121.01184465766733"><ele>10.666666666666666</ele><time>2026-04-05T05:35:53Z</time></trkpt><trkpt lat="14.549449455919637" lon="121.0119093346998"><ele>10.333333333333334</ele><time>2026-04-05T05:35:54Z</time></trkpt><trkpt lat="14.549268792459786" lon="121.01199329090709"><ele>10.0</ele><time>2026-04-05T05:35:55Z</time></trkpt><trkpt lat="14.549090958803282" lon="121.0120488703679"><ele>10.0</ele><time>2026-04-05T05:35:56Z</time></trkpt><trkpt lat="14.548910084372114" lon="121.01214819414434"><ele>10.0</ele><time>2026-04-05T05:35:57.001Z</time></trkpt><trkpt lat="14.54872361137389" lon="121.01225664789567"><ele>10.0</ele><time>2026-04-05T05:35:58.001Z</time></trkpt><trkpt lat="14.548557692261719" lon="121.01236929989408"><ele>9.333333333333334</ele><time>2026-04-05T05:35:59.001Z</time></trkpt><trkpt lat="14.548388347123522" lon="121.01247392668128"><ele>8.666666666666666</ele><time>2026-04-05T05:36:00.001Z</time></trkpt><trkpt lat="14.548240654169586" lon="121.01257681338555"><ele>8.0</ele><time>2026-04-05T05:36:01.001Z</time></trkpt><trkpt lat="14.548080554575224" lon="121.01267411775378"><ele>8.0</ele><time>2026-04-05T05:36:02.001Z</time></trkpt><trkpt lat="14.547911706277771" lon="121.01275812227037"><ele>8.0</ele><time>2026-04-05T05:36:03.001Z</time></trkpt><trkpt lat="14.547764341606975" lon="121.01284573608031"><ele>8.0</ele><time>2026-04-05T05:36:04.001Z</time></trkpt><trkpt lat="14.54761331060583" lon="121.01292408860324"><ele>8.333333333333332</ele><time>2026-04-05T05:36:05.001Z</time></trkpt><trkpt lat="14.547439051721597" lon="121.01300225860298"><ele>8.666666666666666</ele><time>2026-04-05T05:36:06.001Z</time></trkpt><trkpt lat="14.547270538186272" lon="121.01307935607983"><ele>9.0</ele><time>2026-04-05T05:36:07.001Z</time></trkpt><trkpt lat="14.547112018498066" lon="121.01316392822635"><ele>10.0</ele><time>2026-04-05T05:36:08.001Z</time></trkpt><trkpt lat="14.546956169637" lon="121.01324352789685"><ele>11.0</ele><time>2026-04-05T05:36:09.001Z</time></trkpt><trkpt lat="14.546813126436207" lon="121.01331781823"><ele>12.0</ele><time>2026-04-05T05:36:10.001Z</time></trkpt><trkpt lat="14.546672947784915" lon="121.01339256525378"><ele>12.25</ele><time>2026-04-05T05:36:11.001Z</time></trkpt><trkpt lat="14.54655674438974" lon="121.0134421684678"><ele>12.5</ele><time>2026-04-05T05:36:12.001Z</time></trkpt><trkpt lat="14.546440417080515" lon="121.0134865325608"><ele>12.75</ele><time>2026-04-05T05:36:13.001Z</time></trkpt><trkpt lat="14.54629761290442" lon="121.01354724874264"><ele>13.0</ele><time>2026-04-05T05:36:14.001Z</time></trkpt><trkpt lat="14.546187109482803" lon="121.01365182663933"><ele>12.0</ele><time>2026-04-05T05:36:15.001Z</time></trkpt><trkpt lat="14.546048412837326" lon="121.01372561323166"><ele>11.0</ele><time>2026-04-05T05:36:16.001Z</time></trkpt><trkpt lat="14.545896297280262" lon="121.0138060502431"><ele>10.0</ele><time>2026-04-05T05:36:17.001Z</time></trkpt><trkpt lat="14.545749750483875" lon="121.01389408355168"><ele>10.0</ele><time>2026-04-05T05:36:18.001Z</time></trkpt><trkpt lat="14.545610181141177" lon="121.01398250794593"><ele>10.0</ele><time>2026-04-05T05:36:19.001Z</time></trkpt><trkpt lat="14.545461241213443" lon="121.0140611487347"><ele>10.0</ele><time>2026-04-05T05:36:20.001Z</time></trkpt><trkpt lat="14.545307214232603" lon="121.0141337338911"><ele>10.666666666666668</ele><time>2026-04-05T05:36:21.001Z</time></trkpt><trkpt lat="14.545144139041382" lon="121.0141955455982"><ele>11.333333333333334</ele><time>2026-04-05T05:36:22.001Z</time></trkpt><trkpt lat="14.544962518176904" lon="121.01431154860498"><ele>12.0</ele><time>2026-04-05T05:36:23.001Z</time></trkpt><trkpt lat="14.544802218209528" lon="121.01440370942834"><ele>12.0</ele><time>2026-04-05T05:36:24.001Z</time></trkpt><trkpt lat="14.544643072162549" lon="121.01449265041606"><ele>12.0</ele><time>2026-04-05T05:36:25.001Z</time></trkpt><trkpt lat="14.544477150463488" lon="121.01459595080176"><ele>12.0</ele><time>2026-04-05T05:36:26.001Z</time></trkpt><trkpt lat="14.544305275255255" lon="121.01469286859239"><ele>12.0</ele><time>2026-04-05T05:36:27.001Z</time></trkpt><trkpt lat="14.544130966186035" lon="121.0147912231894"><ele>12.0</ele><time>2026-04-05T05:36:28.001Z</time></trkpt><trkpt lat="14.543953265416263" lon="121.01489112207585"><ele>12.0</ele><time>2026-04-05T05:36:29.001Z</time></trkpt><trkpt lat="14.543771548108817" lon="121.01499675503764"><ele>12.0</ele><time>2026-04-05T05:36:30.001Z</time></trkpt><trkpt lat="14.543595344016529" lon="121.01508768963443"><ele>12.0</ele><time>2026-04-05T05:36:31.001Z</time></trkpt><trkpt lat="14.54340843550108" lon="121.01517161513296"><ele>12.0</ele><time>2026-04-05T05:36:32.001Z</time></trkpt><trkpt lat="14.543219920623395" lon="121.01528006348121"><ele>12.0</ele><time>2026-04-05T05:36:33.001Z</time></trkpt><trkpt lat="14.54303311205147" lon="121.01537654240008"><ele>12.0</ele><time>2026-04-05T05:36:34.001Z</time></trkpt><trkpt lat="14.542860496347355" lon="121.0154610749085"><ele>12.0</ele><time>2026-04-05T05:36:35.001Z</time></trkpt><trkpt lat="14.542697841434215" lon="121.01553949017507"><ele>13.666666666666668</ele><time>2026-04-05T05:36:36.001Z</time></trkpt><trkpt lat="14.542540656430928" lon="121.01561924274678"><ele>15.333333333333334</ele><time>2026-04-05T05:36:37.001Z</time></trkpt><trkpt lat="14.542386481069427" lon="121.01569598094947"><ele>17.0</ele><time>2026-04-05T05:36:38.001Z</time></trkpt><trkpt lat="14.542234088802212" lon="121.01577811963068"><ele>15.0</ele><time>2026-04-05T05:36:39.001Z</time></trkpt><trkpt lat="14.54209030752688" lon="121.01585321794435"><ele>13.0</ele><time>2026-04-05T05:36:40.001Z</time></trkpt><trkpt lat="14.541948806137023" lon="121.01591667588201"><ele>11.0</ele><time>2026-04-05T05:36:41.001Z</time></trkpt><trkpt lat="14.541805002581343" lon="121.01597601522562"><ele>11.0</ele><time>2026-04-05T05:36:42.001Z</time></trkpt><trkpt lat="14.541664736900492" lon="121.016010838549"><ele>11.0</ele><time>2026-04-05T05:36:43.001Z</time></trkpt><trkpt lat="14.541514056885772" lon="121.0160631518105"><ele>11.0</ele><time>2026-04-05T05:36:44.001Z</time></trkpt><trkpt lat="14.541371844195774" lon="121.01612872358064"><ele>11.0</ele><time>2026-04-05T05:36:45.001Z</time></trkpt><trkpt lat="14.541229550419686" lon="121.01617474014853"><ele>11.0</ele><time>2026-04-05T05:36:46.001Z</time></trkpt><trkpt lat="14.541075460694586" lon="121.01622471726684"><ele>11.0</ele><time>2026-04-05T05:36:47.001Z</time></trkpt><trkpt lat="14.540949492091439" lon="121.01626814069945"><ele>11.0</ele><time>2026-04-05T05:36:48.001Z</time></trkpt><trkpt lat="14.540817745449429" lon="121.01631376599495"><ele>11.25</ele><time>2026-04-05T05:36:49.001Z</time></trkpt><trkpt lat="14.54070144659182" lon="121.016360134689"><ele>11.5</ele><time>2026-04-05T05:36:50.001Z</time></trkpt><trkpt lat="14.540587058593099" lon="121.01640842935275"><ele>11.75</ele><time>2026-04-05T05:36:51.001Z</time></trkpt><trkpt lat="14.540476171747416" lon="121.01645792223637"><ele>12.0</ele><time>2026-04-05T05:36:52.001Z</time></trkpt><trkpt lat="14.540388056333349" lon="121.01650718101028"><ele>12.0</ele><time>2026-04-05T05:36:53.001Z</time></trkpt><trkpt lat="14.54028953819417" lon="121.01656309555206"><ele>12.0</ele><time>2026-04-05T05:36:54.001Z</time></trkpt><trkpt lat="14.540200296665141" lon="121.01662064678251"><ele>12.0</ele><time>2026-04-05T05:36:55.001Z</time></trkpt><trkpt lat="14.54011503942786" lon="121.01667254606781"><ele>12.0</ele><time>2026-04-05T05:36:56.001Z</time></trkpt><trkpt lat="14.540021885487802" lon="121.01672097686115"><ele>12.0</ele><time>2026-04-05T05:36:57.001Z</time></trkpt><trkpt lat="14.539937149725723" lon="121.01678026327272"><ele>11.8</ele><time>2026-04-05T05:36:58.001Z</time></trkpt><trkpt lat="14.539857749818117" lon="121.01684267763709"><ele>11.6</ele><time>2026-04-05T05:36:59.001Z</time></trkpt><trkpt lat="14.539780315008818" lon="121.01690476467802"><ele>11.4</ele><time>2026-04-05T05:37:00.001Z</time></trkpt><trkpt lat="14.539703513595446" lon="121.01696858111737"><ele>11.200000000000001</ele><time>2026-04-05T05:37:01.001Z</time></trkpt><trkpt lat="14.539621816005296" lon="121.01703563534667"><ele>11.0</ele><time>2026-04-05T05:37:02.001Z</time></trkpt><trkpt lat="14.53954195765166" lon="121.01710023535274"><ele>11.4</ele><time>2026-04-05T05:37:03.001Z</time></trkpt><trkpt lat="14.539457767825828" lon="121.01717236506714"><ele>11.8</ele><time>2026-04-05T05:37:04.001Z</time></trkpt><trkpt lat="14.539374958034182" lon="121.01723322790532"><ele>12.200000000000001</ele><time>2026-04-05T05:37:05.001Z</time></trkpt><trkpt lat="14.539285419794759" lon="121.01730912585175"><ele>12.600000000000001</ele><time>2026-04-05T05:37:06.001Z</time></trkpt><trkpt lat="14.539202951826985" lon="121.01737480786774"><ele>13.0</ele><time>2026-04-05T05:37:07.001Z</time></trkpt><trkpt lat="14.539123962242206" lon="121.0174414172538"><ele>12.25</ele><time>2026-04-05T05:37:08.001Z</time></trkpt><trkpt lat="14.539029766552176" lon="121.01749224830088"><ele>11.5</ele><time>2026-04-05T05:37:09.001Z</time></trkpt><trkpt lat="14.53894026893723" lon="121.01757444886374"><ele>10.75</ele><time>2026-04-05T05:37:10.001Z</time></trkpt><trkpt lat="14.538837042216711" lon="121.01763692866942"><ele>10.0</ele><time>2026-04-05T05:37:11.001Z</time></trkpt><trkpt lat="14.538727053208438" lon="121.01770430861286"><ele>10.25</ele><time>2026-04-05T05:37:12.001Z</time></trkpt><trkpt lat="14.53861226918081" lon="121.01776817841068"><ele>10.5</ele><time>2026-04-05T05:37:13.001Z</time></trkpt><trkpt lat="14.538491420691019" lon="121.01783450300377"><ele>10.75</ele><time>2026-04-05T05:37:14.001Z</time></trkpt><trkpt lat="14.538377207047796" lon="121.01789671153836"><ele>11.0</ele><time>2026-04-05T05:37:15.001Z</time></trkpt><trkpt lat="14.538267086875592" lon="121.01795458318867"><ele>11.0</ele><time>2026-04-05T05:37:16.001Z</time></trkpt><trkpt lat="14.538164821845992" lon="121.018007693564"><ele>11.0</ele><time>2026-04-05T05:37:17.001Z</time></trkpt><trkpt lat="14.53805430388871" lon="121.018068383123"><ele>11.0</ele><time>2026-04-05T05:37:18.001Z</time></trkpt><trkpt lat="14.537947877340619" lon="121.01812054279499"><ele>11.0</ele><time>2026-04-05T05:37:19.001Z</time></trkpt><trkpt lat="14.537831143686374" lon="121.01817532092119"><ele>11.0</ele><time>2026-04-05T05:37:20.001Z</time></trkpt><trkpt lat="14.537711580931866" lon="121.01823641029947"><ele>11.0</ele><time>2026-04-05T05:37:21.001Z</time></trkpt><trkpt lat="14.537585418853137" lon="121.01829562280594"><ele>11.0</ele><time>2026-04-05T05:37:22.001Z</time></trkpt><trkpt lat="14.537455508712432" lon="121.01837076124245"><ele>11.0</ele><time>2026-04-05T05:37:23.001Z</time></trkpt><trkpt lat="14.53732673761514" lon="121.01844265854658"><ele>11.0</ele><time>2026-04-05T05:37:24.001Z</time></trkpt><trkpt lat="14.53719193659157" lon="121.01852330535405"><ele>11.0</ele><time>2026-04-05T05:37:25.001Z</time></trkpt><trkpt lat="14.5370560363098" lon="121.01860580117632"><ele>11.0</ele><time>2026-04-05T05:37:26.001Z</time></trkpt><trkpt lat="14.536915108512519" lon="121.01869532629523"><ele>11.0</ele><time>2026-04-05T05:37:27.001Z</time></trkpt><trkpt lat="14.536757240287457" lon="121.01876722701864"><ele>11.0</ele><time>2026-04-05T05:37:28.001Z</time></trkpt><trkpt lat="14.536605827562415" lon="121.01884923372795"><ele>11.0</ele><time>2026-04-05T05:37:29.001Z</time></trkpt><trkpt lat="14.53644898119176" lon="121.0189341833553"><ele>11.0</ele><time>2026-04-05T05:37:30Z</time></trkpt><trkpt lat="14.536288565516486" lon="121.01902106615213"><ele>11.0</ele><time>2026-04-05T05:37:31Z</time></trkpt><trkpt lat="14.536134719896156" lon="121.01912679200268"><ele>11.0</ele><time>2026-04-05T05:37:32Z</time></trkpt><trkpt lat="14.535967792774233" lon="121.01921498020009"><ele>12.333333333333332</ele><time>2026-04-05T05:37:33Z</time></trkpt><trkpt lat="14.53579740089171" lon="121.0193040071637"><ele>13.666666666666666</ele><time>2026-04-05T05:37:34Z</time></trkpt><trkpt lat="14.535618992330452" lon="121.01939555665392"><ele>15.0</ele><time>2026-04-05T05:37:35Z</time></trkpt><trkpt lat="14.535444405758744" lon="121.01948548921261"><ele>14.333333333333332</ele><time>2026-04-05T05:37:36Z</time></trkpt><trkpt lat="14.535270756289949" lon="121.01957970230166"><ele>13.666666666666666</ele><time>2026-04-05T05:37:37Z</time></trkpt><trkpt lat="14.535094177405885" lon="121.01967983319332"><ele>13.0</ele><time>2026-04-05T05:37:38Z</time></trkpt><trkpt lat="14.534925118629145" lon="121.01977076920429"><ele>13.0</ele><time>2026-04-05T05:37:39Z</time></trkpt><trkpt lat="14.53475773720078" lon="121.01986429758529"><ele>13.0</ele><time>2026-04-05T05:37:40Z</time></trkpt><trkpt lat="14.534593365146636" lon="121.01995494464896"><ele>13.0</ele><time>2026-04-05T05:37:41Z</time></trkpt><trkpt lat="14.534420921340258" lon="121.02004364978221"><ele>14.0</ele><time>2026-04-05T05:37:42Z</time></trkpt><trkpt lat="14.534244911264434" lon="121.02013347967896"><ele>15.0</ele><time>2026-04-05T05:37:43Z</time></trkpt><trkpt lat="14.53406355399453" lon="121.02022992310859"><ele>16.0</ele><time>2026-04-05T05:37:44Z</time></trkpt><trkpt lat="14.53388071470434" lon="121.02033039086629"><ele>16.333333333333332</ele><time>2026-04-05T05:37:45Z</time></trkpt><trkpt lat="14.533695182081045" lon="121.02043545770094"><ele>16.666666666666668</ele><time>2026-04-05T05:37:46Z</time></trkpt><trkpt lat="14.533506369279415" lon="121.02054131029574"><ele>17.0</ele><time>2026-04-05T05:37:47Z</time></trkpt><trkpt lat="14.53331406079192" lon="121.02065128464751"><ele>17.0</ele><time>2026-04-05T05:37:48Z</time></trkpt><trkpt lat="14.533116412904198" lon="121.02075875957442"><ele>17.0</ele><time>2026-04-05T05:37:49Z</time></trkpt><trkpt lat="14.532919130419264" lon="121.02086324548107"><ele>17.0</ele><time>2026-04-05T05:37:50Z</time></trkpt><trkpt lat="14.53271837404155" lon="121.02096996718005"><ele>15.333333333333334</ele><time>2026-04-05T05:37:51Z</time></trkpt><trkpt lat="14.532519008183069" lon="121.02107522227142"><ele>13.666666666666668</ele><time>2026-04-05T05:37:52Z</time></trkpt><trkpt lat="14.532319183206273" lon="121.02117090544048"><ele>12.0</ele><time>2026-04-05T05:37:53Z</time></trkpt><trkpt lat="14.532114070218814" lon="121.02127356086494"><ele>10.0</ele><time>2026-04-05T05:37:54Z</time></trkpt><trkpt lat="14.531903975512504" lon="121.02139096392939"><ele>8.0</ele><time>2026-04-05T05:37:55Z</time></trkpt><trkpt lat="14.53169977988972" lon="121.02149858494772"><ele>8.0</ele><time>2026-04-05T05:37:56Z</time></trkpt><trkpt lat="14.531497148045462" lon="121.02160489074907"><ele>8.0</ele><time>2026-04-05T05:37:57Z</time></trkpt><trkpt lat="14.531293177654742" lon="121.02171244124781"><ele>8.333333333333332</ele><time>2026-04-05T05:37:58Z</time></trkpt><trkpt lat="14.531094741038341" lon="121.02182573497933"><ele>8.666666666666666</ele><time>2026-04-05T05:37:59Z</time></trkpt><trkpt lat="14.530912232695362" lon="121.02192646342726"><ele>9.0</ele><time>2026-04-05T05:38:00Z</time></trkpt><trkpt lat="14.530727672172198" lon="121.02201197748373"><ele>9.0</ele><time>2026-04-05T05:38:01.001Z</time></trkpt><trkpt lat="14.53055746815249" lon="121.02211410245232"><ele>9.0</ele><time>2026-04-05T05:38:02.001Z</time></trkpt><trkpt lat="14.53037887532288" lon="121.02222057428239"><ele>9.0</ele><time>2026-04-05T05:38:03.001Z</time></trkpt><trkpt lat="14.530197021805822" lon="121.02232398218364"><ele>8.666666666666666</ele><time>2026-04-05T05:38:04.001Z</time></trkpt><trkpt lat="14.53001986601309" lon="121.022428345458"><ele>8.333333333333332</ele><time>2026-04-05T05:38:05.001Z</time></trkpt><trkpt lat="14.529849665540011" lon="121.02251419720709"><ele>8.0</ele><time>2026-04-05T05:38:06.001Z</time></trkpt><trkpt lat="14.529679023305574" lon="121.02260663706338"><ele>8.666666666666666</ele><time>2026-04-05T05:38:07.001Z</time></trkpt><trkpt lat="14.529505745768992" lon="121.02269906952809"><ele>9.333333333333334</ele><time>2026-04-05T05:38:08.001Z</time></trkpt><trkpt lat="14.529327730523692" lon="121.02279663086523"><ele>10.0</ele><time>2026-04-05T05:38:09.001Z</time></trkpt><trkpt lat="14.529153845318497" lon="121.02288423559962"><ele>10.0</ele><time>2026-04-05T05:38:10.001Z</time></trkpt><trkpt lat="14.528987521754216" lon="121.02297142146594"><ele>10.0</ele><time>2026-04-05T05:38:11.001Z</time></trkpt><trkpt lat="14.528827639642028" lon="121.02305610969393"><ele>10.0</ele><time>2026-04-05T05:38:12.001Z</time></trkpt><trkpt lat="14.52866813787555" lon="121.02314152416733"><ele>10.0</ele><time>2026-04-05T05:38:13.001Z</time></trkpt><trkpt lat="14.528519941190988" lon="121.0232231990466"><ele>10.0</ele><time>2026-04-05T05:38:14.001Z</time></trkpt><trkpt lat="14.528371973224402" lon="121.0232964430426"><ele>10.0</ele><time>2026-04-05T05:38:15.001Z</time></trkpt><trkpt lat="14.528229774999755" lon="121.02336938780238"><ele>10.0</ele><time>2026-04-05T05:38:16.001Z</time></trkpt><trkpt lat="14.528097491327733" lon="121.02344446192626"><ele>10.0</ele><time>2026-04-05T05:38:17.001Z</time></trkpt><trkpt lat="14.5279751596753" lon="121.02350909200408"><ele>10.0</ele><time>2026-04-05T05:38:18.001Z</time></trkpt><trkpt lat="14.527843736935239" lon="121.02358413404242"><ele>10.0</ele><time>2026-04-05T05:38:19.001Z</time></trkpt><trkpt lat="14.52771049731729" lon="121.02365036424244"><ele>10.25</ele><time>2026-04-05T05:38:20.001Z</time></trkpt><trkpt lat="14.527575853943704" lon="121.02372396469828"><ele>10.5</ele><time>2026-04-05T05:38:21.001Z</time></trkpt><trkpt lat="14.527441439489083" lon="121.02378939833152"><ele>10.75</ele><time>2026-04-05T05:38:22.001Z</time></trkpt><trkpt lat="14.52731107284098" lon="121.02385694485059"><ele>11.0</ele><time>2026-04-05T05:38:23.001Z</time></trkpt><trkpt lat="14.527179909597288" lon="121.02392537471216"><ele>11.333333333333332</ele><time>2026-04-05T05:38:24.001Z</time></trkpt><trkpt lat="14.527051816611284" lon="121.02399251342739"><ele>11.666666666666666</ele><time>2026-04-05T05:38:25.001Z</time></trkpt><trkpt lat="14.526912620809217" lon="121.02407719486392"><ele>12.0</ele><time>2026-04-05T05:38:26.001Z</time></trkpt><trkpt lat="14.526776346384452" lon="121.02414860634926"><ele>12.0</ele><time>2026-04-05T05:38:27.001Z</time></trkpt><trkpt lat="14.526643528677532" lon="121.02421304576364"><ele>12.0</ele><time>2026-04-05T05:38:28.001Z</time></trkpt><trkpt lat="14.526501036705747" lon="121.02428532656846"><ele>12.0</ele><time>2026-04-05T05:38:29.001Z</time></trkpt><trkpt lat="14.526376701663914" lon="121.0243569063468"><ele>12.0</ele><time>2026-04-05T05:38:30.001Z</time></trkpt><trkpt lat="14.526246675212363" lon="121.0244261021555"><ele>10.333333333333334</ele><time>2026-04-05T05:38:31.001Z</time></trkpt><trkpt lat="14.526113595112005" lon="121.02449927137349"><ele>8.666666666666668</ele><time>2026-04-05T05:38:32.001Z</time></trkpt><trkpt lat="14.525978262464337" lon="121.02457580865018"><ele>7.0</ele><time>2026-04-05T05:38:33.001Z</time></trkpt><trkpt lat="14.525839624754731" lon="121.02465288547904"><ele>7.0</ele><time>2026-04-05T05:38:34.001Z</time></trkpt><trkpt lat="14.525696920540767" lon="121.02473034993852"><ele>7.0</ele><time>2026-04-05T05:38:35.001Z</time></trkpt><trkpt lat="14.525554776914975" lon="121.02480728173867"><ele>7.0</ele><time>2026-04-05T05:38:36.001Z</time></trkpt><trkpt lat="14.525408149014527" lon="121.02488438229733"><ele>8.333333333333334</ele><time>2026-04-05T05:38:37.001Z</time></trkpt><trkpt lat="14.525264533395285" lon="121.02496188617019"><ele>9.666666666666666</ele><time>2026-04-05T05:38:38.001Z</time></trkpt><trkpt lat="14.525111311242675" lon="121.02503981307248"><ele>11.0</ele><time>2026-04-05T05:38:39.001Z</time></trkpt><trkpt lat="14.524956552359331" lon="121.02511794574497"><ele>11.0</ele><time>2026-04-05T05:38:40.001Z</time></trkpt><trkpt lat="14.524802175103265" lon="121.02519821727877"><ele>11.0</ele><time>2026-04-05T05:38:41.001Z</time></trkpt><trkpt lat="14.52465516520482" lon="121.02527814222375"><ele>11.0</ele><time>2026-04-05T05:38:42.001Z</time></trkpt><trkpt lat="14.524506301237617" lon="121.0253584133198"><ele>12.0</ele><time>2026-04-05T05:38:43.001Z</time></trkpt><trkpt lat="14.52436774296834" lon="121.02542956814614"><ele>13.0</ele><time>2026-04-05T05:38:44.001Z</time></trkpt><trkpt lat="14.52423474473472" lon="121.0254976307419"><ele>14.0</ele><time>2026-04-05T05:38:45.001Z</time></trkpt><trkpt lat="14.524109617122727" lon="121.02555882422459"><ele>15.0</ele><time>2026-04-05T05:38:46.001Z</time></trkpt><trkpt lat="14.523985970952696" lon="121.0256154408095"><ele>15.0</ele><time>2026-04-05T05:38:47.001Z</time></trkpt><trkpt lat="14.523864214700904" lon="121.02566373406455"><ele>15.0</ele><time>2026-04-05T05:38:48.001Z</time></trkpt><trkpt lat="14.52375793761453" lon="121.02568659550133"><ele>15.0</ele><time>2026-04-05T05:38:49.001Z</time></trkpt><trkpt lat="14.523678780789993" lon="121.02573941790747"><ele>15.0</ele><time>2026-04-05T05:38:50.001Z</time></trkpt><trkpt lat="14.523586650538778" lon="121.0257444328559"><ele>15.0</ele><time>2026-04-05T05:38:51.001Z</time></trkpt><trkpt lat="14.523502345077278" lon="121.02580321815893"><ele>15.166666666666666</ele><time>2026-04-05T05:38:52.001Z</time></trkpt><trkpt lat="14.523442119315828" lon="121.02583342629305"><ele>15.333333333333332</ele><time>2026-04-05T05:38:53.001Z</time></trkpt><trkpt lat="14.523366952560112" lon="121.02585150856348"><ele>15.5</ele><time>2026-04-05T05:38:54.001Z</time></trkpt><trkpt lat="14.523300923812204" lon="121.02584613047523"><ele>15.666666666666666</ele><time>2026-04-05T05:38:55.001Z</time></trkpt><trkpt lat="14.523218297677762" lon="121.02575535788606"><ele>15.833333333333332</ele><time>2026-04-05T05:38:57.001Z</time></trkpt><trkpt lat="14.523220402049125" lon="121.02564414693838"><ele>16.0</ele><time>2026-04-05T05:38:59.001Z</time></trkpt><trkpt lat="14.523258377051848" lon="121.02558515258073"><ele>16.285714285714285</ele><time>2026-04-05T05:39:00.001Z</time></trkpt><trkpt lat="14.523298834003661" lon="121.02551082803019"><ele>16.57142857142857</ele><time>2026-04-05T05:39:01.001Z</time></trkpt><trkpt lat="14.523343122286164" lon="121.02545166625774"><ele>16.857142857142858</ele><time>2026-04-05T05:39:02.001Z</time></trkpt><trkpt lat="14.523395107497702" lon="121.02539739020052"><ele>17.142857142857142</ele><time>2026-04-05T05:39:03.001Z</time></trkpt><trkpt lat="14.523456882067649" lon="121.0253579553233"><ele>17.42857142857143</ele><time>2026-04-05T05:39:04.001Z</time></trkpt><trkpt lat="14.523507273251287" lon="121.0253042857166"><ele>17.714285714285715</ele><time>2026-04-05T05:39:05.001Z</time></trkpt><trkpt lat="14.523582248155114" lon="121.02530897455364"><ele>18.0</ele><time>2026-04-05T05:39:06.001Z</time></trkpt><trkpt lat="14.523689501752587" lon="121.02532291536848"><ele>17.25</ele><time>2026-04-05T05:39:08.001Z</time></trkpt><trkpt lat="14.523754599552069" lon="121.02535590849143"><ele>16.5</ele><time>2026-04-05T05:39:09.001Z</time></trkpt><trkpt lat="14.523865759288594" lon="121.02542148937074"><ele>15.75</ele><time>2026-04-05T05:39:11.001Z</time></trkpt><trkpt lat="14.523977490167887" lon="121.02547768148212"><ele>15.0</ele><time>2026-04-05T05:39:13.001Z</time></trkpt><trkpt lat="14.524092120739997" lon="121.0255637233513"><ele>15.0</ele><time>2026-04-05T05:39:15.001Z</time></trkpt><trkpt lat="14.524151162953132" lon="121.02561381151378"><ele>15.0</ele><time>2026-04-05T05:39:16.001Z</time></trkpt><trkpt lat="14.524243776484942" lon="121.02568698184524"><ele>15.0</ele><time>2026-04-05T05:39:18.001Z</time></trkpt><trkpt lat="14.524342295478046" lon="121.0257654492281"><ele>15.0</ele><time>2026-04-05T05:39:20.001Z</time></trkpt><trkpt lat="14.524434642880022" lon="121.02583469484344"><ele>15.0</ele><time>2026-04-05T05:39:22.001Z</time></trkpt><trkpt lat="14.524510268773412" lon="121.02590247357963"><ele>14.6</ele><time>2026-04-05T05:39:24.001Z</time></trkpt><trkpt lat="14.524588370531252" lon="121.02596627815704"><ele>14.2</ele><time>2026-04-05T05:39:26.001Z</time></trkpt><trkpt lat="14.524666397373291" lon="121.02603542653638"><ele>13.8</ele><time>2026-04-05T05:39:28.001Z</time></trkpt><trkpt lat="14.52471735553113" lon="121.026077010552"><ele>13.4</ele><time>2026-04-05T05:39:29.001Z</time></trkpt><trkpt lat="14.524806147754193" lon="121.02616738637252"><ele>13.0</ele><time>2026-04-05T05:39:31.001Z</time></trkpt><trkpt lat="14.524878541350674" lon="121.02626900309644"><ele>13.0</ele><time>2026-04-05T05:39:33.001Z</time></trkpt><trkpt lat="14.524934776051005" lon="121.02632724830775"><ele>13.0</ele><time>2026-04-05T05:39:35.001Z</time></trkpt><trkpt lat="14.524903892803103" lon="121.02647842353538"><ele>13.0</ele><time>2026-04-05T05:39:37Z</time></trkpt><trkpt lat="14.524845898954743" lon="121.02657666445788"><ele>13.0</ele><time>2026-04-05T05:39:39Z</time></trkpt><trkpt lat="14.524795153697847" lon="121.02661602180876"><ele>13.0</ele><time>2026-04-05T05:39:40Z</time></trkpt><trkpt lat="14.524728531839221" lon="121.02665629667142"><ele>12.999999999999998</ele><time>2026-04-05T05:39:41Z</time></trkpt><trkpt lat="14.524658982797156" lon="121.02666956373736"><ele>13.0</ele><time>2026-04-05T05:39:42Z</time></trkpt><trkpt lat="14.524590526707932" lon="121.02666545005691"><ele>13.0</ele><time>2026-04-05T05:39:43Z</time></trkpt><trkpt lat="14.524515854172167" lon="121.02664558025525"><ele>13.0</ele><time>2026-04-05T05:39:44Z</time></trkpt><trkpt lat="14.5244350707357" lon="121.02661272081167"><ele>12.999999999999998</ele><time>2026-04-05T05:39:45Z</time></trkpt><trkpt lat="14.524360322629233" lon="121.02657547099524"><ele>13.0</ele><time>2026-04-05T05:39:46Z</time></trkpt><trkpt lat="14.524296517882279" lon="121.02653166552308"><ele>13.8</ele><time>2026-04-05T05:39:47Z</time></trkpt><trkpt lat="14.52422509183417" lon="121.026478048294"><ele>14.600000000000001</ele><time>2026-04-05T05:39:48Z</time></trkpt><trkpt lat="14.524151900927468" lon="121.02642065841412"><ele>15.399999999999999</ele><time>2026-04-05T05:39:49Z</time></trkpt><trkpt lat="14.524097818863758" lon="121.02636902272987"><ele>16.2</ele><time>2026-04-05T05:39:50Z</time></trkpt><trkpt lat="14.523992910591806" lon="121.02633135101772"><ele>17.0</ele><time>2026-04-05T05:39:52Z</time></trkpt><trkpt lat="14.523896554447369" lon="121.02633947210076"><ele>17.0</ele><time>2026-04-05T05:39:54Z</time></trkpt><trkpt lat="14.523816882861507" lon="121.02639841252453"><ele>17.0</ele><time>2026-04-05T05:39:56Z</time></trkpt><trkpt lat="14.523699871399462" lon="121.02647886099031"><ele>17.0</ele><time>2026-04-05T05:39:58Z</time></trkpt><trkpt lat="14.523618814305243" lon="121.02652238613003"><ele>17.0</ele><time>2026-04-05T05:39:59Z</time></trkpt><trkpt lat="14.523526166970251" lon="121.02657219199757"><ele>17.0</ele><time>2026-04-05T05:40:00Z</time></trkpt><trkpt lat="14.523440996754829" lon="121.02661790194723"><ele>16.5</ele><time>2026-04-05T05:40:01Z</time></trkpt><trkpt lat="14.523334003601496" lon="121.02667506018038"><ele>16.0</ele><time>2026-04-05T05:40:02Z</time></trkpt><trkpt lat="14.523235870071478" lon="121.02672748547425"><ele>15.5</ele><time>2026-04-05T05:40:03Z</time></trkpt><trkpt lat="14.523136621448474" lon="121.02678050644217"><ele>15.0</ele><time>2026-04-05T05:40:04Z</time></trkpt><trkpt lat="14.523021679995326" lon="121.02684191861862"><ele>15.0</ele><time>2026-04-05T05:40:05Z</time></trkpt><trkpt lat="14.522910714080185" lon="121.02690123705216"><ele>15.0</ele><time>2026-04-05T05:40:06Z</time></trkpt><trkpt lat="14.52279663410953" lon="121.02696222013874"><ele>15.0</ele><time>2026-04-05T05:40:07Z</time></trkpt><trkpt lat="14.522665722158054" lon="121.02703220098721"><ele>15.0</ele><time>2026-04-05T05:40:08.001Z</time></trkpt><trkpt lat="14.522538597001656" lon="121.02710015796337"><ele>15.25</ele><time>2026-04-05T05:40:09.001Z</time></trkpt><trkpt lat="14.522417917396064" lon="121.02717207247588"><ele>15.5</ele><time>2026-04-05T05:40:10.001Z</time></trkpt><trkpt lat="14.522303478015367" lon="121.02723790174007"><ele>15.75</ele><time>2026-04-05T05:40:11.001Z</time></trkpt><trkpt lat="14.522175430008142" lon="121.0273115590681"><ele>16.0</ele><time>2026-04-05T05:40:12.001Z</time></trkpt><trkpt lat="14.522053609323935" lon="121.02738163425889"><ele>16.0</ele><time>2026-04-05T05:40:13.001Z</time></trkpt><trkpt lat="14.521924322935316" lon="121.02745650492808"><ele>16.0</ele><time>2026-04-05T05:40:14.001Z</time></trkpt><trkpt lat="14.521799872754233" lon="121.02752863162081"><ele>16.0</ele><time>2026-04-05T05:40:15.001Z</time></trkpt><trkpt lat="14.521678138121036" lon="121.02759918447396"><ele>16.0</ele><time>2026-04-05T05:40:16.001Z</time></trkpt><trkpt lat="14.521566286896897" lon="121.02766513808413"><ele>16.0</ele><time>2026-04-05T05:40:17.001Z</time></trkpt><trkpt lat="14.521436901286389" lon="121.02774194698098"><ele>16.0</ele><time>2026-04-05T05:40:18.001Z</time></trkpt><trkpt lat="14.521315824924791" lon="121.02781382354317"><ele>16.0</ele><time>2026-04-05T05:40:19.001Z</time></trkpt><trkpt lat="14.521187668974227" lon="121.02791696342136"><ele>16.0</ele><time>2026-04-05T05:40:20.001Z</time></trkpt><trkpt lat="14.521059679430316" lon="121.02802878155757"><ele>16.0</ele><time>2026-04-05T05:40:21.001Z</time></trkpt><trkpt lat="14.520917827635632" lon="121.02812963169013"><ele>16.0</ele><time>2026-04-05T05:40:22.001Z</time></trkpt><trkpt lat="14.520780610532656" lon="121.0282134751018"><ele>16.666666666666664</ele><time>2026-04-05T05:40:23.001Z</time></trkpt><trkpt lat="14.520630485705182" lon="121.028316318028"><ele>17.333333333333332</ele><time>2026-04-05T05:40:24.001Z</time></trkpt><trkpt lat="14.520476160593498" lon="121.02839817226605"><ele>18.0</ele><time>2026-04-05T05:40:25.001Z</time></trkpt><trkpt lat="14.520318633120093" lon="121.02848333929438"><ele>18.0</ele><time>2026-04-05T05:40:26.001Z</time></trkpt><trkpt lat="14.520168075379692" lon="121.02856050633144"><ele>18.0</ele><time>2026-04-05T05:40:27.001Z</time></trkpt><trkpt lat="14.52000756352997" lon="121.02864808520566"><ele>18.0</ele><time>2026-04-05T05:40:28.001Z</time></trkpt><trkpt lat="14.519859776901283" lon="121.02872919558901"><ele>18.0</ele><time>2026-04-05T05:40:29.001Z</time></trkpt><trkpt lat="14.519696894833265" lon="121.02880934075058"><ele>18.0</ele><time>2026-04-05T05:40:30.001Z</time></trkpt><trkpt lat="14.519551044573044" lon="121.02889631324257"><ele>18.0</ele><time>2026-04-05T05:40:31.001Z</time></trkpt><trkpt lat="14.51938653138075" lon="121.02898822588996"><ele>18.333333333333332</ele><time>2026-04-05T05:40:32.001Z</time></trkpt><trkpt lat="14.519229860891821" lon="121.02907448915867"><ele>18.666666666666664</ele><time>2026-04-05T05:40:33.001Z</time></trkpt><trkpt lat="14.519071093372382" lon="121.02914071809592"><ele>19.0</ele><time>2026-04-05T05:40:34.001Z</time></trkpt><trkpt lat="14.518932184749918" lon="121.02921483858418"><ele>19.0</ele><time>2026-04-05T05:40:35.001Z</time></trkpt><trkpt lat="14.518790262413066" lon="121.02929056717079"><ele>19.0</ele><time>2026-04-05T05:40:36.001Z</time></trkpt><trkpt lat="14.518653073175141" lon="121.02936498446728"><ele>19.0</ele><time>2026-04-05T05:40:37.001Z</time></trkpt><trkpt lat="14.518512712861666" lon="121.0294414230213"><ele>19.0</ele><time>2026-04-05T05:40:38.001Z</time></trkpt><trkpt lat="14.518374638282063" lon="121.02951678462401"><ele>19.0</ele><time>2026-04-05T05:40:39.001Z</time></trkpt><trkpt lat="14.518243191563906" lon="121.02958854491285"><ele>19.0</ele><time>2026-04-05T05:40:40.001Z</time></trkpt><trkpt lat="14.518122237258163" lon="121.02967119240185"><ele>19.0</ele><time>2026-04-05T05:40:41.001Z</time></trkpt><trkpt lat="14.517991331886249" lon="121.02973299144293"><ele>19.0</ele><time>2026-04-05T05:40:42.001Z</time></trkpt><trkpt lat="14.517862752765238" lon="121.02979558832028"><ele>19.0</ele><time>2026-04-05T05:40:43.001Z</time></trkpt><trkpt lat="14.517732582638361" lon="121.02986387026853"><ele>19.0</ele><time>2026-04-05T05:40:44.001Z</time></trkpt><trkpt lat="14.517609045688914" lon="121.0299255372345"><ele>19.0</ele><time>2026-04-05T05:40:45.001Z</time></trkpt><trkpt lat="14.517491638469432" lon="121.02998718601818"><ele>19.0</ele><time>2026-04-05T05:40:46.001Z</time></trkpt><trkpt lat="14.51737110976963" lon="121.03005029625564"><ele>19.0</ele><time>2026-04-05T05:40:47.001Z</time></trkpt><trkpt lat="14.517249972325526" lon="121.03011575302637"><ele>19.0</ele><time>2026-04-05T05:40:48.001Z</time></trkpt><trkpt lat="14.517129173435547" lon="121.0301848116604"><ele>20.0</ele><time>2026-04-05T05:40:49.001Z</time></trkpt><trkpt lat="14.51700224510132" lon="121.03026110689106"><ele>21.0</ele><time>2026-04-05T05:40:50.001Z</time></trkpt><trkpt lat="14.516871289064369" lon="121.03033637589778"><ele>22.0</ele><time>2026-04-05T05:40:51.001Z</time></trkpt><trkpt lat="14.516743981207016" lon="121.03040604931196"><ele>23.0</ele><time>2026-04-05T05:40:52.001Z</time></trkpt><trkpt lat="14.516619834625672" lon="121.03046732763926"><ele>23.0</ele><time>2026-04-05T05:40:53.001Z</time></trkpt><trkpt lat="14.516501421301589" lon="121.03052505655303"><ele>23.0</ele><time>2026-04-05T05:40:54.001Z</time></trkpt><trkpt lat="14.516381351433061" lon="121.03058687478432"><ele>23.0</ele><time>2026-04-05T05:40:55.001Z</time></trkpt><trkpt lat="14.516255449930474" lon="121.03065205717171"><ele>23.0</ele><time>2026-04-05T05:40:56.001Z</time></trkpt><trkpt lat="14.516132657893344" lon="121.03071905399808"><ele>22.5</ele><time>2026-04-05T05:40:57.001Z</time></trkpt><trkpt lat="14.516007584687245" lon="121.03078732451267"><ele>22.0</ele><time>2026-04-05T05:40:58.001Z</time></trkpt><trkpt lat="14.515880535785435" lon="121.03086012056538"><ele>21.5</ele><time>2026-04-05T05:40:59.001Z</time></trkpt><trkpt lat="14.515748077395504" lon="121.03093739394296"><ele>21.0</ele><time>2026-04-05T05:41:00.001Z</time></trkpt><trkpt lat="14.515611092372374" lon="121.03100718940405"><ele>21.0</ele><time>2026-04-05T05:41:01.001Z</time></trkpt><trkpt lat="14.515481310540508" lon="121.0310724768436"><ele>21.0</ele><time>2026-04-05T05:41:02.001Z</time></trkpt><trkpt lat="14.51535273889576" lon="121.03113688621028"><ele>21.0</ele><time>2026-04-05T05:41:03.001Z</time></trkpt><trkpt lat="14.515220455611852" lon="121.03120360629708"><ele>21.0</ele><time>2026-04-05T05:41:04.001Z</time></trkpt><trkpt lat="14.515086239111245" lon="121.03128249610728"><ele>22.0</ele><time>2026-04-05T05:41:05.001Z</time></trkpt><trkpt lat="14.514944720772586" lon="121.03136238781232"><ele>23.0</ele><time>2026-04-05T05:41:06.001Z</time></trkpt><trkpt lat="14.51480025362053" lon="121.03143891501654"><ele>24.0</ele><time>2026-04-05T05:41:07.001Z</time></trkpt><trkpt lat="14.51465617355314" lon="121.03151294068923"><ele>24.0</ele><time>2026-04-05T05:41:08.001Z</time></trkpt><trkpt lat="14.514506651489679" lon="121.0315900198641"><ele>24.0</ele><time>2026-04-05T05:41:09.001Z</time></trkpt><trkpt lat="14.514361408945561" lon="121.03166736912704"><ele>24.0</ele><time>2026-04-05T05:41:10.001Z</time></trkpt><trkpt lat="14.514211330641833" lon="121.03175449652981"><ele>23.666666666666668</ele><time>2026-04-05T05:41:11.001Z</time></trkpt><trkpt lat="14.514070127429132" lon="121.03185353787305"><ele>23.333333333333336</ele><time>2026-04-05T05:41:12.001Z</time></trkpt><trkpt lat="14.513936027156754" lon="121.0319505738012"><ele>23.0</ele><time>2026-04-05T05:41:13.001Z</time></trkpt><trkpt lat="14.513808966809467" lon="121.03206935200228"><ele>23.333333333333336</ele><time>2026-04-05T05:41:14.001Z</time></trkpt><trkpt lat="14.513684638776159" lon="121.03218836066729"><ele>23.666666666666668</ele><time>2026-04-05T05:41:15.001Z</time></trkpt><trkpt lat="14.513566852826937" lon="121.03229583422555"><ele>24.0</ele><time>2026-04-05T05:41:16.001Z</time></trkpt><trkpt lat="14.513456194864585" lon="121.03239639875002"><ele>24.5</ele><time>2026-04-05T05:41:17.001Z</time></trkpt><trkpt lat="14.513340782036384" lon="121.03249029328882"><ele>25.0</ele><time>2026-04-05T05:41:18.001Z</time></trkpt><trkpt lat="14.51322574271084" lon="121.0325731274744"><ele>25.5</ele><time>2026-04-05T05:41:19.001Z</time></trkpt><trkpt lat="14.513112001445988" lon="121.03264385758916"><ele>26.0</ele><time>2026-04-05T05:41:20.001Z</time></trkpt><trkpt lat="14.513006037338405" lon="121.03269909773196"><ele>26.200000000000003</ele><time>2026-04-05T05:41:21.001Z</time></trkpt><trkpt lat="14.51290362227203" lon="121.0327474308256"><ele>26.400000000000002</ele><time>2026-04-05T05:41:22.001Z</time></trkpt><trkpt lat="14.512820386153113" lon="121.03278881990406"><ele>26.6</ele><time>2026-04-05T05:41:23.001Z</time></trkpt><trkpt lat="14.512742648435996" lon="121.03282734370617"><ele>26.8</ele><time>2026-04-05T05:41:24.001Z</time></trkpt><trkpt lat="14.512664909538897" lon="121.03287164704564"><ele>27.0</ele><time>2026-04-05T05:41:25.001Z</time></trkpt><trkpt lat="14.512586743747415" lon="121.03291708389844"><ele>27.0</ele><time>2026-04-05T05:41:26.001Z</time></trkpt><trkpt lat="14.51250591343899" lon="121.032962343529"><ele>27.000000000000004</ele><time>2026-04-05T05:41:27.001Z</time></trkpt><trkpt lat="14.512423746725995" lon="121.03301306988028"><ele>27.000000000000004</ele><time>2026-04-05T05:41:28.001Z</time></trkpt><trkpt lat="14.51234116879362" lon="121.03305528150521"><ele>27.0</ele><time>2026-04-05T05:41:29.001Z</time></trkpt><trkpt lat="14.512266146124478" lon="121.0331011950111"><ele>27.0</ele><time>2026-04-05T05:41:30.001Z</time></trkpt><trkpt lat="14.512179831605874" lon="121.03314176820065"><ele>27.0</ele><time>2026-04-05T05:41:31.001Z</time></trkpt><trkpt lat="14.512125072277431" lon="121.03317504557837"><ele>27.000000000000004</ele><time>2026-04-05T05:41:32.001Z</time></trkpt><trkpt lat="14.512053912308996" lon="121.03320091280001"><ele>27.000000000000004</ele><time>2026-04-05T05:41:33.001Z</time></trkpt><trkpt lat="14.511958465053677" lon="121.03327396714273"><ele>27.0</ele><time>2026-04-05T05:41:34.001Z</time></trkpt><trkpt lat="14.511863171983606" lon="121.03333424908291"><ele>27.0</ele><time>2026-04-05T05:41:35.001Z</time></trkpt><trkpt lat="14.51175069188334" lon="121.033387805488"><ele>27.0</ele><time>2026-04-05T05:41:36.001Z</time></trkpt><trkpt lat="14.511624207268028" lon="121.03343727376024"><ele>27.0</ele><time>2026-04-05T05:41:37.001Z</time></trkpt><trkpt lat="14.51150386774394" lon="121.03348602795903"><ele>27.0</ele><time>2026-04-05T05:41:38.001Z</time></trkpt><trkpt lat="14.511376489636637" lon="121.03353759472466"><ele>27.0</ele><time>2026-04-05T05:41:39.001Z</time></trkpt><trkpt lat="14.511256169765858" lon="121.03358606365576"><ele>27.0</ele><time>2026-04-05T05:41:40.001Z</time></trkpt><trkpt lat="14.511127099624904" lon="121.03362898397444"><ele>27.0</ele><time>2026-04-05T05:41:41.001Z</time></trkpt><trkpt lat="14.510990452697406" lon="121.03367878624216"><ele>27.0</ele><time>2026-04-05T05:41:42Z</time></trkpt><trkpt lat="14.510853539196152" lon="121.03372722080539"><ele>27.0</ele><time>2026-04-05T05:41:43Z</time></trkpt><trkpt lat="14.510722396356442" lon="121.03379109157301"><ele>27.0</ele><time>2026-04-05T05:41:44Z</time></trkpt><trkpt lat="14.51058927239502" lon="121.03386227704365"><ele>27.0</ele><time>2026-04-05T05:41:45Z</time></trkpt><trkpt lat="14.510454573514384" lon="121.03393307779132"><ele>27.0</ele><time>2026-04-05T05:41:46Z</time></trkpt><trkpt lat="14.510315089415887" lon="121.0340081958541"><ele>26.666666666666664</ele><time>2026-04-05T05:41:47Z</time></trkpt><trkpt lat="14.51017627962448" lon="121.03408768427286"><ele>26.333333333333332</ele><time>2026-04-05T05:41:48Z</time></trkpt><trkpt lat="14.510028730084807" lon="121.03416764768397"><ele>26.0</ele><time>2026-04-05T05:41:49Z</time></trkpt><trkpt lat="14.509883941011498" lon="121.03424541095886"><ele>26.0</ele><time>2026-04-05T05:41:50Z</time></trkpt><trkpt lat="14.50973413142987" lon="121.03432574601987"><ele>26.0</ele><time>2026-04-05T05:41:51Z</time></trkpt><trkpt lat="14.509583903973603" lon="121.03440395760147"><ele>26.0</ele><time>2026-04-05T05:41:52Z</time></trkpt><trkpt lat="14.509433009414746" lon="121.03448333317664"><ele>25.666666666666664</ele><time>2026-04-05T05:41:53Z</time></trkpt><trkpt lat="14.509291720106328" lon="121.03454957589467"><ele>25.333333333333336</ele><time>2026-04-05T05:41:54Z</time></trkpt><trkpt lat="14.509140691981441" lon="121.03461325158267"><ele>25.0</ele><time>2026-04-05T05:41:55Z</time></trkpt><trkpt lat="14.509002735645675" lon="121.03465039898923"><ele>25.0</ele><time>2026-04-05T05:41:56Z</time></trkpt><trkpt lat="14.5088575090813" lon="121.03468124818559"><ele>25.0</ele><time>2026-04-05T05:41:57Z</time></trkpt><trkpt lat="14.508723792932134" lon="121.03471194039315"><ele>25.0</ele><time>2026-04-05T05:41:58Z</time></trkpt><trkpt lat="14.508599330683468" lon="121.03474001132786"><ele>25.0</ele><time>2026-04-05T05:41:59Z</time></trkpt><trkpt lat="14.50848020578127" lon="121.03476944323239"><ele>23.8</ele><time>2026-04-05T05:42:00Z</time></trkpt><trkpt lat="14.508367044573935" lon="121.03480079514361"><ele>22.6</ele><time>2026-04-05T05:42:01Z</time></trkpt><trkpt lat="14.508263493650325" lon="121.03483296048273"><ele>21.4</ele><time>2026-04-05T05:42:02Z</time></trkpt><trkpt lat="14.508161444301095" lon="121.03485370432419"><ele>20.2</ele><time>2026-04-05T05:42:03Z</time></trkpt><trkpt lat="14.508071094340819" lon="121.03488902000991"><ele>19.0</ele><time>2026-04-05T05:42:04Z</time></trkpt><trkpt lat="14.507990608242126" lon="121.03492580446644"><ele>19.0</ele><time>2026-04-05T05:42:05Z</time></trkpt><trkpt lat="14.507917405698112" lon="121.0349581639743"><ele>19.0</ele><time>2026-04-05T05:42:06Z</time></trkpt><trkpt lat="14.507845722405149" lon="121.03498611705777"><ele>19.0</ele><time>2026-04-05T05:42:07Z</time></trkpt><trkpt lat="14.507769596455185" lon="121.0350275196358"><ele>19.0</ele><time>2026-04-05T05:42:08Z</time></trkpt><trkpt lat="14.507697758586607" lon="121.03506901924139"><ele>19.0</ele><time>2026-04-05T05:42:09Z</time></trkpt><trkpt lat="14.507637818571794" lon="121.03510845211332"><ele>19.0</ele><time>2026-04-05T05:42:10Z</time></trkpt><trkpt lat="14.507577483948758" lon="121.03514208955855"><ele>19.4</ele><time>2026-04-05T05:42:11Z</time></trkpt><trkpt lat="14.50750829927076" lon="121.0351763347798"><ele>19.799999999999997</ele><time>2026-04-05T05:42:12Z</time></trkpt><trkpt lat="14.507444423492519" lon="121.03520959970146"><ele>20.200000000000003</ele><time>2026-04-05T05:42:13Z</time></trkpt><trkpt lat="14.507384946169699" lon="121.03524338069919"><ele>20.6</ele><time>2026-04-05T05:42:14Z</time></trkpt><trkpt lat="14.50727978352419" lon="121.0353024180589"><ele>21.0</ele><time>2026-04-05T05:42:16Z</time></trkpt><trkpt lat="14.50717608234962" lon="121.0353591431572"><ele>21.0</ele><time>2026-04-05T05:42:18Z</time></trkpt><trkpt lat="14.507079122396977" lon="121.03541550076038"><ele>21.0</ele><time>2026-04-05T05:42:20Z</time></trkpt><trkpt lat="14.507007589219372" lon="121.03546261055462"><ele>21.0</ele><time>2026-04-05T05:42:22Z</time></trkpt><trkpt lat="14.506947295647636" lon="121.03549714135251"><ele>21.0</ele><time>2026-04-05T05:42:23Z</time></trkpt><trkpt lat="14.506868610710198" lon="121.03553573096183"><ele>21.0</ele><time>2026-04-05T05:42:24Z</time></trkpt><trkpt lat="14.50676959546693" lon="121.03558824035542"><ele>20.5</ele><time>2026-04-05T05:42:25Z</time></trkpt><trkpt lat="14.506662667769906" lon="121.03564556405237"><ele>20.0</ele><time>2026-04-05T05:42:26Z</time></trkpt><trkpt lat="14.506570410334515" lon="121.0356933189551"><ele>19.5</ele><time>2026-04-05T05:42:27Z</time></trkpt><trkpt lat="14.506455067800703" lon="121.03575722459132"><ele>19.0</ele><time>2026-04-05T05:42:28Z</time></trkpt><trkpt lat="14.506335721527382" lon="121.03581851076231"><ele>19.5</ele><time>2026-04-05T05:42:29Z</time></trkpt><trkpt lat="14.50621200387327" lon="121.03587855296666"><ele>20.0</ele><time>2026-04-05T05:42:30Z</time></trkpt><trkpt lat="14.506087565138534" lon="121.03594240299628"><ele>20.5</ele><time>2026-04-05T05:42:31Z</time></trkpt><trkpt lat="14.50596420378279" lon="121.03600934971247"><ele>21.0</ele><time>2026-04-05T05:42:32Z</time></trkpt><trkpt lat="14.505837522217266" lon="121.03607546211677"><ele>21.0</ele><time>2026-04-05T05:42:33Z</time></trkpt><trkpt lat="14.50570309957146" lon="121.03614619405084"><ele>21.0</ele><time>2026-04-05T05:42:34Z</time></trkpt><trkpt lat="14.505579255768751" lon="121.03621422531039"><ele>21.0</ele><time>2026-04-05T05:42:35Z</time></trkpt><trkpt lat="14.505466009826542" lon="121.03627644543697"><ele>21.0</ele><time>2026-04-05T05:42:36.001Z</time></trkpt><trkpt lat="14.505356422208704" lon="121.03633254647906"><ele>20.5</ele><time>2026-04-05T05:42:37.001Z</time></trkpt><trkpt lat="14.505252817737931" lon="121.0363885927632"><ele>20.0</ele><time>2026-04-05T05:42:38.001Z</time></trkpt><trkpt lat="14.50514740707499" lon="121.03645007409678"><ele>19.5</ele><time>2026-04-05T05:42:39.001Z</time></trkpt><trkpt lat="14.505031943329644" lon="121.03651535834136"><ele>19.0</ele><time>2026-04-05T05:42:40.001Z</time></trkpt><trkpt lat="14.5049077300571" lon="121.03657711295338"><ele>19.75</ele><time>2026-04-05T05:42:41.001Z</time></trkpt><trkpt lat="14.50477848213155" lon="121.0366379128398"><ele>20.5</ele><time>2026-04-05T05:42:42.001Z</time></trkpt><trkpt lat="14.504645449900474" lon="121.03670066428313"><ele>21.25</ele><time>2026-04-05T05:42:43.001Z</time></trkpt><trkpt lat="14.504518556138894" lon="121.03676341900618"><ele>22.0</ele><time>2026-04-05T05:42:44.001Z</time></trkpt><trkpt lat="14.504394242505397" lon="121.03682832477575"><ele>22.5</ele><time>2026-04-05T05:42:45.001Z</time></trkpt><trkpt lat="14.504271266728056" lon="121.0368894698184"><ele>23.0</ele><time>2026-04-05T05:42:46.001Z</time></trkpt><trkpt lat="14.504163793642054" lon="121.03694673714641"><ele>23.5</ele><time>2026-04-05T05:42:47.001Z</time></trkpt><trkpt lat="14.50404844704994" lon="121.03701318003287"><ele>24.0</ele><time>2026-04-05T05:42:48.001Z</time></trkpt><trkpt lat="14.503927902877509" lon="121.03707813864773"><ele>24.0</ele><time>2026-04-05T05:42:49.001Z</time></trkpt><trkpt lat="14.503808397066997" lon="121.03714156692557"><ele>24.0</ele><time>2026-04-05T05:42:50.001Z</time></trkpt><trkpt lat="14.503683489299512" lon="121.0372152015206"><ele>24.0</ele><time>2026-04-05T05:42:51.001Z</time></trkpt><trkpt lat="14.503553984553603" lon="121.03727794722326"><ele>24.0</ele><time>2026-04-05T05:42:52.001Z</time></trkpt><trkpt lat="14.503424880955293" lon="121.03733614878165"><ele>24.0</ele><time>2026-04-05T05:42:53.001Z</time></trkpt><trkpt lat="14.503296056129841" lon="121.0374046677995"><ele>24.0</ele><time>2026-04-05T05:42:54.001Z</time></trkpt><trkpt lat="14.503163147359219" lon="121.03747351087554"><ele>24.0</ele><time>2026-04-05T05:42:55.001Z</time></trkpt><trkpt lat="14.503042242767" lon="121.03755028438475"><ele>24.0</ele><time>2026-04-05T05:42:56.001Z</time></trkpt><trkpt lat="14.502909919519194" lon="121.03761294968763"><ele>24.0</ele><time>2026-04-05T05:42:57.001Z</time></trkpt><trkpt lat="14.502778131170569" lon="121.0376841713244"><ele>24.0</ele><time>2026-04-05T05:42:58.001Z</time></trkpt><trkpt lat="14.502649841648028" lon="121.03775948653795"><ele>24.0</ele><time>2026-04-05T05:42:59.001Z</time></trkpt><trkpt lat="14.502506896077147" lon="121.03783136217743"><ele>24.0</ele><time>2026-04-05T05:43:00.001Z</time></trkpt><trkpt lat="14.502370961073172" lon="121.03789734852815"><ele>24.0</ele><time>2026-04-05T05:43:01.001Z</time></trkpt><trkpt lat="14.50224810752051" lon="121.03796657802417"><ele>24.0</ele><time>2026-04-05T05:43:02.001Z</time></trkpt><trkpt lat="14.502120676041" lon="121.03803584602915"><ele>24.0</ele><time>2026-04-05T05:43:03.001Z</time></trkpt><trkpt lat="14.501975513218548" lon="121.03810809529743"><ele>24.25</ele><time>2026-04-05T05:43:04.001Z</time></trkpt><trkpt lat="14.501847440927849" lon="121.03817942032838"><ele>24.5</ele><time>2026-04-05T05:43:05.001Z</time></trkpt><trkpt lat="14.501719702095892" lon="121.03824937907751"><ele>24.75</ele><time>2026-04-05T05:43:06.001Z</time></trkpt><trkpt lat="14.501604803454493" lon="121.03830949402486"><ele>25.0</ele><time>2026-04-05T05:43:07.001Z</time></trkpt><trkpt lat="14.501483024480313" lon="121.03835301207924"><ele>25.0</ele><time>2026-04-05T05:43:08.001Z</time></trkpt><trkpt lat="14.50137702216647" lon="121.03840274581871"><ele>25.0</ele><time>2026-04-05T05:43:09.001Z</time></trkpt><trkpt lat="14.501258888631535" lon="121.03845844552693"><ele>25.0</ele><time>2026-04-05T05:43:10.001Z</time></trkpt><trkpt lat="14.501145498558136" lon="121.0385119086671"><ele>25.0</ele><time>2026-04-05T05:43:11.001Z</time></trkpt><trkpt lat="14.501031433410606" lon="121.0385756763615"><ele>25.5</ele><time>2026-04-05T05:43:12.001Z</time></trkpt><trkpt lat="14.50092018170069" lon="121.03863694039968"><ele>26.0</ele><time>2026-04-05T05:43:13.001Z</time></trkpt><trkpt lat="14.500810210840669" lon="121.03869749909842"><ele>26.5</ele><time>2026-04-05T05:43:14.001Z</time></trkpt><trkpt lat="14.500695772034844" lon="121.03876373218654"><ele>27.0</ele><time>2026-04-05T05:43:15.001Z</time></trkpt><trkpt lat="14.500583147081793" lon="121.03882830154446"><ele>27.0</ele><time>2026-04-05T05:43:16.001Z</time></trkpt><trkpt lat="14.500465278502775" lon="121.03889581480726"><ele>27.0</ele><time>2026-04-05T05:43:17.001Z</time></trkpt><trkpt lat="14.500338700457766" lon="121.0389648327931"><ele>27.0</ele><time>2026-04-05T05:43:18.001Z</time></trkpt><trkpt lat="14.50021325870004" lon="121.03903395017437"><ele>27.0</ele><time>2026-04-05T05:43:19.001Z</time></trkpt><trkpt lat="14.500083322462048" lon="121.03910554398317"><ele>26.333333333333336</ele><time>2026-04-05T05:43:20.001Z</time></trkpt><trkpt lat="14.499947803665666" lon="121.03917899029192"><ele>25.666666666666668</ele><time>2026-04-05T05:43:21.001Z</time></trkpt><trkpt lat="14.499810763199402" lon="121.03925312918572"><ele>25.0</ele><time>2026-04-05T05:43:22.001Z</time></trkpt><trkpt lat="14.499668167121488" lon="121.03932991472273"><ele>26.0</ele><time>2026-04-05T05:43:23.001Z</time></trkpt><trkpt lat="14.499528280793267" lon="121.0394051017217"><ele>27.0</ele><time>2026-04-05T05:43:24.001Z</time></trkpt><trkpt lat="14.499384357945418" lon="121.03948245828907"><ele>28.0</ele><time>2026-04-05T05:43:25.001Z</time></trkpt><trkpt lat="14.499245908939631" lon="121.03955687274704"><ele>28.0</ele><time>2026-04-05T05:43:26.001Z</time></trkpt><trkpt lat="14.499107432116324" lon="121.03963130215493"><ele>28.0</ele><time>2026-04-05T05:43:27.001Z</time></trkpt><trkpt lat="14.498971055059727" lon="121.0397035108834"><ele>28.0</ele><time>2026-04-05T05:43:28.001Z</time></trkpt><trkpt lat="14.498842035335333" lon="121.03977071533122"><ele>28.75</ele><time>2026-04-05T05:43:29.001Z</time></trkpt><trkpt lat="14.498712884297202" lon="121.03983798816013"><ele>29.5</ele><time>2026-04-05T05:43:30.001Z</time></trkpt><trkpt lat="14.498585078361804" lon="121.03990456049831"><ele>30.25</ele><time>2026-04-05T05:43:31.001Z</time></trkpt><trkpt lat="14.498457613054256" lon="121.03997969777284"><ele>31.0</ele><time>2026-04-05T05:43:32.001Z</time></trkpt><trkpt lat="14.498327006476952" lon="121.0400552273272"><ele>31.666666666666668</ele><time>2026-04-05T05:43:33.001Z</time></trkpt><trkpt lat="14.498196494666523" lon="121.04012440970915"><ele>32.333333333333336</ele><time>2026-04-05T05:43:34.001Z</time></trkpt><trkpt lat="14.498060492247136" lon="121.04019838065815"><ele>33.0</ele><time>2026-04-05T05:43:35.001Z</time></trkpt><trkpt lat="14.497919599361884" lon="121.04027501146977"><ele>32.666666666666664</ele><time>2026-04-05T05:43:36.001Z</time></trkpt><trkpt lat="14.49777787158268" lon="121.04035209642491"><ele>32.33333333333333</ele><time>2026-04-05T05:43:37.001Z</time></trkpt><trkpt lat="14.497635161922236" lon="121.04043072893296"><ele>32.0</ele><time>2026-04-05T05:43:38.001Z</time></trkpt><trkpt lat="14.497486259464727" lon="121.04051053797691"><ele>32.0</ele><time>2026-04-05T05:43:39.001Z</time></trkpt><trkpt lat="14.497336504155022" lon="121.0405902045177"><ele>32.0</ele><time>2026-04-05T05:43:40.001Z</time></trkpt><trkpt lat="14.497185495348628" lon="121.04066853576585"><ele>32.0</ele><time>2026-04-05T05:43:41.001Z</time></trkpt><trkpt lat="14.497028591716678" lon="121.04074987960941"><ele>31.333333333333332</ele><time>2026-04-05T05:43:42.001Z</time></trkpt><trkpt lat="14.49687275738107" lon="121.04083504834186"><ele>30.666666666666664</ele><time>2026-04-05T05:43:43.001Z</time></trkpt><trkpt lat="14.496723253449906" lon="121.04091773136439"><ele>30.0</ele><time>2026-04-05T05:43:44.001Z</time></trkpt><trkpt lat="14.496579563335153" lon="121.04099719905825"><ele>30.0</ele><time>2026-04-05T05:43:45.001Z</time></trkpt><trkpt lat="14.496443119140602" lon="121.04107265940594"><ele>30.0</ele><time>2026-04-05T05:43:46.001Z</time></trkpt><trkpt lat="14.496309473643514" lon="121.04114657180769"><ele>30.0</ele><time>2026-04-05T05:43:47.001Z</time></trkpt><trkpt lat="14.496171921446518" lon="121.04121974766274"><ele>29.75</ele><time>2026-04-05T05:43:48Z</time></trkpt><trkpt lat="14.496040089524916" lon="121.04129058617484"><ele>29.5</ele><time>2026-04-05T05:43:49Z</time></trkpt><trkpt lat="14.495920268628243" lon="121.04135497068307"><ele>29.25</ele><time>2026-04-05T05:43:50Z</time></trkpt><trkpt lat="14.495802100117215" lon="121.04142052859103"><ele>29.0</ele><time>2026-04-05T05:43:51Z</time></trkpt><trkpt lat="14.495677213467378" lon="121.04148800273435"><ele>29.0</ele><time>2026-04-05T05:43:52Z</time></trkpt><trkpt lat="14.495541869514447" lon="121.04155831566521"><ele>29.0</ele><time>2026-04-05T05:43:53Z</time></trkpt><trkpt lat="14.495419185574226" lon="121.04164169949833"><ele>29.0</ele><time>2026-04-05T05:43:54Z</time></trkpt><trkpt lat="14.495272350043384" lon="121.04170247931229"><ele>28.666666666666664</ele><time>2026-04-05T05:43:55Z</time></trkpt><trkpt lat="14.495140248834508" lon="121.04178712469863"><ele>28.333333333333336</ele><time>2026-04-05T05:43:56Z</time></trkpt><trkpt lat="14.494992374764147" lon="121.04186388241048"><ele>28.0</ele><time>2026-04-05T05:43:57Z</time></trkpt><trkpt lat="14.494836228779956" lon="121.04193299438613"><ele>28.0</ele><time>2026-04-05T05:43:58Z</time></trkpt><trkpt lat="14.494681871102395" lon="121.04201362522899"><ele>28.0</ele><time>2026-04-05T05:43:59Z</time></trkpt><trkpt lat="14.494530334386052" lon="121.04209150490479"><ele>28.0</ele><time>2026-04-05T05:44:00Z</time></trkpt><trkpt lat="14.49438058508231" lon="121.04217282385028"><ele>27.666666666666668</ele><time>2026-04-05T05:44:01Z</time></trkpt><trkpt lat="14.494235664888432" lon="121.04225086836836"><ele>27.333333333333336</ele><time>2026-04-05T05:44:02Z</time></trkpt><trkpt lat="14.494091433157182" lon="121.04232662565516"><ele>27.0</ele><time>2026-04-05T05:44:03Z</time></trkpt><trkpt lat="14.493949995182685" lon="121.04239825850821"><ele>27.25</ele><time>2026-04-05T05:44:04Z</time></trkpt><trkpt lat="14.493819463142735" lon="121.04247195634119"><ele>27.5</ele><time>2026-04-05T05:44:05Z</time></trkpt><trkpt lat="14.493697897824225" lon="121.0425397867614"><ele>27.75</ele><time>2026-04-05T05:44:06Z</time></trkpt><trkpt lat="14.493582728326825" lon="121.04260434292783"><ele>28.0</ele><time>2026-04-05T05:44:07Z</time></trkpt><trkpt lat="14.493475788753871" lon="121.04266605382938"><ele>28.75</ele><time>2026-04-05T05:44:08Z</time></trkpt><trkpt lat="14.493361798051673" lon="121.04272512475502"><ele>29.5</ele><time>2026-04-05T05:44:09Z</time></trkpt><trkpt lat="14.493244885692048" lon="121.04278636609367"><ele>30.25</ele><time>2026-04-05T05:44:10Z</time></trkpt><trkpt lat="14.493122378170943" lon="121.0428505383327"><ele>31.0</ele><time>2026-04-05T05:44:11Z</time></trkpt><trkpt lat="14.492994220016513" lon="121.04291787959264"><ele>32.5</ele><time>2026-04-05T05:44:12Z</time></trkpt><trkpt lat="14.492865467692257" lon="121.04298585038154"><ele>34.0</ele><time>2026-04-05T05:44:13Z</time></trkpt><trkpt lat="14.492736760771455" lon="121.04305645343165"><ele>35.5</ele><time>2026-04-05T05:44:14Z</time></trkpt><trkpt lat="14.492601456907533" lon="121.04313288266157"><ele>37.0</ele><time>2026-04-05T05:44:15Z</time></trkpt><trkpt lat="14.492467043074633" lon="121.04320675361372"><ele>37.0</ele><time>2026-04-05T05:44:16Z</time></trkpt><trkpt lat="14.492328717795926" lon="121.04328107751321"><ele>37.0</ele><time>2026-04-05T05:44:17Z</time></trkpt><trkpt lat="14.492183134302834" lon="121.04335626455432"><ele>37.0</ele><time>2026-04-05T05:44:18Z</time></trkpt><trkpt lat="14.492031493474176" lon="121.04343457959307"><ele>36.333333333333336</ele><time>2026-04-05T05:44:19Z</time></trkpt><trkpt lat="14.491880207763224" lon="121.04351271122803"><ele>35.666666666666664</ele><time>2026-04-05T05:44:20Z</time></trkpt><trkpt lat="14.49172314368507" lon="121.04359413781728"><ele>35.0</ele><time>2026-04-05T05:44:21Z</time></trkpt><trkpt lat="14.491565039261568" lon="121.04367932444656"><ele>35.0</ele><time>2026-04-05T05:44:22Z</time></trkpt><trkpt lat="14.491406384296601" lon="121.04376629179305"><ele>35.0</ele><time>2026-04-05T05:44:23Z</time></trkpt><trkpt lat="14.49124123304058" lon="121.04385682011761"><ele>35.0</ele><time>2026-04-05T05:44:24Z</time></trkpt><trkpt lat="14.491079625465352" lon="121.04394540595945"><ele>35.33333333333333</ele><time>2026-04-05T05:44:25Z</time></trkpt><trkpt lat="14.490916732613226" lon="121.04403469633004"><ele>35.666666666666664</ele><time>2026-04-05T05:44:26Z</time></trkpt><trkpt lat="14.490764266802575" lon="121.04411825625861"><ele>36.0</ele><time>2026-04-05T05:44:27Z</time></trkpt><trkpt lat="14.490624096264048" lon="121.04419491910741"><ele>36.25</ele><time>2026-04-05T05:44:28Z</time></trkpt><trkpt lat="14.490491617316264" lon="121.04426765022687"><ele>36.5</ele><time>2026-04-05T05:44:29Z</time></trkpt><trkpt lat="14.490361238275694" lon="121.04433923322516"><ele>36.75</ele><time>2026-04-05T05:44:30Z</time></trkpt><trkpt lat="14.490239832402608" lon="121.04440563003791"><ele>37.0</ele><time>2026-04-05T05:44:31Z</time></trkpt><trkpt lat="14.490127402108483" lon="121.04446682504461"><ele>37.0</ele><time>2026-04-05T05:44:32Z</time></trkpt><trkpt lat="14.490013769862308" lon="121.04452867426863"><ele>37.0</ele><time>2026-04-05T05:44:33Z</time></trkpt><trkpt lat="14.48991300542843" lon="121.04458351963247"><ele>37.0</ele><time>2026-04-05T05:44:34Z</time></trkpt><trkpt lat="14.489815537264187" lon="121.04463657086677"><ele>37.0</ele><time>2026-04-05T05:44:35Z</time></trkpt><trkpt lat="14.489728406555075" lon="121.04468399547606"><ele>37.0</ele><time>2026-04-05T05:44:36Z</time></trkpt><trkpt lat="14.489652646309324" lon="121.04473758189029"><ele>37.0</ele><time>2026-04-05T05:44:37Z</time></trkpt><trkpt lat="14.489596303795132" lon="121.04480222365716"><ele>37.0</ele><time>2026-04-05T05:44:38Z</time></trkpt><trkpt lat="14.489570803723876" lon="121.0448760774505"><ele>37.0</ele><time>2026-04-05T05:44:39Z</time></trkpt><trkpt lat="14.489555380591948" lon="121.04496170082103"><ele>37.0</ele><time>2026-04-05T05:44:40Z</time></trkpt><trkpt lat="14.489549593504849" lon="121.04505584867394"><ele>37.0</ele><time>2026-04-05T05:44:41Z</time></trkpt><trkpt lat="14.48954737539691" lon="121.04515315580336"><ele>36.4</ele><time>2026-04-05T05:44:42Z</time></trkpt><trkpt lat="14.48953747945705" lon="121.04525204125997"><ele>35.800000000000004</ele><time>2026-04-05T05:44:43Z</time></trkpt><trkpt lat="14.489523105669358" lon="121.04535751894852"><ele>35.2</ele><time>2026-04-05T05:44:44Z</time></trkpt><trkpt lat="14.489496042962141" lon="121.04546971527654"><ele>34.6</ele><time>2026-04-05T05:44:45Z</time></trkpt><trkpt lat="14.489481815239042" lon="121.04558702310688"><ele>34.0</ele><time>2026-04-05T05:44:46Z</time></trkpt><trkpt lat="14.489466693700935" lon="121.04571200980001"><ele>34.5</ele><time>2026-04-05T05:44:47Z</time></trkpt><trkpt lat="14.489451208199975" lon="121.04584000481074"><ele>35.0</ele><time>2026-04-05T05:44:48Z</time></trkpt><trkpt lat="14.48943628914545" lon="121.04596331789871"><ele>35.5</ele><time>2026-04-05T05:44:49Z</time></trkpt><trkpt lat="14.489420932493285" lon="121.04608982862156"><ele>36.0</ele><time>2026-04-05T05:44:50Z</time></trkpt><trkpt lat="14.489406061959514" lon="121.04620822096881"><ele>36.0</ele><time>2026-04-05T05:44:51Z</time></trkpt><trkpt lat="14.489392982470937" lon="121.04631838356967"><ele>36.0</ele><time>2026-04-05T05:44:52Z</time></trkpt><trkpt lat="14.489380401038307" lon="121.04642536972851"><ele>36.0</ele><time>2026-04-05T05:44:53Z</time></trkpt><trkpt lat="14.489368233333849" lon="121.04652883777874"><ele>36.0</ele><time>2026-04-05T05:44:54Z</time></trkpt><trkpt lat="14.489372880975317" lon="121.0466241184969"><ele>36.0</ele><time>2026-04-05T05:44:55Z</time></trkpt><trkpt lat="14.489354387801177" lon="121.04671111008915"><ele>36.142857142857146</ele><time>2026-04-05T05:44:56.001Z</time></trkpt><trkpt lat="14.48933712919037" lon="121.04678170000066"><ele>36.285714285714285</ele><time>2026-04-05T05:44:57.001Z</time></trkpt><trkpt lat="14.489312939418772" lon="121.04684908169179"><ele>36.42857142857143</ele><time>2026-04-05T05:44:58.001Z</time></trkpt><trkpt lat="14.489259549685528" lon="121.04690189161104"><ele>36.57142857142857</ele><time>2026-04-05T05:44:59.001Z</time></trkpt><trkpt lat="14.489201536153297" lon="121.04694531345673"><ele>36.714285714285715</ele><time>2026-04-05T05:45:00.001Z</time></trkpt><trkpt lat="14.489133713803678" lon="121.0469870834998"><ele>36.85714285714286</ele><time>2026-04-05T05:45:01.001Z</time></trkpt><trkpt lat="14.489069267286132" lon="121.0470241179006"><ele>37.0</ele><time>2026-04-05T05:45:02.001Z</time></trkpt><trkpt lat="14.488995187242493" lon="121.04703510470077"><ele>37.0</ele><time>2026-04-05T05:45:03.001Z</time></trkpt><trkpt lat="14.48892169536121" lon="121.04703096713179"><ele>37.0</ele><time>2026-04-05T05:45:04.001Z</time></trkpt><trkpt lat="14.488840017134299" lon="121.04701135707307"><ele>37.0</ele><time>2026-04-05T05:45:05.001Z</time></trkpt><trkpt lat="14.488759795490472" lon="121.04698614134965"><ele>37.0</ele><time>2026-04-05T05:45:06.001Z</time></trkpt><trkpt lat="14.488667577891373" lon="121.04695945203918"><ele>37.0</ele><time>2026-04-05T05:45:07.001Z</time></trkpt><trkpt lat="14.488566614632342" lon="121.04692672128027"><ele>37.0</ele><time>2026-04-05T05:45:08.001Z</time></trkpt><trkpt lat="14.48846086798772" lon="121.04689396827041"><ele>37.5</ele><time>2026-04-05T05:45:09.001Z</time></trkpt><trkpt lat="14.488347567637575" lon="121.04686015260701"><ele>38.0</ele><time>2026-04-05T05:45:10.001Z</time></trkpt><trkpt lat="14.488232748477554" lon="121.04683093366873"><ele>38.5</ele><time>2026-04-05T05:45:11.001Z</time></trkpt><trkpt lat="14.48811136392617" lon="121.04679774422901"><ele>39.0</ele><time>2026-04-05T05:45:12.001Z</time></trkpt><trkpt lat="14.48800500896357" lon="121.04677030924121"><ele>38.8</ele><time>2026-04-05T05:45:13.001Z</time></trkpt><trkpt lat="14.487889476155111" lon="121.04673600947153"><ele>38.599999999999994</ele><time>2026-04-05T05:45:14.001Z</time></trkpt><trkpt lat="14.487792547736982" lon="121.04671104810058"><ele>38.4</ele><time>2026-04-05T05:45:15.001Z</time></trkpt><trkpt lat="14.487700557867736" lon="121.04668306008385"><ele>38.199999999999996</ele><time>2026-04-05T05:45:16.001Z</time></trkpt><trkpt lat="14.487617804076596" lon="121.0466494861613"><ele>38.0</ele><time>2026-04-05T05:45:17.001Z</time></trkpt><trkpt lat="14.487540507496075" lon="121.0466003677069"><ele>37.8</ele><time>2026-04-05T05:45:18.001Z</time></trkpt><trkpt lat="14.487496802169963" lon="121.04652779435133"><ele>37.599999999999994</ele><time>2026-04-05T05:45:19.001Z</time></trkpt><trkpt lat="14.487462850742757" lon="121.0464362881273"><ele>37.400000000000006</ele><time>2026-04-05T05:45:20.001Z</time></trkpt><trkpt lat="14.487437933911984" lon="121.04634599996851"><ele>37.2</ele><time>2026-04-05T05:45:21.001Z</time></trkpt><trkpt lat="14.487405583159546" lon="121.04624026189278"><ele>37.0</ele><time>2026-04-05T05:45:22.001Z</time></trkpt><trkpt lat="14.487369848928443" lon="121.04614025701488"><ele>37.0</ele><time>2026-04-05T05:45:23.001Z</time></trkpt><trkpt lat="14.487321470705853" lon="121.0460262569208"><ele>37.0</ele><time>2026-04-05T05:45:24.001Z</time></trkpt><trkpt lat="14.487291619230835" lon="121.04593466984943"><ele>37.0</ele><time>2026-04-05T05:45:25.001Z</time></trkpt><trkpt lat="14.487258004767689" lon="121.04584603463168"><ele>37.0</ele><time>2026-04-05T05:45:26.001Z</time></trkpt><trkpt lat="14.48723378387796" lon="121.04576874968491"><ele>37.0</ele><time>2026-04-05T05:45:27.001Z</time></trkpt><trkpt lat="14.487204074344689" lon="121.0457016484892"><ele>36.6</ele><time>2026-04-05T05:45:28.001Z</time></trkpt><trkpt lat="14.487170981575513" lon="121.04563517092794"><ele>36.2</ele><time>2026-04-05T05:45:31.001Z</time></trkpt><trkpt lat="14.487132109499711" lon="121.04556313398979"><ele>35.8</ele><time>2026-04-05T05:45:37.001Z</time></trkpt><trkpt lat="14.486942119065063" lon="121.04552576939992"><ele>35.4</ele><time>2026-04-05T05:45:40.001Z</time></trkpt><trkpt lat="14.48687126750831" lon="121.04552498216117"><ele>35.0</ele><time>2026-04-05T05:45:41.001Z</time></trkpt><trkpt lat="14.486791235049992" lon="121.0455231655003"><ele>34.8</ele><time>2026-04-05T05:45:42.001Z</time></trkpt><trkpt lat="14.486724875568573" lon="121.04552147281976"><ele>34.6</ele><time>2026-04-05T05:45:43.001Z</time></trkpt><trkpt lat="14.48663605047994" lon="121.04551971326181"><ele>34.4</ele><time>2026-04-05T05:45:44.001Z</time></trkpt><trkpt lat="14.48654761375789" lon="121.0455141051158"><ele>34.2</ele><time>2026-04-05T05:45:45.001Z</time></trkpt><trkpt lat="14.486445149785615" lon="121.04550397070551"><ele>34.0</ele><time>2026-04-05T05:45:46.001Z</time></trkpt><trkpt lat="14.486332031196264" lon="121.04549217069194"><ele>34.25</ele><time>2026-04-05T05:45:47.001Z</time></trkpt><trkpt lat="14.486218430611894" lon="121.04548032039624"><ele>34.5</ele><time>2026-04-05T05:45:48.001Z</time></trkpt><trkpt lat="14.486108904787203" lon="121.04546587890385"><ele>34.75</ele><time>2026-04-05T05:45:49.001Z</time></trkpt><trkpt lat="14.48599303971205" lon="121.04545023828518"><ele>35.0</ele><time>2026-04-05T05:45:50.001Z</time></trkpt><trkpt lat="14.485873326644024" lon="121.04543407822487"><ele>35.0</ele><time>2026-04-05T05:45:51.001Z</time></trkpt><trkpt lat="14.485752240458472" lon="121.0454177328144"><ele>35.0</ele><time>2026-04-05T05:45:52.001Z</time></trkpt><trkpt lat="14.485629952940823" lon="121.04540553922764"><ele>35.0</ele><time>2026-04-05T05:45:53Z</time></trkpt><trkpt lat="14.48552090975844" lon="121.04539442241781"><ele>35.0</ele><time>2026-04-05T05:45:54Z</time></trkpt><trkpt lat="14.485419318635552" lon="121.04538406533788"><ele>34.0</ele><time>2026-04-05T05:45:55Z</time></trkpt><trkpt lat="14.485319571373159" lon="121.04537399889524"><ele>33.0</ele><time>2026-04-05T05:45:56Z</time></trkpt><trkpt lat="14.485229299109568" lon="121.04536302287346"><ele>32.0</ele><time>2026-04-05T05:45:57Z</time></trkpt><trkpt lat="14.485142202812218" lon="121.04535102095147"><ele>31.0</ele><time>2026-04-05T05:45:58Z</time></trkpt><trkpt lat="14.485044078706776" lon="121.04533749939205"><ele>30.0</ele><time>2026-04-05T05:45:59Z</time></trkpt><trkpt lat="14.484937284195382" lon="121.04532278304364"><ele>30.0</ele><time>2026-04-05T05:46:00Z</time></trkpt><trkpt lat="14.484817813738806" lon="121.04531336794"><ele>30.0</ele><time>2026-04-05T05:46:01Z</time></trkpt><trkpt lat="14.484705889796732" lon="121.04530610596218"><ele>30.0</ele><time>2026-04-05T05:46:02Z</time></trkpt><trkpt lat="14.484603785808815" lon="121.04529914871934"><ele>30.0</ele><time>2026-04-05T05:46:03Z</time></trkpt><trkpt lat="14.484515353133403" lon="121.04529312304241"><ele>30.0</ele><time>2026-04-05T05:46:04Z</time></trkpt><trkpt lat="14.484433146013464" lon="121.04529723260582"><ele>30.25</ele><time>2026-04-05T05:46:05Z</time></trkpt><trkpt lat="14.484338753019399" lon="121.04529765316009"><ele>30.5</ele><time>2026-04-05T05:46:06Z</time></trkpt><trkpt lat="14.484192504683135" lon="121.04529830475667"><ele>30.75</ele><time>2026-04-05T05:46:07Z</time></trkpt><trkpt lat="14.484073949062106" lon="121.04529883296767"><ele>31.0</ele><time>2026-04-05T05:46:08Z</time></trkpt><trkpt lat="14.483953299816633" lon="121.04529937050644"><ele>31.0</ele><time>2026-04-05T05:46:09Z</time></trkpt><trkpt lat="14.483824599041549" lon="121.04529994391703"><ele>31.0</ele><time>2026-04-05T05:46:10Z</time></trkpt><trkpt lat="14.48369334812052" lon="121.04530052869059"><ele>31.0</ele><time>2026-04-05T05:46:11Z</time></trkpt><trkpt lat="14.483555161202476" lon="121.04530114436643"><ele>31.0</ele><time>2026-04-05T05:46:12Z</time></trkpt><trkpt lat="14.48341281744761" lon="121.04530177856167"><ele>31.25</ele><time>2026-04-05T05:46:13Z</time></trkpt><trkpt lat="14.4832670510052" lon="121.04530242800661"><ele>31.5</ele><time>2026-04-05T05:46:14Z</time></trkpt><trkpt lat="14.483128455284623" lon="121.04530304550262"><ele>31.75</ele><time>2026-04-05T05:46:15Z</time></trkpt><trkpt lat="14.482991035378951" lon="121.0453036577616"><ele>32.0</ele><time>2026-04-05T05:46:16Z</time></trkpt><trkpt lat="14.48285336479172" lon="121.04530563028416"><ele>32.25</ele><time>2026-04-05T05:46:17Z</time></trkpt><trkpt lat="14.482718502183886" lon="121.04530655498858"><ele>32.5</ele><time>2026-04-05T05:46:18Z</time></trkpt><trkpt lat="14.48258788026634" lon="121.04536398957798"><ele>32.75</ele><time>2026-04-05T05:46:19Z</time></trkpt><trkpt lat="14.482452603453323" lon="121.04536753345563"><ele>33.0</ele><time>2026-04-05T05:46:20Z</time></trkpt><trkpt lat="14.482316248516218" lon="121.04536257437346"><ele>33.0</ele><time>2026-04-05T05:46:21Z</time></trkpt><trkpt lat="14.482175963148668" lon="121.04535013179373"><ele>33.0</ele><time>2026-04-05T05:46:22Z</time></trkpt><trkpt lat="14.482042378714478" lon="121.04530907146045"><ele>33.0</ele><time>2026-04-05T05:46:23Z</time></trkpt><trkpt lat="14.481913824068084" lon="121.04531111530964"><ele>33.0</ele><time>2026-04-05T05:46:24Z</time></trkpt><trkpt lat="14.481799115280301" lon="121.0453125659495"><ele>33.0</ele><time>2026-04-05T05:46:25Z</time></trkpt><trkpt lat="14.481695176896437" lon="121.0453138803842"><ele>33.0</ele><time>2026-04-05T05:46:26Z</time></trkpt><trkpt lat="14.48160852304136" lon="121.0453149762329"><ele>33.0</ele><time>2026-04-05T05:46:27Z</time></trkpt><trkpt lat="14.481503709466415" lon="121.04531630173463"><ele>33.0</ele><time>2026-04-05T05:46:29Z</time></trkpt><trkpt lat="14.481440361485868" lon="121.04531710284851"><ele>33.0</ele><time>2026-04-05T05:46:31Z</time></trkpt><trkpt lat="14.481352719790836" lon="121.04531902024776"><ele>33.0</ele><time>2026-04-05T05:46:38Z</time></trkpt><trkpt lat="14.481282471543828" lon="121.04532039766525"><ele>32.8</ele><time>2026-04-05T05:46:40Z</time></trkpt><trkpt lat="14.481156518953544" lon="121.04532304061478"><ele>32.599999999999994</ele><time>2026-04-05T05:46:42Z</time></trkpt><trkpt lat="14.481072078335881" lon="121.04532483803644"><ele>32.400000000000006</ele><time>2026-04-05T05:46:43Z</time></trkpt><trkpt lat="14.480979131565295" lon="121.04532681652361"><ele>32.2</ele><time>2026-04-05T05:46:44Z</time></trkpt><trkpt lat="14.480881653930483" lon="121.04532889145608"><ele>32.0</ele><time>2026-04-05T05:46:45Z</time></trkpt><trkpt lat="14.480768714520933" lon="121.04533049617132"><ele>32.0</ele><time>2026-04-05T05:46:46Z</time></trkpt><trkpt lat="14.480665075156397" lon="121.04533103103093"><ele>32.0</ele><time>2026-04-05T05:46:47Z</time></trkpt><trkpt lat="14.480556020128747" lon="121.04533159383953"><ele>32.0</ele><time>2026-04-05T05:46:48Z</time></trkpt><trkpt lat="14.480446576667564" lon="121.045327646145"><ele>32.0</ele><time>2026-04-05T05:46:49Z</time></trkpt><trkpt lat="14.480329932580016" lon="121.04532807389522"><ele>32.0</ele><time>2026-04-05T05:46:50Z</time></trkpt><trkpt lat="14.480215124007234" lon="121.04532849491467"><ele>32.25</ele><time>2026-04-05T05:46:51Z</time></trkpt><trkpt lat="14.480093422380463" lon="121.04532894121591"><ele>32.5</ele><time>2026-04-05T05:46:52Z</time></trkpt><trkpt lat="14.479971329438513" lon="121.04532595225614"><ele>32.75</ele><time>2026-04-05T05:46:53Z</time></trkpt><trkpt lat="14.479847014625474" lon="121.04532290468966"><ele>33.0</ele><time>2026-04-05T05:46:54Z</time></trkpt><trkpt lat="14.47972600351249" lon="121.0453206605452"><ele>33.0</ele><time>2026-04-05T05:46:55.001Z</time></trkpt><trkpt lat="14.479604221791645" lon="121.04532151299892"><ele>33.0</ele><time>2026-04-05T05:46:56.001Z</time></trkpt><trkpt lat="14.479486526542933" lon="121.04538205003382"><ele>33.0</ele><time>2026-04-05T05:46:57.001Z</time></trkpt><trkpt lat="14.479365089134912" lon="121.045382345827"><ele>33.0</ele><time>2026-04-05T05:46:58.001Z</time></trkpt><trkpt lat="14.47924911839928" lon="121.04537865794063"><ele>33.4</ele><time>2026-04-05T05:46:59.001Z</time></trkpt><trkpt lat="14.479141898295639" lon="121.04538829406658"><ele>33.8</ele><time>2026-04-05T05:47:00.001Z</time></trkpt><trkpt lat="14.479038210113304" lon="121.04538403392392"><ele>34.2</ele><time>2026-04-05T05:47:01.001Z</time></trkpt><trkpt lat="14.47894300925839" lon="121.04538619566436"><ele>34.6</ele><time>2026-04-05T05:47:02.001Z</time></trkpt><trkpt lat="14.478857119913505" lon="121.04532083946326"><ele>35.0</ele><time>2026-04-05T05:47:03.001Z</time></trkpt><trkpt lat="14.478781013124582" lon="121.04532083946299"><ele>35.0</ele><time>2026-04-05T05:47:04.001Z</time></trkpt><trkpt lat="14.478712259236449" lon="121.04532083946346"><ele>35.0</ele><time>2026-04-05T05:47:05.001Z</time></trkpt><trkpt lat="14.478647114683318" lon="121.04532083946323"><ele>35.0</ele><time>2026-04-05T05:47:06.001Z</time></trkpt><trkpt lat="14.478526683186951" lon="121.04532114139576"><ele>35.0</ele><time>2026-04-05T05:47:08.001Z</time></trkpt><trkpt lat="14.478409977483464" lon="121.04532141885876"><ele>35.0</ele><time>2026-04-05T05:47:10.001Z</time></trkpt><trkpt lat="14.478336266509723" lon="121.04532159410438"><ele>35.0</ele><time>2026-04-05T05:47:11.001Z</time></trkpt><trkpt lat="14.478251973077342" lon="121.04532179450923"><ele>35.0</ele><time>2026-04-05T05:47:12.001Z</time></trkpt><trkpt lat="14.478167366848147" lon="121.04532199565804"><ele>35.0</ele><time>2026-04-05T05:47:13.001Z</time></trkpt><trkpt lat="14.478082805586398" lon="121.04532219669751"><ele>35.0</ele><time>2026-04-05T05:47:14.001Z</time></trkpt><trkpt lat="14.478002392759405" lon="121.04532412334598"><ele>35.0</ele><time>2026-04-05T05:47:15.001Z</time></trkpt><trkpt lat="14.47791011358287" lon="121.04532587770218"><ele>35.0</ele><time>2026-04-05T05:47:17.001Z</time></trkpt><trkpt lat="14.477845679829468" lon="121.04532710269177"><ele>35.0</ele><time>2026-04-05T05:47:20.001Z</time></trkpt><trkpt lat="14.477726640897222" lon="121.04532817803594"><ele>34.666666666666664</ele><time>2026-04-05T05:47:23.001Z</time></trkpt><trkpt lat="14.47764201911752" lon="121.04532880096016"><ele>34.33333333333333</ele><time>2026-04-05T05:47:24.001Z</time></trkpt><trkpt lat="14.477557744280972" lon="121.04532911463194"><ele>34.0</ele><time>2026-04-05T05:47:25.001Z</time></trkpt><trkpt lat="14.477476223855705" lon="121.04532939811094"><ele>33.666666666666664</ele><time>2026-04-05T05:47:26.001Z</time></trkpt><trkpt lat="14.47738379629166" lon="121.04532971951792"><ele>33.333333333333336</ele><time>2026-04-05T05:47:27.001Z</time></trkpt><trkpt lat="14.47728011185959" lon="121.04533008007053"><ele>33.0</ele><time>2026-04-05T05:47:28.001Z</time></trkpt><trkpt lat="14.477157095479601" lon="121.04533023982407"><ele>33.75</ele><time>2026-04-05T05:47:29.001Z</time></trkpt><trkpt lat="14.477033822416542" lon="121.04533023982457"><ele>34.5</ele><time>2026-04-05T05:47:30.001Z</time></trkpt><trkpt lat="14.476899453990656" lon="121.0453302398251"><ele>35.25</ele><time>2026-04-05T05:47:31.001Z</time></trkpt><trkpt lat="14.47676057685042" lon="121.04533118621274"><ele>36.0</ele><time>2026-04-05T05:47:32.001Z</time></trkpt><trkpt lat="14.476612172981502" lon="121.0453319039327"><ele>36.0</ele><time>2026-04-05T05:47:33.001Z</time></trkpt><trkpt lat="14.476457527288817" lon="121.04533383194894"><ele>36.0</ele><time>2026-04-05T05:47:34.001Z</time></trkpt><trkpt lat="14.4762980464804" lon="121.04533542204696"><ele>36.0</ele><time>2026-04-05T05:47:35.001Z</time></trkpt><trkpt lat="14.47613442134691" lon="121.04533703219356"><ele>36.333333333333336</ele><time>2026-04-05T05:47:36.001Z</time></trkpt><trkpt lat="14.475967890261085" lon="121.04533837996095"><ele>36.66666666666667</ele><time>2026-04-05T05:47:37.001Z</time></trkpt><trkpt lat="14.475799734384937" lon="121.04533974087852"><ele>37.0</ele><time>2026-04-05T05:47:38.001Z</time></trkpt><trkpt lat="14.475629064427467" lon="121.0453411221421"><ele>37.0</ele><time>2026-04-05T05:47:39.001Z</time></trkpt><trkpt lat="14.475456970462728" lon="121.04534251493101"><ele>37.0</ele><time>2026-04-05T05:47:40.001Z</time></trkpt><trkpt lat="14.475279608615654" lon="121.04534395035374"><ele>37.0</ele><time>2026-04-05T05:47:41.001Z</time></trkpt><trkpt lat="14.475100608696529" lon="121.04534539903328"><ele>36.66666666666667</ele><time>2026-04-05T05:47:42.001Z</time></trkpt><trkpt lat="14.47493259212673" lon="121.04534675882266"><ele>36.333333333333336</ele><time>2026-04-05T05:47:43.001Z</time></trkpt><trkpt lat="14.474756722337183" lon="121.04534818217499"><ele>36.0</ele><time>2026-04-05T05:47:44.001Z</time></trkpt><trkpt lat="14.474582007657183" lon="121.0453490187295"><ele>35.666666666666664</ele><time>2026-04-05T05:47:45.001Z</time></trkpt><trkpt lat="14.474407462836119" lon="121.04534763982922"><ele>35.33333333333333</ele><time>2026-04-05T05:47:46.001Z</time></trkpt><trkpt lat="14.47422562509189" lon="121.04534763982892"><ele>35.0</ele><time>2026-04-05T05:47:47.001Z</time></trkpt><trkpt lat="14.474057266832606" lon="121.04534763982782"><ele>35.0</ele><time>2026-04-05T05:47:48.001Z</time></trkpt><trkpt lat="14.473882557985672" lon="121.04534763982683"><ele>35.0</ele><time>2026-04-05T05:47:49.001Z</time></trkpt><trkpt lat="14.473715637243005" lon="121.04534850638075"><ele>35.0</ele><time>2026-04-05T05:47:50.001Z</time></trkpt><trkpt lat="14.47353533993842" lon="121.04534893982623"><ele>34.0</ele><time>2026-04-05T05:47:51.001Z</time></trkpt><trkpt lat="14.473356644015306" lon="121.0453489398249"><ele>33.0</ele><time>2026-04-05T05:47:52.001Z</time></trkpt><trkpt lat="14.473175449127723" lon="121.04534893982478"><ele>32.0</ele><time>2026-04-05T05:47:53.001Z</time></trkpt><trkpt lat="14.472996305360477" lon="121.04534893982377"><ele>31.0</ele><time>2026-04-05T05:47:54.001Z</time></trkpt><trkpt lat="14.47281473174369" lon="121.04534894020733"><ele>30.0</ele><time>2026-04-05T05:47:55.001Z</time></trkpt><trkpt lat="14.472642095979028" lon="121.04534827380287"><ele>29.0</ele><time>2026-04-05T05:47:56.001Z</time></trkpt><trkpt lat="14.472480621330115" lon="121.0453472376874"><ele>29.0</ele><time>2026-04-05T05:47:57.001Z</time></trkpt><trkpt lat="14.47232156565306" lon="121.0453465128788"><ele>29.0</ele><time>2026-04-05T05:47:58.001Z</time></trkpt><trkpt lat="14.47215988934812" lon="121.04534797754084"><ele>29.0</ele><time>2026-04-05T05:47:59Z</time></trkpt><trkpt lat="14.471999030127341" lon="121.0453494347907"><ele>29.333333333333332</ele><time>2026-04-05T05:48:00Z</time></trkpt><trkpt lat="14.471840767423434" lon="121.0454083516152"><ele>29.666666666666664</ele><time>2026-04-05T05:48:01Z</time></trkpt><trkpt lat="14.471686560705564" lon="121.04541052254335"><ele>30.0</ele><time>2026-04-05T05:48:02Z</time></trkpt><trkpt lat="14.471536824955889" lon="121.04540516308103"><ele>30.0</ele><time>2026-04-05T05:48:03Z</time></trkpt><trkpt lat="14.471385649199647" lon="121.04540784310564"><ele>30.0</ele><time>2026-04-05T05:48:04Z</time></trkpt><trkpt lat="14.471233249099427" lon="121.04540707769787"><ele>30.0</ele><time>2026-04-05T05:48:05Z</time></trkpt><trkpt lat="14.47107971857512" lon="121.04535570442614"><ele>30.333333333333336</ele><time>2026-04-05T05:48:06Z</time></trkpt><trkpt lat="14.470919487623982" lon="121.04535564020101"><ele>30.666666666666668</ele><time>2026-04-05T05:48:07Z</time></trkpt><trkpt lat="14.470763717790604" lon="121.04535564020121"><ele>31.0</ele><time>2026-04-05T05:48:08Z</time></trkpt><trkpt lat="14.470608694880765" lon="121.04535564020213"><ele>31.0</ele><time>2026-04-05T05:48:09Z</time></trkpt><trkpt lat="14.470450795348324" lon="121.04535896437872"><ele>31.0</ele><time>2026-04-05T05:48:10Z</time></trkpt><trkpt lat="14.470305926858959" lon="121.04536235256117"><ele>31.0</ele><time>2026-04-05T05:48:11Z</time></trkpt><trkpt lat="14.470142560435061" lon="121.04536162920873"><ele>31.0</ele><time>2026-04-05T05:48:12Z</time></trkpt><trkpt lat="14.469987096626802" lon="121.04536104020548"><ele>31.0</ele><time>2026-04-05T05:48:13Z</time></trkpt><trkpt lat="14.469842897985536" lon="121.04536104020548"><ele>31.0</ele><time>2026-04-05T05:48:14Z</time></trkpt><trkpt lat="14.469707315686126" lon="121.04536104020615"><ele>31.0</ele><time>2026-04-05T05:48:15Z</time></trkpt><trkpt lat="14.469572921308888" lon="121.0453610402063"><ele>31.200000000000003</ele><time>2026-04-05T05:48:16Z</time></trkpt><trkpt lat="14.469449547455715" lon="121.04536104020625"><ele>31.400000000000002</ele><time>2026-04-05T05:48:17Z</time></trkpt><trkpt lat="14.469342620077448" lon="121.04536254300879"><ele>31.6</ele><time>2026-04-05T05:48:18Z</time></trkpt><trkpt lat="14.469258154533865" lon="121.0453635668329"><ele>31.8</ele><time>2026-04-05T05:48:19Z</time></trkpt><trkpt lat="14.469183861092368" lon="121.0453644673605"><ele>32.0</ele><time>2026-04-05T05:48:20Z</time></trkpt><trkpt lat="14.469117527954179" lon="121.04536527139875"><ele>32.0</ele><time>2026-04-05T05:48:21Z</time></trkpt><trkpt lat="14.469049387318348" lon="121.04536609734527"><ele>32.0</ele><time>2026-04-05T05:48:22Z</time></trkpt><trkpt lat="14.46892188364237" lon="121.04536696059232"><ele>32.0</ele><time>2026-04-05T05:48:24Z</time></trkpt><trkpt lat="14.468830116870576" lon="121.04536744162775"><ele>32.0</ele><time>2026-04-05T05:48:25Z</time></trkpt><trkpt lat="14.468732570237773" lon="121.04536779721451"><ele>32.0</ele><time>2026-04-05T05:48:26Z</time></trkpt><trkpt lat="14.468625211699742" lon="121.04536794789331"><ele>32.25</ele><time>2026-04-05T05:48:27Z</time></trkpt><trkpt lat="14.468505217428545" lon="121.0453681163054"><ele>32.5</ele><time>2026-04-05T05:48:28Z</time></trkpt><trkpt lat="14.46837475084044" lon="121.04536829941692"><ele>32.75</ele><time>2026-04-05T05:48:29Z</time></trkpt><trkpt lat="14.468243787146696" lon="121.04536848322586"><ele>33.0</ele><time>2026-04-05T05:48:30Z</time></trkpt><trkpt lat="14.468107870712492" lon="121.04536867398565"><ele>33.0</ele><time>2026-04-05T05:48:31Z</time></trkpt><trkpt lat="14.46796654491086" lon="121.04536887270667"><ele>33.0</ele><time>2026-04-05T05:48:32Z</time></trkpt><trkpt lat="14.46782309476332" lon="121.04536907404105"><ele>33.0</ele><time>2026-04-05T05:48:33Z</time></trkpt><trkpt lat="14.467683619985609" lon="121.045418945024"><ele>33.0</ele><time>2026-04-05T05:48:34Z</time></trkpt><trkpt lat="14.467546631839094" lon="121.04541690544877"><ele>33.75</ele><time>2026-04-05T05:48:35Z</time></trkpt><trkpt lat="14.467407078375373" lon="121.04541585760822"><ele>34.5</ele><time>2026-04-05T05:48:36Z</time></trkpt><trkpt lat="14.46726392598121" lon="121.04541483753734"><ele>35.25</ele><time>2026-04-05T05:48:37Z</time></trkpt><trkpt lat="14.467123572158888" lon="121.04537116883643"><ele>36.0</ele><time>2026-04-05T05:48:38Z</time></trkpt><trkpt lat="14.466988459733185" lon="121.04537174058002"><ele>36.5</ele><time>2026-04-05T05:48:39Z</time></trkpt><trkpt lat="14.466841870277054" lon="121.04537174058142"><ele>37.0</ele><time>2026-04-05T05:48:40Z</time></trkpt><trkpt lat="14.466714486335489" lon="121.04537174058153"><ele>37.5</ele><time>2026-04-05T05:48:41Z</time></trkpt><trkpt lat="14.46660178095282" lon="121.04537174058287"><ele>38.0</ele><time>2026-04-05T05:48:42Z</time></trkpt><trkpt lat="14.466507585002809" lon="121.04537233186288"><ele>38.0</ele><time>2026-04-05T05:48:43Z</time></trkpt><trkpt lat="14.466442538623985" lon="121.0453727646821"><ele>38.0</ele><time>2026-04-05T05:48:44Z</time></trkpt><trkpt lat="14.466375427297294" lon="121.04537314058567"><ele>38.0</ele><time>2026-04-05T05:48:45Z</time></trkpt><trkpt lat="14.466301153652061" lon="121.04537314058575"><ele>38.0</ele><time>2026-04-05T05:48:46Z</time></trkpt><trkpt lat="14.466212460398127" lon="121.04537314058588"><ele>38.0</ele><time>2026-04-05T05:48:47Z</time></trkpt><trkpt lat="14.466108956179392" lon="121.04537314058628"><ele>38.0</ele><time>2026-04-05T05:48:48Z</time></trkpt><trkpt lat="14.466006270449116" lon="121.04537609975434"><ele>38.0</ele><time>2026-04-05T05:48:49Z</time></trkpt><trkpt lat="14.465889101114033" lon="121.04537799537663"><ele>38.0</ele><time>2026-04-05T05:48:50Z</time></trkpt><trkpt lat="14.465767687439246" lon="121.04537991835629"><ele>38.0</ele><time>2026-04-05T05:48:51Z</time></trkpt><trkpt lat="14.465640740215486" lon="121.04538192897685"><ele>38.0</ele><time>2026-04-05T05:48:52Z</time></trkpt><trkpt lat="14.465508016080486" lon="121.0453840310949"><ele>38.0</ele><time>2026-04-05T05:48:53Z</time></trkpt><trkpt lat="14.465374478300461" lon="121.04538614609851"><ele>38.0</ele><time>2026-04-05T05:48:54Z</time></trkpt><trkpt lat="14.465243283445863" lon="121.0453885003161"><ele>38.0</ele><time>2026-04-05T05:48:55Z</time></trkpt><trkpt lat="14.465108674013507" lon="121.04539070756462"><ele>38.0</ele><time>2026-04-05T05:48:56Z</time></trkpt><trkpt lat="14.464971558707221" lon="121.04539165877463"><ele>38.0</ele><time>2026-04-05T05:48:57Z</time></trkpt><trkpt lat="14.464832109909718" lon="121.0453926261741"><ele>38.0</ele><time>2026-04-05T05:48:58Z</time></trkpt><trkpt lat="14.464688373508912" lon="121.04539362331838"><ele>38.0</ele><time>2026-04-05T05:48:59Z</time></trkpt><trkpt lat="14.464556021329471" lon="121.04539454148505"><ele>38.0</ele><time>2026-04-05T05:49:00Z</time></trkpt><trkpt lat="14.464434103256002" lon="121.04539538726878"><ele>38.0</ele><time>2026-04-05T05:49:01Z</time></trkpt><trkpt lat="14.464303890411108" lon="121.0453962905952"><ele>38.0</ele><time>2026-04-05T05:49:02Z</time></trkpt><trkpt lat="14.464190615861853" lon="121.04539707641553"><ele>38.0</ele><time>2026-04-05T05:49:03.001Z</time></trkpt><trkpt lat="14.464091047523516" lon="121.04539776715129"><ele>38.0</ele><time>2026-04-05T05:49:04.001Z</time></trkpt><trkpt lat="14.464004921507314" lon="121.04539836463476"><ele>38.0</ele><time>2026-04-05T05:49:05.001Z</time></trkpt><trkpt lat="14.463910183408759" lon="121.04539901962451"><ele>38.0</ele><time>2026-04-05T05:49:07.001Z</time></trkpt><trkpt lat="14.463834347643047" lon="121.04539954263203"><ele>38.0</ele><time>2026-04-05T05:49:09.001Z</time></trkpt><trkpt lat="14.463744685272863" lon="121.04540016099274"><ele>38.0</ele><time>2026-04-05T05:49:12.001Z</time></trkpt><trkpt lat="14.463653317032199" lon="121.04540079111845"><ele>38.0</ele><time>2026-04-05T05:49:14.001Z</time></trkpt><trkpt lat="14.463522634524134" lon="121.04540169237703"><ele>38.0</ele><time>2026-04-05T05:49:16.001Z</time></trkpt><trkpt lat="14.463432165207347" lon="121.04540231630381"><ele>37.5</ele><time>2026-04-05T05:49:17.001Z</time></trkpt><trkpt lat="14.463328749440667" lon="121.0454030298839"><ele>37.0</ele><time>2026-04-05T05:49:18.001Z</time></trkpt><trkpt lat="14.463216705772355" lon="121.04540380236784"><ele>36.5</ele><time>2026-04-05T05:49:19.001Z</time></trkpt><trkpt lat="14.463095624337395" lon="121.04540463741161"><ele>36.0</ele><time>2026-04-05T05:49:20.001Z</time></trkpt><trkpt lat="14.462970755343266" lon="121.04540549857644"><ele>36.25</ele><time>2026-04-05T05:49:21.001Z</time></trkpt><trkpt lat="14.462830081563776" lon="121.04540466726075"><ele>36.5</ele><time>2026-04-05T05:49:22.001Z</time></trkpt><trkpt lat="14.462683233970887" lon="121.04540406294939"><ele>36.75</ele><time>2026-04-05T05:49:23.001Z</time></trkpt><trkpt lat="14.462533557407243" lon="121.04540358190098"><ele>37.0</ele><time>2026-04-05T05:49:24.001Z</time></trkpt><trkpt lat="14.462386202124843" lon="121.04540314115728"><ele>37.0</ele><time>2026-04-05T05:49:25.001Z</time></trkpt><trkpt lat="14.46225279859314" lon="121.04540274214384"><ele>37.0</ele><time>2026-04-05T05:49:26.001Z</time></trkpt><trkpt lat="14.462125972737896" lon="121.0454023628051"><ele>37.0</ele><time>2026-04-05T05:49:27.001Z</time></trkpt><trkpt lat="14.462000130112413" lon="121.04540198640662"><ele>37.0</ele><time>2026-04-05T05:49:28.001Z</time></trkpt><trkpt lat="14.461884415540995" lon="121.04540164030122"><ele>37.25</ele><time>2026-04-05T05:49:29.001Z</time></trkpt><trkpt lat="14.461758857802852" lon="121.04540126475496"><ele>37.5</ele><time>2026-04-05T05:49:30.001Z</time></trkpt><trkpt lat="14.461633975830614" lon="121.0454017857298"><ele>37.75</ele><time>2026-04-05T05:49:31.001Z</time></trkpt><trkpt lat="14.461500644835953" lon="121.04540240794135"><ele>38.0</ele><time>2026-04-05T05:49:32.001Z</time></trkpt><trkpt lat="14.46135831520022" lon="121.04540308180539"><ele>38.666666666666664</ele><time>2026-04-05T05:49:33.001Z</time></trkpt><trkpt lat="14.46120967540625" lon="121.04540379039251"><ele>39.333333333333336</ele><time>2026-04-05T05:49:34.001Z</time></trkpt><trkpt lat="14.46105449247999" lon="121.04540466952115"><ele>40.0</ele><time>2026-04-05T05:49:35.001Z</time></trkpt><trkpt lat="14.46089378427583" lon="121.0454056169434"><ele>40.0</ele><time>2026-04-05T05:49:36.001Z</time></trkpt><trkpt lat="14.46072741583744" lon="121.04540659773436"><ele>40.0</ele><time>2026-04-05T05:49:37.001Z</time></trkpt><trkpt lat="14.46056259331947" lon="121.04540756941074"><ele>40.0</ele><time>2026-04-05T05:49:38.001Z</time></trkpt><trkpt lat="14.460399595056598" lon="121.04540853033389"><ele>40.66666666666667</ele><time>2026-04-05T05:49:39.001Z</time></trkpt><trkpt lat="14.460241061588196" lon="121.04540946493711"><ele>41.333333333333336</ele><time>2026-04-05T05:49:40.001Z</time></trkpt><trkpt lat="14.460084877141846" lon="121.04541038569016"><ele>42.0</ele><time>2026-04-05T05:49:41.001Z</time></trkpt><trkpt lat="14.459933864658149" lon="121.04541401291176"><ele>42.0</ele><time>2026-04-05T05:49:42.001Z</time></trkpt><trkpt lat="14.459782489225752" lon="121.04541876179144"><ele>42.0</ele><time>2026-04-05T05:49:43.001Z</time></trkpt><trkpt lat="14.459636573406568" lon="121.04542331160063"><ele>42.0</ele><time>2026-04-05T05:49:44.001Z</time></trkpt><trkpt lat="14.459505188900845" lon="121.04542723939065"><ele>42.0</ele><time>2026-04-05T05:49:45.001Z</time></trkpt><trkpt lat="14.459384753804075" lon="121.04543058499459"><ele>42.0</ele><time>2026-04-05T05:49:46.001Z</time></trkpt><trkpt lat="14.45926550593992" lon="121.0454339832754"><ele>42.0</ele><time>2026-04-05T05:49:47.001Z</time></trkpt><trkpt lat="14.459139846300562" lon="121.04543791241325"><ele>42.0</ele><time>2026-04-05T05:49:48.001Z</time></trkpt><trkpt lat="14.45901672005648" lon="121.04543937970342"><ele>42.0</ele><time>2026-04-05T05:49:49.001Z</time></trkpt><trkpt lat="14.458892689101553" lon="121.04544009315748"><ele>41.75</ele><time>2026-04-05T05:49:50.001Z</time></trkpt><trkpt lat="14.458773674509123" lon="121.04543901843314"><ele>41.5</ele><time>2026-04-05T05:49:51.001Z</time></trkpt><trkpt lat="14.458667205857182" lon="121.04543793972223"><ele>41.25</ele><time>2026-04-05T05:49:52.001Z</time></trkpt><trkpt lat="14.458555731076613" lon="121.04543681029114"><ele>41.0</ele><time>2026-04-05T05:49:53.001Z</time></trkpt><trkpt lat="14.458439243349103" lon="121.04543522154869"><ele>41.0</ele><time>2026-04-05T05:49:54.001Z</time></trkpt><trkpt lat="14.458327567012754" lon="121.04543419848973"><ele>41.0</ele><time>2026-04-05T05:49:55.001Z</time></trkpt><trkpt lat="14.4582094278618" lon="121.0454329516791"><ele>41.0</ele><time>2026-04-05T05:49:56.001Z</time></trkpt><trkpt lat="14.458095697836022" lon="121.04543209410978"><ele>41.0</ele><time>2026-04-05T05:49:57.001Z</time></trkpt><trkpt lat="14.45797165354123" lon="121.04543016928214"><ele>40.0</ele><time>2026-04-05T05:49:58.001Z</time></trkpt><trkpt lat="14.457847537043085" lon="121.04542819448109"><ele>39.0</ele><time>2026-04-05T05:49:59.001Z</time></trkpt><trkpt lat="14.45771991329096" lon="121.0454267411005"><ele>38.0</ele><time>2026-04-05T05:50:00.001Z</time></trkpt><trkpt lat="14.457585202279963" lon="121.04542617330583"><ele>37.0</ele><time>2026-04-05T05:50:01.001Z</time></trkpt><trkpt lat="14.457448079109223" lon="121.0454244806849"><ele>37.0</ele><time>2026-04-05T05:50:02.001Z</time></trkpt><trkpt lat="14.457317583921366" lon="121.04542286987967"><ele>37.0</ele><time>2026-04-05T05:50:03.001Z</time></trkpt><trkpt lat="14.457197448781336" lon="121.045421386958"><ele>37.0</ele><time>2026-04-05T05:50:04.001Z</time></trkpt><trkpt lat="14.457081603459503" lon="121.04541995698725"><ele>37.0</ele><time>2026-04-05T05:50:05Z</time></trkpt><trkpt lat="14.456971498539971" lon="121.04541859787541"><ele>36.75</ele><time>2026-04-05T05:50:06Z</time></trkpt><trkpt lat="14.456850616038354" lon="121.04546707150217"><ele>36.5</ele><time>2026-04-05T05:50:07Z</time></trkpt><trkpt lat="14.456734361322951" lon="121.04546580208023"><ele>36.25</ele><time>2026-04-05T05:50:08Z</time></trkpt><trkpt lat="14.45662001225429" lon="121.0454670918326"><ele>36.0</ele><time>2026-04-05T05:50:09Z</time></trkpt><trkpt lat="14.456515365037108" lon="121.04546918046285"><ele>36.0</ele><time>2026-04-05T05:50:10Z</time></trkpt><trkpt lat="14.456412724152644" lon="121.0454409651751"><ele>36.0</ele><time>2026-04-05T05:50:11Z</time></trkpt><trkpt lat="14.45631333354937" lon="121.04544449615473"><ele>36.0</ele><time>2026-04-05T05:50:12Z</time></trkpt><trkpt lat="14.456215372022008" lon="121.04544893126938"><ele>36.0</ele><time>2026-04-05T05:50:13Z</time></trkpt><trkpt lat="14.456122535613998" lon="121.04545140719217"><ele>36.0</ele><time>2026-04-05T05:50:14Z</time></trkpt><trkpt lat="14.456033487349712" lon="121.04546831005044"><ele>36.4</ele><time>2026-04-05T05:50:15Z</time></trkpt><trkpt lat="14.45593690059345" lon="121.04546523187314"><ele>36.8</ele><time>2026-04-05T05:50:16Z</time></trkpt><trkpt lat="14.45584074436362" lon="121.04546026201386"><ele>37.199999999999996</ele><time>2026-04-05T05:50:17Z</time></trkpt><trkpt lat="14.455737236430329" lon="121.04545948526555"><ele>37.6</ele><time>2026-04-05T05:50:18Z</time></trkpt><trkpt lat="14.45562299506351" lon="121.04546558211909"><ele>38.0</ele><time>2026-04-05T05:50:19Z</time></trkpt><trkpt lat="14.455517474381661" lon="121.04546928989365"><ele>36.8</ele><time>2026-04-05T05:50:20Z</time></trkpt><trkpt lat="14.455423858373965" lon="121.04548042909812"><ele>35.599999999999994</ele><time>2026-04-05T05:50:21Z</time></trkpt><trkpt lat="14.455324765967648" lon="121.04549084769174"><ele>34.400000000000006</ele><time>2026-04-05T05:50:22Z</time></trkpt><trkpt lat="14.455220746443814" lon="121.04550338357161"><ele>33.2</ele><time>2026-04-05T05:50:23Z</time></trkpt><trkpt lat="14.45511839988631" lon="121.04552580459985"><ele>32.0</ele><time>2026-04-05T05:50:24Z</time></trkpt><trkpt lat="14.455021894484664" lon="121.045555559295"><ele>31.999999999999996</ele><time>2026-04-05T05:50:25Z</time></trkpt><trkpt lat="14.454931756040896" lon="121.04558253904602"><ele>32.0</ele><time>2026-04-05T05:50:26Z</time></trkpt><trkpt lat="14.454855048585431" lon="121.0456055250584"><ele>32.0</ele><time>2026-04-05T05:50:27Z</time></trkpt><trkpt lat="14.454789077526883" lon="121.04563062683214"><ele>32.0</ele><time>2026-04-05T05:50:28Z</time></trkpt><trkpt lat="14.454700564147808" lon="121.04565788746848"><ele>31.999999999999996</ele><time>2026-04-05T05:50:30Z</time></trkpt><trkpt lat="14.45463617025324" lon="121.04567961873202"><ele>32.0</ele><time>2026-04-05T05:50:33Z</time></trkpt><trkpt lat="14.454545926689569" lon="121.04571240006416"><ele>31.0</ele><time>2026-04-05T05:50:35Z</time></trkpt><trkpt lat="14.45448273793843" lon="121.04573696264501"><ele>30.000000000000004</ele><time>2026-04-05T05:50:36Z</time></trkpt><trkpt lat="14.454415076251554" lon="121.04575386695771"><ele>29.000000000000004</ele><time>2026-04-05T05:50:37Z</time></trkpt><trkpt lat="14.454320013160448" lon="121.04578605253643"><ele>28.0</ele><time>2026-04-05T05:50:39Z</time></trkpt><trkpt lat="14.454210242313769" lon="121.04583394335525"><ele>27.0</ele><time>2026-04-05T05:50:41Z</time></trkpt><trkpt lat="14.454117306646133" lon="121.04580249949305"><ele>26.833333333333332</ele><time>2026-04-05T05:50:42Z</time></trkpt><trkpt lat="14.454042842517278" lon="121.04582720291273"><ele>26.666666666666664</ele><time>2026-04-05T05:50:43.001Z</time></trkpt><trkpt lat="14.453956712392744" lon="121.04585674099435"><ele>26.5</ele><time>2026-04-05T05:50:44.001Z</time></trkpt><trkpt lat="14.453857609985286" lon="121.04589436338397"><ele>26.333333333333332</ele><time>2026-04-05T05:50:46.001Z</time></trkpt><trkpt lat="14.453796685050756" lon="121.04592752833184"><ele>26.166666666666664</ele><time>2026-04-05T05:50:48.001Z</time></trkpt><trkpt lat="14.453723620914099" lon="121.04594080416453"><ele>26.0</ele><time>2026-04-05T05:50:50.001Z</time></trkpt><trkpt lat="14.453638362342632" lon="121.04596212179935"><ele>25.6</ele><time>2026-04-05T05:50:52.001Z</time></trkpt><trkpt lat="14.45355414811113" lon="121.04598794648314"><ele>25.200000000000003</ele><time>2026-04-05T05:50:54.001Z</time></trkpt><trkpt lat="14.453519131611936" lon="121.04611233917993"><ele>24.799999999999997</ele><time>2026-04-05T05:50:55.001Z</time></trkpt><trkpt lat="14.453503691850795" lon="121.04617825506215"><ele>24.4</ele><time>2026-04-05T05:50:56.001Z</time></trkpt><trkpt lat="14.45347839942123" lon="121.04628623431614"><ele>24.0</ele><time>2026-04-05T05:50:57.001Z</time></trkpt><trkpt lat="14.453455848747591" lon="121.04637886006631"><ele>24.0</ele><time>2026-04-05T05:50:58.001Z</time></trkpt><trkpt lat="14.453427368983537" lon="121.04649791097121"><ele>24.0</ele><time>2026-04-05T05:50:59.001Z</time></trkpt><trkpt lat="14.453402098623144" lon="121.0466035563226"><ele>24.0</ele><time>2026-04-05T05:51:00.001Z</time></trkpt><trkpt lat="14.453374446235799" lon="121.04671922488542"><ele>24.0</ele><time>2026-04-05T05:51:01.001Z</time></trkpt><trkpt lat="14.453347387172082" lon="121.04684619697423"><ele>23.5</ele><time>2026-04-05T05:51:02.001Z</time></trkpt><trkpt lat="14.453320523458316" lon="121.04697358803604"><ele>23.0</ele><time>2026-04-05T05:51:03.001Z</time></trkpt><trkpt lat="14.453293006334917" lon="121.04710407764726"><ele>22.5</ele><time>2026-04-05T05:51:04.001Z</time></trkpt><trkpt lat="14.4532663614017" lon="121.04723414919606"><ele>22.0</ele><time>2026-04-05T05:51:05.001Z</time></trkpt><trkpt lat="14.453238954467095" lon="121.04736594734878"><ele>20.5</ele><time>2026-04-05T05:51:06.001Z</time></trkpt><trkpt lat="14.453219738190235" lon="121.04749693198247"><ele>19.0</ele><time>2026-04-05T05:51:07.001Z</time></trkpt><trkpt lat="14.45318213239576" lon="121.04762899675532"><ele>17.5</ele><time>2026-04-05T05:51:08.001Z</time></trkpt><trkpt lat="14.453148193667495" lon="121.04775784173874"><ele>16.0</ele><time>2026-04-05T05:51:09.001Z</time></trkpt><trkpt lat="14.453075599091763" lon="121.04786439377231"><ele>16.0</ele><time>2026-04-05T05:51:10.001Z</time></trkpt><trkpt lat="14.453046064173993" lon="121.04797078375634"><ele>16.0</ele><time>2026-04-05T05:51:11.001Z</time></trkpt><trkpt lat="14.453023294046329" lon="121.04806152080583"><ele>16.0</ele><time>2026-04-05T05:51:12.001Z</time></trkpt><trkpt lat="14.45300348141037" lon="121.04814047251935"><ele>16.0</ele><time>2026-04-05T05:51:13.001Z</time></trkpt><trkpt lat="14.452986596274897" lon="121.04820775842786"><ele>16.0</ele><time>2026-04-05T05:51:14.001Z</time></trkpt><trkpt lat="14.452954995004083" lon="121.0483182166596"><ele>15.999999999999998</ele><time>2026-04-05T05:51:16.001Z</time></trkpt><trkpt lat="14.4529345422644" lon="121.04839145438456"><ele>16.0</ele><time>2026-04-05T05:51:19.001Z</time></trkpt><trkpt lat="14.45290850822417" lon="121.04846185163038"><ele>16.0</ele><time>2026-04-05T05:51:26.001Z</time></trkpt><trkpt lat="14.452867703259415" lon="121.0485429379983"><ele>16.0</ele><time>2026-04-05T05:51:27.001Z</time></trkpt><trkpt lat="14.452826833782257" lon="121.04862345276291"><ele>15.999999999999998</ele><time>2026-04-05T05:51:28.001Z</time></trkpt><trkpt lat="14.452767515104332" lon="121.0487049642949"><ele>16.0</ele><time>2026-04-05T05:51:29.001Z</time></trkpt><trkpt lat="14.452708532186033" lon="121.04879043477852"><ele>16.0</ele><time>2026-04-05T05:51:30.001Z</time></trkpt><trkpt lat="14.452662493084318" lon="121.04888840469984"><ele>16.0</ele><time>2026-04-05T05:51:31.001Z</time></trkpt><trkpt lat="14.452600541891053" lon="121.04897773203838"><ele>16.0</ele><time>2026-04-05T05:51:32.001Z</time></trkpt><trkpt lat="14.452580043393548" lon="121.04909325427843"><ele>16.0</ele><time>2026-04-05T05:51:33.001Z</time></trkpt><trkpt lat="14.45256256198454" lon="121.04920985876521"><ele>16.0</ele><time>2026-04-05T05:51:34.001Z</time></trkpt><trkpt lat="14.452557078916273" lon="121.04932934608108"><ele>14.75</ele><time>2026-04-05T05:51:35.001Z</time></trkpt><trkpt lat="14.452554356124372" lon="121.04945941056144"><ele>13.5</ele><time>2026-04-05T05:51:36.001Z</time></trkpt><trkpt lat="14.452531744139831" lon="121.04959573532031"><ele>12.25</ele><time>2026-04-05T05:51:37.001Z</time></trkpt><trkpt lat="14.452520950963924" lon="121.04973012076601"><ele>11.0</ele><time>2026-04-05T05:51:38.001Z</time></trkpt><trkpt lat="14.452509778094637" lon="121.0498726208161"><ele>11.25</ele><time>2026-04-05T05:51:39.001Z</time></trkpt><trkpt lat="14.45250012425645" lon="121.0500105008964"><ele>11.5</ele><time>2026-04-05T05:51:40.001Z</time></trkpt><trkpt lat="14.452492704642843" lon="121.05013584768226"><ele>11.75</ele><time>2026-04-05T05:51:41.001Z</time></trkpt><trkpt lat="14.452485053120132" lon="121.05026182449578"><ele>12.0</ele><time>2026-04-05T05:51:42.001Z</time></trkpt><trkpt lat="14.452477947251026" lon="121.05037836647652"><ele>12.0</ele><time>2026-04-05T05:51:43.001Z</time></trkpt><trkpt lat="14.452471431386911" lon="121.05048523193143"><ele>12.0</ele><time>2026-04-05T05:51:44.001Z</time></trkpt><trkpt lat="14.452476175355415" lon="121.05057950356294"><ele>12.0</ele><time>2026-04-05T05:51:45.001Z</time></trkpt><trkpt lat="14.452426851816789" lon="121.05063463387371"><ele>12.0</ele><time>2026-04-05T05:51:46.001Z</time></trkpt><trkpt lat="14.452306653961806" lon="121.05069795437875"><ele>12.0</ele><time>2026-04-05T05:51:48.001Z</time></trkpt><trkpt lat="14.452219405646856" lon="121.05066489781528"><ele>12.0</ele><time>2026-04-05T05:51:49.001Z</time></trkpt><trkpt lat="14.45211799416063" lon="121.05066345431847"><ele>12.0</ele><time>2026-04-05T05:51:50.001Z</time></trkpt><trkpt lat="14.452009785549606" lon="121.05064512976023"><ele>12.0</ele><time>2026-04-05T05:51:51.001Z</time></trkpt><trkpt lat="14.451890673018351" lon="121.0506319360873"><ele>12.0</ele><time>2026-04-05T05:51:52.001Z</time></trkpt><trkpt lat="14.451770954569861" lon="121.05062087518259"><ele>12.0</ele><time>2026-04-05T05:51:53.001Z</time></trkpt><trkpt lat="14.451640126925273" lon="121.0506110642768"><ele>12.0</ele><time>2026-04-05T05:51:54.001Z</time></trkpt><trkpt lat="14.451504026823667" lon="121.05059474816613"><ele>12.0</ele><time>2026-04-05T05:51:55.001Z</time></trkpt><trkpt lat="14.451369407653479" lon="121.05057608007404"><ele>12.0</ele><time>2026-04-05T05:51:56.001Z</time></trkpt><trkpt lat="14.451224534609233" lon="121.05055846776277"><ele>11.0</ele><time>2026-04-05T05:51:57.001Z</time></trkpt><trkpt lat="14.451080243621096" lon="121.05054456485938"><ele>10.0</ele><time>2026-04-05T05:51:58.001Z</time></trkpt><trkpt lat="14.45093489497403" lon="121.05052981840117"><ele>9.0</ele><time>2026-04-05T05:51:59.001Z</time></trkpt><trkpt lat="14.450786971326243" lon="121.05051045065125"><ele>8.0</ele><time>2026-04-05T05:52:00.001Z</time></trkpt><trkpt lat="14.450651903978395" lon="121.05049290149068"><ele>8.0</ele><time>2026-04-05T05:52:01.001Z</time></trkpt><trkpt lat="14.450527206395702" lon="121.05047536869355"><ele>8.0</ele><time>2026-04-05T05:52:02.001Z</time></trkpt><trkpt lat="14.450423276839043" lon="121.05046510332608"><ele>8.0</ele><time>2026-04-05T05:52:03.001Z</time></trkpt><trkpt lat="14.450334763962436" lon="121.05045748917051"><ele>8.0</ele><time>2026-04-05T05:52:04.001Z</time></trkpt><trkpt lat="14.450264952580063" lon="121.05045458741313"><ele>8.0</ele><time>2026-04-05T05:52:05.001Z</time></trkpt><trkpt lat="14.45016199142397" lon="121.05050666600796"><ele>7.833333333333333</ele><time>2026-04-05T05:52:07.001Z</time></trkpt><trkpt lat="14.450131466375074" lon="121.0505727761273"><ele>7.666666666666666</ele><time>2026-04-05T05:52:08.001Z</time></trkpt><trkpt lat="14.450109770220251" lon="121.05065637785277"><ele>7.5</ele><time>2026-04-05T05:52:09.001Z</time></trkpt><trkpt lat="14.45006882412607" lon="121.05071924641958"><ele>7.333333333333334</ele><time>2026-04-05T05:52:10.001Z</time></trkpt><trkpt lat="14.450057962713975" lon="121.0508090120369"><ele>7.166666666666667</ele><time>2026-04-05T05:52:11.001Z</time></trkpt><trkpt lat="14.450027974562481" lon="121.05092535405556"><ele>7.0</ele><time>2026-04-05T05:52:13.001Z</time></trkpt><trkpt lat="14.450011266736732" lon="121.05099017384542"><ele>7.333333333333334</ele><time>2026-04-05T05:52:14.001Z</time></trkpt><trkpt lat="14.449991096062162" lon="121.0510533475303"><ele>7.666666666666667</ele><time>2026-04-05T05:52:15.001Z</time></trkpt><trkpt lat="14.449969169373443" lon="121.05112493868484"><ele>8.0</ele><time>2026-04-05T05:52:16.001Z</time></trkpt><trkpt lat="14.449945863477165" lon="121.05119654560266"><ele>8.333333333333334</ele><time>2026-04-05T05:52:17.001Z</time></trkpt><trkpt lat="14.449909882041242" lon="121.05128316758868"><ele>8.666666666666666</ele><time>2026-04-05T05:52:19.001Z</time></trkpt><trkpt lat="14.449876682900872" lon="121.05134309727538"><ele>9.0</ele><time>2026-04-05T05:52:24Z</time></trkpt><trkpt lat="14.449780632076788" lon="121.05132676009214"><ele>9.0</ele><time>2026-04-05T05:52:26Z</time></trkpt><trkpt lat="14.449695372462562" lon="121.05131512491099"><ele>9.0</ele><time>2026-04-05T05:52:27Z</time></trkpt><trkpt lat="14.44960955401311" lon="121.05130341347268"><ele>9.0</ele><time>2026-04-05T05:52:28Z</time></trkpt><trkpt lat="14.44954274331514" lon="121.05129429598121"><ele>9.0</ele><time>2026-04-05T05:52:29Z</time></trkpt><trkpt lat="14.449455221409204" lon="121.05128235207596"><ele>9.0</ele><time>2026-04-05T05:52:30Z</time></trkpt><trkpt lat="14.449360466809061" lon="121.05126760607122"><ele>9.0</ele><time>2026-04-05T05:52:31.001Z</time></trkpt><trkpt lat="14.449272965649186" lon="121.05125299030149"><ele>8.8</ele><time>2026-04-05T05:52:32.001Z</time></trkpt><trkpt lat="14.449186615343498" lon="121.05123856676394"><ele>8.600000000000001</ele><time>2026-04-05T05:52:33.001Z</time></trkpt><trkpt lat="14.449089758440257" lon="121.05122238825425"><ele>8.4</ele><time>2026-04-05T05:52:34.001Z</time></trkpt><trkpt lat="14.448994302706195" lon="121.0512064437836"><ele>8.200000000000001</ele><time>2026-04-05T05:52:35.001Z</time></trkpt><trkpt lat="14.448905852559673" lon="121.05119146224028"><ele>8.0</ele><time>2026-04-05T05:52:36.001Z</time></trkpt><trkpt lat="14.448812983887121" lon="121.05117480622008"><ele>8.200000000000001</ele><time>2026-04-05T05:52:37.001Z</time></trkpt><trkpt lat="14.44872362966774" lon="121.0511587805199"><ele>8.4</ele><time>2026-04-05T05:52:38.001Z</time></trkpt><trkpt lat="14.44863514905822" lon="121.05114287558195"><ele>8.600000000000001</ele><time>2026-04-05T05:52:39.001Z</time></trkpt><trkpt lat="14.44854059327359" lon="121.05112586301004"><ele>8.8</ele><time>2026-04-05T05:52:40.001Z</time></trkpt><trkpt lat="14.448447898881305" lon="121.05110918534183"><ele>9.0</ele><time>2026-04-05T05:52:41.001Z</time></trkpt><trkpt lat="14.448357315393913" lon="121.05109288747164"><ele>9.0</ele><time>2026-04-05T05:52:42.001Z</time></trkpt><trkpt lat="14.448264700382278" lon="121.05107622408606"><ele>9.0</ele><time>2026-04-05T05:52:43.001Z</time></trkpt><trkpt lat="14.448171035553496" lon="121.05105937181646"><ele>9.0</ele><time>2026-04-05T05:52:44.001Z</time></trkpt><trkpt lat="14.448073812451806" lon="121.05104187933541"><ele>9.0</ele><time>2026-04-05T05:52:45.001Z</time></trkpt><trkpt lat="14.447975318880973" lon="121.05102415827598"><ele>9.0</ele><time>2026-04-05T05:52:46.001Z</time></trkpt><trkpt lat="14.447883348019761" lon="121.05100761078772"><ele>8.833333333333334</ele><time>2026-04-05T05:52:47.001Z</time></trkpt><trkpt lat="14.447798446685919" lon="121.05099233525546"><ele>8.666666666666666</ele><time>2026-04-05T05:52:48.001Z</time></trkpt><trkpt lat="14.447709066693882" lon="121.05097625391959"><ele>8.5</ele><time>2026-04-05T05:52:49.001Z</time></trkpt><trkpt lat="14.447621645824157" lon="121.05096052506785"><ele>8.333333333333332</ele><time>2026-04-05T05:52:50.001Z</time></trkpt><trkpt lat="14.447555857912379" lon="121.05094868844664"><ele>8.166666666666666</ele><time>2026-04-05T05:52:51.001Z</time></trkpt><trkpt lat="14.447469813500586" lon="121.05093320725064"><ele>8.0</ele><time>2026-04-05T05:52:52.001Z</time></trkpt><trkpt lat="14.447378346440443" lon="121.05091675040427"><ele>7.999999999999999</ele><time>2026-04-05T05:52:53.001Z</time></trkpt><trkpt lat="14.447296170084849" lon="121.05090201747572"><ele>8.0</ele><time>2026-04-05T05:52:54.001Z</time></trkpt><trkpt lat="14.447212290179088" lon="121.05088699811208"><ele>8.0</ele><time>2026-04-05T05:52:55.001Z</time></trkpt><trkpt lat="14.447136212174511" lon="121.05087337573543"><ele>8.0</ele><time>2026-04-05T05:52:56.001Z</time></trkpt><trkpt lat="14.447056312801207" lon="121.0508590691224"><ele>7.999999999999999</ele><time>2026-04-05T05:52:57.001Z</time></trkpt><trkpt lat="14.4469855293818" lon="121.05084639478068"><ele>8.0</ele><time>2026-04-05T05:52:58.001Z</time></trkpt><trkpt lat="14.446913252513456" lon="121.05083345304207"><ele>8.166666666666666</ele><time>2026-04-05T05:52:59.001Z</time></trkpt><trkpt lat="14.446837436176354" lon="121.05081987752416"><ele>8.333333333333332</ele><time>2026-04-05T05:53:00.001Z</time></trkpt><trkpt lat="14.446751063685099" lon="121.05080441183577"><ele>8.5</ele><time>2026-04-05T05:53:01.001Z</time></trkpt><trkpt lat="14.44667022516177" lon="121.05078993706032"><ele>8.666666666666666</ele><time>2026-04-05T05:53:02.001Z</time></trkpt><trkpt lat="14.446585248945496" lon="121.0507747213959"><ele>8.833333333333334</ele><time>2026-04-05T05:53:03.001Z</time></trkpt><trkpt lat="14.446496645179275" lon="121.05075885618118"><ele>9.0</ele><time>2026-04-05T05:53:04.001Z</time></trkpt><trkpt lat="14.446421399582636" lon="121.05074538286064"><ele>9.0</ele><time>2026-04-05T05:53:05.001Z</time></trkpt><trkpt lat="14.446318350881313" lon="121.05072693116912"><ele>9.0</ele><time>2026-04-05T05:53:07.001Z</time></trkpt><trkpt lat="14.446225162651908" lon="121.05072250536195"><ele>9.0</ele><time>2026-04-05T05:53:09.001Z</time></trkpt><trkpt lat="14.446103939621645" lon="121.05068853913292"><ele>9.0</ele><time>2026-04-05T05:53:11.001Z</time></trkpt><trkpt lat="14.446025501266117" lon="121.0506744941185"><ele>9.0</ele><time>2026-04-05T05:53:12.001Z</time></trkpt><trkpt lat="14.445937664194775" lon="121.05065876619562"><ele>9.0</ele><time>2026-04-05T05:53:13.001Z</time></trkpt><trkpt lat="14.445845408976535" lon="121.05064182689647"><ele>9.0</ele><time>2026-04-05T05:53:14.001Z</time></trkpt><trkpt lat="14.445758950570351" lon="121.0506408828254"><ele>9.0</ele><time>2026-04-05T05:53:15.001Z</time></trkpt><trkpt lat="14.445666493919072" lon="121.0506076760594"><ele>9.0</ele><time>2026-04-05T05:53:16.001Z</time></trkpt><trkpt lat="14.44557127404489" lon="121.05058950073291"><ele>9.0</ele><time>2026-04-05T05:53:17.001Z</time></trkpt><trkpt lat="14.445457104165225" lon="121.0505805202786"><ele>8.833333333333334</ele><time>2026-04-05T05:53:18.001Z</time></trkpt><trkpt lat="14.445337063979093" lon="121.05055911710284"><ele>8.666666666666666</ele><time>2026-04-05T05:53:20.001Z</time></trkpt><trkpt lat="14.445257162509245" lon="121.05054924783869"><ele>8.5</ele><time>2026-04-05T05:53:21.001Z</time></trkpt><trkpt lat="14.44516965982668" lon="121.0505419847581"><ele>8.333333333333332</ele><time>2026-04-05T05:53:22.001Z</time></trkpt><trkpt lat="14.445086886549596" lon="121.05053526431138"><ele>8.166666666666666</ele><time>2026-04-05T05:53:23.001Z</time></trkpt><trkpt lat="14.445016567793884" lon="121.05052979248508"><ele>8.0</ele><time>2026-04-05T05:53:24.001Z</time></trkpt><trkpt lat="14.444895293776256" lon="121.05052005655644"><ele>7.999999999999999</ele><time>2026-04-05T05:53:26.001Z</time></trkpt><trkpt lat="14.444803362218492" lon="121.05051261139502"><ele>8.0</ele><time>2026-04-05T05:53:28.001Z</time></trkpt><trkpt lat="14.444721331135451" lon="121.05051178836241"><ele>8.0</ele><time>2026-04-05T05:53:31.001Z</time></trkpt><trkpt lat="14.444611160130151" lon="121.0505121865341"><ele>8.0</ele><time>2026-04-05T05:53:33.001Z</time></trkpt><trkpt lat="14.444539853143755" lon="121.05051244424638"><ele>7.999999999999999</ele><time>2026-04-05T05:53:34.001Z</time></trkpt><trkpt lat="14.444459732100587" lon="121.05051273381372"><ele>8.0</ele><time>2026-04-05T05:53:35.001Z</time></trkpt><trkpt lat="14.444379477366281" lon="121.0505130238689"><ele>8.166666666666666</ele><time>2026-04-05T05:53:36.001Z</time></trkpt><trkpt lat="14.444294439301931" lon="121.05051697188293"><ele>8.333333333333332</ele><time>2026-04-05T05:53:37.001Z</time></trkpt><trkpt lat="14.444211047936504" lon="121.05051952079738"><ele>8.5</ele><time>2026-04-05T05:53:38.001Z</time></trkpt><trkpt lat="14.444127611652966" lon="121.05052207108476"><ele>8.666666666666666</ele><time>2026-04-05T05:53:39.001Z</time></trkpt><trkpt lat="14.44404639804455" lon="121.0505245534349"><ele>8.833333333333334</ele><time>2026-04-05T05:53:40.001Z</time></trkpt><trkpt lat="14.443969943056386" lon="121.05052689033414"><ele>9.0</ele><time>2026-04-05T05:53:41.001Z</time></trkpt><trkpt lat="14.443892522462896" lon="121.05052925674828"><ele>9.0</ele><time>2026-04-05T05:53:42.001Z</time></trkpt><trkpt lat="14.443811222821868" lon="121.05053174172852"><ele>9.0</ele><time>2026-04-05T05:53:43.001Z</time></trkpt><trkpt lat="14.443723259625974" lon="121.05053443038462"><ele>9.0</ele><time>2026-04-05T05:53:44.001Z</time></trkpt><trkpt lat="14.443637299363989" lon="121.05053705782"><ele>9.0</ele><time>2026-04-05T05:53:45.001Z</time></trkpt><trkpt lat="14.44355928160704" lon="121.05053944248745"><ele>9.0</ele><time>2026-04-05T05:53:46.001Z</time></trkpt><trkpt lat="14.443484883764922" lon="121.05054171651977"><ele>9.0</ele><time>2026-04-05T05:53:47.001Z</time></trkpt><trkpt lat="14.443419205605851" lon="121.05053656265221"><ele>8.5</ele><time>2026-04-05T05:53:48.001Z</time></trkpt><trkpt lat="14.443316325352642" lon="121.05053419804268"><ele>8.0</ele><time>2026-04-05T05:53:50.001Z</time></trkpt><trkpt lat="14.443236648091283" lon="121.0505323667313"><ele>7.5</ele><time>2026-04-05T05:53:52.001Z</time></trkpt><trkpt lat="14.44316240370776" lon="121.05054441974687"><ele>7.0</ele><time>2026-04-05T05:53:55.001Z</time></trkpt><trkpt lat="14.44307815600398" lon="121.05052872393361"><ele>6.5</ele><time>2026-04-05T05:53:59.001Z</time></trkpt><trkpt lat="14.443009410573932" lon="121.05052714387674"><ele>6.0</ele><time>2026-04-05T05:54:01.001Z</time></trkpt><trkpt lat="14.44292221868801" lon="121.05054014845791"><ele>6.0</ele><time>2026-04-05T05:54:05.001Z</time></trkpt><trkpt lat="14.442853070060385" lon="121.05053711862381"><ele>6.0</ele><time>2026-04-05T05:54:07.001Z</time></trkpt><trkpt lat="14.442783561848637" lon="121.05053887986809"><ele>6.0</ele><time>2026-04-05T05:54:09.001Z</time></trkpt><trkpt lat="14.442702685335613" lon="121.05054061516933"><ele>6.0</ele><time>2026-04-05T05:54:11.001Z</time></trkpt><trkpt lat="14.442608509068297" lon="121.05053947042147"><ele>6.0</ele><time>2026-04-05T05:54:13.001Z</time></trkpt><trkpt lat="14.442509019801665" lon="121.0505435741097"><ele>6.0</ele><time>2026-04-05T05:54:15.001Z</time></trkpt><trkpt lat="14.442404370583201" lon="121.05054313064824"><ele>6.0</ele><time>2026-04-05T05:54:17Z</time></trkpt><trkpt lat="14.44230190248421" lon="121.05054847262771"><ele>6.0</ele><time>2026-04-05T05:54:19Z</time></trkpt><trkpt lat="14.442212455324224" lon="121.05055454148057"><ele>6.0</ele><time>2026-04-05T05:54:21Z</time></trkpt><trkpt lat="14.442131517840158" lon="121.05054468595239"><ele>6.0</ele><time>2026-04-05T05:54:23Z</time></trkpt><trkpt lat="14.442031693811433" lon="121.0505533655006"><ele>6.0</ele><time>2026-04-05T05:54:25Z</time></trkpt><trkpt lat="14.441919188897463" lon="121.05057692836746"><ele>6.166666666666667</ele><time>2026-04-05T05:54:27Z</time></trkpt><trkpt lat="14.44184996357515" lon="121.05056891198541"><ele>6.333333333333334</ele><time>2026-04-05T05:54:28Z</time></trkpt><trkpt lat="14.441777511343465" lon="121.0505744580512"><ele>6.5</ele><time>2026-04-05T05:54:29Z</time></trkpt><trkpt lat="14.441692683892892" lon="121.05058083205962"><ele>6.666666666666667</ele><time>2026-04-05T05:54:30Z</time></trkpt><trkpt lat="14.441600463925464" lon="121.05058667982641"><ele>6.833333333333334</ele><time>2026-04-05T05:54:31Z</time></trkpt><trkpt lat="14.44150781007674" lon="121.05059062115828"><ele>7.0</ele><time>2026-04-05T05:54:32Z</time></trkpt><trkpt lat="14.441420973906473" lon="121.05059431501442"><ele>7.000000000000001</ele><time>2026-04-05T05:54:33Z</time></trkpt><trkpt lat="14.441330970958125" lon="121.05059814358077"><ele>7.0</ele><time>2026-04-05T05:54:34Z</time></trkpt><trkpt lat="14.441230419779837" lon="121.05060242085139"><ele>7.0</ele><time>2026-04-05T05:54:35Z</time></trkpt><trkpt lat="14.44113902943009" lon="121.05060630843471"><ele>7.0</ele><time>2026-04-05T05:54:36Z</time></trkpt><trkpt lat="14.441061181733337" lon="121.05060959143461"><ele>7.000000000000001</ele><time>2026-04-05T05:54:37Z</time></trkpt><trkpt lat="14.44099059873923" lon="121.0506121586683"><ele>7.0</ele><time>2026-04-05T05:54:38Z</time></trkpt><trkpt lat="14.440917410671986" lon="121.05061137451031"><ele>7.166666666666667</ele><time>2026-04-05T05:54:39Z</time></trkpt><trkpt lat="14.440836242091626" lon="121.05061050484748"><ele>7.333333333333334</ele><time>2026-04-05T05:54:40Z</time></trkpt><trkpt lat="14.440763684586877" lon="121.05060972744596"><ele>7.5</ele><time>2026-04-05T05:54:41Z</time></trkpt><trkpt lat="14.440688784351252" lon="121.0506209953718"><ele>7.666666666666666</ele><time>2026-04-05T05:54:42Z</time></trkpt><trkpt lat="14.440627474785472" lon="121.05059955017786"><ele>7.833333333333333</ele><time>2026-04-05T05:54:43Z</time></trkpt><trkpt lat="14.4405157469014" lon="121.05059759608316"><ele>8.0</ele><time>2026-04-05T05:54:45Z</time></trkpt><trkpt lat="14.440412834103098" lon="121.05059494280921"><ele>7.999999999999999</ele><time>2026-04-05T05:54:47Z</time></trkpt><trkpt lat="14.440346730786324" lon="121.05057460008183"><ele>8.0</ele><time>2026-04-05T05:54:48Z</time></trkpt><trkpt lat="14.440209015454856" lon="121.0505752671602"><ele>8.0</ele><time>2026-04-05T05:54:50Z</time></trkpt><trkpt lat="14.440130847926115" lon="121.0505709439617"><ele>8.0</ele><time>2026-04-05T05:54:51Z</time></trkpt><trkpt lat="14.440061580579277" lon="121.05056315323309"><ele>7.999999999999999</ele><time>2026-04-05T05:54:52Z</time></trkpt><trkpt lat="14.439990395833984" lon="121.05056035459167"><ele>8.0</ele><time>2026-04-05T05:54:53Z</time></trkpt><trkpt lat="14.439925692249" lon="121.05055448121178"><ele>8.0</ele><time>2026-04-05T05:54:54Z</time></trkpt><trkpt lat="14.439808548199245" lon="121.05052629386947"><ele>8.0</ele><time>2026-04-05T05:54:56Z</time></trkpt><trkpt lat="14.439677224182214" lon="121.05052639401917"><ele>8.0</ele><time>2026-04-05T05:54:58Z</time></trkpt><trkpt lat="14.439610725755728" lon="121.05051799985243"><ele>8.0</ele><time>2026-04-05T05:54:59.001Z</time></trkpt><trkpt lat="14.4395368585076" lon="121.05051088305186"><ele>8.0</ele><time>2026-04-05T05:55:00.001Z</time></trkpt><trkpt lat="14.43946469698489" lon="121.05050212966252"><ele>7.800000000000001</ele><time>2026-04-05T05:55:01.001Z</time></trkpt><trkpt lat="14.439390171420486" lon="121.05049444433863"><ele>7.6000000000000005</ele><time>2026-04-05T05:55:02.001Z</time></trkpt><trkpt lat="14.439322941454074" lon="121.05047283260917"><ele>7.3999999999999995</ele><time>2026-04-05T05:55:03.001Z</time></trkpt><trkpt lat="14.439258792382185" lon="121.0504826318461"><ele>7.199999999999999</ele><time>2026-04-05T05:55:04.001Z</time></trkpt><trkpt lat="14.439148454123824" lon="121.05045353692731"><ele>7.0</ele><time>2026-04-05T05:55:06.001Z</time></trkpt><trkpt lat="14.439015916256785" lon="121.05043888022307"><ele>7.000000000000001</ele><time>2026-04-05T05:55:08.001Z</time></trkpt><trkpt lat="14.438944635076828" lon="121.05043099759702"><ele>7.0</ele><time>2026-04-05T05:55:09.001Z</time></trkpt><trkpt lat="14.438870672347251" lon="121.05042286627742"><ele>7.0</ele><time>2026-04-05T05:55:10.001Z</time></trkpt><trkpt lat="14.438786624430277" lon="121.05041501776978"><ele>7.0</ele><time>2026-04-05T05:55:11.001Z</time></trkpt><trkpt lat="14.4387041918706" lon="121.05040732010143"><ele>7.000000000000001</ele><time>2026-04-05T05:55:12.001Z</time></trkpt><trkpt lat="14.438633967944442" lon="121.05040076249982"><ele>7.0</ele><time>2026-04-05T05:55:13.001Z</time></trkpt><trkpt lat="14.438563355835582" lon="121.05039416864741"><ele>7.000000000000001</ele><time>2026-04-05T05:55:14.001Z</time></trkpt><trkpt lat="14.438478076140191" lon="121.05038620511422"><ele>7.0</ele><time>2026-04-05T05:55:15.001Z</time></trkpt><trkpt lat="14.438404150961864" lon="121.05037930188242"><ele>7.0</ele><time>2026-04-05T05:55:16.001Z</time></trkpt><trkpt lat="14.438327050730557" lon="121.05037210215593"><ele>7.0</ele><time>2026-04-05T05:55:17.001Z</time></trkpt><trkpt lat="14.43825900742482" lon="121.05036574817716"><ele>7.000000000000001</ele><time>2026-04-05T05:55:18.001Z</time></trkpt><trkpt lat="14.43813381128997" lon="121.0503540571998"><ele>7.0</ele><time>2026-04-05T05:55:20.001Z</time></trkpt><trkpt lat="14.438012561658697" lon="121.05034273466792"><ele>7.199999999999999</ele><time>2026-04-05T05:55:22.001Z</time></trkpt><trkpt lat="14.437891280072233" lon="121.0503216395746"><ele>7.3999999999999995</ele><time>2026-04-05T05:55:24.001Z</time></trkpt><trkpt lat="14.437818799163411" lon="121.05031087452126"><ele>7.6000000000000005</ele><time>2026-04-05T05:55:25.001Z</time></trkpt><trkpt lat="14.437744411130407" lon="121.05029982622283"><ele>7.800000000000001</ele><time>2026-04-05T05:55:26.001Z</time></trkpt><trkpt lat="14.437639490431579" lon="121.05028424313745"><ele>8.0</ele><time>2026-04-05T05:55:28.001Z</time></trkpt><trkpt lat="14.437518423222754" lon="121.05026677668947"><ele>8.0</ele><time>2026-04-05T05:55:30.001Z</time></trkpt><trkpt lat="14.437405417618216" lon="121.0502516093854"><ele>8.0</ele><time>2026-04-05T05:55:32.001Z</time></trkpt><trkpt lat="14.437287042462831" lon="121.05023572139591"><ele>8.0</ele><time>2026-04-05T05:55:34.001Z</time></trkpt><trkpt lat="14.437204813061438" lon="121.05024129050663"><ele>8.0</ele><time>2026-04-05T05:55:36.001Z</time></trkpt><trkpt lat="14.437102137060817" lon="121.05021298217774"><ele>8.0</ele><time>2026-04-05T05:55:38.001Z</time></trkpt><trkpt lat="14.437009708400637" lon="121.05020953019297"><ele>8.0</ele><time>2026-04-05T05:55:40.001Z</time></trkpt><trkpt lat="14.436925909247428" lon="121.05020640049798"><ele>8.0</ele><time>2026-04-05T05:55:42.001Z</time></trkpt><trkpt lat="14.436818813102022" lon="121.05021854860514"><ele>8.0</ele><time>2026-04-05T05:55:44.001Z</time></trkpt><trkpt lat="14.436714752122633" lon="121.05020895798941"><ele>8.0</ele><time>2026-04-05T05:55:46.001Z</time></trkpt><trkpt lat="14.436605978151063" lon="121.05020933889885"><ele>8.0</ele><time>2026-04-05T05:55:48.001Z</time></trkpt><trkpt lat="14.436505319347832" lon="121.05019881719637"><ele>7.999999999999999</ele><time>2026-04-05T05:55:50.001Z</time></trkpt><trkpt lat="14.436416719278457" lon="121.05020263406814"><ele>8.0</ele><time>2026-04-05T05:55:52.001Z</time></trkpt><trkpt lat="14.436330364176326" lon="121.05020060958178"><ele>8.0</ele><time>2026-04-05T05:55:54.001Z</time></trkpt><trkpt lat="14.436261102466243" lon="121.05018113675807"><ele>8.0</ele><time>2026-04-05T05:55:56.001Z</time></trkpt><trkpt lat="14.43618571157376" lon="121.05017833266879"><ele>7.999999999999999</ele><time>2026-04-05T05:55:58.001Z</time></trkpt><trkpt lat="14.436108013567514" lon="121.05017543213633"><ele>8.0</ele><time>2026-04-05T05:56:00.001Z</time></trkpt><trkpt lat="14.436029794388956" lon="121.05017247981019"><ele>7.999999999999999</ele><time>2026-04-05T05:56:02.001Z</time></trkpt><trkpt lat="14.435947056359657" lon="121.05016929530973"><ele>8.0</ele><time>2026-04-05T05:56:04.001Z</time></trkpt><trkpt lat="14.435868739051935" lon="121.05016561092727"><ele>8.0</ele><time>2026-04-05T05:56:06.001Z</time></trkpt><trkpt lat="14.435789615744016" lon="121.05016253353566"><ele>8.0</ele><time>2026-04-05T05:56:08.001Z</time></trkpt><trkpt lat="14.43570859417437" lon="121.05015996896059"><ele>7.999999999999999</ele><time>2026-04-05T05:56:10.001Z</time></trkpt><trkpt lat="14.435624422605997" lon="121.05015730467913"><ele>8.0</ele><time>2026-04-05T05:56:12.001Z</time></trkpt><trkpt lat="14.435558333227023" lon="121.05015521276258"><ele>8.0</ele><time>2026-04-05T05:56:14.001Z</time></trkpt><trkpt lat="14.435474573960466" lon="121.05015559819243"><ele>8.0</ele><time>2026-04-05T05:56:17.001Z</time></trkpt><trkpt lat="14.435379530801182" lon="121.05015521316169"><ele>8.0</ele><time>2026-04-05T05:56:20.001Z</time></trkpt><trkpt lat="14.435295858636204" lon="121.05015487419732"><ele>8.0</ele><time>2026-04-05T05:56:23Z</time></trkpt><trkpt lat="14.435135472328428" lon="121.05072114383132"><ele>7.999999999999999</ele><time>2026-04-05T06:00:42Z</time></trkpt><trkpt lat="14.435065115999555" lon="121.05071074685254"><ele>8.0</ele><time>2026-04-05T06:19:53.001Z</time></trkpt><trkpt lat="14.435128377842904" lon="121.05069630262182"><ele>8.0</ele><time>2026-04-05T06:21:02Z</time></trkpt><trkpt lat="14.435177571970556" lon="121.0507434266573"><ele>8.0</ele><time>2026-04-05T06:21:14Z</time></trkpt><trkpt lat="14.435139778212774" lon="121.05067829024173"><ele>7.999999999999999</ele><time>2026-04-05T09:28:20Z</time></trkpt><trkpt lat="14.435294856357832" lon="121.05070213080026"><ele>8.0</ele><time>2026-04-05T10:42:13.001Z</time></trkpt><trkpt lat="14.435227677538498" lon="121.05075157533847"><ele>8.0</ele><time>2026-04-05T10:45:26.001Z</time></trkpt><trkpt lat="14.435159659310479" lon="121.05074565790711"><ele>7.999999999999999</ele><time>2026-04-05T10:45:28.001Z</time></trkpt><trkpt lat="14.435186864897041" lon="121.05067656363414"><ele>8.0</ele><time>2026-04-05T12:28:16.999Z</time></trkpt><trkpt lat="14.43519003871745" lon="121.05059186557114"><ele>8.0</ele><time>2026-04-05T12:28:20Z</time></trkpt><trkpt lat="14.435217791646306" lon="121.05051838737145"><ele>7.999999999999999</ele><time>2026-04-05T12:28:24Z</time></trkpt><trkpt lat="14.435215226025091" lon="121.05045241157971"><ele>8.0</ele><time>2026-04-05T12:28:26Z</time></trkpt><trkpt lat="14.435230761716939" lon="121.05038886908831"><ele>8.0</ele><time>2026-04-05T12:28:29Z</time></trkpt><trkpt lat="14.435223678327482" lon="121.05032275980751"><ele>7.999999999999999</ele><time>2026-04-05T12:28:35Z</time></trkpt><trkpt lat="14.435229571094023" lon="121.05025541016414"><ele>8.0</ele><time>2026-04-05T12:28:38Z</time></trkpt><trkpt lat="14.435258835685945" lon="121.05019037436566"><ele>8.0</ele><time>2026-04-05T12:28:43Z</time></trkpt><trkpt lat="14.435348557576875" lon="121.05018943434213"><ele>8.0</ele><time>2026-04-05T12:28:46Z</time></trkpt><trkpt lat="14.435419091965256" lon="121.05020521236578"><ele>7.999999999999999</ele><time>2026-04-05T12:28:49Z</time></trkpt><trkpt lat="14.435506613591087" lon="121.05018928992384"><ele>8.0</ele><time>2026-04-05T12:29:26.999Z</time></trkpt><trkpt lat="14.435598690497343" lon="121.05018713850123"><ele>8.0</ele><time>2026-04-05T12:29:28.999Z</time></trkpt><trkpt lat="14.435712758881468" lon="121.05018407957556"><ele>8.0</ele><time>2026-04-05T12:29:30.999Z</time></trkpt><trkpt lat="14.435834683143245" lon="121.05019829069715"><ele>8.0</ele><time>2026-04-05T12:29:32.999Z</time></trkpt><trkpt lat="14.435903812097749" lon="121.05018715509571"><ele>8.0</ele><time>2026-04-05T12:29:33.999Z</time></trkpt><trkpt lat="14.436030270953035" lon="121.05019807544014"><ele>8.0</ele><time>2026-04-05T12:29:35.999Z</time></trkpt><trkpt lat="14.436093480203994" lon="121.05020320982317"><ele>8.0</ele><time>2026-04-05T12:29:36.999Z</time></trkpt><trkpt lat="14.436216754515488" lon="121.05020797883988"><ele>8.0</ele><time>2026-04-05T12:29:38.999Z</time></trkpt><trkpt lat="14.436286301562513" lon="121.05021093855242"><ele>8.0</ele><time>2026-04-05T12:29:39.999Z</time></trkpt><trkpt lat="14.43640213727307" lon="121.0502123546241"><ele>8.0</ele><time>2026-04-05T12:29:41.999Z</time></trkpt><trkpt lat="14.436504200832543" lon="121.05021563963206"><ele>8.0</ele><time>2026-04-05T12:29:43.999Z</time></trkpt><trkpt lat="14.436590952069675" lon="121.05021757684649"><ele>8.0</ele><time>2026-04-05T12:29:45.999Z</time></trkpt><trkpt lat="14.436676963267795" lon="121.0502293066748"><ele>8.0</ele><time>2026-04-05T12:29:47.999Z</time></trkpt><trkpt lat="14.43678521785019" lon="121.0502326215657"><ele>8.0</ele><time>2026-04-05T12:29:49.999Z</time></trkpt><trkpt lat="14.436886776898826" lon="121.05022435728091"><ele>8.0</ele><time>2026-04-05T12:29:51.999Z</time></trkpt><trkpt lat="14.43697455997705" lon="121.05024341798814"><ele>8.0</ele><time>2026-04-05T12:29:53.999Z</time></trkpt><trkpt lat="14.437046252377407" lon="121.05025043623435"><ele>7.999999999999999</ele><time>2026-04-05T12:29:55.999Z</time></trkpt><trkpt lat="14.437117741397625" lon="121.05024831049955"><ele>8.0</ele><time>2026-04-05T12:29:57.999Z</time></trkpt><trkpt lat="14.437187811796932" lon="121.05025392493211"><ele>8.0</ele><time>2026-04-05T12:30:00.999Z</time></trkpt><trkpt lat="14.43727295010699" lon="121.05026639731734"><ele>8.0</ele><time>2026-04-05T12:30:06.999Z</time></trkpt><trkpt lat="14.437357541314764" lon="121.05027676756944"><ele>7.999999999999999</ele><time>2026-04-05T12:30:09.999Z</time></trkpt><trkpt lat="14.437447359805928" lon="121.0502820209458"><ele>8.0</ele><time>2026-04-05T12:30:12.999Z</time></trkpt><trkpt lat="14.437543581311964" lon="121.05030103869495"><ele>8.0</ele><time>2026-04-05T12:30:15.999Z</time></trkpt><trkpt lat="14.43765883435363" lon="121.05030841473669"><ele>8.0</ele><time>2026-04-05T12:30:17.999Z</time></trkpt><trkpt lat="14.437743770183898" lon="121.05033187114226"><ele>8.0</ele><time>2026-04-05T12:30:18.999Z</time></trkpt><trkpt lat="14.4378417281013" lon="121.05035264451227"><ele>8.0</ele><time>2026-04-05T12:30:19.999Z</time></trkpt><trkpt lat="14.43795123957667" lon="121.05036180357561"><ele>8.0</ele><time>2026-04-05T12:30:21.999Z</time></trkpt><trkpt lat="14.438059054419595" lon="121.05038014928402"><ele>7.800000000000001</ele><time>2026-04-05T12:30:23.999Z</time></trkpt><trkpt lat="14.438164356980877" lon="121.05039352582709"><ele>7.6000000000000005</ele><time>2026-04-05T12:30:25.999Z</time></trkpt><trkpt lat="14.438280647251988" lon="121.05040595155593"><ele>7.3999999999999995</ele><time>2026-04-05T12:30:27.999Z</time></trkpt><trkpt lat="14.438373623887623" lon="121.05041815115831"><ele>7.199999999999999</ele><time>2026-04-05T12:30:29.999Z</time></trkpt><trkpt lat="14.438474301866506" lon="121.05042511198161"><ele>7.0</ele><time>2026-04-05T12:30:31.999Z</time></trkpt><trkpt lat="14.43857404719804" lon="121.05043629627279"><ele>7.000000000000001</ele><time>2026-04-05T12:30:33.999Z</time></trkpt><trkpt lat="14.438638797003689" lon="121.05043984497438"><ele>7.0</ele><time>2026-04-05T12:30:34.999Z</time></trkpt><trkpt lat="14.43874013979265" lon="121.05044730726055"><ele>7.0</ele><time>2026-04-05T12:30:36.999Z</time></trkpt><trkpt lat="14.438820792876855" lon="121.05045170525409"><ele>7.0</ele><time>2026-04-05T12:30:38.999Z</time></trkpt><trkpt lat="14.438886636953729" lon="121.05045036429524"><ele>7.000000000000001</ele><time>2026-04-05T12:30:40.999Z</time></trkpt><trkpt lat="14.438951529954213" lon="121.0504523980535"><ele>7.0</ele><time>2026-04-05T12:30:42.999Z</time></trkpt><trkpt lat="14.439039721014078" lon="121.05046250723466"><ele>7.000000000000001</ele><time>2026-04-05T12:30:45.999Z</time></trkpt><trkpt lat="14.439163810207797" lon="121.05048974844884"><ele>7.0</ele><time>2026-04-05T12:30:47.999Z</time></trkpt><trkpt lat="14.439227971631258" lon="121.05048572399232"><ele>7.0</ele><time>2026-04-05T12:30:48.999Z</time></trkpt><trkpt lat="14.439304923480027" lon="121.05049851651889"><ele>7.0</ele><time>2026-04-05T12:30:49.999Z</time></trkpt><trkpt lat="14.439386982415654" lon="121.05050951160838"><ele>7.000000000000001</ele><time>2026-04-05T12:30:50.999Z</time></trkpt><trkpt lat="14.439452590624123" lon="121.05050831421732"><ele>7.0</ele><time>2026-04-05T12:30:51.999Z</time></trkpt><trkpt lat="14.439518026302162" lon="121.0505146127086"><ele>7.000000000000001</ele><time>2026-04-05T12:30:52.999Z</time></trkpt><trkpt lat="14.43960910344688" lon="121.0505389190742"><ele>7.0</ele><time>2026-04-05T12:30:54.999Z</time></trkpt><trkpt lat="14.439685017459453" lon="121.05054724913653"><ele>7.0</ele><time>2026-04-05T12:30:56.999Z</time></trkpt><trkpt lat="14.439748176447754" lon="121.05053875301529"><ele>7.0</ele><time>2026-04-05T12:30:58.999Z</time></trkpt><trkpt lat="14.439807692945562" lon="121.05056071034439"><ele>7.000000000000001</ele><time>2026-04-05T12:31:00.999Z</time></trkpt><trkpt lat="14.439900114103489" lon="121.05056993650602"><ele>7.0</ele><time>2026-04-05T12:31:03.999Z</time></trkpt><trkpt lat="14.439965789100198" lon="121.05057581702978"><ele>7.166666666666667</ele><time>2026-04-05T12:31:05.999Z</time></trkpt><trkpt lat="14.440031790967174" lon="121.05058159005638"><ele>7.333333333333334</ele><time>2026-04-05T12:31:07.999Z</time></trkpt><trkpt lat="14.440107243516358" lon="121.05058816604546"><ele>7.5</ele><time>2026-04-05T12:31:09.999Z</time></trkpt><trkpt lat="14.44019981707268" lon="121.0505962342004"><ele>7.666666666666666</ele><time>2026-04-05T12:31:11.999Z</time></trkpt><trkpt lat="14.440269523758891" lon="121.05058593881829"><ele>7.833333333333333</ele><time>2026-04-05T12:31:13.999Z</time></trkpt><trkpt lat="14.440362512126935" lon="121.05059871077657"><ele>8.0</ele><time>2026-04-05T12:31:16.999Z</time></trkpt><trkpt lat="14.44043026256579" lon="121.05060415507494"><ele>8.142857142857142</ele><time>2026-04-05T12:31:18.999Z</time></trkpt><trkpt lat="14.44050031190944" lon="121.05061090136904"><ele>8.285714285714285</ele><time>2026-04-05T12:31:20.999Z</time></trkpt><trkpt lat="14.440579448958733" lon="121.05061663847076"><ele>8.428571428571429</ele><time>2026-04-05T12:31:23.999Z</time></trkpt><trkpt lat="14.440652467236323" lon="121.05063623816477"><ele>8.571428571428571</ele><time>2026-04-05T12:31:25.999Z</time></trkpt><trkpt lat="14.44073402976108" lon="121.05063120063288"><ele>8.714285714285715</ele><time>2026-04-05T12:31:28.999Z</time></trkpt><trkpt lat="14.440800397176137" lon="121.05064040794012"><ele>8.857142857142858</ele><time>2026-04-05T12:31:32.999Z</time></trkpt><trkpt lat="14.440872044213933" lon="121.05064285272111"><ele>9.0</ele><time>2026-04-05T12:31:39.999Z</time></trkpt><trkpt lat="14.440963037948148" lon="121.05064466446187"><ele>9.0</ele><time>2026-04-05T12:31:43.999Z</time></trkpt><trkpt lat="14.44102798637984" lon="121.05064428573824"><ele>9.0</ele><time>2026-04-05T12:31:45.999Z</time></trkpt><trkpt lat="14.441123341925957" lon="121.050639245889"><ele>9.0</ele><time>2026-04-05T12:31:47.999Z</time></trkpt><trkpt lat="14.441217246959017" lon="121.05063994035807"><ele>9.0</ele><time>2026-04-05T12:31:50.999Z</time></trkpt><trkpt lat="14.441283407333167" lon="121.05063806362351"><ele>9.0</ele><time>2026-04-05T12:31:52.999Z</time></trkpt><trkpt lat="14.441362668404322" lon="121.0506349573298"><ele>9.0</ele><time>2026-04-05T12:31:54.999Z</time></trkpt><trkpt lat="14.441451998688994" lon="121.05063407579358"><ele>8.714285714285715</ele><time>2026-04-05T12:31:57.999Z</time></trkpt><trkpt lat="14.441521680318488" lon="121.05062919558843"><ele>8.428571428571429</ele><time>2026-04-05T12:31:59.999Z</time></trkpt><trkpt lat="14.44159438455094" lon="121.0506210374874"><ele>8.142857142857142</ele><time>2026-04-05T12:32:01.999Z</time></trkpt><trkpt lat="14.441660272831712" lon="121.05062260722379"><ele>7.857142857142858</ele><time>2026-04-05T12:32:03.999Z</time></trkpt><trkpt lat="14.441733298337779" lon="121.05061683024746"><ele>7.571428571428571</ele><time>2026-04-05T12:32:05.999Z</time></trkpt><trkpt lat="14.44180157832145" lon="121.05061197272845"><ele>7.285714285714286</ele><time>2026-04-05T12:32:07.999Z</time></trkpt><trkpt lat="14.441884903427088" lon="121.05060155887573"><ele>7.0</ele><time>2026-04-05T12:32:09.999Z</time></trkpt><trkpt lat="14.441966624102847" lon="121.05059163356051"><ele>7.000000000000001</ele><time>2026-04-05T12:32:11.999Z</time></trkpt><trkpt lat="14.442042790671598" lon="121.05058452506255"><ele>7.0</ele><time>2026-04-05T12:32:13.999Z</time></trkpt><trkpt lat="14.442134796995694" lon="121.0505812739191"><ele>7.0</ele><time>2026-04-05T12:32:16.999Z</time></trkpt><trkpt lat="14.44219729775574" lon="121.05057342859847"><ele>7.0</ele><time>2026-04-05T12:32:18.999Z</time></trkpt><trkpt lat="14.442278172645446" lon="121.0505685325086"><ele>7.000000000000001</ele><time>2026-04-05T12:32:21.999Z</time></trkpt><trkpt lat="14.442356601619291" lon="121.05057876889555"><ele>7.0</ele><time>2026-04-05T12:32:24.999Z</time></trkpt><trkpt lat="14.442446039591479" lon="121.05057218560012"><ele>6.857142857142857</ele><time>2026-04-05T12:32:27.999Z</time></trkpt><trkpt lat="14.44251016780927" lon="121.05058862680431"><ele>6.714285714285714</ele><time>2026-04-05T12:32:29.999Z</time></trkpt><trkpt lat="14.442588839564884" lon="121.05058275297915"><ele>6.571428571428571</ele><time>2026-04-05T12:32:31.999Z</time></trkpt><trkpt lat="14.442655484811626" lon="121.05057807022025"><ele>6.428571428571429</ele><time>2026-04-05T12:32:33.999Z</time></trkpt><trkpt lat="14.442742016938148" lon="121.05057560409806"><ele>6.285714285714286</ele><time>2026-04-05T12:32:36.999Z</time></trkpt><trkpt lat="14.442815259797792" lon="121.05057290917756"><ele>6.142857142857142</ele><time>2026-04-05T12:32:39.999Z</time></trkpt><trkpt lat="14.44288471619064" lon="121.0505794084406"><ele>6.0</ele><time>2026-04-05T12:32:42.999Z</time></trkpt><trkpt lat="14.442950140722617" lon="121.05057501152487"><ele>5.666666666666667</ele><time>2026-04-05T12:32:47.999Z</time></trkpt><trkpt lat="14.443022283403122" lon="121.05057615620446"><ele>5.333333333333333</ele><time>2026-04-05T12:32:51.999Z</time></trkpt><trkpt lat="14.44308777992975" lon="121.05057128418512"><ele>5.0</ele><time>2026-04-05T12:32:54.999Z</time></trkpt><trkpt lat="14.443161185860601" lon="121.05056611946016"><ele>4.666666666666666</ele><time>2026-04-05T12:32:57.999Z</time></trkpt><trkpt lat="14.443259365760984" lon="121.05056657068891"><ele>4.333333333333333</ele><time>2026-04-05T12:33:00.999Z</time></trkpt><trkpt lat="14.443359328158047" lon="121.05056887918535"><ele>4.0</ele><time>2026-04-05T12:33:02.999Z</time></trkpt><trkpt lat="14.4434422970647" lon="121.05056986172616"><ele>3.9999999999999996</ele><time>2026-04-05T12:33:04.999Z</time></trkpt><trkpt lat="14.443533170254337" lon="121.0505708172339"><ele>4.0</ele><time>2026-04-05T12:33:06.999Z</time></trkpt><trkpt lat="14.443621304260986" lon="121.05056678832302"><ele>4.0</ele><time>2026-04-05T12:33:08.999Z</time></trkpt><trkpt lat="14.44368625112268" lon="121.05056750121214"><ele>4.0</ele><time>2026-04-05T12:33:10.999Z</time></trkpt><trkpt lat="14.443760720574746" lon="121.05057033236297"><ele>3.9999999999999996</ele><time>2026-04-05T12:33:12.999Z</time></trkpt><trkpt lat="14.443834110471727" lon="121.05057448165087"><ele>4.0</ele><time>2026-04-05T12:33:14.999Z</time></trkpt><trkpt lat="14.443909461305282" lon="121.05056609645226"><ele>4.714285714285714</ele><time>2026-04-05T12:33:17.999Z</time></trkpt><trkpt lat="14.443980133647454" lon="121.05057408621205"><ele>5.428571428571429</ele><time>2026-04-05T12:33:20.999Z</time></trkpt><trkpt lat="14.444064200598602" lon="121.05057701404843"><ele>6.142857142857143</ele><time>2026-04-05T12:33:23.999Z</time></trkpt><trkpt lat="14.44413204212219" lon="121.0505709191552"><ele>6.857142857142858</ele><time>2026-04-05T12:33:25.999Z</time></trkpt><trkpt lat="14.444205528346004" lon="121.05056786166189"><ele>7.571428571428571</ele><time>2026-04-05T12:33:28.999Z</time></trkpt><trkpt lat="14.444269140769661" lon="121.0505697759166"><ele>8.285714285714286</ele><time>2026-04-05T12:33:31.999Z</time></trkpt><trkpt lat="14.44433779201349" lon="121.0505659552169"><ele>9.0</ele><time>2026-04-05T12:33:33.999Z</time></trkpt><trkpt lat="14.444420988559719" lon="121.05056178359006"><ele>9.0</ele><time>2026-04-05T12:33:35.999Z</time></trkpt><trkpt lat="14.444496128247385" lon="121.05056230959158"><ele>9.0</ele><time>2026-04-05T12:33:37.999Z</time></trkpt><trkpt lat="14.444591637980723" lon="121.05055868541928"><ele>9.0</ele><time>2026-04-05T12:33:40.999Z</time></trkpt><trkpt lat="14.444658431739208" lon="121.05055529202032"><ele>9.0</ele><time>2026-04-05T12:33:43.999Z</time></trkpt><trkpt lat="14.444744818305415" lon="121.05054940162707"><ele>9.0</ele><time>2026-04-05T12:33:46.999Z</time></trkpt><trkpt lat="14.444807801937353" lon="121.05048818378921"><ele>9.0</ele><time>2026-04-05T12:33:49.999Z</time></trkpt><trkpt lat="14.444785382010098" lon="121.05038861496708"><ele>9.0</ele><time>2026-04-05T12:33:51.999Z</time></trkpt><trkpt lat="14.444783637837858" lon="121.05030701923933"><ele>9.0</ele><time>2026-04-05T12:33:53.999Z</time></trkpt><trkpt lat="14.44478197157153" lon="121.05023850225014"><ele>9.0</ele><time>2026-04-05T12:33:55.999Z</time></trkpt><trkpt lat="14.44479779678755" lon="121.05013737728532"><ele>9.0</ele><time>2026-04-05T12:33:58.999Z</time></trkpt><trkpt lat="14.444793009179781" lon="121.05007039608967"><ele>9.0</ele><time>2026-04-05T12:34:00.999Z</time></trkpt><trkpt lat="14.44479815638366" lon="121.04998756073064"><ele>9.0</ele><time>2026-04-05T12:34:02.999Z</time></trkpt><trkpt lat="14.444797967544533" lon="121.04990634444466"><ele>9.0</ele><time>2026-04-05T12:34:04.999Z</time></trkpt><trkpt lat="14.444785337044172" lon="121.04978069544892"><ele>9.0</ele><time>2026-04-05T12:34:06.999Z</time></trkpt><trkpt lat="14.44478686138237" lon="121.04969969412171"><ele>9.0</ele><time>2026-04-05T12:34:07.999Z</time></trkpt><trkpt lat="14.444779731505035" lon="121.04960352623672"><ele>9.0</ele><time>2026-04-05T12:34:08.999Z</time></trkpt><trkpt lat="14.444783727606433" lon="121.04949665431093"><ele>9.0</ele><time>2026-04-05T12:34:09.999Z</time></trkpt><trkpt lat="14.444785658681011" lon="121.04938638913195"><ele>9.0</ele><time>2026-04-05T12:34:10.999Z</time></trkpt><trkpt lat="14.444794262786102" lon="121.04925931743554"><ele>9.0</ele><time>2026-04-05T12:34:11.999Z</time></trkpt><trkpt lat="14.444796360202922" lon="121.04914160956518"><ele>9.0</ele><time>2026-04-05T12:34:12.999Z</time></trkpt><trkpt lat="14.444796214136575" lon="121.04902063202039"><ele>9.0</ele><time>2026-04-05T12:34:13.999Z</time></trkpt><trkpt lat="14.444798864106827" lon="121.04889779225113"><ele>9.0</ele><time>2026-04-05T12:34:14.999Z</time></trkpt><trkpt lat="14.444795675227095" lon="121.04877522601491"><ele>9.0</ele><time>2026-04-05T12:34:15.999Z</time></trkpt><trkpt lat="14.444795367071944" lon="121.04865425809572"><ele>9.0</ele><time>2026-04-05T12:34:16.999Z</time></trkpt><trkpt lat="14.44479153180183" lon="121.04853527708084"><ele>9.0</ele><time>2026-04-05T12:34:17.999Z</time></trkpt><trkpt lat="14.44479348555307" lon="121.0484123104594"><ele>9.25</ele><time>2026-04-05T12:34:18.999Z</time></trkpt><trkpt lat="14.444790239853159" lon="121.04828720912005"><ele>9.5</ele><time>2026-04-05T12:34:19.999Z</time></trkpt><trkpt lat="14.444789116302902" lon="121.04816809160408"><ele>9.75</ele><time>2026-04-05T12:34:20.999Z</time></trkpt><trkpt lat="14.444788828863636" lon="121.04804740593502"><ele>10.0</ele><time>2026-04-05T12:34:21.999Z</time></trkpt><trkpt lat="14.44479396113563" lon="121.04792758100243"><ele>10.0</ele><time>2026-04-05T12:34:22.999Z</time></trkpt><trkpt lat="14.444792646197715" lon="121.04780439326815"><ele>10.0</ele><time>2026-04-05T12:34:23.999Z</time></trkpt><trkpt lat="14.444790216738257" lon="121.04768483613233"><ele>10.0</ele><time>2026-04-05T12:34:24.999Z</time></trkpt><trkpt lat="14.444787787539042" lon="121.04756846958455"><ele>10.0</ele><time>2026-04-05T12:34:25.999Z</time></trkpt><trkpt lat="14.444785839314813" lon="121.04744690752175"><ele>10.5</ele><time>2026-04-05T12:34:26.999Z</time></trkpt><trkpt lat="14.444784888332848" lon="121.04732694206372"><ele>11.0</ele><time>2026-04-05T12:34:27.999Z</time></trkpt><trkpt lat="14.44478069670967" lon="121.04720595715716"><ele>11.5</ele><time>2026-04-05T12:34:28.999Z</time></trkpt><trkpt lat="14.444786131709003" lon="121.04708932185132"><ele>12.0</ele><time>2026-04-05T12:34:29.999Z</time></trkpt><trkpt lat="14.44478608174366" lon="121.04697102231265"><ele>12.0</ele><time>2026-04-05T12:34:30.999Z</time></trkpt><trkpt lat="14.444781738764297" lon="121.04685462439905"><ele>12.0</ele><time>2026-04-05T12:34:31.999Z</time></trkpt><trkpt lat="14.44478424762981" lon="121.04673570455071"><ele>12.0</ele><time>2026-04-05T12:34:32.999Z</time></trkpt><trkpt lat="14.444782508273304" lon="121.04661925842329"><ele>12.0</ele><time>2026-04-05T12:34:33.999Z</time></trkpt><trkpt lat="14.444785163453064" lon="121.04650620880429"><ele>12.399999999999999</ele><time>2026-04-05T12:34:34.999Z</time></trkpt><trkpt lat="14.444786856834309" lon="121.04638506585268"><ele>12.799999999999999</ele><time>2026-04-05T12:34:35.999Z</time></trkpt><trkpt lat="14.444780698929808" lon="121.0462737502665"><ele>13.2</ele><time>2026-04-05T12:34:36.999Z</time></trkpt><trkpt lat="14.444775394183408" lon="121.04616272977641"><ele>13.6</ele><time>2026-04-05T12:34:37.999Z</time></trkpt><trkpt lat="14.444778335409957" lon="121.0460618551892"><ele>14.0</ele><time>2026-04-05T12:34:38.999Z</time></trkpt><trkpt lat="14.4447833491458" lon="121.04597349140876"><ele>14.000000000000002</ele><time>2026-04-05T12:34:39.999Z</time></trkpt><trkpt lat="14.444790319460743" lon="121.04588617477224"><ele>14.0</ele><time>2026-04-05T12:34:40.999Z</time></trkpt><trkpt lat="14.444790705156903" lon="121.0458066012091"><ele>14.0</ele><time>2026-04-05T12:34:41.999Z</time></trkpt><trkpt lat="14.444784219237437" lon="121.04573866864648"><ele>14.0</ele><time>2026-04-05T12:34:42.999Z</time></trkpt><trkpt lat="14.444799535285748" lon="121.04564157414544"><ele>14.000000000000002</ele><time>2026-04-05T12:34:44.999Z</time></trkpt><trkpt lat="14.444860351531554" lon="121.04560937611122"><ele>14.0</ele><time>2026-04-05T12:34:48.999Z</time></trkpt><trkpt lat="14.444953349650577" lon="121.04560079592935"><ele>14.399999999999999</ele><time>2026-04-05T12:34:51.999Z</time></trkpt><trkpt lat="14.445081591337429" lon="121.04559675141483"><ele>14.799999999999999</ele><time>2026-04-05T12:34:53.999Z</time></trkpt><trkpt lat="14.445160081854683" lon="121.0455999215441"><ele>15.200000000000001</ele><time>2026-04-05T12:34:55Z</time></trkpt><trkpt lat="14.445245563991731" lon="121.04560880686422"><ele>15.600000000000001</ele><time>2026-04-05T12:34:56Z</time></trkpt><trkpt lat="14.445330919252696" lon="121.04562416766554"><ele>16.0</ele><time>2026-04-05T12:34:57Z</time></trkpt><trkpt lat="14.445413762880015" lon="121.04563949866457"><ele>16.333333333333332</ele><time>2026-04-05T12:34:58Z</time></trkpt><trkpt lat="14.445504363718545" lon="121.04562033457762"><ele>16.666666666666664</ele><time>2026-04-05T12:34:59Z</time></trkpt><trkpt lat="14.445589662431688" lon="121.04561096215768"><ele>17.0</ele><time>2026-04-05T12:35:00Z</time></trkpt><trkpt lat="14.445667556510163" lon="121.04559937683922"><ele>17.333333333333332</ele><time>2026-04-05T12:35:01Z</time></trkpt><trkpt lat="14.445745788229786" lon="121.04559953771255"><ele>17.666666666666668</ele><time>2026-04-05T12:35:02Z</time></trkpt><trkpt lat="14.445827222936014" lon="121.04559501604734"><ele>18.0</ele><time>2026-04-05T12:35:03Z</time></trkpt><trkpt lat="14.445914135049344" lon="121.04559131332466"><ele>18.0</ele><time>2026-04-05T12:35:04Z</time></trkpt><trkpt lat="14.446001517735738" lon="121.04558677188706"><ele>18.0</ele><time>2026-04-05T12:35:05Z</time></trkpt><trkpt lat="14.44609174037002" lon="121.04557851278567"><ele>18.0</ele><time>2026-04-05T12:35:06Z</time></trkpt><trkpt lat="14.446184842808538" lon="121.0455728280844"><ele>18.0</ele><time>2026-04-05T12:35:07Z</time></trkpt><trkpt lat="14.446272902274451" lon="121.04556644304381"><ele>18.0</ele><time>2026-04-05T12:35:08Z</time></trkpt><trkpt lat="14.446362711715551" lon="121.0455613273285"><ele>17.8</ele><time>2026-04-05T12:35:09Z</time></trkpt><trkpt lat="14.446453003942663" lon="121.04556089726876"><ele>17.6</ele><time>2026-04-05T12:35:10Z</time></trkpt><trkpt lat="14.446550452436929" lon="121.04555830695635"><ele>17.4</ele><time>2026-04-05T12:35:11Z</time></trkpt><trkpt lat="14.446646501356005" lon="121.04555628167826"><ele>17.2</ele><time>2026-04-05T12:35:12Z</time></trkpt><trkpt lat="14.44674747752884" lon="121.04555303274287"><ele>17.0</ele><time>2026-04-05T12:35:13Z</time></trkpt><trkpt lat="14.446840339739733" lon="121.04555092291892"><ele>17.0</ele><time>2026-04-05T12:35:14Z</time></trkpt><trkpt lat="14.446925645607006" lon="121.04554459885757"><ele>17.0</ele><time>2026-04-05T12:35:15Z</time></trkpt><trkpt lat="14.446997873198226" lon="121.04554356989291"><ele>17.0</ele><time>2026-04-05T12:35:16Z</time></trkpt><trkpt lat="14.447072363168145" lon="121.04554170658514"><ele>17.0</ele><time>2026-04-05T12:35:17Z</time></trkpt><trkpt lat="14.447146783802875" lon="121.04554204017045"><ele>17.0</ele><time>2026-04-05T12:35:18Z</time></trkpt><trkpt lat="14.447228973144842" lon="121.04554313799522"><ele>17.0</ele><time>2026-04-05T12:35:19Z</time></trkpt><trkpt lat="14.447311198723042" lon="121.04553610192035"><ele>16.71428571428571</ele><time>2026-04-05T12:35:20Z</time></trkpt><trkpt lat="14.447393615854939" lon="121.04553519854623"><ele>16.428571428571427</ele><time>2026-04-05T12:35:21Z</time></trkpt><trkpt lat="14.447473136207451" lon="121.0455322999699"><ele>16.142857142857142</ele><time>2026-04-05T12:35:22Z</time></trkpt><trkpt lat="14.447551181330292" lon="121.04553478197364"><ele>15.857142857142856</ele><time>2026-04-05T12:35:23Z</time></trkpt><trkpt lat="14.447616345066637" lon="121.04553269186631"><ele>15.57142857142857</ele><time>2026-04-05T12:35:24Z</time></trkpt><trkpt lat="14.447683574223888" lon="121.04553307477313"><ele>15.285714285714286</ele><time>2026-04-05T12:35:25Z</time></trkpt><trkpt lat="14.447752204008784" lon="121.04553288001787"><ele>15.0</ele><time>2026-04-05T12:35:26Z</time></trkpt><trkpt lat="14.447868533377417" lon="121.04553666212692"><ele>14.8</ele><time>2026-04-05T12:35:28Z</time></trkpt><trkpt lat="14.447961158973529" lon="121.0455353802933"><ele>14.6</ele><time>2026-04-05T12:35:30Z</time></trkpt><trkpt lat="14.448041905280357" lon="121.04553338643052"><ele>14.399999999999999</ele><time>2026-04-05T12:35:32Z</time></trkpt><trkpt lat="14.44813161398308" lon="121.04554026802384"><ele>14.2</ele><time>2026-04-05T12:35:34Z</time></trkpt><trkpt lat="14.448242558613003" lon="121.0455190162242"><ele>14.0</ele><time>2026-04-05T12:35:36Z</time></trkpt><trkpt lat="14.448374783830998" lon="121.04551088551322"><ele>14.000000000000002</ele><time>2026-04-05T12:35:38Z</time></trkpt><trkpt lat="14.448455497232365" lon="121.04551421552021"><ele>14.0</ele><time>2026-04-05T12:35:39Z</time></trkpt><trkpt lat="14.448530991334007" lon="121.0455132156522"><ele>14.0</ele><time>2026-04-05T12:35:40Z</time></trkpt><trkpt lat="14.44860306152267" lon="121.04551579999729"><ele>14.0</ele><time>2026-04-05T12:35:41Z</time></trkpt><trkpt lat="14.448668423752013" lon="121.04551535839971"><ele>14.000000000000002</ele><time>2026-04-05T12:35:41.999Z</time></trkpt><trkpt lat="14.448793259128431" lon="121.0455127124734"><ele>14.0</ele><time>2026-04-05T12:35:43.999Z</time></trkpt><trkpt lat="14.448923863877315" lon="121.04550934245873"><ele>14.500000000000002</ele><time>2026-04-05T12:35:45.999Z</time></trkpt><trkpt lat="14.448999853054268" lon="121.04550672092994"><ele>15.0</ele><time>2026-04-05T12:35:46.999Z</time></trkpt><trkpt lat="14.449085746605641" lon="121.04550012060126"><ele>15.5</ele><time>2026-04-05T12:35:47.999Z</time></trkpt><trkpt lat="14.449168181471414" lon="121.04550338683846"><ele>16.0</ele><time>2026-04-05T12:35:48.999Z</time></trkpt><trkpt lat="14.449266047867408" lon="121.04550027132055"><ele>16.5</ele><time>2026-04-05T12:35:49.999Z</time></trkpt><trkpt lat="14.449369784140773" lon="121.04549937839587"><ele>17.0</ele><time>2026-04-05T12:35:50.999Z</time></trkpt><trkpt lat="14.449468576770835" lon="121.04549736229183"><ele>17.0</ele><time>2026-04-05T12:35:51.999Z</time></trkpt><trkpt lat="14.449555283897583" lon="121.04550219279947"><ele>17.0</ele><time>2026-04-05T12:35:52.999Z</time></trkpt><trkpt lat="14.449637930326112" lon="121.04550368704798"><ele>17.0</ele><time>2026-04-05T12:35:53.999Z</time></trkpt><trkpt lat="14.449715032925077" lon="121.04550347664666"><ele>17.0</ele><time>2026-04-05T12:35:54.999Z</time></trkpt><trkpt lat="14.449803400618636" lon="121.04550141276556"><ele>17.0</ele><time>2026-04-05T12:35:55.999Z</time></trkpt><trkpt lat="14.44988487068295" lon="121.04550116802817"><ele>17.0</ele><time>2026-04-05T12:35:56.999Z</time></trkpt><trkpt lat="14.44996669309915" lon="121.04549877091624"><ele>17.333333333333336</ele><time>2026-04-05T12:35:57.999Z</time></trkpt><trkpt lat="14.450055291546889" lon="121.04549808833262"><ele>17.666666666666668</ele><time>2026-04-05T12:35:58.999Z</time></trkpt><trkpt lat="14.450144725162652" lon="121.04549894269914"><ele>18.0</ele><time>2026-04-05T12:35:59.999Z</time></trkpt><trkpt lat="14.45023646803619" lon="121.0454996426989"><ele>18.333333333333332</ele><time>2026-04-05T12:36:00.999Z</time></trkpt><trkpt lat="14.450326914828654" lon="121.04549796576434"><ele>18.666666666666664</ele><time>2026-04-05T12:36:01.999Z</time></trkpt><trkpt lat="14.45041562880625" lon="121.0454921543216"><ele>19.0</ele><time>2026-04-05T12:36:02.999Z</time></trkpt><trkpt lat="14.450502322003665" lon="121.04549174978392"><ele>19.2</ele><time>2026-04-05T12:36:03.999Z</time></trkpt><trkpt lat="14.45060121642498" lon="121.04548363073648"><ele>19.4</ele><time>2026-04-05T12:36:04.999Z</time></trkpt><trkpt lat="14.450696462979979" lon="121.0454781475186"><ele>19.6</ele><time>2026-04-05T12:36:05.999Z</time></trkpt><trkpt lat="14.450803396839008" lon="121.04548169023734"><ele>19.8</ele><time>2026-04-05T12:36:06.999Z</time></trkpt><trkpt lat="14.45092374345784" lon="121.04547889730993"><ele>20.0</ele><time>2026-04-05T12:36:07.999Z</time></trkpt><trkpt lat="14.451057462990189" lon="121.04547593086306"><ele>20.0</ele><time>2026-04-05T12:36:08.999Z</time></trkpt><trkpt lat="14.451185738021982" lon="121.04547998992774"><ele>20.0</ele><time>2026-04-05T12:36:09.999Z</time></trkpt><trkpt lat="14.451297665198902" lon="121.04548082961489"><ele>20.0</ele><time>2026-04-05T12:36:10.999Z</time></trkpt><trkpt lat="14.451394227914058" lon="121.04547556589645"><ele>20.0</ele><time>2026-04-05T12:36:11.999Z</time></trkpt><trkpt lat="14.451486903071851" lon="121.0454817582679"><ele>20.0</ele><time>2026-04-05T12:36:12.999Z</time></trkpt><trkpt lat="14.451583053059519" lon="121.04547882302589"><ele>18.6</ele><time>2026-04-05T12:36:13.999Z</time></trkpt><trkpt lat="14.451675842991472" lon="121.04547412321125"><ele>17.2</ele><time>2026-04-05T12:36:14.999Z</time></trkpt><trkpt lat="14.451767946578956" lon="121.04548220749277"><ele>15.8</ele><time>2026-04-05T12:36:15.999Z</time></trkpt><trkpt lat="14.451864637141943" lon="121.04548750576376"><ele>14.4</ele><time>2026-04-05T12:36:16.999Z</time></trkpt><trkpt lat="14.451961649833052" lon="121.04549210548458"><ele>13.0</ele><time>2026-04-05T12:36:17.999Z</time></trkpt><trkpt lat="14.452057527318571" lon="121.04550330045873"><ele>14.2</ele><time>2026-04-05T12:36:18.999Z</time></trkpt><trkpt lat="14.452152809270936" lon="121.04551556923107"><ele>15.4</ele><time>2026-04-05T12:36:19.999Z</time></trkpt><trkpt lat="14.452247600481481" lon="121.04552896333574"><ele>16.599999999999998</ele><time>2026-04-05T12:36:20.999Z</time></trkpt><trkpt lat="14.452343690548004" lon="121.04554592819296"><ele>17.8</ele><time>2026-04-05T12:36:21.999Z</time></trkpt><trkpt lat="14.452435052065924" lon="121.04556827600857"><ele>19.0</ele><time>2026-04-05T12:36:22.999Z</time></trkpt><trkpt lat="14.452522143039849" lon="121.0455890647118"><ele>19.0</ele><time>2026-04-05T12:36:23.999Z</time></trkpt><trkpt lat="14.45259762006897" lon="121.04560933880505"><ele>19.0</ele><time>2026-04-05T12:36:24.999Z</time></trkpt><trkpt lat="14.452668032997101" lon="121.04563730982858"><ele>19.0</ele><time>2026-04-05T12:36:25.999Z</time></trkpt><trkpt lat="14.452737390372357" lon="121.0456569874818"><ele>19.0</ele><time>2026-04-05T12:36:26.999Z</time></trkpt><trkpt lat="14.452807583319553" lon="121.0456791786094"><ele>19.0</ele><time>2026-04-05T12:36:27.999Z</time></trkpt><trkpt lat="14.452872150543072" lon="121.04570037272887"><ele>19.0</ele><time>2026-04-05T12:36:28.999Z</time></trkpt><trkpt lat="14.452978621460947" lon="121.04574789217605"><ele>19.799999999999997</ele><time>2026-04-05T12:36:30.999Z</time></trkpt><trkpt lat="14.453032986626175" lon="121.04578140860114"><ele>20.599999999999998</ele><time>2026-04-05T12:36:31.999Z</time></trkpt><trkpt lat="14.4531381924008" lon="121.04584284195086"><ele>21.4</ele><time>2026-04-05T12:36:33.999Z</time></trkpt><trkpt lat="14.45323822744734" lon="121.04590131088818"><ele>22.2</ele><time>2026-04-05T12:36:35.999Z</time></trkpt><trkpt lat="14.453328787704763" lon="121.04594051095881"><ele>23.0</ele><time>2026-04-05T12:36:37.999Z</time></trkpt><trkpt lat="14.453395681012614" lon="121.04596355966622"><ele>23.0</ele><time>2026-04-05T12:36:39.999Z</time></trkpt><trkpt lat="14.453469592176404" lon="121.0459794091487"><ele>23.0</ele><time>2026-04-05T12:36:43.999Z</time></trkpt><trkpt lat="14.453549635760737" lon="121.04597303835554"><ele>23.0</ele><time>2026-04-05T12:36:48.999Z</time></trkpt><trkpt lat="14.45360311936684" lon="121.04591511095286"><ele>23.0</ele><time>2026-04-05T12:36:51.999Z</time></trkpt><trkpt lat="14.45363584010445" lon="121.04583343963641"><ele>23.0</ele><time>2026-04-05T12:36:53.999Z</time></trkpt><trkpt lat="14.453675603789472" lon="121.04571796334263"><ele>23.0</ele><time>2026-04-05T12:36:55.999Z</time></trkpt><trkpt lat="14.453707918385364" lon="121.04561700085773"><ele>23.0</ele><time>2026-04-05T12:36:57.999Z</time></trkpt><trkpt lat="14.453753662585212" lon="121.0455068527221"><ele>23.0</ele><time>2026-04-05T12:36:59.999Z</time></trkpt><trkpt lat="14.453791214555547" lon="121.04538858690336"><ele>23.0</ele><time>2026-04-05T12:37:01.999Z</time></trkpt><trkpt lat="14.453812630559064" lon="121.0453250472583"><ele>23.0</ele><time>2026-04-05T12:37:02.999Z</time></trkpt><trkpt lat="14.453839102049823" lon="121.0452514665916"><ele>23.0</ele><time>2026-04-05T12:37:03.999Z</time></trkpt><trkpt lat="14.453858338804853" lon="121.0451653952052"><ele>23.799999999999997</ele><time>2026-04-05T12:37:04.999Z</time></trkpt><trkpt lat="14.453881883984282" lon="121.04509128332471"><ele>24.6</ele><time>2026-04-05T12:37:05.999Z</time></trkpt><trkpt lat="14.453914284930978" lon="121.04498705173472"><ele>25.400000000000002</ele><time>2026-04-05T12:37:07.999Z</time></trkpt><trkpt lat="14.453948536694066" lon="121.04486362155205"><ele>26.200000000000003</ele><time>2026-04-05T12:37:09.999Z</time></trkpt><trkpt lat="14.453971128131133" lon="121.04474960042226"><ele>27.0</ele><time>2026-04-05T12:37:11.999Z</time></trkpt><trkpt lat="14.453986780143433" lon="121.04465752196711"><ele>27.8</ele><time>2026-04-05T12:37:13.999Z</time></trkpt><trkpt lat="14.454011129891105" lon="121.04456140309017"><ele>28.6</ele><time>2026-04-05T12:37:15.999Z</time></trkpt><trkpt lat="14.454048352574425" lon="121.04443105818743"><ele>29.400000000000002</ele><time>2026-04-05T12:37:17.999Z</time></trkpt><trkpt lat="14.454075145635752" lon="121.04435442684719"><ele>30.200000000000003</ele><time>2026-04-05T12:37:18.999Z</time></trkpt><trkpt lat="14.454098331202813" lon="121.0442698304576"><ele>31.0</ele><time>2026-04-05T12:37:19.999Z</time></trkpt><trkpt lat="14.454126174705168" lon="121.04418500486166"><ele>31.6</ele><time>2026-04-05T12:37:20.999Z</time></trkpt><trkpt lat="14.454161966816256" lon="121.04410835429016"><ele>32.2</ele><time>2026-04-05T12:37:21.999Z</time></trkpt><trkpt lat="14.454200802220786" lon="121.04399269698307"><ele>32.8</ele><time>2026-04-05T12:37:22.999Z</time></trkpt><trkpt lat="14.45422828894372" lon="121.04388873968476"><ele>33.4</ele><time>2026-04-05T12:37:23.999Z</time></trkpt><trkpt lat="14.454267545703027" lon="121.04378688332106"><ele>34.0</ele><time>2026-04-05T12:37:24.999Z</time></trkpt><trkpt lat="14.454307261399938" lon="121.04367590697088"><ele>34.0</ele><time>2026-04-05T12:37:25.999Z</time></trkpt><trkpt lat="14.454343332141564" lon="121.04356438328844"><ele>34.0</ele><time>2026-04-05T12:37:26.999Z</time></trkpt><trkpt lat="14.454385945471156" lon="121.04344607120564"><ele>34.0</ele><time>2026-04-05T12:37:27.999Z</time></trkpt><trkpt lat="14.454424397434796" lon="121.0433286519803"><ele>34.0</ele><time>2026-04-05T12:37:28.999Z</time></trkpt><trkpt lat="14.454462209408387" lon="121.04321070381734"><ele>34.4</ele><time>2026-04-05T12:37:29.999Z</time></trkpt><trkpt lat="14.454496703793142" lon="121.04309409318613"><ele>34.8</ele><time>2026-04-05T12:37:30.999Z</time></trkpt><trkpt lat="14.454535541362839" lon="121.04298842070679"><ele>35.2</ele><time>2026-04-05T12:37:31.999Z</time></trkpt><trkpt lat="14.454571497062435" lon="121.0428896862675"><ele>35.6</ele><time>2026-04-05T12:37:32.999Z</time></trkpt><trkpt lat="14.45459851675346" lon="121.04280104300017"><ele>36.0</ele><time>2026-04-05T12:37:33.999Z</time></trkpt><trkpt lat="14.454630489484494" lon="121.04271891028247"><ele>36.0</ele><time>2026-04-05T12:37:34.999Z</time></trkpt><trkpt lat="14.454666775202206" lon="121.04263540546751"><ele>36.0</ele><time>2026-04-05T12:37:35.999Z</time></trkpt><trkpt lat="14.454690438177238" lon="121.0425356490802"><ele>36.0</ele><time>2026-04-05T12:37:36.999Z</time></trkpt><trkpt lat="14.454720970185688" lon="121.04242849264735"><ele>36.0</ele><time>2026-04-05T12:37:37.999Z</time></trkpt><trkpt lat="14.454751994400114" lon="121.0423216848137"><ele>36.0</ele><time>2026-04-05T12:37:38.999Z</time></trkpt><trkpt lat="14.454784895985732" lon="121.04221491425864"><ele>36.2</ele><time>2026-04-05T12:37:39.999Z</time></trkpt><trkpt lat="14.454817867386012" lon="121.04210717418391"><ele>36.400000000000006</ele><time>2026-04-05T12:37:40.999Z</time></trkpt><trkpt lat="14.45484755287604" lon="121.04201121493158"><ele>36.6</ele><time>2026-04-05T12:37:41.999Z</time></trkpt><trkpt lat="14.454874641750306" lon="121.0419161824385"><ele>36.800000000000004</ele><time>2026-04-05T12:37:42.999Z</time></trkpt><trkpt lat="14.454900248397102" lon="121.04181762734119"><ele>37.0</ele><time>2026-04-05T12:37:43.999Z</time></trkpt><trkpt lat="14.454933724381936" lon="121.04170707846772"><ele>37.2</ele><time>2026-04-05T12:37:44.999Z</time></trkpt><trkpt lat="14.454973411775502" lon="121.04159671370671"><ele>37.400000000000006</ele><time>2026-04-05T12:37:45.999Z</time></trkpt><trkpt lat="14.455007146505002" lon="121.04149369452203"><ele>37.599999999999994</ele><time>2026-04-05T12:37:46.999Z</time></trkpt><trkpt lat="14.455032404994894" lon="121.04139807723199"><ele>37.8</ele><time>2026-04-05T12:37:47.999Z</time></trkpt><trkpt lat="14.455056562594322" lon="121.04129858614047"><ele>38.0</ele><time>2026-04-05T12:37:48.999Z</time></trkpt><trkpt lat="14.455077861822183" lon="121.0411963102942"><ele>38.0</ele><time>2026-04-05T12:37:49.999Z</time></trkpt><trkpt lat="14.455096673095268" lon="121.04109067256499"><ele>38.0</ele><time>2026-04-05T12:37:50.999Z</time></trkpt><trkpt lat="14.45511918492271" lon="121.04097330225471"><ele>38.0</ele><time>2026-04-05T12:37:51.999Z</time></trkpt><trkpt lat="14.455144128563886" lon="121.04084908967562"><ele>38.0</ele><time>2026-04-05T12:37:52.999Z</time></trkpt><trkpt lat="14.45517267020523" lon="121.04071863046852"><ele>38.0</ele><time>2026-04-05T12:37:53.999Z</time></trkpt><trkpt lat="14.455206881903754" lon="121.04058627469962"><ele>38.0</ele><time>2026-04-05T12:37:54.999Z</time></trkpt><trkpt lat="14.45524281458707" lon="121.04044972196652"><ele>38.0</ele><time>2026-04-05T12:37:55.999Z</time></trkpt><trkpt lat="14.455284831627887" lon="121.04030970384531"><ele>38.0</ele><time>2026-04-05T12:37:56.999Z</time></trkpt><trkpt lat="14.455326318228158" lon="121.04016792749606"><ele>38.0</ele><time>2026-04-05T12:37:57.999Z</time></trkpt><trkpt lat="14.45537029286701" lon="121.04002832713138"><ele>38.0</ele><time>2026-04-05T12:37:58.999Z</time></trkpt><trkpt lat="14.455409278703094" lon="121.03989723225294"><ele>38.0</ele><time>2026-04-05T12:37:59.999Z</time></trkpt><trkpt lat="14.455449437649955" lon="121.0397740373681"><ele>38.0</ele><time>2026-04-05T12:38:00.999Z</time></trkpt><trkpt lat="14.455480318408393" lon="121.03966192449016"><ele>38.0</ele><time>2026-04-05T12:38:01.999Z</time></trkpt><trkpt lat="14.455510554041767" lon="121.03955173954398"><ele>38.0</ele><time>2026-04-05T12:38:02.999Z</time></trkpt><trkpt lat="14.45553652748354" lon="121.03944603582602"><ele>38.0</ele><time>2026-04-05T12:38:03.999Z</time></trkpt><trkpt lat="14.455562210608443" lon="121.03933707590579"><ele>38.0</ele><time>2026-04-05T12:38:04.999Z</time></trkpt><trkpt lat="14.45558904946182" lon="121.03922990371679"><ele>38.0</ele><time>2026-04-05T12:38:05.999Z</time></trkpt><trkpt lat="14.455614338540409" lon="121.03912909950495"><ele>37.6</ele><time>2026-04-05T12:38:06.999Z</time></trkpt><trkpt lat="14.455638763295317" lon="121.03903434259622"><ele>37.199999999999996</ele><time>2026-04-05T12:38:07.999Z</time></trkpt><trkpt lat="14.455664558106239" lon="121.03894614643804"><ele>36.8</ele><time>2026-04-05T12:38:08.999Z</time></trkpt><trkpt lat="14.455687654463103" lon="121.03885986185138"><ele>36.4</ele><time>2026-04-05T12:38:09.999Z</time></trkpt><trkpt lat="14.455719194565752" lon="121.03876596421838"><ele>36.0</ele><time>2026-04-05T12:38:10.999Z</time></trkpt><trkpt lat="14.45575543601711" lon="121.03866755119829"><ele>36.0</ele><time>2026-04-05T12:38:11.999Z</time></trkpt><trkpt lat="14.455783833084137" lon="121.03855824949902"><ele>36.0</ele><time>2026-04-05T12:38:12.999Z</time></trkpt><trkpt lat="14.455806780082758" lon="121.03844318513885"><ele>36.0</ele><time>2026-04-05T12:38:13.999Z</time></trkpt><trkpt lat="14.45583101915161" lon="121.0383267226463"><ele>36.0</ele><time>2026-04-05T12:38:14.999Z</time></trkpt><trkpt lat="14.455854568449086" lon="121.03820433242046"><ele>36.0</ele><time>2026-04-05T12:38:15.999Z</time></trkpt><trkpt lat="14.455883001857476" lon="121.03807996741219"><ele>36.0</ele><time>2026-04-05T12:38:16.999Z</time></trkpt><trkpt lat="14.455907450317893" lon="121.03796302826159"><ele>36.0</ele><time>2026-04-05T12:38:17.999Z</time></trkpt><trkpt lat="14.45593350953146" lon="121.0378536200515"><ele>36.0</ele><time>2026-04-05T12:38:18.999Z</time></trkpt><trkpt lat="14.455958579406673" lon="121.03775349805487"><ele>36.0</ele><time>2026-04-05T12:38:19.999Z</time></trkpt><trkpt lat="14.455983580642322" lon="121.03765361365798"><ele>36.0</ele><time>2026-04-05T12:38:20.999Z</time></trkpt><trkpt lat="14.456006878510726" lon="121.0375693532226"><ele>36.0</ele><time>2026-04-05T12:38:21.999Z</time></trkpt><trkpt lat="14.456027723493964" lon="121.03748885623605"><ele>36.0</ele><time>2026-04-05T12:38:22.999Z</time></trkpt><trkpt lat="14.456051765161163" lon="121.03740461251105"><ele>36.0</ele><time>2026-04-05T12:38:23.999Z</time></trkpt><trkpt lat="14.456073800915897" lon="121.03733285353998"><ele>36.0</ele><time>2026-04-05T12:38:24.999Z</time></trkpt><trkpt lat="14.456101455943308" lon="121.03726070736779"><ele>36.0</ele><time>2026-04-05T12:38:25.999Z</time></trkpt><trkpt lat="14.456130975606136" lon="121.03718408691928"><ele>36.2</ele><time>2026-04-05T12:38:26.999Z</time></trkpt><trkpt lat="14.456157442645145" lon="121.03709435755911"><ele>36.400000000000006</ele><time>2026-04-05T12:38:27.999Z</time></trkpt><trkpt lat="14.456183259868364" lon="121.03699938551816"><ele>36.6</ele><time>2026-04-05T12:38:28.999Z</time></trkpt><trkpt lat="14.456203499561711" lon="121.03690791671393"><ele>36.800000000000004</ele><time>2026-04-05T12:38:29.999Z</time></trkpt><trkpt lat="14.456227887991732" lon="121.03681415678736"><ele>37.0</ele><time>2026-04-05T12:38:30.999Z</time></trkpt><trkpt lat="14.456247939356379" lon="121.03671930151172"><ele>36.800000000000004</ele><time>2026-04-05T12:38:31.999Z</time></trkpt><trkpt lat="14.456272531625388" lon="121.03663006846695"><ele>36.6</ele><time>2026-04-05T12:38:32.999Z</time></trkpt><trkpt lat="14.456291101637307" lon="121.03653809265337"><ele>36.400000000000006</ele><time>2026-04-05T12:38:33.999Z</time></trkpt><trkpt lat="14.456309399612872" lon="121.0364446807635"><ele>36.2</ele><time>2026-04-05T12:38:34.999Z</time></trkpt><trkpt lat="14.45633064705723" lon="121.03634974178817"><ele>36.0</ele><time>2026-04-05T12:38:35.999Z</time></trkpt><trkpt lat="14.4563647054636" lon="121.03624873313534"><ele>36.0</ele><time>2026-04-05T12:38:36.999Z</time></trkpt><trkpt lat="14.45640094065732" lon="121.03614605796271"><ele>36.0</ele><time>2026-04-05T12:38:37.999Z</time></trkpt><trkpt lat="14.456438449182963" lon="121.03604931907117"><ele>36.0</ele><time>2026-04-05T12:38:38.999Z</time></trkpt><trkpt lat="14.456473294338608" lon="121.03596452756891"><ele>36.0</ele><time>2026-04-05T12:38:39.999Z</time></trkpt><trkpt lat="14.456506046508375" lon="121.03588764674821"><ele>36.0</ele><time>2026-04-05T12:38:40.999Z</time></trkpt><trkpt lat="14.456535596576154" lon="121.03582804288884"><ele>36.0</ele><time>2026-04-05T12:38:41.999Z</time></trkpt><trkpt lat="14.456580486089841" lon="121.03572423653492"><ele>36.0</ele><time>2026-04-05T12:38:43.999Z</time></trkpt><trkpt lat="14.456629070157215" lon="121.03561345693939"><ele>36.0</ele><time>2026-04-05T12:38:45.999Z</time></trkpt><trkpt lat="14.456656485907493" lon="121.03554769742013"><ele>36.0</ele><time>2026-04-05T12:38:46.999Z</time></trkpt><trkpt lat="14.45668973238439" lon="121.0354817940837"><ele>36.0</ele><time>2026-04-05T12:38:47.999Z</time></trkpt><trkpt lat="14.456728194537595" lon="121.03540914643268"><ele>36.0</ele><time>2026-04-05T12:38:48.999Z</time></trkpt><trkpt lat="14.456766772409685" lon="121.03533432941043"><ele>36.0</ele><time>2026-04-05T12:38:49.999Z</time></trkpt><trkpt lat="14.456799604983289" lon="121.03527803446407"><ele>36.0</ele><time>2026-04-05T12:38:50.999Z</time></trkpt><trkpt lat="14.456847921175495" lon="121.03516687930174"><ele>36.0</ele><time>2026-04-05T12:38:52.999Z</time></trkpt><trkpt lat="14.456896123460286" lon="121.03507056077429"><ele>36.0</ele><time>2026-04-05T12:38:54.999Z</time></trkpt><trkpt lat="14.456936425880206" lon="121.03500518878936"><ele>36.0</ele><time>2026-04-05T12:38:56.999Z</time></trkpt><trkpt lat="14.456975121571963" lon="121.03493295371966"><ele>36.0</ele><time>2026-04-05T12:38:59.999Z</time></trkpt><trkpt lat="14.457002872915035" lon="121.03486649914623"><ele>36.0</ele><time>2026-04-05T12:39:01.999Z</time></trkpt><trkpt lat="14.457063844854773" lon="121.03478270106876"><ele>35.2</ele><time>2026-04-05T12:39:03.999Z</time></trkpt><trkpt lat="14.457135381577723" lon="121.03466980803788"><ele>34.400000000000006</ele><time>2026-04-05T12:39:05.999Z</time></trkpt><trkpt lat="14.457181231635614" lon="121.03459543613258"><ele>33.6</ele><time>2026-04-05T12:39:06.999Z</time></trkpt><trkpt lat="14.45722992381886" lon="121.03451429988334"><ele>32.800000000000004</ele><time>2026-04-05T12:39:07.999Z</time></trkpt><trkpt lat="14.457279819081435" lon="121.03443060257806"><ele>32.0</ele><time>2026-04-05T12:39:08.999Z</time></trkpt><trkpt lat="14.457328247037614" lon="121.03435077504825"><ele>32.0</ele><time>2026-04-05T12:39:09.999Z</time></trkpt><trkpt lat="14.457378050429417" lon="121.03426102016117"><ele>32.0</ele><time>2026-04-05T12:39:10.999Z</time></trkpt><trkpt lat="14.457423876732166" lon="121.03417208278975"><ele>32.0</ele><time>2026-04-05T12:39:11.999Z</time></trkpt><trkpt lat="14.45747183723043" lon="121.0340739125429"><ele>32.0</ele><time>2026-04-05T12:39:12.999Z</time></trkpt><trkpt lat="14.45752493170402" lon="121.03397358214862"><ele>32.0</ele><time>2026-04-05T12:39:13.999Z</time></trkpt><trkpt lat="14.457582809379458" lon="121.03387474704454"><ele>32.166666666666664</ele><time>2026-04-05T12:39:14.999Z</time></trkpt><trkpt lat="14.45761231931382" lon="121.0337924786954"><ele>32.33333333333333</ele><time>2026-04-05T12:39:15.999Z</time></trkpt><trkpt lat="14.457658648286783" lon="121.03370898598324"><ele>32.5</ele><time>2026-04-05T12:39:16.999Z</time></trkpt><trkpt lat="14.457697677373767" lon="121.03362675966817"><ele>32.666666666666664</ele><time>2026-04-05T12:39:17.999Z</time></trkpt><trkpt lat="14.457733677763123" lon="121.03354975513973"><ele>32.833333333333336</ele><time>2026-04-05T12:39:18.999Z</time></trkpt><trkpt lat="14.457772797752083" lon="121.03346962646089"><ele>33.0</ele><time>2026-04-05T12:39:19.999Z</time></trkpt><trkpt lat="14.457819614294484" lon="121.0333964932127"><ele>33.0</ele><time>2026-04-05T12:39:20.999Z</time></trkpt><trkpt lat="14.457865052896972" lon="121.03332233543935"><ele>33.0</ele><time>2026-04-05T12:39:21.999Z</time></trkpt><trkpt lat="14.457913837681245" lon="121.03324037184001"><ele>33.0</ele><time>2026-04-05T12:39:22.999Z</time></trkpt><trkpt lat="14.457968719809998" lon="121.03315815962151"><ele>33.0</ele><time>2026-04-05T12:39:23.999Z</time></trkpt><trkpt lat="14.458026298400178" lon="121.0330668001245"><ele>33.0</ele><time>2026-04-05T12:39:24.999Z</time></trkpt><trkpt lat="14.458085945294957" lon="121.03297789684031"><ele>33.199999999999996</ele><time>2026-04-05T12:39:25.999Z</time></trkpt><trkpt lat="14.458146027922329" lon="121.03288467796686"><ele>33.4</ele><time>2026-04-05T12:39:26.999Z</time></trkpt><trkpt lat="14.458204168245953" lon="121.0327907597743"><ele>33.599999999999994</ele><time>2026-04-05T12:39:27.999Z</time></trkpt><trkpt lat="14.458253900877205" lon="121.0326932445035"><ele>33.8</ele><time>2026-04-05T12:39:28.999Z</time></trkpt><trkpt lat="14.458296357494502" lon="121.03261128510518"><ele>34.0</ele><time>2026-04-05T12:39:29.999Z</time></trkpt><trkpt lat="14.458336916314433" lon="121.03253337670186"><ele>34.0</ele><time>2026-04-05T12:39:30.999Z</time></trkpt><trkpt lat="14.458379332408361" lon="121.03246152534116"><ele>34.0</ele><time>2026-04-05T12:39:31.999Z</time></trkpt><trkpt lat="14.458413521779901" lon="121.03240474510505"><ele>34.0</ele><time>2026-04-05T12:39:32.999Z</time></trkpt><trkpt lat="14.45844789415691" lon="121.03234874504308"><ele>34.0</ele><time>2026-04-05T12:39:33.999Z</time></trkpt><trkpt lat="14.458488235684118" lon="121.03229674266188"><ele>34.0</ele><time>2026-04-05T12:39:34.999Z</time></trkpt><trkpt lat="14.458563907965367" lon="121.03222031160477"><ele>34.0</ele><time>2026-04-05T12:39:36.999Z</time></trkpt><trkpt lat="14.458618910959403" lon="121.03212939750831"><ele>34.0</ele><time>2026-04-05T12:39:38.999Z</time></trkpt><trkpt lat="14.45868349266855" lon="121.03201733619386"><ele>34.0</ele><time>2026-04-05T12:39:40.999Z</time></trkpt><trkpt lat="14.458712713475519" lon="121.03195774336699"><ele>34.0</ele><time>2026-04-05T12:39:41.999Z</time></trkpt><trkpt lat="14.458742674762425" lon="121.03187802366867"><ele>34.0</ele><time>2026-04-05T12:39:42.999Z</time></trkpt><trkpt lat="14.458778319616853" lon="121.03178547075096"><ele>34.0</ele><time>2026-04-05T12:39:43.999Z</time></trkpt><trkpt lat="14.458820339121218" lon="121.03168593118056"><ele>33.5</ele><time>2026-04-05T12:39:44.999Z</time></trkpt><trkpt lat="14.4588701389415" lon="121.03158545706356"><ele>33.0</ele><time>2026-04-05T12:39:45.999Z</time></trkpt><trkpt lat="14.45892275018861" lon="121.03147988307009"><ele>32.5</ele><time>2026-04-05T12:39:46.999Z</time></trkpt><trkpt lat="14.458977837130234" lon="121.03136793493661"><ele>32.0</ele><time>2026-04-05T12:39:47.999Z</time></trkpt><trkpt lat="14.459036584193564" lon="121.03126134936383"><ele>32.0</ele><time>2026-04-05T12:39:48.999Z</time></trkpt><trkpt lat="14.459096849416005" lon="121.03115000939334"><ele>32.0</ele><time>2026-04-05T12:39:49.999Z</time></trkpt><trkpt lat="14.459163449885514" lon="121.03104042912682"><ele>32.0</ele><time>2026-04-05T12:39:50.999Z</time></trkpt><trkpt lat="14.45923159645676" lon="121.03093062002426"><ele>32.0</ele><time>2026-04-05T12:39:51.999Z</time></trkpt><trkpt lat="14.459295108294766" lon="121.03081443393508"><ele>31.75</ele><time>2026-04-05T12:39:52.999Z</time></trkpt><trkpt lat="14.459359704092755" lon="121.03070694585566"><ele>31.5</ele><time>2026-04-05T12:39:53.999Z</time></trkpt><trkpt lat="14.459423628638831" lon="121.03059678932483"><ele>31.25</ele><time>2026-04-05T12:39:54.999Z</time></trkpt><trkpt lat="14.459485079846184" lon="121.0304839232676"><ele>31.0</ele><time>2026-04-05T12:39:55.999Z</time></trkpt><trkpt lat="14.459542145683464" lon="121.03037738110336"><ele>31.0</ele><time>2026-04-05T12:39:56.999Z</time></trkpt><trkpt lat="14.459596530789552" lon="121.03028647386252"><ele>31.0</ele><time>2026-04-05T12:39:57.999Z</time></trkpt><trkpt lat="14.459647295371505" lon="121.03018810292947"><ele>31.0</ele><time>2026-04-05T12:39:58.999Z</time></trkpt><trkpt lat="14.459699909960205" lon="121.03009208882881"><ele>31.0</ele><time>2026-04-05T12:39:59.999Z</time></trkpt><trkpt lat="14.459750800677401" lon="121.02999721711745"><ele>31.0</ele><time>2026-04-05T12:40:00.999Z</time></trkpt><trkpt lat="14.459806901723463" lon="121.0298991912979"><ele>30.6</ele><time>2026-04-05T12:40:01.999Z</time></trkpt><trkpt lat="14.459860691047048" lon="121.02980354815323"><ele>30.200000000000003</ele><time>2026-04-05T12:40:02.999Z</time></trkpt><trkpt lat="14.45991365371275" lon="121.02970630571187"><ele>29.799999999999997</ele><time>2026-04-05T12:40:03.999Z</time></trkpt><trkpt lat="14.45996576816186" lon="121.02960878863485"><ele>29.4</ele><time>2026-04-05T12:40:04.999Z</time></trkpt><trkpt lat="14.460013888327527" lon="121.02951576724617"><ele>29.0</ele><time>2026-04-05T12:40:05.999Z</time></trkpt><trkpt lat="14.460064096704192" lon="121.02942353651356"><ele>28.999999999999996</ele><time>2026-04-05T12:40:06.999Z</time></trkpt><trkpt lat="14.460114173625236" lon="121.02933100152538"><ele>29.0</ele><time>2026-04-05T12:40:07.999Z</time></trkpt><trkpt lat="14.46015640512273" lon="121.0292520516978"><ele>29.0</ele><time>2026-04-05T12:40:08.999Z</time></trkpt><trkpt lat="14.460198203298773" lon="121.02916827429581"><ele>29.0</ele><time>2026-04-05T12:40:09.999Z</time></trkpt><trkpt lat="14.460238155292643" lon="121.02909064969315"><ele>28.999999999999996</ele><time>2026-04-05T12:40:10.999Z</time></trkpt><trkpt lat="14.460275603025792" lon="121.02901435550638"><ele>29.0</ele><time>2026-04-05T12:40:11.999Z</time></trkpt><trkpt lat="14.460311620231186" lon="121.02893980848889"><ele>28.666666666666664</ele><time>2026-04-05T12:40:12.999Z</time></trkpt><trkpt lat="14.460343925396733" lon="121.02887024780581"><ele>28.333333333333332</ele><time>2026-04-05T12:40:13.999Z</time></trkpt><trkpt lat="14.460372329353023" lon="121.02880479869843"><ele>28.0</ele><time>2026-04-05T12:40:14.999Z</time></trkpt><trkpt lat="14.460408899201816" lon="121.02873398900229"><ele>27.666666666666664</ele><time>2026-04-05T12:40:15.999Z</time></trkpt><trkpt lat="14.460447286197722" lon="121.02866207921109"><ele>27.333333333333332</ele><time>2026-04-05T12:40:16.999Z</time></trkpt><trkpt lat="14.460481189030666" lon="121.02858857765959"><ele>27.0</ele><time>2026-04-05T12:40:17.999Z</time></trkpt><trkpt lat="14.460519254796864" lon="121.02851830456547"><ele>26.833333333333332</ele><time>2026-04-05T12:40:18.999Z</time></trkpt><trkpt lat="14.460551272064425" lon="121.02844887256994"><ele>26.666666666666664</ele><time>2026-04-05T12:40:19.999Z</time></trkpt><trkpt lat="14.460583547786472" lon="121.02838758772975"><ele>26.5</ele><time>2026-04-05T12:40:20.999Z</time></trkpt><trkpt lat="14.460611719909153" lon="121.02832406706489"><ele>26.333333333333332</ele><time>2026-04-05T12:40:21.999Z</time></trkpt><trkpt lat="14.460667017955657" lon="121.0282200593296"><ele>26.166666666666664</ele><time>2026-04-05T12:40:23.999Z</time></trkpt><trkpt lat="14.460707155805485" lon="121.02813760088893"><ele>26.0</ele><time>2026-04-05T12:40:25.999Z</time></trkpt><trkpt lat="14.460741392967885" lon="121.02807061126556"><ele>26.4</ele><time>2026-04-05T12:40:29.999Z</time></trkpt><trkpt lat="14.460779692068058" lon="121.02799919131935"><ele>26.8</ele><time>2026-04-05T12:40:31.999Z</time></trkpt><trkpt lat="14.46082683912458" lon="121.02790334578147"><ele>27.199999999999996</ele><time>2026-04-05T12:40:33.999Z</time></trkpt><trkpt lat="14.460878779378252" lon="121.02780075859543"><ele>27.599999999999998</ele><time>2026-04-05T12:40:35.999Z</time></trkpt><trkpt lat="14.460905745158932" lon="121.02773958641036"><ele>28.0</ele><time>2026-04-05T12:40:36.999Z</time></trkpt><trkpt lat="14.460960694825664" lon="121.02762906111876"><ele>28.0</ele><time>2026-04-05T12:40:38.999Z</time></trkpt><trkpt lat="14.460996467360756" lon="121.02756153521334"><ele>27.999999999999996</ele><time>2026-04-05T12:40:39.999Z</time></trkpt><trkpt lat="14.461032401202775" lon="121.02748396590809"><ele>27.999999999999996</ele><time>2026-04-05T12:40:40.999Z</time></trkpt><trkpt lat="14.461072813911443" lon="121.02739713469857"><ele>28.0</ele><time>2026-04-05T12:40:41.999Z</time></trkpt><trkpt lat="14.461113341513887" lon="121.02732425273915"><ele>28.0</ele><time>2026-04-05T12:40:42.999Z</time></trkpt><trkpt lat="14.461182995178813" lon="121.02718890325143"><ele>27.2</ele><time>2026-04-05T12:40:44.999Z</time></trkpt><trkpt lat="14.461217708696138" lon="121.02710955195462"><ele>26.4</ele><time>2026-04-05T12:40:45.999Z</time></trkpt><trkpt lat="14.461256568748915" lon="121.0270296242459"><ele>25.599999999999998</ele><time>2026-04-05T12:40:46.999Z</time></trkpt><trkpt lat="14.461295537931546" lon="121.0269471091292"><ele>24.799999999999997</ele><time>2026-04-05T12:40:47.999Z</time></trkpt><trkpt lat="14.461347532735001" lon="121.02685889191588"><ele>24.0</ele><time>2026-04-05T12:40:48.999Z</time></trkpt><trkpt lat="14.46140606684394" lon="121.02675788261588"><ele>24.75</ele><time>2026-04-05T12:40:49.999Z</time></trkpt><trkpt lat="14.461467888700392" lon="121.02663231529756"><ele>25.5</ele><time>2026-04-05T12:40:50.999Z</time></trkpt><trkpt lat="14.461528228348781" lon="121.02650434037304"><ele>26.25</ele><time>2026-04-05T12:40:51.999Z</time></trkpt><trkpt lat="14.461590908292612" lon="121.02637562992109"><ele>27.0</ele><time>2026-04-05T12:40:52.999Z</time></trkpt><trkpt lat="14.46164989358759" lon="121.02625092619722"><ele>27.0</ele><time>2026-04-05T12:40:54Z</time></trkpt><trkpt lat="14.46170947368607" lon="121.02612559027797"><ele>27.0</ele><time>2026-04-05T12:40:55Z</time></trkpt><trkpt lat="14.46176971399837" lon="121.02600607843901"><ele>27.0</ele><time>2026-04-05T12:40:56Z</time></trkpt><trkpt lat="14.461830185911822" lon="121.02588708834266"><ele>27.0</ele><time>2026-04-05T12:40:57Z</time></trkpt><trkpt lat="14.46187991523564" lon="121.02577583883185"><ele>26.8</ele><time>2026-04-05T12:40:58Z</time></trkpt><trkpt lat="14.461929443686943" lon="121.0256750423267"><ele>26.6</ele><time>2026-04-05T12:40:59Z</time></trkpt><trkpt lat="14.461981969910367" lon="121.02558264418263"><ele>26.400000000000002</ele><time>2026-04-05T12:41:00Z</time></trkpt><trkpt lat="14.4620273920919" lon="121.02549294790597"><ele>26.200000000000003</ele><time>2026-04-05T12:41:01Z</time></trkpt><trkpt lat="14.46208105824753" lon="121.02540905806674"><ele>26.0</ele><time>2026-04-05T12:41:02Z</time></trkpt><trkpt lat="14.46213136775109" lon="121.02531963185011"><ele>26.0</ele><time>2026-04-05T12:41:03Z</time></trkpt><trkpt lat="14.462189449766752" lon="121.02522314655619"><ele>26.0</ele><time>2026-04-05T12:41:04Z</time></trkpt><trkpt lat="14.46224983410147" lon="121.02511687133318"><ele>26.0</ele><time>2026-04-05T12:41:05Z</time></trkpt><trkpt lat="14.462299002453602" lon="121.02499953111942"><ele>26.0</ele><time>2026-04-05T12:41:06Z</time></trkpt><trkpt lat="14.462352985322978" lon="121.02488011069978"><ele>26.5</ele><time>2026-04-05T12:41:07Z</time></trkpt><trkpt lat="14.462411433940751" lon="121.0247595593544"><ele>27.0</ele><time>2026-04-05T12:41:08Z</time></trkpt><trkpt lat="14.462471855588955" lon="121.02464189504461"><ele>27.5</ele><time>2026-04-05T12:41:09Z</time></trkpt><trkpt lat="14.462537257185552" lon="121.02451076405923"><ele>28.0</ele><time>2026-04-05T12:41:10Z</time></trkpt><trkpt lat="14.46260142898076" lon="121.0243768710952"><ele>28.0</ele><time>2026-04-05T12:41:11Z</time></trkpt><trkpt lat="14.462665164536032" lon="121.02424717421152"><ele>28.0</ele><time>2026-04-05T12:41:12Z</time></trkpt><trkpt lat="14.46272559675215" lon="121.02411407876605"><ele>28.0</ele><time>2026-04-05T12:41:13Z</time></trkpt><trkpt lat="14.46278995483155" lon="121.02397944925504"><ele>28.0</ele><time>2026-04-05T12:41:14Z</time></trkpt><trkpt lat="14.462861334598111" lon="121.02384914340541"><ele>27.666666666666668</ele><time>2026-04-05T12:41:15Z</time></trkpt><trkpt lat="14.462922427732892" lon="121.02370351149096"><ele>27.333333333333336</ele><time>2026-04-05T12:41:16Z</time></trkpt><trkpt lat="14.4629869479256" lon="121.02356812950025"><ele>27.0</ele><time>2026-04-05T12:41:17Z</time></trkpt><trkpt lat="14.463053725373454" lon="121.0234250002097"><ele>26.666666666666664</ele><time>2026-04-05T12:41:18Z</time></trkpt><trkpt lat="14.463117675824497" lon="121.02328504190855"><ele>26.333333333333332</ele><time>2026-04-05T12:41:19Z</time></trkpt><trkpt lat="14.463184194808973" lon="121.02313747460066"><ele>26.0</ele><time>2026-04-05T12:41:20Z</time></trkpt><trkpt lat="14.463252679377794" lon="121.02298998598222"><ele>26.0</ele><time>2026-04-05T12:41:21Z</time></trkpt><trkpt lat="14.463320265466509" lon="121.02284639078889"><ele>26.0</ele><time>2026-04-05T12:41:22Z</time></trkpt><trkpt lat="14.463389060949947" lon="121.02269656160888"><ele>26.0</ele><time>2026-04-05T12:41:23Z</time></trkpt><trkpt lat="14.463456819185026" lon="121.02255375280554"><ele>25.666666666666664</ele><time>2026-04-05T12:41:24Z</time></trkpt><trkpt lat="14.463521911022665" lon="121.02240687262665"><ele>25.333333333333336</ele><time>2026-04-05T12:41:25Z</time></trkpt><trkpt lat="14.463592649712222" lon="121.02226030119958"><ele>25.0</ele><time>2026-04-05T12:41:26Z</time></trkpt><trkpt lat="14.463661907677647" lon="121.02211185535477"><ele>25.0</ele><time>2026-04-05T12:41:27Z</time></trkpt><trkpt lat="14.463736198646481" lon="121.02195823380305"><ele>25.0</ele><time>2026-04-05T12:41:28Z</time></trkpt><trkpt lat="14.46381364045062" lon="121.02180928499355"><ele>25.0</ele><time>2026-04-05T12:41:29Z</time></trkpt><trkpt lat="14.463890374822178" lon="121.0216574059279"><ele>25.0</ele><time>2026-04-05T12:41:30Z</time></trkpt><trkpt lat="14.46396829488238" lon="121.02150928982275"><ele>25.0</ele><time>2026-04-05T12:41:31Z</time></trkpt><trkpt lat="14.464042979450069" lon="121.02136168140585"><ele>25.0</ele><time>2026-04-05T12:41:32Z</time></trkpt><trkpt lat="14.464110904925711" lon="121.02122843543005"><ele>25.0</ele><time>2026-04-05T12:41:33Z</time></trkpt><trkpt lat="14.464177750570894" lon="121.02109899754186"><ele>25.0</ele><time>2026-04-05T12:41:34Z</time></trkpt><trkpt lat="14.464238698413562" lon="121.02097702373342"><ele>25.0</ele><time>2026-04-05T12:41:35Z</time></trkpt><trkpt lat="14.464296796778434" lon="121.02086377112369"><ele>25.0</ele><time>2026-04-05T12:41:36Z</time></trkpt><trkpt lat="14.464353523976886" lon="121.02075651845004"><ele>24.666666666666668</ele><time>2026-04-05T12:41:37Z</time></trkpt><trkpt lat="14.464400635494219" lon="121.02066845872643"><ele>24.333333333333336</ele><time>2026-04-05T12:41:38Z</time></trkpt><trkpt lat="14.464438244405272" lon="121.02058922459926"><ele>24.0</ele><time>2026-04-05T12:41:39Z</time></trkpt><trkpt lat="14.46447343771505" lon="121.0205229900005"><ele>23.666666666666668</ele><time>2026-04-05T12:41:40Z</time></trkpt><trkpt lat="14.464506881973408" lon="121.02046774028308"><ele>23.333333333333336</ele><time>2026-04-05T12:41:41Z</time></trkpt><trkpt lat="14.464560633426627" lon="121.02037857861055"><ele>23.0</ele><time>2026-04-05T12:41:43Z</time></trkpt><trkpt lat="14.46458689037204" lon="121.02029769748577"><ele>23.0</ele><time>2026-04-05T12:41:46Z</time></trkpt><trkpt lat="14.46461178733596" lon="121.0202245718425"><ele>23.0</ele><time>2026-04-05T12:41:49Z</time></trkpt><trkpt lat="14.46463520779955" lon="121.02016416240326"><ele>23.0</ele><time>2026-04-05T12:41:56Z</time></trkpt><trkpt lat="14.464667418500712" lon="121.0201012350311"><ele>23.0</ele><time>2026-04-05T12:42:01Z</time></trkpt><trkpt lat="14.464691796932462" lon="121.0200395996784"><ele>23.0</ele><time>2026-04-05T12:42:04Z</time></trkpt><trkpt lat="14.464719921715332" lon="121.0199680747295"><ele>23.0</ele><time>2026-04-05T12:42:10Z</time></trkpt><trkpt lat="14.464779609289877" lon="121.01988298065379"><ele>23.0</ele><time>2026-04-05T12:42:12Z</time></trkpt><trkpt lat="14.46481180831756" lon="121.01982003883478"><ele>23.0</ele><time>2026-04-05T12:42:13Z</time></trkpt><trkpt lat="14.464846242613865" lon="121.01975272752551"><ele>23.0</ele><time>2026-04-05T12:42:14Z</time></trkpt><trkpt lat="14.464880050579136" lon="121.0196796481754"><ele>23.0</ele><time>2026-04-05T12:42:15Z</time></trkpt><trkpt lat="14.46491672580154" lon="121.01960221921703"><ele>23.0</ele><time>2026-04-05T12:42:16Z</time></trkpt><trkpt lat="14.46495815027569" lon="121.01951476360829"><ele>23.0</ele><time>2026-04-05T12:42:17Z</time></trkpt><trkpt lat="14.464997573362906" lon="121.01943153334693"><ele>23.0</ele><time>2026-04-05T12:42:18Z</time></trkpt><trkpt lat="14.465036810102088" lon="121.01934869649997"><ele>23.0</ele><time>2026-04-05T12:42:19Z</time></trkpt><trkpt lat="14.46508070767142" lon="121.0192553213651"><ele>23.0</ele><time>2026-04-05T12:42:20Z</time></trkpt><trkpt lat="14.465123930977269" lon="121.0191615234179"><ele>23.0</ele><time>2026-04-05T12:42:21Z</time></trkpt><trkpt lat="14.465159555742982" lon="121.01905099853943"><ele>23.0</ele><time>2026-04-05T12:42:22Z</time></trkpt><trkpt lat="14.465215386374036" lon="121.018939934218"><ele>23.0</ele><time>2026-04-05T12:42:23Z</time></trkpt><trkpt lat="14.465272216071833" lon="121.01882475264497"><ele>22.75</ele><time>2026-04-05T12:42:24Z</time></trkpt><trkpt lat="14.465330531928513" lon="121.01870392573241"><ele>22.5</ele><time>2026-04-05T12:42:25Z</time></trkpt><trkpt lat="14.465390910977117" lon="121.01858302433386"><ele>22.25</ele><time>2026-04-05T12:42:26Z</time></trkpt><trkpt lat="14.465450693517994" lon="121.01845281948265"><ele>22.0</ele><time>2026-04-05T12:42:27Z</time></trkpt><trkpt lat="14.465507986198332" lon="121.01833186777394"><ele>21.6</ele><time>2026-04-05T12:42:28Z</time></trkpt><trkpt lat="14.465559016434696" lon="121.01822053193109"><ele>21.200000000000003</ele><time>2026-04-05T12:42:29Z</time></trkpt><trkpt lat="14.465606977312339" lon="121.0181194288164"><ele>20.8</ele><time>2026-04-05T12:42:30Z</time></trkpt><trkpt lat="14.465651371484434" lon="121.01802101346058"><ele>20.4</ele><time>2026-04-05T12:42:31Z</time></trkpt><trkpt lat="14.465697008681564" lon="121.01792019438835"><ele>20.0</ele><time>2026-04-05T12:42:32Z</time></trkpt><trkpt lat="14.46573916785202" lon="121.0178175645959"><ele>20.0</ele><time>2026-04-05T12:42:33Z</time></trkpt><trkpt lat="14.46578597352104" lon="121.01770624218817"><ele>20.0</ele><time>2026-04-05T12:42:34Z</time></trkpt><trkpt lat="14.465835322654252" lon="121.0175944672682"><ele>20.0</ele><time>2026-04-05T12:42:35Z</time></trkpt><trkpt lat="14.465888704035317" lon="121.01748020674869"><ele>20.0</ele><time>2026-04-05T12:42:36Z</time></trkpt><trkpt lat="14.465942783524335" lon="121.01736348988523"><ele>20.5</ele><time>2026-04-05T12:42:37Z</time></trkpt><trkpt lat="14.465997393732488" lon="121.01724343160599"><ele>21.0</ele><time>2026-04-05T12:42:38Z</time></trkpt><trkpt lat="14.466052934182725" lon="121.01711690236372"><ele>21.5</ele><time>2026-04-05T12:42:39Z</time></trkpt><trkpt lat="14.466103330732823" lon="121.0169986302235"><ele>22.0</ele><time>2026-04-05T12:42:40Z</time></trkpt><trkpt lat="14.466154020182346" lon="121.01688778442866"><ele>22.0</ele><time>2026-04-05T12:42:41Z</time></trkpt><trkpt lat="14.466194319573349" lon="121.01680500449442"><ele>22.0</ele><time>2026-04-05T12:42:42Z</time></trkpt><trkpt lat="14.466229398622925" lon="121.01673722369166"><ele>22.0</ele><time>2026-04-05T12:42:43Z</time></trkpt><trkpt lat="14.46626189944474" lon="121.0166784758424"><ele>22.0</ele><time>2026-04-05T12:42:44Z</time></trkpt><trkpt lat="14.466294349016959" lon="121.01661371830372"><ele>22.0</ele><time>2026-04-05T12:42:45Z</time></trkpt><trkpt lat="14.466330736590507" lon="121.01654433540614"><ele>22.0</ele><time>2026-04-05T12:42:46Z</time></trkpt><trkpt lat="14.466365770036104" lon="121.01647030145698"><ele>21.6</ele><time>2026-04-05T12:42:47Z</time></trkpt><trkpt lat="14.466406180552102" lon="121.01639406053643"><ele>21.200000000000003</ele><time>2026-04-05T12:42:48Z</time></trkpt><trkpt lat="14.466448692247244" lon="121.0163098634876"><ele>20.8</ele><time>2026-04-05T12:42:49Z</time></trkpt><trkpt lat="14.466484919941932" lon="121.01622606737371"><ele>20.4</ele><time>2026-04-05T12:42:50Z</time></trkpt><trkpt lat="14.466526095100061" lon="121.01613252367301"><ele>20.0</ele><time>2026-04-05T12:42:51Z</time></trkpt><trkpt lat="14.466567876160303" lon="121.01603347685437"><ele>20.0</ele><time>2026-04-05T12:42:52Z</time></trkpt><trkpt lat="14.466613698664087" lon="121.0159364046343"><ele>20.0</ele><time>2026-04-05T12:42:53Z</time></trkpt><trkpt lat="14.466660770453446" lon="121.01582943626669"><ele>20.0</ele><time>2026-04-05T12:42:54Z</time></trkpt><trkpt lat="14.46671255178701" lon="121.01571496974303"><ele>20.0</ele><time>2026-04-05T12:42:55Z</time></trkpt><trkpt lat="14.466771840243855" lon="121.01559844921778"><ele>20.0</ele><time>2026-04-05T12:42:56Z</time></trkpt><trkpt lat="14.466835394397076" lon="121.0154696811679"><ele>20.0</ele><time>2026-04-05T12:42:57Z</time></trkpt><trkpt lat="14.466904336031293" lon="121.01533812362175"><ele>20.0</ele><time>2026-04-05T12:42:58Z</time></trkpt><trkpt lat="14.466972517991639" lon="121.01520373787204"><ele>20.0</ele><time>2026-04-05T12:42:59Z</time></trkpt><trkpt lat="14.46704577403362" lon="121.01506574776833"><ele>20.0</ele><time>2026-04-05T12:43:00Z</time></trkpt><trkpt lat="14.467117085060357" lon="121.01492541081745"><ele>20.0</ele><time>2026-04-05T12:43:01Z</time></trkpt><trkpt lat="14.467185533550854" lon="121.01479610657712"><ele>20.0</ele><time>2026-04-05T12:43:02Z</time></trkpt><trkpt lat="14.467243608019942" lon="121.01466399052306"><ele>20.0</ele><time>2026-04-05T12:43:03Z</time></trkpt><trkpt lat="14.467302068300253" lon="121.01454930376578"><ele>20.0</ele><time>2026-04-05T12:43:04Z</time></trkpt><trkpt lat="14.467356476271922" lon="121.01444984667212"><ele>20.0</ele><time>2026-04-05T12:43:05Z</time></trkpt><trkpt lat="14.467397669108966" lon="121.01435927950342"><ele>20.0</ele><time>2026-04-05T12:43:06Z</time></trkpt><trkpt lat="14.467437039090473" lon="121.01427617203075"><ele>20.0</ele><time>2026-04-05T12:43:07Z</time></trkpt><trkpt lat="14.467466154074932" lon="121.01421395180941"><ele>20.0</ele><time>2026-04-05T12:43:08Z</time></trkpt><trkpt lat="14.467495157315874" lon="121.01415553539233"><ele>20.0</ele><time>2026-04-05T12:43:09Z</time></trkpt><trkpt lat="14.467521806058171" lon="121.0140926215511"><ele>19.6</ele><time>2026-04-05T12:43:10Z</time></trkpt><trkpt lat="14.467550266136158" lon="121.01401862157297"><ele>19.2</ele><time>2026-04-05T12:43:11Z</time></trkpt><trkpt lat="14.467590602082108" lon="121.0139317506492"><ele>18.8</ele><time>2026-04-05T12:43:12Z</time></trkpt><trkpt lat="14.467637777764093" lon="121.01383857832198"><ele>18.4</ele><time>2026-04-05T12:43:13Z</time></trkpt><trkpt lat="14.467687313888938" lon="121.01374027513236"><ele>18.0</ele><time>2026-04-05T12:43:14Z</time></trkpt><trkpt lat="14.467739246773867" lon="121.01363439016721"><ele>18.0</ele><time>2026-04-05T12:43:15Z</time></trkpt><trkpt lat="14.467795294837556" lon="121.01351799824586"><ele>18.0</ele><time>2026-04-05T12:43:16Z</time></trkpt><trkpt lat="14.467853542281105" lon="121.01340503913437"><ele>18.0</ele><time>2026-04-05T12:43:17Z</time></trkpt><trkpt lat="14.46791346241479" lon="121.01328511832195"><ele>18.0</ele><time>2026-04-05T12:43:18Z</time></trkpt><trkpt lat="14.46797312491378" lon="121.01316797922647"><ele>18.0</ele><time>2026-04-05T12:43:19Z</time></trkpt><trkpt lat="14.468030058029061" lon="121.01304827910072"><ele>18.0</ele><time>2026-04-05T12:43:20Z</time></trkpt><trkpt lat="14.468084784469417" lon="121.01294670576705"><ele>18.0</ele><time>2026-04-05T12:43:21Z</time></trkpt><trkpt lat="14.468139630840355" lon="121.01284300877023"><ele>18.0</ele><time>2026-04-05T12:43:22Z</time></trkpt><trkpt lat="14.468194544595448" lon="121.01273922037198"><ele>18.0</ele><time>2026-04-05T12:43:23Z</time></trkpt><trkpt lat="14.468240285841024" lon="121.01265195758032"><ele>18.0</ele><time>2026-04-05T12:43:24Z</time></trkpt><trkpt lat="14.46828116639907" lon="121.01257683034882"><ele>18.0</ele><time>2026-04-05T12:43:25Z</time></trkpt><trkpt lat="14.46830726730387" lon="121.01251637362829"><ele>18.0</ele><time>2026-04-05T12:43:26Z</time></trkpt><trkpt lat="14.468334213190344" lon="121.01245562744926"><ele>18.0</ele><time>2026-04-05T12:43:27Z</time></trkpt><trkpt lat="14.468362989740829" lon="121.01239677087169"><ele>18.0</ele><time>2026-04-05T12:43:28Z</time></trkpt><trkpt lat="14.468416572801244" lon="121.01230306751488"><ele>17.666666666666668</ele><time>2026-04-05T12:43:30Z</time></trkpt><trkpt lat="14.468487114230843" lon="121.01226661313859"><ele>17.333333333333332</ele><time>2026-04-05T12:43:37Z</time></trkpt><trkpt lat="14.468518202108498" lon="121.012209969526"><ele>17.0</ele><time>2026-04-05T12:43:39Z</time></trkpt><trkpt lat="14.4685489703324" lon="121.01215085117948"><ele>16.666666666666664</ele><time>2026-04-05T12:43:41Z</time></trkpt><trkpt lat="14.4685971940968" lon="121.0120642901946"><ele>16.333333333333332</ele><time>2026-04-05T12:43:43Z</time></trkpt><trkpt lat="14.468644531680214" lon="121.01196027218474"><ele>16.0</ele><time>2026-04-05T12:43:45Z</time></trkpt><trkpt lat="14.468668416252333" lon="121.01189884280888"><ele>16.0</ele><time>2026-04-05T12:43:46Z</time></trkpt><trkpt lat="14.468706992114052" lon="121.0118281247989"><ele>16.0</ele><time>2026-04-05T12:43:47Z</time></trkpt><trkpt lat="14.468745365301796" lon="121.01175161380954"><ele>16.0</ele><time>2026-04-05T12:43:48Z</time></trkpt><trkpt lat="14.468790808016761" lon="121.01167129616854"><ele>16.0</ele><time>2026-04-05T12:43:49Z</time></trkpt><trkpt lat="14.46883706854809" lon="121.01158125026213"><ele>16.0</ele><time>2026-04-05T12:43:50Z</time></trkpt><trkpt lat="14.468886602877378" lon="121.01148786582806"><ele>15.5</ele><time>2026-04-05T12:43:51Z</time></trkpt><trkpt lat="14.468943979412057" lon="121.01138894353038"><ele>15.0</ele><time>2026-04-05T12:43:52Z</time></trkpt><trkpt lat="14.469006122411603" lon="121.01129100039752"><ele>14.5</ele><time>2026-04-05T12:43:53Z</time></trkpt><trkpt lat="14.469069364474356" lon="121.01118529363625"><ele>14.0</ele><time>2026-04-05T12:43:54Z</time></trkpt><trkpt lat="14.469132730291228" lon="121.0110783452428"><ele>14.0</ele><time>2026-04-05T12:43:55Z</time></trkpt><trkpt lat="14.46919893350426" lon="121.01097210878142"><ele>14.0</ele><time>2026-04-05T12:43:56Z</time></trkpt><trkpt lat="14.469265814343617" lon="121.01086631598052"><ele>14.0</ele><time>2026-04-05T12:43:57Z</time></trkpt><trkpt lat="14.469328489712016" lon="121.0107650150749"><ele>14.0</ele><time>2026-04-05T12:43:58Z</time></trkpt><trkpt lat="14.469384809945788" lon="121.01067115111412"><ele>14.0</ele><time>2026-04-05T12:43:59Z</time></trkpt><trkpt lat="14.469442265857793" lon="121.01057586598922"><ele>14.0</ele><time>2026-04-05T12:44:00Z</time></trkpt><trkpt lat="14.469502955340147" lon="121.01047735265897"><ele>14.0</ele><time>2026-04-05T12:44:01Z</time></trkpt><trkpt lat="14.469563453502559" lon="121.01037800475912"><ele>14.0</ele><time>2026-04-05T12:44:02Z</time></trkpt><trkpt lat="14.46962480420248" lon="121.0102776769127"><ele>14.0</ele><time>2026-04-05T12:44:03Z</time></trkpt><trkpt lat="14.469690222552924" lon="121.01017374224935"><ele>14.0</ele><time>2026-04-05T12:44:04Z</time></trkpt><trkpt lat="14.46975302997939" lon="121.01006470960982"><ele>14.0</ele><time>2026-04-05T12:44:05Z</time></trkpt><trkpt lat="14.469822291299538" lon="121.00995509484214"><ele>14.0</ele><time>2026-04-05T12:44:06Z</time></trkpt><trkpt lat="14.469886333722497" lon="121.00984128545286"><ele>13.75</ele><time>2026-04-05T12:44:07Z</time></trkpt><trkpt lat="14.469953805796552" lon="121.00973004558458"><ele>13.5</ele><time>2026-04-05T12:44:08Z</time></trkpt><trkpt lat="14.470030113479275" lon="121.00961050556307"><ele>13.25</ele><time>2026-04-05T12:44:09Z</time></trkpt><trkpt lat="14.470107897688045" lon="121.0094871038564"><ele>13.0</ele><time>2026-04-05T12:44:10Z</time></trkpt><trkpt lat="14.470181218967017" lon="121.00936861454271"><ele>13.0</ele><time>2026-04-05T12:44:11Z</time></trkpt><trkpt lat="14.470257785574653" lon="121.00924500464585"><ele>13.0</ele><time>2026-04-05T12:44:12Z</time></trkpt><trkpt lat="14.470330995936227" lon="121.00912485416414"><ele>13.0</ele><time>2026-04-05T12:44:13Z</time></trkpt><trkpt lat="14.470418003199294" lon="121.00899367959028"><ele>13.0</ele><time>2026-04-05T12:44:14Z</time></trkpt><trkpt lat="14.470497874756154" lon="121.00886756818635"><ele>13.75</ele><time>2026-04-05T12:44:15Z</time></trkpt><trkpt lat="14.470576308831125" lon="121.00874592953713"><ele>14.5</ele><time>2026-04-05T12:44:16Z</time></trkpt><trkpt lat="14.470659929925793" lon="121.00861640778693"><ele>15.25</ele><time>2026-04-05T12:44:17Z</time></trkpt><trkpt lat="14.470736537414533" lon="121.0084905658627"><ele>16.0</ele><time>2026-04-05T12:44:18Z</time></trkpt><trkpt lat="14.47081044438231" lon="121.00836930784074"><ele>15.4</ele><time>2026-04-05T12:44:19Z</time></trkpt><trkpt lat="14.470886743033896" lon="121.00825231386015"><ele>14.8</ele><time>2026-04-05T12:44:20Z</time></trkpt><trkpt lat="14.470946051923748" lon="121.00814590681425"><ele>14.200000000000001</ele><time>2026-04-05T12:44:21Z</time></trkpt><trkpt lat="14.470991912399434" lon="121.00806603035223"><ele>13.600000000000001</ele><time>2026-04-05T12:44:22Z</time></trkpt><trkpt lat="14.471039781199888" lon="121.00798066489565"><ele>13.0</ele><time>2026-04-05T12:44:24Z</time></trkpt><trkpt lat="14.47110677620069" lon="121.00787014288716"><ele>13.0</ele><time>2026-04-05T12:44:26Z</time></trkpt><trkpt lat="14.471153099817741" lon="121.00779840729804"><ele>13.0</ele><time>2026-04-05T12:44:27Z</time></trkpt><trkpt lat="14.471205287954648" lon="121.00771314197688"><ele>13.0</ele><time>2026-04-05T12:44:28Z</time></trkpt><trkpt lat="14.471261009437681" lon="121.00761953940923"><ele>13.0</ele><time>2026-04-05T12:44:29Z</time></trkpt><trkpt lat="14.471320697809206" lon="121.00751770085613"><ele>13.0</ele><time>2026-04-05T12:44:30Z</time></trkpt><trkpt lat="14.471383699966733" lon="121.0074106784072"><ele>12.75</ele><time>2026-04-05T12:44:31Z</time></trkpt><trkpt lat="14.471450444780027" lon="121.00730243112253"><ele>12.5</ele><time>2026-04-05T12:44:32Z</time></trkpt><trkpt lat="14.47152027058253" lon="121.00718987603771"><ele>12.25</ele><time>2026-04-05T12:44:33Z</time></trkpt><trkpt lat="14.471591014781815" lon="121.00707083157914"><ele>12.0</ele><time>2026-04-05T12:44:34Z</time></trkpt><trkpt lat="14.471662741762641" lon="121.00695067343354"><ele>12.0</ele><time>2026-04-05T12:44:35Z</time></trkpt><trkpt lat="14.47173338045309" lon="121.00682780112031"><ele>12.0</ele><time>2026-04-05T12:44:36Z</time></trkpt><trkpt lat="14.471805365586256" lon="121.00670605595882"><ele>12.0</ele><time>2026-04-05T12:44:37Z</time></trkpt><trkpt lat="14.471877143349095" lon="121.00658282736059"><ele>12.0</ele><time>2026-04-05T12:44:38Z</time></trkpt><trkpt lat="14.471948629461945" lon="121.00646302856794"><ele>12.0</ele><time>2026-04-05T12:44:39Z</time></trkpt><trkpt lat="14.472018010283524" lon="121.00634668569798"><ele>12.0</ele><time>2026-04-05T12:44:40Z</time></trkpt><trkpt lat="14.472087064802777" lon="121.00622903579017"><ele>12.0</ele><time>2026-04-05T12:44:41Z</time></trkpt><trkpt lat="14.4721601355736" lon="121.00610966931016"><ele>12.0</ele><time>2026-04-05T12:44:42Z</time></trkpt><trkpt lat="14.472229772970762" lon="121.00599054445776"><ele>12.25</ele><time>2026-04-05T12:44:43Z</time></trkpt><trkpt lat="14.472301942513655" lon="121.00586562429616"><ele>12.5</ele><time>2026-04-05T12:44:44Z</time></trkpt><trkpt lat="14.47237330112479" lon="121.00573402277932"><ele>12.75</ele><time>2026-04-05T12:44:45Z</time></trkpt><trkpt lat="14.472442585066414" lon="121.00561320011097"><ele>13.0</ele><time>2026-04-05T12:44:46Z</time></trkpt><trkpt lat="14.472524282433193" lon="121.00549193879495"><ele>13.0</ele><time>2026-04-05T12:44:47Z</time></trkpt><trkpt lat="14.47259903655254" lon="121.0053716540416"><ele>13.0</ele><time>2026-04-05T12:44:48Z</time></trkpt><trkpt lat="14.472670853189733" lon="121.00525121330189"><ele>13.0</ele><time>2026-04-05T12:44:49Z</time></trkpt><trkpt lat="14.472725949523895" lon="121.0051319880289"><ele>13.0</ele><time>2026-04-05T12:44:50Z</time></trkpt><trkpt lat="14.472794786564123" lon="121.00501641187152"><ele>12.75</ele><time>2026-04-05T12:44:51Z</time></trkpt><trkpt lat="14.47286792361017" lon="121.00489345427125"><ele>12.5</ele><time>2026-04-05T12:44:52Z</time></trkpt><trkpt lat="14.472943486282272" lon="121.00476760781838"><ele>12.25</ele><time>2026-04-05T12:44:53Z</time></trkpt><trkpt lat="14.473023648924718" lon="121.00463936280931"><ele>12.0</ele><time>2026-04-05T12:44:54Z</time></trkpt><trkpt lat="14.473108277127027" lon="121.00451780886893"><ele>12.0</ele><time>2026-04-05T12:44:55Z</time></trkpt><trkpt lat="14.473187980166466" lon="121.00438663089622"><ele>12.0</ele><time>2026-04-05T12:44:56Z</time></trkpt><trkpt lat="14.473263629666702" lon="121.00426035841605"><ele>12.0</ele><time>2026-04-05T12:44:57Z</time></trkpt><trkpt lat="14.473337608689267" lon="121.00413804489952"><ele>12.0</ele><time>2026-04-05T12:44:58Z</time></trkpt><trkpt lat="14.473411975021513" lon="121.00401668126324"><ele>12.0</ele><time>2026-04-05T12:44:59Z</time></trkpt><trkpt lat="14.47348333742641" lon="121.00388946457765"><ele>12.0</ele><time>2026-04-05T12:45:00Z</time></trkpt><trkpt lat="14.47355600679221" lon="121.00376230806086"><ele>12.0</ele><time>2026-04-05T12:45:01Z</time></trkpt><trkpt lat="14.473629296256743" lon="121.00363753945196"><ele>12.0</ele><time>2026-04-05T12:45:02Z</time></trkpt><trkpt lat="14.473706806184651" lon="121.00351145032705"><ele>11.75</ele><time>2026-04-05T12:45:03Z</time></trkpt><trkpt lat="14.473785246931687" lon="121.00338316723206"><ele>11.5</ele><time>2026-04-05T12:45:04Z</time></trkpt><trkpt lat="14.47386125438728" lon="121.00325344738368"><ele>11.25</ele><time>2026-04-05T12:45:05Z</time></trkpt><trkpt lat="14.47393697090792" lon="121.00312173813467"><ele>11.0</ele><time>2026-04-05T12:45:06Z</time></trkpt><trkpt lat="14.474012781151025" lon="121.00299398713078"><ele>10.75</ele><time>2026-04-05T12:45:07Z</time></trkpt><trkpt lat="14.474079640720547" lon="121.0028847825229"><ele>10.5</ele><time>2026-04-05T12:45:08Z</time></trkpt><trkpt lat="14.474142140615157" lon="121.00278081221546"><ele>10.25</ele><time>2026-04-05T12:45:09Z</time></trkpt><trkpt lat="14.474207310881143" lon="121.00268045447721"><ele>10.0</ele><time>2026-04-05T12:45:10Z</time></trkpt><trkpt lat="14.474268906704323" lon="121.00258019947707"><ele>10.0</ele><time>2026-04-05T12:45:11Z</time></trkpt><trkpt lat="14.474330665230156" lon="121.00247550812732"><ele>10.0</ele><time>2026-04-05T12:45:12Z</time></trkpt><trkpt lat="14.474392560882183" lon="121.00237191190955"><ele>10.0</ele><time>2026-04-05T12:45:13Z</time></trkpt><trkpt lat="14.474452710041367" lon="121.00227940260235"><ele>10.0</ele><time>2026-04-05T12:45:14Z</time></trkpt><trkpt lat="14.474508822109161" lon="121.0021924289953"><ele>10.0</ele><time>2026-04-05T12:45:15Z</time></trkpt><trkpt lat="14.474565466845643" lon="121.00211124561135"><ele>10.0</ele><time>2026-04-05T12:45:16Z</time></trkpt><trkpt lat="14.474623417647717" lon="121.00202227559033"><ele>10.0</ele><time>2026-04-05T12:45:17Z</time></trkpt><trkpt lat="14.474685437412319" lon="121.00193580918263"><ele>10.0</ele><time>2026-04-05T12:45:18Z</time></trkpt><trkpt lat="14.474749594094753" lon="121.00184720844929"><ele>10.0</ele><time>2026-04-05T12:45:19Z</time></trkpt><trkpt lat="14.474815988645684" lon="121.00176841369733"><ele>10.0</ele><time>2026-04-05T12:45:20Z</time></trkpt><trkpt lat="14.47487190213783" lon="121.00169567884835"><ele>10.166666666666668</ele><time>2026-04-05T12:45:21Z</time></trkpt><trkpt lat="14.474913510245706" lon="121.00164038573233"><ele>10.333333333333334</ele><time>2026-04-05T12:45:22Z</time></trkpt><trkpt lat="14.474977953535516" lon="121.00154958068298"><ele>10.5</ele><time>2026-04-05T12:45:24Z</time></trkpt><trkpt lat="14.47502051292732" lon="121.001494025844"><ele>10.666666666666666</ele><time>2026-04-05T12:45:27Z</time></trkpt><trkpt lat="14.4750644498425" lon="121.00143346540301"><ele>10.833333333333332</ele><time>2026-04-05T12:45:32Z</time></trkpt><trkpt lat="14.47510853929587" lon="121.00137256885003"><ele>11.0</ele><time>2026-04-05T12:45:37Z</time></trkpt><trkpt lat="14.475150636986003" lon="121.0013177236272"><ele>11.0</ele><time>2026-04-05T12:45:39Z</time></trkpt><trkpt lat="14.475220090868007" lon="121.001226475023"><ele>11.0</ele><time>2026-04-05T12:45:41Z</time></trkpt><trkpt lat="14.475257213469297" lon="121.0011671550658"><ele>11.0</ele><time>2026-04-05T12:45:42Z</time></trkpt><trkpt lat="14.475289649399816" lon="121.00110983357584"><ele>11.0</ele><time>2026-04-05T12:45:43Z</time></trkpt><trkpt lat="14.475343154766861" lon="121.00104381484438"><ele>11.0</ele><time>2026-04-05T12:45:44Z</time></trkpt><trkpt lat="14.475404051503464" lon="121.00096324577588"><ele>11.0</ele><time>2026-04-05T12:45:45Z</time></trkpt><trkpt lat="14.475473569713934" lon="121.0008782477837"><ele>10.5</ele><time>2026-04-05T12:45:46Z</time></trkpt><trkpt lat="14.475548035318944" lon="121.00079639087244"><ele>10.0</ele><time>2026-04-05T12:45:47Z</time></trkpt><trkpt lat="14.475630996648727" lon="121.00071483284744"><ele>9.5</ele><time>2026-04-05T12:45:48Z</time></trkpt><trkpt lat="14.475708799766432" lon="121.00062040845174"><ele>9.0</ele><time>2026-04-05T12:45:49Z</time></trkpt><trkpt lat="14.475788796229237" lon="121.00053414558906"><ele>9.0</ele><time>2026-04-05T12:45:50Z</time></trkpt><trkpt lat="14.475871910706681" lon="121.00044291997355"><ele>9.0</ele><time>2026-04-05T12:45:51Z</time></trkpt><trkpt lat="14.475955683561143" lon="121.00035034927596"><ele>9.0</ele><time>2026-04-05T12:45:52Z</time></trkpt><trkpt lat="14.476053363018362" lon="121.00025642047083"><ele>9.0</ele><time>2026-04-05T12:45:53Z</time></trkpt><trkpt lat="14.476149672410884" lon="121.0001572853693"><ele>9.0</ele><time>2026-04-05T12:45:54Z</time></trkpt><trkpt lat="14.476256518675342" lon="121.00006034111425"><ele>9.0</ele><time>2026-04-05T12:45:55Z</time></trkpt><trkpt lat="14.476358770784515" lon="120.99996980528107"><ele>9.0</ele><time>2026-04-05T12:45:56Z</time></trkpt><trkpt lat="14.476460451056953" lon="120.99988423336166"><ele>9.0</ele><time>2026-04-05T12:45:57Z</time></trkpt><trkpt lat="14.476552133037927" lon="120.99980968766044"><ele>9.0</ele><time>2026-04-05T12:45:58Z</time></trkpt><trkpt lat="14.47664085967388" lon="120.99972846355155"><ele>9.0</ele><time>2026-04-05T12:45:59Z</time></trkpt><trkpt lat="14.47673491119774" lon="120.9996498769085"><ele>9.0</ele><time>2026-04-05T12:46:00Z</time></trkpt><trkpt lat="14.476835358283935" lon="120.99957753480115"><ele>9.0</ele><time>2026-04-05T12:46:01Z</time></trkpt><trkpt lat="14.476941446616859" lon="120.99951165425672"><ele>9.0</ele><time>2026-04-05T12:46:02Z</time></trkpt><trkpt lat="14.47704163655875" lon="120.99944223057054"><ele>9.0</ele><time>2026-04-05T12:46:03Z</time></trkpt><trkpt lat="14.477144165499375" lon="120.99936524138974"><ele>9.0</ele><time>2026-04-05T12:46:04Z</time></trkpt><trkpt lat="14.477253951309578" lon="120.99929209480237"><ele>9.0</ele><time>2026-04-05T12:46:05Z</time></trkpt><trkpt lat="14.477370946904362" lon="120.9992205152165"><ele>9.0</ele><time>2026-04-05T12:46:06Z</time></trkpt><trkpt lat="14.477481935809417" lon="120.99914634648033"><ele>9.0</ele><time>2026-04-05T12:46:07Z</time></trkpt><trkpt lat="14.47758920135295" lon="120.99907175911088"><ele>9.0</ele><time>2026-04-05T12:46:08Z</time></trkpt><trkpt lat="14.47770074226319" lon="120.99899679308447"><ele>9.0</ele><time>2026-04-05T12:46:09Z</time></trkpt><trkpt lat="14.477813648448485" lon="120.99892226660775"><ele>9.0</ele><time>2026-04-05T12:46:10Z</time></trkpt><trkpt lat="14.477915013395833" lon="120.9988549240262"><ele>9.0</ele><time>2026-04-05T12:46:11Z</time></trkpt><trkpt lat="14.478018298210566" lon="120.99878969781948"><ele>9.0</ele><time>2026-04-05T12:46:12Z</time></trkpt><trkpt lat="14.478118702278993" lon="120.99872326707452"><ele>9.0</ele><time>2026-04-05T12:46:13Z</time></trkpt><trkpt lat="14.478206459601164" lon="120.99865919797281"><ele>9.0</ele><time>2026-04-05T12:46:14Z</time></trkpt><trkpt lat="14.478292725589947" lon="120.99859747279002"><ele>9.0</ele><time>2026-04-05T12:46:15Z</time></trkpt><trkpt lat="14.478387735959442" lon="120.99853444924852"><ele>9.0</ele><time>2026-04-05T12:46:16Z</time></trkpt><trkpt lat="14.478483978687517" lon="120.99847218457114"><ele>9.0</ele><time>2026-04-05T12:46:17Z</time></trkpt><trkpt lat="14.478579357803971" lon="120.99840577649233"><ele>9.0</ele><time>2026-04-05T12:46:18Z</time></trkpt><trkpt lat="14.47867887735408" lon="120.99834013928219"><ele>8.5</ele><time>2026-04-05T12:46:19Z</time></trkpt><trkpt lat="14.47878042731548" lon="120.99827069324343"><ele>8.0</ele><time>2026-04-05T12:46:20Z</time></trkpt><trkpt lat="14.478880465625478" lon="120.99820340096151"><ele>7.5</ele><time>2026-04-05T12:46:21Z</time></trkpt><trkpt lat="14.47898669829606" lon="120.99813172387066"><ele>7.0</ele><time>2026-04-05T12:46:22Z</time></trkpt><trkpt lat="14.47909249644577" lon="120.99805903213606"><ele>7.0</ele><time>2026-04-05T12:46:23Z</time></trkpt><trkpt lat="14.479202248672959" lon="120.99798467961061"><ele>7.0</ele><time>2026-04-05T12:46:24Z</time></trkpt><trkpt lat="14.479311003000081" lon="120.99791188976197"><ele>7.0</ele><time>2026-04-05T12:46:25Z</time></trkpt><trkpt lat="14.479421831990244" lon="120.99783994898615"><ele>7.0</ele><time>2026-04-05T12:46:26Z</time></trkpt><trkpt lat="14.47953134836299" lon="120.99777338624351"><ele>7.5</ele><time>2026-04-05T12:46:27Z</time></trkpt><trkpt lat="14.479651296508772" lon="120.99769891213205"><ele>8.0</ele><time>2026-04-05T12:46:28Z</time></trkpt><trkpt lat="14.479768442344476" lon="120.99762577094404"><ele>8.5</ele><time>2026-04-05T12:46:29Z</time></trkpt><trkpt lat="14.479887080710208" lon="120.99754489261412"><ele>9.0</ele><time>2026-04-05T12:46:30Z</time></trkpt><trkpt lat="14.48000966510353" lon="120.99746885227684"><ele>9.0</ele><time>2026-04-05T12:46:31Z</time></trkpt><trkpt lat="14.480123630345858" lon="120.99740615123103"><ele>9.0</ele><time>2026-04-05T12:46:32Z</time></trkpt><trkpt lat="14.480214798619901" lon="120.99734938386347"><ele>9.0</ele><time>2026-04-05T12:46:33Z</time></trkpt><trkpt lat="14.480319090714577" lon="120.99727700408121"><ele>9.0</ele><time>2026-04-05T12:46:34Z</time></trkpt><trkpt lat="14.4804065408375" lon="120.99721653813842"><ele>8.8</ele><time>2026-04-05T12:46:35Z</time></trkpt><trkpt lat="14.480490870339738" lon="120.9971569209889"><ele>8.600000000000001</ele><time>2026-04-05T12:46:36Z</time></trkpt><trkpt lat="14.480580200474813" lon="120.99709735118222"><ele>8.4</ele><time>2026-04-05T12:46:37Z</time></trkpt><trkpt lat="14.480669975944268" lon="120.99703928367161"><ele>8.200000000000001</ele><time>2026-04-05T12:46:38Z</time></trkpt><trkpt lat="14.480742650584299" lon="120.9969818055756"><ele>8.0</ele><time>2026-04-05T12:46:39Z</time></trkpt><trkpt lat="14.48083791577906" lon="120.99691803037418"><ele>8.0</ele><time>2026-04-05T12:46:40Z</time></trkpt><trkpt lat="14.48093127525469" lon="120.99685403942244"><ele>8.0</ele><time>2026-04-05T12:46:41Z</time></trkpt><trkpt lat="14.481026700986483" lon="120.99678845605567"><ele>8.0</ele><time>2026-04-05T12:46:42Z</time></trkpt><trkpt lat="14.481126395617869" lon="120.99671671320888"><ele>8.0</ele><time>2026-04-05T12:46:43Z</time></trkpt><trkpt lat="14.481223774013115" lon="120.99664421273198"><ele>8.0</ele><time>2026-04-05T12:46:44Z</time></trkpt><trkpt lat="14.4813235314586" lon="120.99657136945123"><ele>8.0</ele><time>2026-04-05T12:46:45Z</time></trkpt><trkpt lat="14.481424141834445" lon="120.99650054010635"><ele>8.0</ele><time>2026-04-05T12:46:46Z</time></trkpt><trkpt lat="14.481524276216119" lon="120.99642948553152"><ele>8.0</ele><time>2026-04-05T12:46:47Z</time></trkpt><trkpt lat="14.481621382508916" lon="120.9963626173252"><ele>8.0</ele><time>2026-04-05T12:46:48Z</time></trkpt><trkpt lat="14.481719349545266" lon="120.99628992892511"><ele>8.0</ele><time>2026-04-05T12:46:49Z</time></trkpt><trkpt lat="14.481821276259188" lon="120.99621566892105"><ele>8.0</ele><time>2026-04-05T12:46:50Z</time></trkpt><trkpt lat="14.481929866767073" lon="120.99613979194974"><ele>8.0</ele><time>2026-04-05T12:46:51Z</time></trkpt><trkpt lat="14.482040870810385" lon="120.99606852785213"><ele>8.0</ele><time>2026-04-05T12:46:52Z</time></trkpt><trkpt lat="14.482149988546128" lon="120.99599499332135"><ele>8.0</ele><time>2026-04-05T12:46:53Z</time></trkpt><trkpt lat="14.482261148315008" lon="120.99592006170253"><ele>8.0</ele><time>2026-04-05T12:46:54Z</time></trkpt><trkpt lat="14.482366131139619" lon="120.9958444714164"><ele>8.0</ele><time>2026-04-05T12:46:55Z</time></trkpt><trkpt lat="14.482464835461522" lon="120.99577216774641"><ele>8.25</ele><time>2026-04-05T12:46:56Z</time></trkpt><trkpt lat="14.482578068618714" lon="120.99569947232104"><ele>8.5</ele><time>2026-04-05T12:46:57Z</time></trkpt><trkpt lat="14.482681741338201" lon="120.99562467422052"><ele>8.75</ele><time>2026-04-05T12:46:58Z</time></trkpt><trkpt lat="14.482795116724265" lon="120.99554818026299"><ele>9.0</ele><time>2026-04-05T12:46:59Z</time></trkpt><trkpt lat="14.482906438060631" lon="120.99547264278517"><ele>9.25</ele><time>2026-04-05T12:47:00Z</time></trkpt><trkpt lat="14.483015150101208" lon="120.9953920380373"><ele>9.5</ele><time>2026-04-05T12:47:01Z</time></trkpt><trkpt lat="14.483127370237977" lon="120.99531013384355"><ele>9.75</ele><time>2026-04-05T12:47:02Z</time></trkpt><trkpt lat="14.483243618897244" lon="120.99522770424178"><ele>10.0</ele><time>2026-04-05T12:47:03Z</time></trkpt><trkpt lat="14.483362503629074" lon="120.99514657059807"><ele>10.0</ele><time>2026-04-05T12:47:04Z</time></trkpt><trkpt lat="14.483480211046054" lon="120.99506072082573"><ele>10.0</ele><time>2026-04-05T12:47:05Z</time></trkpt><trkpt lat="14.483600402119622" lon="120.99497331387022"><ele>10.0</ele><time>2026-04-05T12:47:06Z</time></trkpt><trkpt lat="14.483723222473722" lon="120.99488699977407"><ele>10.0</ele><time>2026-04-05T12:47:07Z</time></trkpt><trkpt lat="14.483842008403595" lon="120.99479852899033"><ele>9.75</ele><time>2026-04-05T12:47:08Z</time></trkpt><trkpt lat="14.483962800162697" lon="120.99471347471689"><ele>9.5</ele><time>2026-04-05T12:47:09Z</time></trkpt><trkpt lat="14.484073217714913" lon="120.99463581868893"><ele>9.25</ele><time>2026-04-05T12:47:10Z</time></trkpt><trkpt lat="14.484172617117963" lon="120.994561862704"><ele>9.0</ele><time>2026-04-05T12:47:11Z</time></trkpt><trkpt lat="14.484273112239793" lon="120.99448738597114"><ele>9.0</ele><time>2026-04-05T12:47:12Z</time></trkpt><trkpt lat="14.484371365852521" lon="120.99441341309894"><ele>9.0</ele><time>2026-04-05T12:47:13Z</time></trkpt><trkpt lat="14.48446693725627" lon="120.99433751228355"><ele>9.0</ele><time>2026-04-05T12:47:14Z</time></trkpt><trkpt lat="14.484559128880989" lon="120.99425541998106"><ele>9.0</ele><time>2026-04-05T12:47:15Z</time></trkpt><trkpt lat="14.484628996087283" lon="120.99417933082587"><ele>7.5</ele><time>2026-04-05T12:47:16Z</time></trkpt><trkpt lat="14.484699760994294" lon="120.99408246193991"><ele>6.0</ele><time>2026-04-05T12:47:17Z</time></trkpt><trkpt lat="14.484761778555253" lon="120.99398378529257"><ele>4.5</ele><time>2026-04-05T12:47:18Z</time></trkpt><trkpt lat="14.484818456320504" lon="120.99387630659666"><ele>3.0</ele><time>2026-04-05T12:47:19Z</time></trkpt><trkpt lat="14.484859818145644" lon="120.99376694804212"><ele>3.0</ele><time>2026-04-05T12:47:20Z</time></trkpt><trkpt lat="14.484882163667997" lon="120.99364727921346"><ele>3.0</ele><time>2026-04-05T12:47:21Z</time></trkpt><trkpt lat="14.484902017615209" lon="120.99352299990736"><ele>3.0</ele><time>2026-04-05T12:47:22Z</time></trkpt><trkpt lat="14.484912344683764" lon="120.99341931573284"><ele>3.0</ele><time>2026-04-05T12:47:23Z</time></trkpt><trkpt lat="14.484923627503376" lon="120.99332052656727"><ele>3.0</ele><time>2026-04-05T12:47:24Z</time></trkpt><trkpt lat="14.484929148455501" lon="120.99324098241334"><ele>3.666666666666667</ele><time>2026-04-05T12:47:25Z</time></trkpt><trkpt lat="14.484941445556307" lon="120.99315313532777"><ele>4.333333333333334</ele><time>2026-04-05T12:47:26Z</time></trkpt><trkpt lat="14.484955331533278" lon="120.99306843977914"><ele>5.0</ele><time>2026-04-05T12:47:27Z</time></trkpt><trkpt lat="14.484961651786072" lon="120.99298441834688"><ele>5.666666666666667</ele><time>2026-04-05T12:47:28Z</time></trkpt><trkpt lat="14.48497462538782" lon="120.99290088122305"><ele>6.333333333333334</ele><time>2026-04-05T12:47:29Z</time></trkpt><trkpt lat="14.484995808165156" lon="120.99281630870863"><ele>7.0</ele><time>2026-04-05T12:47:30Z</time></trkpt><trkpt lat="14.485021400900072" lon="120.99272361327087"><ele>7.0</ele><time>2026-04-05T12:47:31Z</time></trkpt><trkpt lat="14.485041778114942" lon="120.99263006569963"><ele>6.999999999999999</ele><time>2026-04-05T12:47:32Z</time></trkpt><trkpt lat="14.48507193253094" lon="120.99252731066159"><ele>6.999999999999999</ele><time>2026-04-05T12:47:33Z</time></trkpt><trkpt lat="14.485106665667992" lon="120.99243175222288"><ele>7.0</ele><time>2026-04-05T12:47:34Z</time></trkpt><trkpt lat="14.485151180265426" lon="120.99233297479802"><ele>7.0</ele><time>2026-04-05T12:47:35Z</time></trkpt><trkpt lat="14.485194475380935" lon="120.99224099952838"><ele>7.000000000000001</ele><time>2026-04-05T12:47:36Z</time></trkpt><trkpt lat="14.485242238028757" lon="120.99215736208184"><ele>7.0</ele><time>2026-04-05T12:47:37Z</time></trkpt><trkpt lat="14.485295902560395" lon="120.9920762973654"><ele>7.0</ele><time>2026-04-05T12:47:38Z</time></trkpt><trkpt lat="14.48535012896056" lon="120.99200233087642"><ele>7.0</ele><time>2026-04-05T12:47:39Z</time></trkpt><trkpt lat="14.485402436065371" lon="120.99193607969946"><ele>7.000000000000001</ele><time>2026-04-05T12:47:40Z</time></trkpt><trkpt lat="14.485453493896921" lon="120.991881944244"><ele>7.0</ele><time>2026-04-05T12:47:41Z</time></trkpt><trkpt lat="14.48549940286921" lon="120.99183701286324"><ele>7.0</ele><time>2026-04-05T12:47:42Z</time></trkpt><trkpt lat="14.485604420182588" lon="120.9917454956171"><ele>6.999999999999999</ele><time>2026-04-05T12:47:44Z</time></trkpt><trkpt lat="14.485666957139882" lon="120.99168291168019"><ele>6.999999999999999</ele><time>2026-04-05T12:47:45Z</time></trkpt><trkpt lat="14.485727746649456" lon="120.99162844297642"><ele>7.0</ele><time>2026-04-05T12:47:46Z</time></trkpt><trkpt lat="14.48580000243172" lon="120.99157514107146"><ele>7.0</ele><time>2026-04-05T12:47:47Z</time></trkpt><trkpt lat="14.485867923808854" lon="120.99152217392876"><ele>7.199999999999999</ele><time>2026-04-05T12:47:48Z</time></trkpt><trkpt lat="14.485950148456313" lon="120.99146823109545"><ele>7.3999999999999995</ele><time>2026-04-05T12:47:49Z</time></trkpt><trkpt lat="14.486044357520353" lon="120.99141462455323"><ele>7.6000000000000005</ele><time>2026-04-05T12:47:50Z</time></trkpt><trkpt lat="14.486139843616936" lon="120.99138361954984"><ele>7.800000000000001</ele><time>2026-04-05T12:47:51Z</time></trkpt><trkpt lat="14.486245676896075" lon="120.99135618382039"><ele>8.0</ele><time>2026-04-05T12:47:52Z</time></trkpt><trkpt lat="14.48635305757843" lon="120.99133235457847"><ele>8.0</ele><time>2026-04-05T12:47:53Z</time></trkpt><trkpt lat="14.48646060562432" lon="120.99131031127641"><ele>8.0</ele><time>2026-04-05T12:47:54Z</time></trkpt><trkpt lat="14.486568500990591" lon="120.99129057221414"><ele>8.0</ele><time>2026-04-05T12:47:55Z</time></trkpt><trkpt lat="14.486672795512693" lon="120.99127829111396"><ele>8.0</ele><time>2026-04-05T12:47:56Z</time></trkpt><trkpt lat="14.486782580449754" lon="120.9912758872469"><ele>8.0</ele><time>2026-04-05T12:47:57Z</time></trkpt><trkpt lat="14.486875172400133" lon="120.99127668152721"><ele>7.999999999999999</ele><time>2026-04-05T12:47:58Z</time></trkpt><trkpt lat="14.486959518785287" lon="120.9912799225574"><ele>8.0</ele><time>2026-04-05T12:47:59Z</time></trkpt><trkpt lat="14.487037947985584" lon="120.99128552685"><ele>8.0</ele><time>2026-04-05T12:48:00Z</time></trkpt><trkpt lat="14.487103185110442" lon="120.99129321232276"><ele>8.0</ele><time>2026-04-05T12:48:01Z</time></trkpt><trkpt lat="14.4871966258586" lon="120.99129343565144"><ele>7.999999999999999</ele><time>2026-04-05T12:48:03Z</time></trkpt><trkpt lat="14.487295887159021" lon="120.99130066403232"><ele>8.0</ele><time>2026-04-05T12:48:05Z</time></trkpt><trkpt lat="14.487391368707838" lon="120.99132796251"><ele>8.0</ele><time>2026-04-05T12:48:07Z</time></trkpt><trkpt lat="14.487524462014397" lon="120.99134851727906"><ele>8.0</ele><time>2026-04-05T12:48:09Z</time></trkpt><trkpt lat="14.487586619462919" lon="120.99136005391154"><ele>8.0</ele><time>2026-04-05T12:48:10Z</time></trkpt><trkpt lat="14.4876682136732" lon="120.9913768854849"><ele>8.0</ele><time>2026-04-05T12:48:12Z</time></trkpt><trkpt lat="14.487762147962004" lon="120.99138750141817"><ele>8.0</ele><time>2026-04-05T12:48:14Z</time></trkpt><trkpt lat="14.487866178283046" lon="120.99140747491685"><ele>7.833333333333333</ele><time>2026-04-05T12:48:16Z</time></trkpt><trkpt lat="14.48793277760673" lon="120.99141810441323"><ele>7.666666666666666</ele><time>2026-04-05T12:48:17Z</time></trkpt><trkpt lat="14.488004227696958" lon="120.9914112727691"><ele>7.5</ele><time>2026-04-05T12:48:18Z</time></trkpt><trkpt lat="14.48809661888482" lon="120.99143365882072"><ele>7.333333333333334</ele><time>2026-04-05T12:48:19Z</time></trkpt><trkpt lat="14.488179829405441" lon="120.99144524597997"><ele>7.166666666666667</ele><time>2026-04-05T12:48:20Z</time></trkpt><trkpt lat="14.488265487934271" lon="120.99145193351228"><ele>7.0</ele><time>2026-04-05T12:48:21Z</time></trkpt><trkpt lat="14.488366691325036" lon="120.99145919877424"><ele>7.0</ele><time>2026-04-05T12:48:22Z</time></trkpt><trkpt lat="14.488471180154104" lon="120.99146924045155"><ele>7.0</ele><time>2026-04-05T12:48:23Z</time></trkpt><trkpt lat="14.488581608576249" lon="120.99148002435089"><ele>7.0</ele><time>2026-04-05T12:48:24Z</time></trkpt><trkpt lat="14.488702103461335" lon="120.99149972362808"><ele>7.0</ele><time>2026-04-05T12:48:25Z</time></trkpt><trkpt lat="14.488822963800967" lon="120.99151606453904"><ele>6.75</ele><time>2026-04-05T12:48:26Z</time></trkpt><trkpt lat="14.488951274290407" lon="120.99154045572564"><ele>6.5</ele><time>2026-04-05T12:48:27Z</time></trkpt><trkpt lat="14.489082567255139" lon="120.99156869839709"><ele>6.25</ele><time>2026-04-05T12:48:28Z</time></trkpt><trkpt lat="14.489217055588718" lon="120.99159580703527"><ele>6.0</ele><time>2026-04-05T12:48:29Z</time></trkpt><trkpt lat="14.489351737902668" lon="120.99161930897958"><ele>6.0</ele><time>2026-04-05T12:48:30Z</time></trkpt><trkpt lat="14.489491153479994" lon="120.99164199496224"><ele>6.0</ele><time>2026-04-05T12:48:31Z</time></trkpt><trkpt lat="14.489632051766737" lon="120.99166682337373"><ele>6.0</ele><time>2026-04-05T12:48:32Z</time></trkpt><trkpt lat="14.489774199929075" lon="120.99168973827815"><ele>6.0</ele><time>2026-04-05T12:48:33Z</time></trkpt><trkpt lat="14.489919946431431" lon="120.99171228117916"><ele>5.75</ele><time>2026-04-05T12:48:34Z</time></trkpt><trkpt lat="14.490064872383263" lon="120.99173441545058"><ele>5.5</ele><time>2026-04-05T12:48:35Z</time></trkpt><trkpt lat="14.490210810778468" lon="120.99175732558466"><ele>5.25</ele><time>2026-04-05T12:48:36Z</time></trkpt><trkpt lat="14.490357466297434" lon="120.99178081750969"><ele>5.0</ele><time>2026-04-05T12:48:37Z</time></trkpt><trkpt lat="14.49049716542391" lon="120.99180307812189"><ele>5.0</ele><time>2026-04-05T12:48:38Z</time></trkpt><trkpt lat="14.490630647779714" lon="120.99181967169052"><ele>5.0</ele><time>2026-04-05T12:48:39Z</time></trkpt><trkpt lat="14.490758158133165" lon="120.99183826004455"><ele>5.0</ele><time>2026-04-05T12:48:40Z</time></trkpt><trkpt lat="14.490884366040632" lon="120.99185988407358"><ele>5.0</ele><time>2026-04-05T12:48:41Z</time></trkpt><trkpt lat="14.490986726337944" lon="120.99188221980891"><ele>5.0</ele><time>2026-04-05T12:48:42Z</time></trkpt><trkpt lat="14.49107822489148" lon="120.99190292356278"><ele>5.0</ele><time>2026-04-05T12:48:43Z</time></trkpt><trkpt lat="14.49115141542601" lon="120.9919320615298"><ele>5.0</ele><time>2026-04-05T12:48:44Z</time></trkpt><trkpt lat="14.491238993522694" lon="120.99195299709528"><ele>5.0</ele><time>2026-04-05T12:48:45Z</time></trkpt><trkpt lat="14.4913443830491" lon="120.99197080136727"><ele>5.0</ele><time>2026-04-05T12:48:46Z</time></trkpt><trkpt lat="14.491452723742015" lon="120.9919856319996"><ele>5.75</ele><time>2026-04-05T12:48:47Z</time></trkpt><trkpt lat="14.491566880112575" lon="120.99200117905598"><ele>6.5</ele><time>2026-04-05T12:48:48Z</time></trkpt><trkpt lat="14.491684099807289" lon="120.9920198467493"><ele>7.25</ele><time>2026-04-05T12:48:49Z</time></trkpt><trkpt lat="14.49180080088291" lon="120.99203728314005"><ele>8.0</ele><time>2026-04-05T12:48:50Z</time></trkpt><trkpt lat="14.491914236135026" lon="120.99205163200801"><ele>8.0</ele><time>2026-04-05T12:48:51Z</time></trkpt><trkpt lat="14.492021146646287" lon="120.99206353521524"><ele>8.0</ele><time>2026-04-05T12:48:52Z</time></trkpt><trkpt lat="14.49213463744274" lon="120.992075124029"><ele>8.0</ele><time>2026-04-05T12:48:53Z</time></trkpt><trkpt lat="14.492245547693654" lon="120.99209142400504"><ele>8.0</ele><time>2026-04-05T12:48:54Z</time></trkpt><trkpt lat="14.492359410336572" lon="120.9921116159649"><ele>8.0</ele><time>2026-04-05T12:48:55Z</time></trkpt><trkpt lat="14.492473792199247" lon="120.99213643078802"><ele>7.75</ele><time>2026-04-05T12:48:56Z</time></trkpt><trkpt lat="14.492592985175797" lon="120.99216179634756"><ele>7.5</ele><time>2026-04-05T12:48:57Z</time></trkpt><trkpt lat="14.492715504740781" lon="120.99218093803987"><ele>7.25</ele><time>2026-04-05T12:48:58Z</time></trkpt><trkpt lat="14.49284285045647" lon="120.99219644169762"><ele>7.0</ele><time>2026-04-05T12:48:59Z</time></trkpt><trkpt lat="14.492971573098467" lon="120.99221648689333"><ele>6.5</ele><time>2026-04-05T12:49:00Z</time></trkpt><trkpt lat="14.49310489626682" lon="120.99223318940385"><ele>6.0</ele><time>2026-04-05T12:49:01Z</time></trkpt><trkpt lat="14.49324149089803" lon="120.99225066992858"><ele>5.5</ele><time>2026-04-05T12:49:02Z</time></trkpt><trkpt lat="14.493380927542079" lon="120.99226840452579"><ele>5.0</ele><time>2026-04-05T12:49:03Z</time></trkpt><trkpt lat="14.49352151792677" lon="120.99229003910678"><ele>5.0</ele><time>2026-04-05T12:49:04Z</time></trkpt><trkpt lat="14.493660653964737" lon="120.99231030308094"><ele>5.0</ele><time>2026-04-05T12:49:05Z</time></trkpt><trkpt lat="14.49380708157733" lon="120.99233144147581"><ele>5.0</ele><time>2026-04-05T12:49:06Z</time></trkpt><trkpt lat="14.493948822073966" lon="120.99235717295234"><ele>5.0</ele><time>2026-04-05T12:49:07Z</time></trkpt><trkpt lat="14.494087241331197" lon="120.99237927622278"><ele>5.25</ele><time>2026-04-05T12:49:08Z</time></trkpt><trkpt lat="14.494219973049779" lon="120.99239956966971"><ele>5.5</ele><time>2026-04-05T12:49:09Z</time></trkpt><trkpt lat="14.494359582227158" lon="120.99242095071116"><ele>5.75</ele><time>2026-04-05T12:49:10Z</time></trkpt><trkpt lat="14.494492691281222" lon="120.99243796747858"><ele>6.0</ele><time>2026-04-05T12:49:11Z</time></trkpt><trkpt lat="14.494625847490468" lon="120.99245813957269"><ele>6.0</ele><time>2026-04-05T12:49:12Z</time></trkpt><trkpt lat="14.494763966167852" lon="120.99248213427721"><ele>6.0</ele><time>2026-04-05T12:49:13Z</time></trkpt><trkpt lat="14.494897868819141" lon="120.99250642457898"><ele>6.0</ele><time>2026-04-05T12:49:13.999Z</time></trkpt><trkpt lat="14.495026230015096" lon="120.99253110705672"><ele>6.0</ele><time>2026-04-05T12:49:14.999Z</time></trkpt><trkpt lat="14.495157256745108" lon="120.99255791315123"><ele>6.25</ele><time>2026-04-05T12:49:15.999Z</time></trkpt><trkpt lat="14.495289321365446" lon="120.99258445662038"><ele>6.5</ele><time>2026-04-05T12:49:16.999Z</time></trkpt><trkpt lat="14.495424197317975" lon="120.99261051432548"><ele>6.75</ele><time>2026-04-05T12:49:18Z</time></trkpt><trkpt lat="14.49556414606709" lon="120.99263086485533"><ele>7.0</ele><time>2026-04-05T12:49:19Z</time></trkpt><trkpt lat="14.495703378816541" lon="120.99264970664126"><ele>7.0</ele><time>2026-04-05T12:49:20Z</time></trkpt><trkpt lat="14.495846484629025" lon="120.99266455690841"><ele>7.0</ele><time>2026-04-05T12:49:21Z</time></trkpt><trkpt lat="14.495990886195127" lon="120.99267865447563"><ele>7.0</ele><time>2026-04-05T12:49:22Z</time></trkpt><trkpt lat="14.496134123799912" lon="120.9926878816393"><ele>7.0</ele><time>2026-04-05T12:49:23Z</time></trkpt><trkpt lat="14.49627943333325" lon="120.99269486690022"><ele>6.75</ele><time>2026-04-05T12:49:24Z</time></trkpt><trkpt lat="14.496426714955234" lon="120.99270219987504"><ele>6.5</ele><time>2026-04-05T12:49:25Z</time></trkpt><trkpt lat="14.496574359930392" lon="120.99270406199507"><ele>6.25</ele><time>2026-04-05T12:49:26Z</time></trkpt><trkpt lat="14.49672442024896" lon="120.99270031690021"><ele>6.0</ele><time>2026-04-05T12:49:27Z</time></trkpt><trkpt lat="14.496872882565636" lon="120.99269232645989"><ele>6.0</ele><time>2026-04-05T12:49:28Z</time></trkpt><trkpt lat="14.497024429617284" lon="120.99267941993013"><ele>6.0</ele><time>2026-04-05T12:49:29Z</time></trkpt><trkpt lat="14.497176549314988" lon="120.99266394850471"><ele>6.0</ele><time>2026-04-05T12:49:30Z</time></trkpt><trkpt lat="14.497325732849133" lon="120.9926456498572"><ele>6.25</ele><time>2026-04-05T12:49:31Z</time></trkpt><trkpt lat="14.497469946477898" lon="120.99261923057996"><ele>6.5</ele><time>2026-04-05T12:49:32Z</time></trkpt><trkpt lat="14.497609149140745" lon="120.99259816146866"><ele>6.75</ele><time>2026-04-05T12:49:33Z</time></trkpt><trkpt lat="14.49774063917203" lon="120.99257933335177"><ele>7.0</ele><time>2026-04-05T12:49:34Z</time></trkpt><trkpt lat="14.497875447289037" lon="120.99256735795024"><ele>7.0</ele><time>2026-04-05T12:49:35Z</time></trkpt><trkpt lat="14.498000785393854" lon="120.99256618092392"><ele>7.0</ele><time>2026-04-05T12:49:36Z</time></trkpt><trkpt lat="14.498120816749537" lon="120.9925798945235"><ele>7.0</ele><time>2026-04-05T12:49:37Z</time></trkpt><trkpt lat="14.498233735273248" lon="120.99261618779954"><ele>7.0</ele><time>2026-04-05T12:49:38Z</time></trkpt><trkpt lat="14.498343589313716" lon="120.99267252172294"><ele>7.0</ele><time>2026-04-05T12:49:39Z</time></trkpt><trkpt lat="14.498438535021215" lon="120.99274360970038"><ele>7.0</ele><time>2026-04-05T12:49:40Z</time></trkpt><trkpt lat="14.498518766623283" lon="120.99283004431963"><ele>7.0</ele><time>2026-04-05T12:49:41Z</time></trkpt><trkpt lat="14.49858257314857" lon="120.99292656635191"><ele>7.0</ele><time>2026-04-05T12:49:42Z</time></trkpt><trkpt lat="14.49863525615391" lon="120.99303240295393"><ele>7.0</ele><time>2026-04-05T12:49:43Z</time></trkpt><trkpt lat="14.49867440312215" lon="120.99314720042503"><ele>6.999999999999999</ele><time>2026-04-05T12:49:44Z</time></trkpt><trkpt lat="14.498700770974061" lon="120.99326121638406"><ele>6.999999999999999</ele><time>2026-04-05T12:49:45Z</time></trkpt><trkpt lat="14.498726848886408" lon="120.99336835802724"><ele>7.0</ele><time>2026-04-05T12:49:46Z</time></trkpt><trkpt lat="14.498752855910553" lon="120.9934664729435"><ele>7.0</ele><time>2026-04-05T12:49:47Z</time></trkpt><trkpt lat="14.498774206015513" lon="120.99357204103285"><ele>6.5</ele><time>2026-04-05T12:49:48Z</time></trkpt><trkpt lat="14.498798904722504" lon="120.99369791822"><ele>6.0</ele><time>2026-04-05T12:49:49Z</time></trkpt><trkpt lat="14.498818318335633" lon="120.99381754640406"><ele>5.5</ele><time>2026-04-05T12:49:50Z</time></trkpt><trkpt lat="14.498841381277773" lon="120.99394780014518"><ele>5.0</ele><time>2026-04-05T12:49:51Z</time></trkpt><trkpt lat="14.498864555270435" lon="120.99407534695204"><ele>4.75</ele><time>2026-04-05T12:49:52Z</time></trkpt><trkpt lat="14.498890653641949" lon="120.99420471192795"><ele>4.5</ele><time>2026-04-05T12:49:53Z</time></trkpt><trkpt lat="14.498914173615912" lon="120.99433285006086"><ele>4.25</ele><time>2026-04-05T12:49:54Z</time></trkpt><trkpt lat="14.498937074887486" lon="120.99445749957555"><ele>4.0</ele><time>2026-04-05T12:49:55Z</time></trkpt><trkpt lat="14.498947825111383" lon="120.99457079982199"><ele>4.0</ele><time>2026-04-05T12:49:56Z</time></trkpt><trkpt lat="14.498970950602644" lon="120.99467810521975"><ele>4.0</ele><time>2026-04-05T12:49:57Z</time></trkpt><trkpt lat="14.498990889192733" lon="120.9947788479661"><ele>4.0</ele><time>2026-04-05T12:49:58Z</time></trkpt><trkpt lat="14.499006095392057" lon="120.99487536014504"><ele>4.0</ele><time>2026-04-05T12:49:59Z</time></trkpt><trkpt lat="14.499028044906598" lon="120.99497926127857"><ele>4.0</ele><time>2026-04-05T12:50:00Z</time></trkpt><trkpt lat="14.499051646647505" lon="120.9950904785954"><ele>4.0</ele><time>2026-04-05T12:50:01Z</time></trkpt><trkpt lat="14.499078134078017" lon="120.99521417349925"><ele>4.0</ele><time>2026-04-05T12:50:02Z</time></trkpt><trkpt lat="14.499108668831273" lon="120.99534277881033"><ele>4.0</ele><time>2026-04-05T12:50:03Z</time></trkpt><trkpt lat="14.499140772879276" lon="120.99546000415484"><ele>4.0</ele><time>2026-04-05T12:50:04Z</time></trkpt><trkpt lat="14.499173117296017" lon="120.99557342754515"><ele>4.0</ele><time>2026-04-05T12:50:05Z</time></trkpt><trkpt lat="14.499208334055846" lon="120.99568592965814"><ele>4.0</ele><time>2026-04-05T12:50:06Z</time></trkpt><trkpt lat="14.49925189183357" lon="120.99580174014234"><ele>4.0</ele><time>2026-04-05T12:50:07Z</time></trkpt><trkpt lat="14.499310749970585" lon="120.99592221896039"><ele>4.0</ele><time>2026-04-05T12:50:08Z</time></trkpt><trkpt lat="14.499369860038358" lon="120.9960357105094"><ele>5.0</ele><time>2026-04-05T12:50:09Z</time></trkpt><trkpt lat="14.499432959449484" lon="120.99615959171457"><ele>6.0</ele><time>2026-04-05T12:50:10Z</time></trkpt><trkpt lat="14.499499869553073" lon="120.99628535084591"><ele>7.0</ele><time>2026-04-05T12:50:11Z</time></trkpt><trkpt lat="14.499572456109538" lon="120.99641024163908"><ele>8.0</ele><time>2026-04-05T12:50:12Z</time></trkpt><trkpt lat="14.49965086069025" lon="120.99653626931118"><ele>8.25</ele><time>2026-04-05T12:50:13Z</time></trkpt><trkpt lat="14.499728731613128" lon="120.99664779568435"><ele>8.5</ele><time>2026-04-05T12:50:14Z</time></trkpt><trkpt lat="14.499800913379387" lon="120.9967548109443"><ele>8.75</ele><time>2026-04-05T12:50:15Z</time></trkpt><trkpt lat="14.499870469844463" lon="120.99684438963013"><ele>9.0</ele><time>2026-04-05T12:50:16Z</time></trkpt><trkpt lat="14.49993956765898" lon="120.99693203399846"><ele>8.5</ele><time>2026-04-05T12:50:17Z</time></trkpt><trkpt lat="14.500002610960646" lon="120.99700724066291"><ele>8.0</ele><time>2026-04-05T12:50:18Z</time></trkpt><trkpt lat="14.500059768956554" lon="120.99707004516759"><ele>7.5</ele><time>2026-04-05T12:50:19Z</time></trkpt><trkpt lat="14.500109191066253" lon="120.99712392809641"><ele>7.0</ele><time>2026-04-05T12:50:20Z</time></trkpt><trkpt lat="14.500169317528515" lon="120.99718531923907"><ele>6.5</ele><time>2026-04-05T12:50:22Z</time></trkpt><trkpt lat="14.500218585401424" lon="120.99723516396308"><ele>6.0</ele><time>2026-04-05T12:50:26Z</time></trkpt><trkpt lat="14.500275722761183" lon="120.99727373500096"><ele>6.0</ele><time>2026-04-05T12:51:00Z</time></trkpt><trkpt lat="14.500323354436405" lon="120.99731933541648"><ele>6.0</ele><time>2026-04-05T12:51:01Z</time></trkpt><trkpt lat="14.500373793261588" lon="120.99736692243621"><ele>6.0</ele><time>2026-04-05T12:51:02Z</time></trkpt><trkpt lat="14.50043564833684" lon="120.99741749476655"><ele>6.0</ele><time>2026-04-05T12:51:03Z</time></trkpt><trkpt lat="14.50050274965201" lon="120.9974713878114"><ele>6.0</ele><time>2026-04-05T12:51:04Z</time></trkpt><trkpt lat="14.500572933850203" lon="120.99753051074308"><ele>6.0</ele><time>2026-04-05T12:51:05Z</time></trkpt><trkpt lat="14.500650709760654" lon="120.99758891666355"><ele>5.8</ele><time>2026-04-05T12:51:06Z</time></trkpt><trkpt lat="14.50072866032901" lon="120.99764880779645"><ele>5.6</ele><time>2026-04-05T12:51:07Z</time></trkpt><trkpt lat="14.500814689037982" lon="120.99770414620677"><ele>5.4</ele><time>2026-04-05T12:51:08Z</time></trkpt><trkpt lat="14.50090475623112" lon="120.9977628814818"><ele>5.2</ele><time>2026-04-05T12:51:09Z</time></trkpt><trkpt lat="14.500995892165042" lon="120.99782246637045"><ele>5.0</ele><time>2026-04-05T12:51:10Z</time></trkpt><trkpt lat="14.501080770606833" lon="120.9978776619639"><ele>5.0</ele><time>2026-04-05T12:51:11Z</time></trkpt><trkpt lat="14.501165638445539" lon="120.99792930784528"><ele>5.0</ele><time>2026-04-05T12:51:12Z</time></trkpt><trkpt lat="14.501247069785048" lon="120.9979866953505"><ele>5.0</ele><time>2026-04-05T12:51:13Z</time></trkpt><trkpt lat="14.501334001694296" lon="120.99804047692928"><ele>5.0</ele><time>2026-04-05T12:51:14Z</time></trkpt><trkpt lat="14.501422637482356" lon="120.99809541779076"><ele>5.0</ele><time>2026-04-05T12:51:15Z</time></trkpt><trkpt lat="14.501513666707693" lon="120.99815592090674"><ele>5.2</ele><time>2026-04-05T12:51:16Z</time></trkpt><trkpt lat="14.501604485833928" lon="120.99821374223214"><ele>5.4</ele><time>2026-04-05T12:51:17Z</time></trkpt><trkpt lat="14.50169260205424" lon="120.99827205928375"><ele>5.6</ele><time>2026-04-05T12:51:18Z</time></trkpt><trkpt lat="14.501780493320476" lon="120.99832826836392"><ele>5.8</ele><time>2026-04-05T12:51:19Z</time></trkpt><trkpt lat="14.501864176971202" lon="120.99838427059582"><ele>6.0</ele><time>2026-04-05T12:51:20Z</time></trkpt><trkpt lat="14.50194898113502" lon="120.99843854268437"><ele>6.6</ele><time>2026-04-05T12:51:21Z</time></trkpt><trkpt lat="14.50203181799388" lon="120.9984888125825"><ele>7.199999999999999</ele><time>2026-04-05T12:51:22Z</time></trkpt><trkpt lat="14.502112427063528" lon="120.998539373374"><ele>7.800000000000001</ele><time>2026-04-05T12:51:23.001Z</time></trkpt><trkpt lat="14.502192103378476" lon="120.9985902505068"><ele>8.4</ele><time>2026-04-05T12:51:24.001Z</time></trkpt><trkpt lat="14.502273573158211" lon="120.9986429114737"><ele>9.0</ele><time>2026-04-05T12:51:25.001Z</time></trkpt><trkpt lat="14.502362476077685" lon="120.9986951945721"><ele>9.0</ele><time>2026-04-05T12:51:26Z</time></trkpt><trkpt lat="14.502450330424026" lon="120.99874839165088"><ele>9.0</ele><time>2026-04-05T12:51:27Z</time></trkpt><trkpt lat="14.502541480452187" lon="120.99880134538142"><ele>9.0</ele><time>2026-04-05T12:51:28Z</time></trkpt><trkpt lat="14.50263412796438" lon="120.99886024302303"><ele>9.0</ele><time>2026-04-05T12:51:29Z</time></trkpt><trkpt lat="14.502714720480776" lon="120.99891083715377"><ele>9.0</ele><time>2026-04-05T12:51:30Z</time></trkpt><trkpt lat="14.502796222903614" lon="120.99896214021831"><ele>9.0</ele><time>2026-04-05T12:51:31Z</time></trkpt><trkpt lat="14.502893858366592" lon="120.99901998413603"><ele>9.0</ele><time>2026-04-05T12:51:32Z</time></trkpt><trkpt lat="14.50298839727859" lon="120.99908155724003"><ele>9.0</ele><time>2026-04-05T12:51:33Z</time></trkpt><trkpt lat="14.503078086940832" lon="120.99913307200418"><ele>9.0</ele><time>2026-04-05T12:51:34Z</time></trkpt><trkpt lat="14.503175467364438" lon="120.99919314176276"><ele>9.0</ele><time>2026-04-05T12:51:35Z</time></trkpt><trkpt lat="14.503275322404438" lon="120.99925867233587"><ele>9.0</ele><time>2026-04-05T12:51:36Z</time></trkpt><trkpt lat="14.503376937191478" lon="120.9993200060609"><ele>9.0</ele><time>2026-04-05T12:51:37Z</time></trkpt><trkpt lat="14.503481070062085" lon="120.99938562451091"><ele>9.0</ele><time>2026-04-05T12:51:38Z</time></trkpt><trkpt lat="14.503587549982923" lon="120.99945533022057"><ele>9.0</ele><time>2026-04-05T12:51:39Z</time></trkpt><trkpt lat="14.503696786665664" lon="120.9995211807647"><ele>9.25</ele><time>2026-04-05T12:51:40Z</time></trkpt><trkpt lat="14.503802496136426" lon="120.99959190728151"><ele>9.5</ele><time>2026-04-05T12:51:41Z</time></trkpt><trkpt lat="14.503908984225514" lon="120.99965951239979"><ele>9.75</ele><time>2026-04-05T12:51:42Z</time></trkpt><trkpt lat="14.50402479241771" lon="120.9997264949473"><ele>10.0</ele><time>2026-04-05T12:51:43Z</time></trkpt><trkpt lat="14.504136905334024" lon="120.99980097592392"><ele>10.0</ele><time>2026-04-05T12:51:44Z</time></trkpt><trkpt lat="14.504247351191381" lon="120.9998778188249"><ele>10.0</ele><time>2026-04-05T12:51:45Z</time></trkpt><trkpt lat="14.504355153188165" lon="120.99996724036727"><ele>10.0</ele><time>2026-04-05T12:51:46Z</time></trkpt><trkpt lat="14.504461711888238" lon="121.00005720611638"><ele>10.0</ele><time>2026-04-05T12:51:47Z</time></trkpt><trkpt lat="14.504566481163867" lon="121.0001344704487"><ele>9.25</ele><time>2026-04-05T12:51:48Z</time></trkpt><trkpt lat="14.504678320809841" lon="121.00021066343956"><ele>8.5</ele><time>2026-04-05T12:51:49Z</time></trkpt><trkpt lat="14.504792666053227" lon="121.0002764265346"><ele>7.75</ele><time>2026-04-05T12:51:50Z</time></trkpt><trkpt lat="14.50490761951503" lon="121.0003446818308"><ele>7.0</ele><time>2026-04-05T12:51:51Z</time></trkpt><trkpt lat="14.505023937894714" lon="121.00041567331061"><ele>7.0</ele><time>2026-04-05T12:51:52Z</time></trkpt><trkpt lat="14.505140335823256" lon="121.00049189584047"><ele>7.0</ele><time>2026-04-05T12:51:53Z</time></trkpt><trkpt lat="14.505259162420076" lon="121.00056515307602"><ele>7.0</ele><time>2026-04-05T12:51:54Z</time></trkpt><trkpt lat="14.505381842723162" lon="121.00063974004725"><ele>7.0</ele><time>2026-04-05T12:51:55Z</time></trkpt><trkpt lat="14.505506628798546" lon="121.00070563729412"><ele>7.75</ele><time>2026-04-05T12:51:56Z</time></trkpt><trkpt lat="14.505635463305284" lon="121.00077055671596"><ele>8.5</ele><time>2026-04-05T12:51:57Z</time></trkpt><trkpt lat="14.505769187162384" lon="121.00082819111853"><ele>9.25</ele><time>2026-04-05T12:51:58Z</time></trkpt><trkpt lat="14.505900510704016" lon="121.00088717339872"><ele>10.0</ele><time>2026-04-05T12:51:59Z</time></trkpt><trkpt lat="14.506030451864351" lon="121.00094399169542"><ele>10.0</ele><time>2026-04-05T12:52:00Z</time></trkpt><trkpt lat="14.506161481662131" lon="121.00099818463943"><ele>10.0</ele><time>2026-04-05T12:52:01Z</time></trkpt><trkpt lat="14.506288719700985" lon="121.00104623460638"><ele>10.0</ele><time>2026-04-05T12:52:02Z</time></trkpt><trkpt lat="14.506413608601084" lon="121.0010872455442"><ele>10.0</ele><time>2026-04-05T12:52:03Z</time></trkpt><trkpt lat="14.506525107463634" lon="121.00112090485592"><ele>10.0</ele><time>2026-04-05T12:52:04Z</time></trkpt><trkpt lat="14.506614824825817" lon="121.00115573680469"><ele>10.0</ele><time>2026-04-05T12:52:05Z</time></trkpt><trkpt lat="14.506681106115732" lon="121.00117671951683"><ele>10.0</ele><time>2026-04-05T12:52:06Z</time></trkpt><trkpt lat="14.506741424068416" lon="121.00120409693234"><ele>10.0</ele><time>2026-04-05T12:52:07Z</time></trkpt><trkpt lat="14.506846131507805" lon="121.00124892823204"><ele>10.0</ele><time>2026-04-05T12:52:09Z</time></trkpt><trkpt lat="14.506983603174762" lon="121.00129748370003"><ele>9.5</ele><time>2026-04-05T12:52:11Z</time></trkpt><trkpt lat="14.507078434391987" lon="121.00133484566342"><ele>9.0</ele><time>2026-04-05T12:52:12Z</time></trkpt><trkpt lat="14.50718761580924" lon="121.0013744524466"><ele>8.5</ele><time>2026-04-05T12:52:13Z</time></trkpt><trkpt lat="14.507300268564402" lon="121.00139877580969"><ele>8.0</ele><time>2026-04-05T12:52:14Z</time></trkpt><trkpt lat="14.50741867986127" lon="121.00146385015778"><ele>8.0</ele><time>2026-04-05T12:52:15Z</time></trkpt><trkpt lat="14.507537952958147" lon="121.00151411394272"><ele>8.0</ele><time>2026-04-05T12:52:16Z</time></trkpt><trkpt lat="14.507659519027808" lon="121.00156914744053"><ele>8.0</ele><time>2026-04-05T12:52:17Z</time></trkpt><trkpt lat="14.507777125555146" lon="121.00163702462692"><ele>8.0</ele><time>2026-04-05T12:52:18Z</time></trkpt><trkpt lat="14.507900907017742" lon="121.00170682124485"><ele>8.333333333333332</ele><time>2026-04-05T12:52:19Z</time></trkpt><trkpt lat="14.508034468402938" lon="121.00177217067458"><ele>8.666666666666666</ele><time>2026-04-05T12:52:20Z</time></trkpt><trkpt lat="14.50817535630537" lon="121.00184908406757"><ele>9.0</ele><time>2026-04-05T12:52:21Z</time></trkpt><trkpt lat="14.508329575213883" lon="121.00192631689266"><ele>9.0</ele><time>2026-04-05T12:52:22Z</time></trkpt><trkpt lat="14.50848938163556" lon="121.00197816834424"><ele>9.0</ele><time>2026-04-05T12:52:23Z</time></trkpt><trkpt lat="14.50862097643656" lon="121.00201430272536"><ele>9.0</ele><time>2026-04-05T12:52:24Z</time></trkpt><trkpt lat="14.508779563439031" lon="121.00206019284042"><ele>8.333333333333334</ele><time>2026-04-05T12:52:25Z</time></trkpt><trkpt lat="14.508946578604913" lon="121.00210667396935"><ele>7.666666666666667</ele><time>2026-04-05T12:52:26Z</time></trkpt><trkpt lat="14.509118847043583" lon="121.00214913183399"><ele>7.0</ele><time>2026-04-05T12:52:27Z</time></trkpt><trkpt lat="14.509291792593764" lon="121.00219410579787"><ele>7.0</ele><time>2026-04-05T12:52:28Z</time></trkpt><trkpt lat="14.50946741392679" lon="121.00225003989911"><ele>7.0</ele><time>2026-04-05T12:52:29Z</time></trkpt><trkpt lat="14.509646851955965" lon="121.00232098234513"><ele>7.0</ele><time>2026-04-05T12:52:30Z</time></trkpt><trkpt lat="14.509826766976317" lon="121.00238317093938"><ele>6.333333333333334</ele><time>2026-04-05T12:52:31Z</time></trkpt><trkpt lat="14.510006295885134" lon="121.00244327478059"><ele>5.666666666666667</ele><time>2026-04-05T12:52:32Z</time></trkpt><trkpt lat="14.510195189093908" lon="121.0025062397472"><ele>5.0</ele><time>2026-04-05T12:52:33Z</time></trkpt><trkpt lat="14.510369338016146" lon="121.00256519366364"><ele>5.333333333333334</ele><time>2026-04-05T12:52:34Z</time></trkpt><trkpt lat="14.51053569281123" lon="121.00262022209931"><ele>5.666666666666667</ele><time>2026-04-05T12:52:35Z</time></trkpt><trkpt lat="14.510689483012442" lon="121.0026688214157"><ele>6.0</ele><time>2026-04-05T12:52:36Z</time></trkpt><trkpt lat="14.510838524288298" lon="121.00271837510064"><ele>6.0</ele><time>2026-04-05T12:52:37Z</time></trkpt><trkpt lat="14.510980720234672" lon="121.00276622387497"><ele>6.0</ele><time>2026-04-05T12:52:38Z</time></trkpt><trkpt lat="14.511119412938008" lon="121.00281085955307"><ele>6.0</ele><time>2026-04-05T12:52:39Z</time></trkpt><trkpt lat="14.511247932136014" lon="121.00285720758257"><ele>6.0</ele><time>2026-04-05T12:52:40Z</time></trkpt><trkpt lat="14.511367036395999" lon="121.00290868506107"><ele>6.0</ele><time>2026-04-05T12:52:41Z</time></trkpt><trkpt lat="14.51147839241264" lon="121.00295215409983"><ele>6.0</ele><time>2026-04-05T12:52:42Z</time></trkpt><trkpt lat="14.511582144432293" lon="121.00299095271149"><ele>6.0</ele><time>2026-04-05T12:52:43Z</time></trkpt><trkpt lat="14.51168858782193" lon="121.0030319071203"><ele>6.0</ele><time>2026-04-05T12:52:44Z</time></trkpt><trkpt lat="14.511786900159386" lon="121.00306674151489"><ele>6.0</ele><time>2026-04-05T12:52:45Z</time></trkpt><trkpt lat="14.511886355607752" lon="121.00309793775017"><ele>6.0</ele><time>2026-04-05T12:52:46Z</time></trkpt><trkpt lat="14.511978399677712" lon="121.00313047849048"><ele>6.0</ele><time>2026-04-05T12:52:47Z</time></trkpt><trkpt lat="14.512079738389913" lon="121.00316498851011"><ele>6.0</ele><time>2026-04-05T12:52:48Z</time></trkpt><trkpt lat="14.512176577969486" lon="121.0032003369095"><ele>6.0</ele><time>2026-04-05T12:52:49Z</time></trkpt><trkpt lat="14.51227497033376" lon="121.0032351771953"><ele>6.0</ele><time>2026-04-05T12:52:50Z</time></trkpt><trkpt lat="14.512370179753038" lon="121.0032692746864"><ele>6.199999999999999</ele><time>2026-04-05T12:52:51Z</time></trkpt><trkpt lat="14.512466316010343" lon="121.00330538236844"><ele>6.3999999999999995</ele><time>2026-04-05T12:52:52Z</time></trkpt><trkpt lat="14.512564286556154" lon="121.00334085064317"><ele>6.6</ele><time>2026-04-05T12:52:53Z</time></trkpt><trkpt lat="14.512666357558748" lon="121.00337712410662"><ele>6.8</ele><time>2026-04-05T12:52:54Z</time></trkpt><trkpt lat="14.512773032711507" lon="121.00341667024114"><ele>7.0</ele><time>2026-04-05T12:52:55Z</time></trkpt><trkpt lat="14.512887156872111" lon="121.00345531851889"><ele>7.25</ele><time>2026-04-05T12:52:56Z</time></trkpt><trkpt lat="14.513005320960602" lon="121.00349324826418"><ele>7.5</ele><time>2026-04-05T12:52:57Z</time></trkpt><trkpt lat="14.513126741697246" lon="121.00353429629797"><ele>7.75</ele><time>2026-04-05T12:52:58Z</time></trkpt><trkpt lat="14.51324782284225" lon="121.00357502510772"><ele>8.0</ele><time>2026-04-05T12:52:59Z</time></trkpt><trkpt lat="14.513377793734549" lon="121.00360501087722"><ele>8.0</ele><time>2026-04-05T12:53:00Z</time></trkpt><trkpt lat="14.513517331822571" lon="121.00364015724898"><ele>8.0</ele><time>2026-04-05T12:53:01Z</time></trkpt><trkpt lat="14.51366192987387" lon="121.00369304183896"><ele>8.0</ele><time>2026-04-05T12:53:02Z</time></trkpt><trkpt lat="14.513811911478761" lon="121.00374807706844"><ele>9.333333333333332</ele><time>2026-04-05T12:53:03Z</time></trkpt><trkpt lat="14.513965785144618" lon="121.0038104969618"><ele>10.666666666666666</ele><time>2026-04-05T12:53:04Z</time></trkpt><trkpt lat="14.51412484565093" lon="121.00387532339914"><ele>12.0</ele><time>2026-04-05T12:53:05Z</time></trkpt><trkpt lat="14.514278166045433" lon="121.00393388511182"><ele>12.0</ele><time>2026-04-05T12:53:06Z</time></trkpt><trkpt lat="14.514421874544231" lon="121.00398462391607"><ele>12.0</ele><time>2026-04-05T12:53:07Z</time></trkpt><trkpt lat="14.514546735072065" lon="121.00403157135585"><ele>12.0</ele><time>2026-04-05T12:53:08Z</time></trkpt><trkpt lat="14.514664944941162" lon="121.00407474563859"><ele>12.0</ele><time>2026-04-05T12:53:09Z</time></trkpt><trkpt lat="14.514770969761216" lon="121.00411520959634"><ele>11.5</ele><time>2026-04-05T12:53:10Z</time></trkpt><trkpt lat="14.514876794872407" lon="121.00415432087975"><ele>11.0</ele><time>2026-04-05T12:53:11Z</time></trkpt><trkpt lat="14.514972077024218" lon="121.00418787584226"><ele>10.5</ele><time>2026-04-05T12:53:12Z</time></trkpt><trkpt lat="14.51505792502608" lon="121.00421916221757"><ele>10.0</ele><time>2026-04-05T12:53:13Z</time></trkpt><trkpt lat="14.515127831861383" lon="121.00424027679443"><ele>9.5</ele><time>2026-04-05T12:53:14Z</time></trkpt><trkpt lat="14.515194605863607" lon="121.00425874566096"><ele>9.0</ele><time>2026-04-05T12:53:15Z</time></trkpt><trkpt lat="14.515258814063612" lon="121.00426849084995"><ele>9.0</ele><time>2026-04-05T12:53:16Z</time></trkpt><trkpt lat="14.515386489887259" lon="121.00423037413897"><ele>9.0</ele><time>2026-04-05T12:53:18Z</time></trkpt><trkpt lat="14.515447575003126" lon="121.00417242276626"><ele>9.0</ele><time>2026-04-05T12:53:19Z</time></trkpt><trkpt lat="14.515491126098725" lon="121.00410092202272"><ele>9.0</ele><time>2026-04-05T12:53:20Z</time></trkpt><trkpt lat="14.515525581711833" lon="121.00400705572864"><ele>9.0</ele><time>2026-04-05T12:53:21Z</time></trkpt><trkpt lat="14.515567656730896" lon="121.00390562795587"><ele>8.75</ele><time>2026-04-05T12:53:22Z</time></trkpt><trkpt lat="14.515605161072088" lon="121.00379275638416"><ele>8.5</ele><time>2026-04-05T12:53:23Z</time></trkpt><trkpt lat="14.515640244103029" lon="121.00367324736754"><ele>8.25</ele><time>2026-04-05T12:53:24Z</time></trkpt><trkpt lat="14.51570207134497" lon="121.0035577665723"><ele>8.0</ele><time>2026-04-05T12:53:25Z</time></trkpt><trkpt lat="14.515745137430295" lon="121.00342488133448"><ele>7.5</ele><time>2026-04-05T12:53:26Z</time></trkpt><trkpt lat="14.515827375501496" lon="121.00330308124298"><ele>7.0</ele><time>2026-04-05T12:53:27Z</time></trkpt><trkpt lat="14.515894648157042" lon="121.00317042379523"><ele>6.5</ele><time>2026-04-05T12:53:28Z</time></trkpt><trkpt lat="14.515967907152042" lon="121.00302605878905"><ele>6.0</ele><time>2026-04-05T12:53:29Z</time></trkpt><trkpt lat="14.516032416457042" lon="121.0029026308727"><ele>6.0</ele><time>2026-04-05T12:53:30Z</time></trkpt><trkpt lat="14.516109310155052" lon="121.00275376842137"><ele>6.0</ele><time>2026-04-05T12:53:31Z</time></trkpt><trkpt lat="14.516141588424802" lon="121.0025969258346"><ele>6.0</ele><time>2026-04-05T12:53:32Z</time></trkpt><trkpt lat="14.516207995311696" lon="121.00247594115788"><ele>6.25</ele><time>2026-04-05T12:53:33Z</time></trkpt><trkpt lat="14.516261088720048" lon="121.00237665810049"><ele>6.5</ele><time>2026-04-05T12:53:34Z</time></trkpt><trkpt lat="14.51631480829513" lon="121.00226779487312"><ele>6.75</ele><time>2026-04-05T12:53:35Z</time></trkpt><trkpt lat="14.516370593676005" lon="121.00215691930387"><ele>7.0</ele><time>2026-04-05T12:53:36Z</time></trkpt><trkpt lat="14.516424303846554" lon="121.002037625355"><ele>7.0</ele><time>2026-04-05T12:53:37Z</time></trkpt><trkpt lat="14.516483270454678" lon="121.00191883878517"><ele>7.0</ele><time>2026-04-05T12:53:38Z</time></trkpt><trkpt lat="14.516543308168322" lon="121.00179524291619"><ele>7.0</ele><time>2026-04-05T12:53:39Z</time></trkpt><trkpt lat="14.516595992335418" lon="121.00167757133886"><ele>7.0</ele><time>2026-04-05T12:53:40Z</time></trkpt><trkpt lat="14.516648041900986" lon="121.00157018821123"><ele>6.833333333333334</ele><time>2026-04-05T12:53:41Z</time></trkpt><trkpt lat="14.51669224305521" lon="121.00146607024227"><ele>6.666666666666667</ele><time>2026-04-05T12:53:42Z</time></trkpt><trkpt lat="14.51672648747839" lon="121.00137334827215"><ele>6.5</ele><time>2026-04-05T12:53:43Z</time></trkpt><trkpt lat="14.516747889211594" lon="121.0013036615049"><ele>6.333333333333334</ele><time>2026-04-05T12:53:44Z</time></trkpt><trkpt lat="14.516764698644401" lon="121.00122880182366"><ele>6.166666666666667</ele><time>2026-04-05T12:53:46Z</time></trkpt><trkpt lat="14.516837654459962" lon="121.00120782392132"><ele>6.0</ele><time>2026-04-05T12:53:49Z</time></trkpt><trkpt lat="14.516860762600633" lon="121.00114628346047"><ele>6.0</ele><time>2026-04-05T12:53:57Z</time></trkpt><trkpt lat="14.516937872354221" lon="121.00112558608998"><ele>6.0</ele><time>2026-04-05T12:55:14Z</time></trkpt><trkpt lat="14.516933990421647" lon="121.00099090985123"><ele>6.0</ele><time>2026-04-05T12:55:15Z</time></trkpt><trkpt lat="14.516959256334886" lon="121.00088652086163"><ele>6.0</ele><time>2026-04-05T12:55:16Z</time></trkpt><trkpt lat="14.516962706028384" lon="121.00076234843907"><ele>6.0</ele><time>2026-04-05T12:55:17Z</time></trkpt><trkpt lat="14.516971576230409" lon="121.00061240426632"><ele>5.75</ele><time>2026-04-05T12:55:18Z</time></trkpt><trkpt lat="14.516980809000803" lon="121.00048164905284"><ele>5.5</ele><time>2026-04-05T12:55:19Z</time></trkpt><trkpt lat="14.516991813398809" lon="121.00033900422983"><ele>5.25</ele><time>2026-04-05T12:55:20Z</time></trkpt><trkpt lat="14.51699062865396" lon="121.00020167513699"><ele>5.0</ele><time>2026-04-05T12:55:21Z</time></trkpt><trkpt lat="14.517002220923583" lon="121.00005766091847"><ele>5.0</ele><time>2026-04-05T12:55:22Z</time></trkpt><trkpt lat="14.517024374323798" lon="120.99987464343371"><ele>5.0</ele><time>2026-04-05T12:55:23Z</time></trkpt><trkpt lat="14.517017675364615" lon="120.99969550639344"><ele>5.0</ele><time>2026-04-05T12:55:24Z</time></trkpt><trkpt lat="14.517018967950978" lon="120.99952891451534"><ele>5.0</ele><time>2026-04-05T12:55:25Z</time></trkpt><trkpt lat="14.517012950748798" lon="120.99935002766964"><ele>5.0</ele><time>2026-04-05T12:55:26Z</time></trkpt><trkpt lat="14.517007271928854" lon="120.99916045877093"><ele>5.0</ele><time>2026-04-05T12:55:27Z</time></trkpt><trkpt lat="14.517001542495809" lon="120.99896358297168"><ele>5.333333333333334</ele><time>2026-04-05T12:55:28Z</time></trkpt><trkpt lat="14.517009309349762" lon="120.99877103121153"><ele>5.666666666666667</ele><time>2026-04-05T12:55:29Z</time></trkpt><trkpt lat="14.517018647552087" lon="120.9985784392413"><ele>6.0</ele><time>2026-04-05T12:55:30Z</time></trkpt><trkpt lat="14.517020463411008" lon="120.99838898318912"><ele>5.666666666666667</ele><time>2026-04-05T12:55:31Z</time></trkpt><trkpt lat="14.517028288547358" lon="120.99821524451517"><ele>5.333333333333334</ele><time>2026-04-05T12:55:32Z</time></trkpt><trkpt lat="14.517037579369289" lon="120.99804387203066"><ele>5.0</ele><time>2026-04-05T12:55:33Z</time></trkpt><trkpt lat="14.517041232473696" lon="120.9978890763942"><ele>5.0</ele><time>2026-04-05T12:55:34Z</time></trkpt><trkpt lat="14.517035318904778" lon="120.99774837192798"><ele>5.0</ele><time>2026-04-05T12:55:35Z</time></trkpt><trkpt lat="14.517042758960207" lon="120.99759911927607"><ele>5.0</ele><time>2026-04-05T12:55:36Z</time></trkpt><trkpt lat="14.517053786517046" lon="120.997451210455"><ele>5.0</ele><time>2026-04-05T12:55:37Z</time></trkpt><trkpt lat="14.517062437024661" lon="120.99730575199759"><ele>4.75</ele><time>2026-04-05T12:55:38Z</time></trkpt><trkpt lat="14.51707952133984" lon="120.99717165285993"><ele>4.5</ele><time>2026-04-05T12:55:39Z</time></trkpt><trkpt lat="14.517101599081872" lon="120.997030369724"><ele>4.25</ele><time>2026-04-05T12:55:40Z</time></trkpt><trkpt lat="14.51712816573177" lon="120.99688320445068"><ele>4.0</ele><time>2026-04-05T12:55:41Z</time></trkpt><trkpt lat="14.517123116762617" lon="120.99673952172733"><ele>4.75</ele><time>2026-04-05T12:55:42Z</time></trkpt><trkpt lat="14.517150464557446" lon="120.99660440490493"><ele>5.5</ele><time>2026-04-05T12:55:43Z</time></trkpt><trkpt lat="14.517172277489845" lon="120.99647094799663"><ele>6.25</ele><time>2026-04-05T12:55:44Z</time></trkpt><trkpt lat="14.51719173893159" lon="120.99633690408123"><ele>7.0</ele><time>2026-04-05T12:55:45Z</time></trkpt><trkpt lat="14.517207998468049" lon="120.99620442786632"><ele>7.0</ele><time>2026-04-05T12:55:46Z</time></trkpt><trkpt lat="14.51722431277874" lon="120.99607526273797"><ele>7.0</ele><time>2026-04-05T12:55:47Z</time></trkpt><trkpt lat="14.517241631116569" lon="120.9959300281307"><ele>7.0</ele><time>2026-04-05T12:55:48Z</time></trkpt><trkpt lat="14.517259156573687" lon="120.9957928626907"><ele>7.0</ele><time>2026-04-05T12:55:49Z</time></trkpt><trkpt lat="14.517275582758417" lon="120.99564032979606"><ele>7.0</ele><time>2026-04-05T12:55:50Z</time></trkpt><trkpt lat="14.51729301047633" lon="120.99550049419295"><ele>7.0</ele><time>2026-04-05T12:55:51Z</time></trkpt><trkpt lat="14.517305200123559" lon="120.99537170422396"><ele>7.0</ele><time>2026-04-05T12:55:52Z</time></trkpt><trkpt lat="14.517317025038231" lon="120.99525354712341"><ele>7.0</ele><time>2026-04-05T12:55:53Z</time></trkpt><trkpt lat="14.51732737667699" lon="120.99514614192736"><ele>7.0</ele><time>2026-04-05T12:55:54Z</time></trkpt><trkpt lat="14.517335591386507" lon="120.99504581874766"><ele>6.999999999999999</ele><time>2026-04-05T12:55:55Z</time></trkpt><trkpt lat="14.517349576503491" lon="120.99494502575764"><ele>6.999999999999999</ele><time>2026-04-05T12:55:56Z</time></trkpt><trkpt lat="14.517356682450202" lon="120.9948375390152"><ele>7.0</ele><time>2026-04-05T12:55:57Z</time></trkpt><trkpt lat="14.51735459374123" lon="120.99476404402714"><ele>7.0</ele><time>2026-04-05T12:55:58Z</time></trkpt><trkpt lat="14.517372615897195" lon="120.99463255157853"><ele>7.199999999999999</ele><time>2026-04-05T12:56:00Z</time></trkpt><trkpt lat="14.517398424222595" lon="120.99457024833843"><ele>7.3999999999999995</ele><time>2026-04-05T12:56:01Z</time></trkpt><trkpt lat="14.517408593679034" lon="120.99446558926702"><ele>7.6000000000000005</ele><time>2026-04-05T12:56:03Z</time></trkpt><trkpt lat="14.517425305556499" lon="120.99436183113926"><ele>7.800000000000001</ele><time>2026-04-05T12:56:05Z</time></trkpt><trkpt lat="14.517433403006665" lon="120.9942443640903"><ele>8.0</ele><time>2026-04-05T12:56:07Z</time></trkpt><trkpt lat="14.517451986787819" lon="120.99416584135514"><ele>8.142857142857142</ele><time>2026-04-05T12:56:09Z</time></trkpt><trkpt lat="14.517463302884" lon="120.99409383014071"><ele>8.285714285714285</ele><time>2026-04-05T12:56:13Z</time></trkpt><trkpt lat="14.517469457485491" lon="120.9940259233028"><ele>8.428571428571429</ele><time>2026-04-05T12:56:16Z</time></trkpt><trkpt lat="14.517476530716792" lon="120.99395903487859"><ele>8.571428571428571</ele><time>2026-04-05T12:56:18Z</time></trkpt><trkpt lat="14.517497365431497" lon="120.99386101621832"><ele>8.714285714285715</ele><time>2026-04-05T12:56:21Z</time></trkpt><trkpt lat="14.51750885356523" lon="120.99379153981876"><ele>8.857142857142858</ele><time>2026-04-05T12:56:24Z</time></trkpt><trkpt lat="14.517527001376006" lon="120.99371256808651"><ele>9.0</ele><time>2026-04-05T12:56:27Z</time></trkpt><trkpt lat="14.517547457910311" lon="120.99364120401395"><ele>9.0</ele><time>2026-04-05T12:56:30Z</time></trkpt><trkpt lat="14.517567230271988" lon="120.99357555546955"><ele>9.0</ele><time>2026-04-05T12:56:33Z</time></trkpt><trkpt lat="14.517566937155081" lon="120.99349498913256"><ele>9.0</ele><time>2026-04-05T12:56:38Z</time></trkpt><trkpt lat="14.517538490892012" lon="120.99341923694423"><ele>9.0</ele><time>2026-04-05T12:57:11Z</time></trkpt><trkpt lat="14.517540790184489" lon="120.99334224552614"><ele>9.0</ele><time>2026-04-05T12:57:14Z</time></trkpt><trkpt lat="14.517551547426281" lon="120.99324595723812"><ele>9.0</ele><time>2026-04-05T12:57:17Z</time></trkpt><trkpt lat="14.517598344283591" lon="120.9931393707994"><ele>8.4</ele><time>2026-04-05T12:57:19Z</time></trkpt><trkpt lat="14.517621401803865" lon="120.99305014949444"><ele>7.800000000000001</ele><time>2026-04-05T12:57:20Z</time></trkpt><trkpt lat="14.517639066391832" lon="120.99292508001916"><ele>7.199999999999999</ele><time>2026-04-05T12:57:21Z</time></trkpt><trkpt lat="14.51766347494343" lon="120.99278693934795"><ele>6.6</ele><time>2026-04-05T12:57:22Z</time></trkpt><trkpt lat="14.517675384517522" lon="120.99268618783701"><ele>6.0</ele><time>2026-04-05T12:57:23Z</time></trkpt><trkpt lat="14.517675900670913" lon="120.99260262538297"><ele>6.4</ele><time>2026-04-05T12:57:24Z</time></trkpt><trkpt lat="14.517671433718894" lon="120.992476701383"><ele>6.8</ele><time>2026-04-05T12:57:26Z</time></trkpt><trkpt lat="14.517665656573719" lon="120.99239280434043"><ele>7.200000000000001</ele><time>2026-04-05T12:57:27Z</time></trkpt><trkpt lat="14.517626685415904" lon="120.99227395907955"><ele>7.6000000000000005</ele><time>2026-04-05T12:57:28Z</time></trkpt><trkpt lat="14.51758410921156" lon="120.99215678903018"><ele>8.0</ele><time>2026-04-05T12:57:29Z</time></trkpt><trkpt lat="14.517601689740259" lon="120.99202010460303"><ele>8.0</ele><time>2026-04-05T12:57:30Z</time></trkpt><trkpt lat="14.51758752986766" lon="120.99189300971632"><ele>8.0</ele><time>2026-04-05T12:57:31Z</time></trkpt><trkpt lat="14.517561114597106" lon="120.99177129712106"><ele>8.0</ele><time>2026-04-05T12:57:32Z</time></trkpt><trkpt lat="14.517533144888988" lon="120.99165137704935"><ele>8.0</ele><time>2026-04-05T12:57:33Z</time></trkpt><trkpt lat="14.517510715013115" lon="120.99154479292248"><ele>7.999999999999999</ele><time>2026-04-05T12:57:34Z</time></trkpt><trkpt lat="14.517480782959497" lon="120.99143181756065"><ele>8.0</ele><time>2026-04-05T12:57:35Z</time></trkpt><trkpt lat="14.517466616151776" lon="120.99133344612996"><ele>8.0</ele><time>2026-04-05T12:57:36Z</time></trkpt><trkpt lat="14.517452765591042" lon="120.99125264540764"><ele>8.0</ele><time>2026-04-05T12:57:37Z</time></trkpt><trkpt lat="14.517449483902384" lon="120.99117545247464"><ele>7.999999999999999</ele><time>2026-04-05T12:57:38Z</time></trkpt><trkpt lat="14.51745047332873" lon="120.991109907101"><ele>8.0</ele><time>2026-04-05T12:57:39Z</time></trkpt><trkpt lat="14.5174523540333" lon="120.99104248958986"><ele>8.0</ele><time>2026-04-05T12:57:41Z</time></trkpt><trkpt lat="14.51739271530561" lon="120.99093645024949"><ele>8.0</ele><time>2026-04-05T12:59:04Z</time></trkpt><trkpt lat="14.517384372442791" lon="120.99082449853678"><ele>8.0</ele><time>2026-04-05T12:59:06Z</time></trkpt><trkpt lat="14.517391603791646" lon="120.99075767322579"><ele>8.0</ele><time>2026-04-05T12:59:07Z</time></trkpt><trkpt lat="14.517386996824202" lon="120.99067251833661"><ele>8.0</ele><time>2026-04-05T12:59:08Z</time></trkpt><trkpt lat="14.51739812810711" lon="120.99058173361439"><ele>8.166666666666666</ele><time>2026-04-05T12:59:09Z</time></trkpt><trkpt lat="14.517400066531303" lon="120.99049547693552"><ele>8.333333333333332</ele><time>2026-04-05T12:59:10Z</time></trkpt><trkpt lat="14.517387952982642" lon="120.99041568396113"><ele>8.5</ele><time>2026-04-05T12:59:11Z</time></trkpt><trkpt lat="14.517385709279877" lon="120.99032685632592"><ele>8.666666666666666</ele><time>2026-04-05T12:59:12Z</time></trkpt><trkpt lat="14.517389052619828" lon="120.99025920717699"><ele>8.833333333333334</ele><time>2026-04-05T12:59:13Z</time></trkpt><trkpt lat="14.51738678595972" lon="120.99017350957537"><ele>9.0</ele><time>2026-04-05T12:59:14Z</time></trkpt><trkpt lat="14.517378930194027" lon="120.99008610918874"><ele>8.5</ele><time>2026-04-05T12:59:15Z</time></trkpt><trkpt lat="14.517375177954012" lon="120.98997675613253"><ele>8.0</ele><time>2026-04-05T12:59:16Z</time></trkpt><trkpt lat="14.517379520207562" lon="120.98985720993551"><ele>7.5</ele><time>2026-04-05T12:59:17Z</time></trkpt><trkpt lat="14.517385864756124" lon="120.98972453558031"><ele>7.0</ele><time>2026-04-05T12:59:18Z</time></trkpt><trkpt lat="14.517390925265818" lon="120.98958538775278"><ele>7.0</ele><time>2026-04-05T12:59:19Z</time></trkpt><trkpt lat="14.517398677287998" lon="120.98943774523522"><ele>7.0</ele><time>2026-04-05T12:59:20Z</time></trkpt><trkpt lat="14.517405160837816" lon="120.98928251088584"><ele>7.0</ele><time>2026-04-05T12:59:21Z</time></trkpt><trkpt lat="14.517413027916552" lon="120.98912040393043"><ele>6.666666666666667</ele><time>2026-04-05T12:59:22Z</time></trkpt><trkpt lat="14.517424697997347" lon="120.98895114947963"><ele>6.333333333333334</ele><time>2026-04-05T12:59:23Z</time></trkpt><trkpt lat="14.517433641478615" lon="120.98877732416769"><ele>6.0</ele><time>2026-04-05T12:59:24Z</time></trkpt><trkpt lat="14.517444795578715" lon="120.98859615074437"><ele>6.0</ele><time>2026-04-05T12:59:25Z</time></trkpt><trkpt lat="14.517453883562313" lon="120.9884130048882"><ele>6.0</ele><time>2026-04-05T12:59:26Z</time></trkpt><trkpt lat="14.517464835169912" lon="120.98822423094808"><ele>6.0</ele><time>2026-04-05T12:59:27Z</time></trkpt><trkpt lat="14.517477369912168" lon="120.9880337995811"><ele>5.0</ele><time>2026-04-05T12:59:28Z</time></trkpt><trkpt lat="14.517490384127292" lon="120.98783915741075"><ele>4.0</ele><time>2026-04-05T12:59:29Z</time></trkpt><trkpt lat="14.51749824275903" lon="120.98763991855135"><ele>3.0</ele><time>2026-04-05T12:59:30Z</time></trkpt><trkpt lat="14.517505910483886" lon="120.98743552545287"><ele>3.0</ele><time>2026-04-05T12:59:31Z</time></trkpt><trkpt lat="14.51751110587997" lon="120.98723107646218"><ele>3.0</ele><time>2026-04-05T12:59:32Z</time></trkpt><trkpt lat="14.517521437325748" lon="120.9870194509695"><ele>3.0</ele><time>2026-04-05T12:59:33Z</time></trkpt><trkpt lat="14.517530988266872" lon="120.98681186248506"><ele>3.333333333333333</ele><time>2026-04-05T12:59:34Z</time></trkpt><trkpt lat="14.51754792807435" lon="120.98659455303965"><ele>3.6666666666666665</ele><time>2026-04-05T12:59:35Z</time></trkpt><trkpt lat="14.517562722616452" lon="120.98638664456927"><ele>4.0</ele><time>2026-04-05T12:59:36Z</time></trkpt><trkpt lat="14.517573052744" lon="120.9861779484784"><ele>4.0</ele><time>2026-04-05T12:59:37Z</time></trkpt><trkpt lat="14.517573955708926" lon="120.98600468530661"><ele>4.0</ele><time>2026-04-05T12:59:38Z</time></trkpt><trkpt lat="14.517572335530668" lon="120.98581995205333"><ele>4.0</ele><time>2026-04-05T12:59:39Z</time></trkpt><trkpt lat="14.517562358852595" lon="120.98565706881273"><ele>4.25</ele><time>2026-04-05T12:59:40Z</time></trkpt><trkpt lat="14.517544898850165" lon="120.98551187169217"><ele>4.5</ele><time>2026-04-05T12:59:41Z</time></trkpt><trkpt lat="14.517513365764025" lon="120.9853828106299"><ele>4.75</ele><time>2026-04-05T12:59:42Z</time></trkpt><trkpt lat="14.517431786186833" lon="120.98527505381095"><ele>5.0</ele><time>2026-04-05T12:59:43Z</time></trkpt><trkpt lat="14.517374548643279" lon="120.98515686095041"><ele>5.0</ele><time>2026-04-05T12:59:44Z</time></trkpt><trkpt lat="14.517261174673623" lon="120.98507549718529"><ele>5.0</ele><time>2026-04-05T12:59:45Z</time></trkpt><trkpt lat="14.517159606639812" lon="120.98497033937004"><ele>5.0</ele><time>2026-04-05T12:59:46Z</time></trkpt><trkpt lat="14.517027508439496" lon="120.98489391498768"><ele>5.0</ele><time>2026-04-05T12:59:47Z</time></trkpt><trkpt lat="14.516872547817032" lon="120.98485209811723"><ele>3.666666666666667</ele><time>2026-04-05T12:59:48Z</time></trkpt><trkpt lat="14.516719436004912" lon="120.98480506991703"><ele>2.3333333333333335</ele><time>2026-04-05T12:59:49Z</time></trkpt><trkpt lat="14.516560750797016" lon="120.9847453322485"><ele>1.0</ele><time>2026-04-05T12:59:50Z</time></trkpt><trkpt lat="14.51639302632867" lon="120.98470520411358"><ele>1.0</ele><time>2026-04-05T12:59:51Z</time></trkpt><trkpt lat="14.516231842029088" lon="120.98466288066545"><ele>1.0</ele><time>2026-04-05T12:59:52Z</time></trkpt><trkpt lat="14.516089406818525" lon="120.98461823201409"><ele>1.0</ele><time>2026-04-05T12:59:53Z</time></trkpt><trkpt lat="14.515953135147214" lon="120.984577588146"><ele>1.0</ele><time>2026-04-05T12:59:54Z</time></trkpt><trkpt lat="14.515829458609131" lon="120.98451354926672"><ele>1.0</ele><time>2026-04-05T12:59:55Z</time></trkpt><trkpt lat="14.51571688027331" lon="120.9844240589845"><ele>1.0</ele><time>2026-04-05T12:59:56Z</time></trkpt><trkpt lat="14.515620524068439" lon="120.98431441730202"><ele>1.0</ele><time>2026-04-05T12:59:57Z</time></trkpt><trkpt lat="14.515551485485904" lon="120.98420227948519"><ele>0.75</ele><time>2026-04-05T12:59:58Z</time></trkpt><trkpt lat="14.515503090625712" lon="120.98407930092944"><ele>0.5</ele><time>2026-04-05T12:59:59Z</time></trkpt><trkpt lat="14.515474041762765" lon="120.98394981552832"><ele>0.25</ele><time>2026-04-05T13:00:00Z</time></trkpt><trkpt lat="14.51545608420016" lon="120.9838133047326"><ele>0.0</ele><time>2026-04-05T13:00:01Z</time></trkpt><trkpt lat="14.515459629941668" lon="120.98368053437352"><ele>0.0</ele><time>2026-04-05T13:00:02Z</time></trkpt><trkpt lat="14.51550096002657" lon="120.98354860468508"><ele>0.0</ele><time>2026-04-05T13:00:03Z</time></trkpt><trkpt lat="14.515545863771221" lon="120.98341348952458"><ele>0.0</ele><time>2026-04-05T13:00:04Z</time></trkpt><trkpt lat="14.515611486223982" lon="120.98328174457377"><ele>0.0</ele><time>2026-04-05T13:00:05Z</time></trkpt><trkpt lat="14.515678566819199" lon="120.98313788106988"><ele>0.0</ele><time>2026-04-05T13:00:06Z</time></trkpt><trkpt lat="14.51574493882611" lon="120.9829851516818"><ele>0.0</ele><time>2026-04-05T13:00:07Z</time></trkpt><trkpt lat="14.515831156170528" lon="120.9828388294345"><ele>0.0</ele><time>2026-04-05T13:00:08Z</time></trkpt><trkpt lat="14.515914278611925" lon="120.98267929009984"><ele>0.0</ele><time>2026-04-05T13:00:09Z</time></trkpt><trkpt lat="14.515998180734707" lon="120.98251735297441"><ele>0.0</ele><time>2026-04-05T13:00:10Z</time></trkpt><trkpt lat="14.516095835511946" lon="120.98236418948161"><ele>0.0</ele><time>2026-04-05T13:00:11Z</time></trkpt><trkpt lat="14.516194821133663" lon="120.98221248441298"><ele>0.0</ele><time>2026-04-05T13:00:12Z</time></trkpt><trkpt lat="14.51628287171924" lon="120.98207120028978"><ele>0.0</ele><time>2026-04-05T13:00:13Z</time></trkpt><trkpt lat="14.51637229200925" lon="120.98193328388979"><ele>0.0</ele><time>2026-04-05T13:00:14Z</time></trkpt><trkpt lat="14.516462903782553" lon="120.98180768179424"><ele>0.0</ele><time>2026-04-05T13:00:15Z</time></trkpt><trkpt lat="14.516561810457" lon="120.98168682367299"><ele>0.0</ele><time>2026-04-05T13:00:16Z</time></trkpt><trkpt lat="14.516661288389306" lon="120.9815762146667"><ele>0.0</ele><time>2026-04-05T13:00:17Z</time></trkpt><trkpt lat="14.516754133168382" lon="120.98147292472241"><ele>0.0</ele><time>2026-04-05T13:00:18Z</time></trkpt><trkpt lat="14.51683542889489" lon="120.98137969129787"><ele>0.0</ele><time>2026-04-05T13:00:19Z</time></trkpt><trkpt lat="14.516928622594472" lon="120.98129709147372"><ele>0.0</ele><time>2026-04-05T13:00:20Z</time></trkpt><trkpt lat="14.517027686430154" lon="120.981242725958"><ele>0.0</ele><time>2026-04-05T13:00:21Z</time></trkpt><trkpt lat="14.517134035369754" lon="120.98121940649705"><ele>0.0</ele><time>2026-04-05T13:00:22Z</time></trkpt><trkpt lat="14.517241563117334" lon="120.98124354767428"><ele>0.0</ele><time>2026-04-05T13:00:23Z</time></trkpt><trkpt lat="14.517340769447712" lon="120.98129532090516"><ele>0.0</ele><time>2026-04-05T13:00:24Z</time></trkpt><trkpt lat="14.517434660350885" lon="120.98137207610687"><ele>0.0</ele><time>2026-04-05T13:00:25Z</time></trkpt><trkpt lat="14.517520982156974" lon="120.98146641181046"><ele>0.0</ele><time>2026-04-05T13:00:26Z</time></trkpt><trkpt lat="14.517611542613105" lon="120.98156944919276"><ele>0.0</ele><time>2026-04-05T13:00:27Z</time></trkpt><trkpt lat="14.517714147286911" lon="120.98166887602602"><ele>0.0</ele><time>2026-04-05T13:00:28Z</time></trkpt><trkpt lat="14.51783194546411" lon="120.98176830547831"><ele>0.0</ele><time>2026-04-05T13:00:29Z</time></trkpt><trkpt lat="14.517954628550925" lon="120.98186803477465"><ele>0.0</ele><time>2026-04-05T13:00:30Z</time></trkpt><trkpt lat="14.518081204056521" lon="120.98197182735697"><ele>1.0</ele><time>2026-04-05T13:00:31Z</time></trkpt><trkpt lat="14.51821286777287" lon="120.98207311436605"><ele>2.0</ele><time>2026-04-05T13:00:32Z</time></trkpt><trkpt lat="14.518357283217929" lon="120.98217008916238"><ele>3.0</ele><time>2026-04-05T13:00:33Z</time></trkpt><trkpt lat="14.518511125586521" lon="120.98226085475584"><ele>3.0</ele><time>2026-04-05T13:00:34Z</time></trkpt><trkpt lat="14.518665423264624" lon="120.9823482062834"><ele>3.0</ele><time>2026-04-05T13:00:35Z</time></trkpt><trkpt lat="14.518820276677761" lon="120.98243676028423"><ele>3.0</ele><time>2026-04-05T13:00:36Z</time></trkpt><trkpt lat="14.518995120854875" lon="120.98251580891112"><ele>4.333333333333334</ele><time>2026-04-05T13:00:37Z</time></trkpt><trkpt lat="14.5191612999848" lon="120.98260989664807"><ele>5.666666666666667</ele><time>2026-04-05T13:00:38Z</time></trkpt><trkpt lat="14.519333996109632" lon="120.98269838230974"><ele>7.0</ele><time>2026-04-05T13:00:39Z</time></trkpt><trkpt lat="14.519505984165074" lon="120.98279114002804"><ele>3.333333333333334</ele><time>2026-04-05T13:00:40Z</time></trkpt><trkpt lat="14.519693202777063" lon="120.98287612032476"><ele>-0.33333333333333304</ele><time>2026-04-05T13:00:41Z</time></trkpt><trkpt lat="14.519862996899667" lon="120.98299380703921"><ele>-4.0</ele><time>2026-04-05T13:00:42Z</time></trkpt><trkpt lat="14.520042372925639" lon="120.98310170085352"><ele>-4.0</ele><time>2026-04-05T13:00:43Z</time></trkpt><trkpt lat="14.520211755813145" lon="120.98323320007486"><ele>-4.0</ele><time>2026-04-05T13:00:44Z</time></trkpt><trkpt lat="14.520374013747636" lon="120.98337261021072"><ele>-4.0</ele><time>2026-04-05T13:00:45Z</time></trkpt><trkpt lat="14.520535952763504" lon="120.98351348196434"><ele>-5.333333333333333</ele><time>2026-04-05T13:00:46Z</time></trkpt><trkpt lat="14.52069499462027" lon="120.98366130956141"><ele>-6.666666666666666</ele><time>2026-04-05T13:00:47Z</time></trkpt><trkpt lat="14.520828215835449" lon="120.98383257985634"><ele>-8.0</ele><time>2026-04-05T13:00:48Z</time></trkpt><trkpt lat="14.520968782431872" lon="120.98400091606447"><ele>-8.0</ele><time>2026-04-05T13:00:49Z</time></trkpt><trkpt lat="14.521107102976826" lon="120.9841669668986"><ele>-8.0</ele><time>2026-04-05T13:00:50Z</time></trkpt><trkpt lat="14.521244921878477" lon="120.98433230305615"><ele>-8.0</ele><time>2026-04-05T13:00:51Z</time></trkpt><trkpt lat="14.521382301429782" lon="120.98449744546232"><ele>-5.666666666666666</ele><time>2026-04-05T13:00:52Z</time></trkpt><trkpt lat="14.521514351833774" lon="120.98465609692974"><ele>-3.333333333333333</ele><time>2026-04-05T13:00:53Z</time></trkpt><trkpt lat="14.521635131417467" lon="120.98480083197548"><ele>-1.0</ele><time>2026-04-05T13:00:54Z</time></trkpt><trkpt lat="14.521761016133288" lon="120.98492555409753"><ele>-0.75</ele><time>2026-04-05T13:00:55Z</time></trkpt><trkpt lat="14.521866802974898" lon="120.98505332391609"><ele>-0.5</ele><time>2026-04-05T13:00:56Z</time></trkpt><trkpt lat="14.521960214520464" lon="120.9851758616464"><ele>-0.25</ele><time>2026-04-05T13:00:57Z</time></trkpt><trkpt lat="14.522019811675982" lon="120.9852977008126"><ele>0.0</ele><time>2026-04-05T13:00:58Z</time></trkpt><trkpt lat="14.522075122338213" lon="120.9854175178434"><ele>0.0</ele><time>2026-04-05T13:00:59Z</time></trkpt><trkpt lat="14.522035758489737" lon="120.98555166078184"><ele>0.0</ele><time>2026-04-05T13:01:00Z</time></trkpt><trkpt lat="14.522066845287542" lon="120.98564787478418"><ele>0.0</ele><time>2026-04-05T13:01:01Z</time></trkpt><trkpt lat="14.522111876065173" lon="120.98574023369844"><ele>0.0</ele><time>2026-04-05T13:01:02Z</time></trkpt><trkpt lat="14.522179462500896" lon="120.98581622961252"><ele>0.0</ele><time>2026-04-05T13:01:03Z</time></trkpt><trkpt lat="14.522296827796264" lon="120.98587012727499"><ele>0.0</ele><time>2026-04-05T13:01:04Z</time></trkpt><trkpt lat="14.52243630793032" lon="120.98587231814639"><ele>0.0</ele><time>2026-04-05T13:01:05Z</time></trkpt><trkpt lat="14.522566015970941" lon="120.98583167916284"><ele>0.0</ele><time>2026-04-05T13:01:06Z</time></trkpt><trkpt lat="14.522666685882239" lon="120.98572410350552"><ele>0.0</ele><time>2026-04-05T13:01:07Z</time></trkpt><trkpt lat="14.522797049883128" lon="120.98567830066393"><ele>1.0</ele><time>2026-04-05T13:01:08Z</time></trkpt><trkpt lat="14.522939014384427" lon="120.98564518621467"><ele>2.0</ele><time>2026-04-05T13:01:09Z</time></trkpt><trkpt lat="14.523089329119816" lon="120.98562310350266"><ele>3.0</ele><time>2026-04-05T13:01:10Z</time></trkpt><trkpt lat="14.523249454989784" lon="120.98560165042072"><ele>3.0</ele><time>2026-04-05T13:01:11Z</time></trkpt><trkpt lat="14.523420540548027" lon="120.9855832710243"><ele>3.0</ele><time>2026-04-05T13:01:12Z</time></trkpt><trkpt lat="14.523591560143675" lon="120.98556083195966"><ele>3.0</ele><time>2026-04-05T13:01:13Z</time></trkpt><trkpt lat="14.523770122475806" lon="120.98554403524996"><ele>2.6666666666666665</ele><time>2026-04-05T13:01:14Z</time></trkpt><trkpt lat="14.523947558765736" lon="120.98552779057809"><ele>2.333333333333333</ele><time>2026-04-05T13:01:15Z</time></trkpt><trkpt lat="14.524118725336173" lon="120.98550717054137"><ele>2.0</ele><time>2026-04-05T13:01:16Z</time></trkpt><trkpt lat="14.524275655023244" lon="120.9854886911673"><ele>2.0</ele><time>2026-04-05T13:01:17Z</time></trkpt><trkpt lat="14.524431204380118" lon="120.98547222321315"><ele>2.0</ele><time>2026-04-05T13:01:18Z</time></trkpt><trkpt lat="14.524586607158637" lon="120.98545217818267"><ele>2.0</ele><time>2026-04-05T13:01:19Z</time></trkpt><trkpt lat="14.52474481189116" lon="120.98538636673482"><ele>1.0</ele><time>2026-04-05T13:01:20Z</time></trkpt><trkpt lat="14.524932158412222" lon="120.9853815424717"><ele>0.0</ele><time>2026-04-05T13:01:21Z</time></trkpt><trkpt lat="14.525108826130896" lon="120.98536090003891"><ele>-1.0</ele><time>2026-04-05T13:01:22Z</time></trkpt><trkpt lat="14.52529726399151" lon="120.98532416356609"><ele>0.0</ele><time>2026-04-05T13:01:23Z</time></trkpt><trkpt lat="14.525488579673185" lon="120.98530152492627"><ele>1.0</ele><time>2026-04-05T13:01:24Z</time></trkpt><trkpt lat="14.525684244381027" lon="120.9852783049386"><ele>2.0</ele><time>2026-04-05T13:01:25Z</time></trkpt><trkpt lat="14.525883030000571" lon="120.98527159894743"><ele>2.0</ele><time>2026-04-05T13:01:26Z</time></trkpt><trkpt lat="14.526082301262448" lon="120.98524699397342"><ele>2.0</ele><time>2026-04-05T13:01:27Z</time></trkpt><trkpt lat="14.526285450928562" lon="120.98522046825707"><ele>2.0</ele><time>2026-04-05T13:01:28Z</time></trkpt><trkpt lat="14.52648489770959" lon="120.98518145106178"><ele>1.3333333333333333</ele><time>2026-04-05T13:01:29Z</time></trkpt><trkpt lat="14.526685206709605" lon="120.98515714831169"><ele>0.6666666666666666</ele><time>2026-04-05T13:01:30Z</time></trkpt><trkpt lat="14.526877397336664" lon="120.98513407869791"><ele>0.0</ele><time>2026-04-05T13:01:31Z</time></trkpt><trkpt lat="14.527055907487641" lon="120.98512723935549"><ele>0.3333333333333333</ele><time>2026-04-05T13:01:32Z</time></trkpt><trkpt lat="14.527223447538434" lon="120.98510977662434"><ele>0.6666666666666666</ele><time>2026-04-05T13:01:33Z</time></trkpt><trkpt lat="14.527384325653825" lon="120.98508931575512"><ele>1.0</ele><time>2026-04-05T13:01:34Z</time></trkpt><trkpt lat="14.527536600670233" lon="120.98506789697916"><ele>1.0</ele><time>2026-04-05T13:01:35Z</time></trkpt><trkpt lat="14.527683645273743" lon="120.98505666491447"><ele>1.0</ele><time>2026-04-05T13:01:36Z</time></trkpt><trkpt lat="14.527822766112484" lon="120.98503542727532"><ele>1.0</ele><time>2026-04-05T13:01:37Z</time></trkpt><trkpt lat="14.527950914148155" lon="120.98501567973877"><ele>1.0</ele><time>2026-04-05T13:01:38Z</time></trkpt><trkpt lat="14.52806976693569" lon="120.9849971259742"><ele>1.8</ele><time>2026-04-05T13:01:39Z</time></trkpt><trkpt lat="14.528169707008603" lon="120.9849797761321"><ele>2.6</ele><time>2026-04-05T13:01:40Z</time></trkpt><trkpt lat="14.52825307319427" lon="120.98496791855122"><ele>3.4</ele><time>2026-04-05T13:01:41Z</time></trkpt><trkpt lat="14.528360036927518" lon="120.98494563907222"><ele>4.2</ele><time>2026-04-05T13:01:43Z</time></trkpt><trkpt lat="14.528471418225381" lon="120.98494126167415"><ele>5.0</ele><time>2026-04-05T13:02:26Z</time></trkpt><trkpt lat="14.528537604885317" lon="120.98493434925207"><ele>5.0</ele><time>2026-04-05T13:02:27Z</time></trkpt><trkpt lat="14.52862072292543" lon="120.98492519230284"><ele>5.0</ele><time>2026-04-05T13:02:28Z</time></trkpt><trkpt lat="14.528719001888188" lon="120.9849155890216"><ele>5.0</ele><time>2026-04-05T13:02:29Z</time></trkpt><trkpt lat="14.528829498475435" lon="120.98490756958726"><ele>5.0</ele><time>2026-04-05T13:02:30Z</time></trkpt><trkpt lat="14.528951924123316" lon="120.98489870151784"><ele>5.0</ele><time>2026-04-05T13:02:31Z</time></trkpt><trkpt lat="14.529078144262199" lon="120.98489253528545"><ele>5.25</ele><time>2026-04-05T13:02:32Z</time></trkpt><trkpt lat="14.529209315762321" lon="120.98488358104959"><ele>5.5</ele><time>2026-04-05T13:02:33Z</time></trkpt><trkpt lat="14.529345128111675" lon="120.98487265783194"><ele>5.75</ele><time>2026-04-05T13:02:34Z</time></trkpt><trkpt lat="14.529486503963453" lon="120.9848612905603"><ele>6.0</ele><time>2026-04-05T13:02:35Z</time></trkpt><trkpt lat="14.529630241510263" lon="120.98484934633957"><ele>6.666666666666666</ele><time>2026-04-05T13:02:36Z</time></trkpt><trkpt lat="14.529777986233693" lon="120.98483929210576"><ele>7.333333333333333</ele><time>2026-04-05T13:02:37Z</time></trkpt><trkpt lat="14.529927313585937" lon="120.9848266159108"><ele>8.0</ele><time>2026-04-05T13:02:38Z</time></trkpt><trkpt lat="14.530080338265527" lon="120.98481687274415"><ele>8.0</ele><time>2026-04-05T13:02:39Z</time></trkpt><trkpt lat="14.53023502225734" lon="120.98480745084699"><ele>8.0</ele><time>2026-04-05T13:02:40Z</time></trkpt><trkpt lat="14.530386391007335" lon="120.98478966244116"><ele>8.0</ele><time>2026-04-05T13:02:41Z</time></trkpt><trkpt lat="14.530532945763001" lon="120.98477414769194"><ele>7.0</ele><time>2026-04-05T13:02:42Z</time></trkpt><trkpt lat="14.53067227603407" lon="120.98476419593196"><ele>6.000000000000001</ele><time>2026-04-05T13:02:43Z</time></trkpt><trkpt lat="14.530799441552007" lon="120.984756517267"><ele>5.0</ele><time>2026-04-05T13:02:44Z</time></trkpt><trkpt lat="14.530883592342583" lon="120.98474393774814"><ele>4.0</ele><time>2026-04-05T13:02:45Z</time></trkpt><trkpt lat="14.53097432359545" lon="120.98473488756207"><ele>3.0</ele><time>2026-04-05T13:02:46Z</time></trkpt><trkpt lat="14.53104748218017" lon="120.98472830570431"><ele>3.0</ele><time>2026-04-05T13:02:47Z</time></trkpt><trkpt lat="14.531138625601056" lon="120.98471601266436"><ele>3.0</ele><time>2026-04-05T13:02:49Z</time></trkpt><trkpt lat="14.531020416104058" lon="120.98458354409587"><ele>3.0</ele><time>2026-04-05T13:04:04Z</time></trkpt><trkpt lat="14.530955076685725" lon="120.98452523139414"><ele>3.0</ele><time>2026-04-05T13:04:05Z</time></trkpt><trkpt lat="14.530881163764992" lon="120.9844523490502"><ele>3.0</ele><time>2026-04-05T13:04:06Z</time></trkpt><trkpt lat="14.530804459946706" lon="120.9843664051552"><ele>3.0</ele><time>2026-04-05T13:04:07Z</time></trkpt><trkpt lat="14.53074460100299" lon="120.98426331191358"><ele>3.0</ele><time>2026-04-05T13:04:08Z</time></trkpt><trkpt lat="14.532009737090501" lon="120.98465037711429"><ele>2.6666666666666665</ele><time>2026-04-05T13:04:09Z</time></trkpt><trkpt lat="14.532164652997572" lon="120.98464135187312"><ele>2.333333333333333</ele><time>2026-04-05T13:04:10Z</time></trkpt><trkpt lat="14.532325616597452" lon="120.98462696700102"><ele>2.0</ele><time>2026-04-05T13:04:11Z</time></trkpt><trkpt lat="14.532491459093885" lon="120.98461190446764"><ele>2.0</ele><time>2026-04-05T13:04:12Z</time></trkpt><trkpt lat="14.532655209366194" lon="120.98459855580116"><ele>2.0</ele><time>2026-04-05T13:04:13Z</time></trkpt><trkpt lat="14.532819700946972" lon="120.98458108761332"><ele>2.0</ele><time>2026-04-05T13:04:14Z</time></trkpt><trkpt lat="14.532975320255325" lon="120.98456662254577"><ele>2.6666666666666665</ele><time>2026-04-05T13:04:15Z</time></trkpt><trkpt lat="14.533128073456169" lon="120.98455276466322"><ele>3.333333333333333</ele><time>2026-04-05T13:04:16Z</time></trkpt><trkpt lat="14.533280053687246" lon="120.9845405725957"><ele>4.0</ele><time>2026-04-05T13:04:17Z</time></trkpt><trkpt lat="14.533435337518476" lon="120.98452545391167"><ele>4.0</ele><time>2026-04-05T13:04:18Z</time></trkpt><trkpt lat="14.533589886744346" lon="120.98451037975927"><ele>4.0</ele><time>2026-04-05T13:04:19Z</time></trkpt><trkpt lat="14.533737865233002" lon="120.98449763582734"><ele>4.0</ele><time>2026-04-05T13:04:20Z</time></trkpt><trkpt lat="14.533877000999196" lon="120.98449363985475"><ele>4.0</ele><time>2026-04-05T13:04:21Z</time></trkpt><trkpt lat="14.534004432180947" lon="120.98448598244396"><ele>3.8000000000000003</ele><time>2026-04-05T13:04:22Z</time></trkpt><trkpt lat="14.534125774495413" lon="120.98447670877322"><ele>3.6000000000000005</ele><time>2026-04-05T13:04:23Z</time></trkpt><trkpt lat="14.534228132973661" lon="120.98446847536783"><ele>3.4</ele><time>2026-04-05T13:04:24Z</time></trkpt><trkpt lat="14.534343132410868" lon="120.98445740901707"><ele>3.2</ele><time>2026-04-05T13:04:25Z</time></trkpt><trkpt lat="14.53444567063932" lon="120.98444493267142"><ele>3.0</ele><time>2026-04-05T13:04:26Z</time></trkpt><trkpt lat="14.534536850711548" lon="120.984437274536"><ele>3.3333333333333335</ele><time>2026-04-05T13:04:27Z</time></trkpt><trkpt lat="14.534619213359678" lon="120.98444422710187"><ele>3.666666666666667</ele><time>2026-04-05T13:04:28Z</time></trkpt><trkpt lat="14.534693000199495" lon="120.98447433532648"><ele>4.0</ele><time>2026-04-05T13:04:29Z</time></trkpt><trkpt lat="14.534731517526843" lon="120.98456380525097"><ele>4.333333333333334</ele><time>2026-04-05T13:04:30Z</time></trkpt><trkpt lat="14.534774869772033" lon="120.98464256032683"><ele>4.666666666666667</ele><time>2026-04-05T13:04:31Z</time></trkpt><trkpt lat="14.534837414721231" lon="120.98471758812916"><ele>5.0</ele><time>2026-04-05T13:04:32Z</time></trkpt><trkpt lat="14.534921744425588" lon="120.98478500116258"><ele>5.0</ele><time>2026-04-05T13:04:33Z</time></trkpt><trkpt lat="14.535016809904882" lon="120.98483901822509"><ele>5.0</ele><time>2026-04-05T13:04:34Z</time></trkpt><trkpt lat="14.53511893288654" lon="120.9848771329385"><ele>5.0</ele><time>2026-04-05T13:04:35Z</time></trkpt><trkpt lat="14.535229081897699" lon="120.9848945805367"><ele>5.0</ele><time>2026-04-05T13:04:36Z</time></trkpt><trkpt lat="14.535344515387877" lon="120.98487410336693"><ele>5.0</ele><time>2026-04-05T13:04:37Z</time></trkpt><trkpt lat="14.53544327771481" lon="120.98484469244325"><ele>5.0</ele><time>2026-04-05T13:04:38Z</time></trkpt><trkpt lat="14.535536464071198" lon="120.98479939935942"><ele>5.0</ele><time>2026-04-05T13:04:39Z</time></trkpt><trkpt lat="14.5356225149255" lon="120.98472979617492"><ele>5.0</ele><time>2026-04-05T13:04:40Z</time></trkpt><trkpt lat="14.535686218208934" lon="120.98464089651952"><ele>5.0</ele><time>2026-04-05T13:04:41Z</time></trkpt><trkpt lat="14.535757254365041" lon="120.98455928311063"><ele>5.0</ele><time>2026-04-05T13:04:42Z</time></trkpt><trkpt lat="14.535808589567202" lon="120.98447841257705"><ele>5.0</ele><time>2026-04-05T13:04:43Z</time></trkpt><trkpt lat="14.535858036318297" lon="120.98440741258254"><ele>5.0</ele><time>2026-04-05T13:04:44Z</time></trkpt><trkpt lat="14.535911880816842" lon="120.98435422395794"><ele>5.0</ele><time>2026-04-05T13:04:45Z</time></trkpt><trkpt lat="14.536011327810762" lon="120.98431119930562"><ele>5.0</ele><time>2026-04-05T13:04:47Z</time></trkpt><trkpt lat="14.536085006714572" lon="120.9842860183013"><ele>5.0</ele><time>2026-04-05T13:04:48Z</time></trkpt><trkpt lat="14.536174355280178" lon="120.9842728868611"><ele>5.0</ele><time>2026-04-05T13:04:49Z</time></trkpt><trkpt lat="14.536278915181317" lon="120.98426936212631"><ele>4.75</ele><time>2026-04-05T13:04:50Z</time></trkpt><trkpt lat="14.536385522193221" lon="120.98425598443471"><ele>4.5</ele><time>2026-04-05T13:04:51Z</time></trkpt><trkpt lat="14.536503069773" lon="120.98424721032576"><ele>4.25</ele><time>2026-04-05T13:04:52Z</time></trkpt><trkpt lat="14.53662669586301" lon="120.9842348087576"><ele>4.0</ele><time>2026-04-05T13:04:53Z</time></trkpt><trkpt lat="14.5367499582925" lon="120.98422315995177"><ele>3.9999999999999996</ele><time>2026-04-05T13:04:54Z</time></trkpt><trkpt lat="14.536858453180557" lon="120.98421325141479"><ele>4.0</ele><time>2026-04-05T13:04:55Z</time></trkpt><trkpt lat="14.536953516780883" lon="120.98419473785141"><ele>4.0</ele><time>2026-04-05T13:04:56Z</time></trkpt><trkpt lat="14.537039056311833" lon="120.9841805322921"><ele>4.0</ele><time>2026-04-05T13:04:57Z</time></trkpt><trkpt lat="14.537105140842295" lon="120.98416977080397"><ele>3.9999999999999996</ele><time>2026-04-05T13:04:58Z</time></trkpt><trkpt lat="14.537188691006214" lon="120.98417866268885"><ele>4.0</ele><time>2026-04-05T13:05:00Z</time></trkpt><trkpt lat="14.537273469295526" lon="120.98416684854175"><ele>4.2</ele><time>2026-04-05T13:05:05Z</time></trkpt><trkpt lat="14.537350194134207" lon="120.98416083471272"><ele>4.4</ele><time>2026-04-05T13:05:06Z</time></trkpt><trkpt lat="14.537413070085627" lon="120.98415255798297"><ele>4.6</ele><time>2026-04-05T13:05:07Z</time></trkpt><trkpt lat="14.537510102224338" lon="120.98414454196836"><ele>4.8</ele><time>2026-04-05T13:05:08Z</time></trkpt><trkpt lat="14.537607770449451" lon="120.98413866090085"><ele>5.0</ele><time>2026-04-05T13:05:09Z</time></trkpt><trkpt lat="14.537729220627172" lon="120.98412607419121"><ele>5.0</ele><time>2026-04-05T13:05:10Z</time></trkpt><trkpt lat="14.537860417057358" lon="120.98410990486225"><ele>5.0</ele><time>2026-04-05T13:05:11Z</time></trkpt><trkpt lat="14.53798209742515" lon="120.9841014990309"><ele>5.0</ele><time>2026-04-05T13:05:12Z</time></trkpt><trkpt lat="14.538114902432119" lon="120.98408508072522"><ele>5.0</ele><time>2026-04-05T13:05:13Z</time></trkpt><trkpt lat="14.538260343341658" lon="120.98406766189193"><ele>5.0</ele><time>2026-04-05T13:05:14Z</time></trkpt><trkpt lat="14.538404182273032" lon="120.98405043753002"><ele>5.0</ele><time>2026-04-05T13:05:15Z</time></trkpt><trkpt lat="14.538546918371198" lon="120.9840316468957"><ele>5.0</ele><time>2026-04-05T13:05:16Z</time></trkpt><trkpt lat="14.5386892391085" lon="120.98401600932651"><ele>5.0</ele><time>2026-04-05T13:05:17Z</time></trkpt><trkpt lat="14.538826001609044" lon="120.98399330687705"><ele>4.75</ele><time>2026-04-05T13:05:18Z</time></trkpt><trkpt lat="14.538962259881668" lon="120.98396613867052"><ele>4.5</ele><time>2026-04-05T13:05:19Z</time></trkpt><trkpt lat="14.539091092732058" lon="120.98394302022469"><ele>4.25</ele><time>2026-04-05T13:05:20Z</time></trkpt><trkpt lat="14.539205016756126" lon="120.98392509032661"><ele>4.0</ele><time>2026-04-05T13:05:21Z</time></trkpt><trkpt lat="14.539320439138436" lon="120.98389881403425"><ele>4.0</ele><time>2026-04-05T13:05:22Z</time></trkpt><trkpt lat="14.539426318778078" lon="120.98387967308855"><ele>4.0</ele><time>2026-04-05T13:05:23Z</time></trkpt><trkpt lat="14.539519672426417" lon="120.98386229638955"><ele>4.0</ele><time>2026-04-05T13:05:24Z</time></trkpt><trkpt lat="14.539602733366182" lon="120.9838421724593"><ele>4.0</ele><time>2026-04-05T13:05:25Z</time></trkpt><trkpt lat="14.539672513222063" lon="120.98382194521062"><ele>4.0</ele><time>2026-04-05T13:05:26Z</time></trkpt><trkpt lat="14.53977471709959" lon="120.98378860942962"><ele>4.166666666666666</ele><time>2026-04-05T13:05:28Z</time></trkpt><trkpt lat="14.53985505720936" lon="120.98377508048172"><ele>4.333333333333333</ele><time>2026-04-05T13:05:30Z</time></trkpt><trkpt lat="14.539929014354337" lon="120.98377770460078"><ele>4.5</ele><time>2026-04-05T13:05:33Z</time></trkpt><trkpt lat="14.540042583011807" lon="120.9837448411343"><ele>4.666666666666667</ele><time>2026-04-05T13:07:02Z</time></trkpt><trkpt lat="14.540109955731248" lon="120.9837306246687"><ele>4.833333333333334</ele><time>2026-04-05T13:07:03Z</time></trkpt><trkpt lat="14.540197226853763" lon="120.98370926074433"><ele>5.0</ele><time>2026-04-05T13:07:04Z</time></trkpt><trkpt lat="14.540289072631003" lon="120.98368953446459"><ele>4.75</ele><time>2026-04-05T13:07:05Z</time></trkpt><trkpt lat="14.540394379602413" lon="120.98366619545209"><ele>4.5</ele><time>2026-04-05T13:07:06Z</time></trkpt><trkpt lat="14.540512867104718" lon="120.98363754541519"><ele>4.25</ele><time>2026-04-05T13:07:07Z</time></trkpt><trkpt lat="14.540623197774009" lon="120.98361018951911"><ele>4.0</ele><time>2026-04-05T13:07:08Z</time></trkpt><trkpt lat="14.540733295876777" lon="120.98358804032809"><ele>4.0</ele><time>2026-04-05T13:07:09Z</time></trkpt><trkpt lat="14.540842882579705" lon="120.98356432868783"><ele>4.0</ele><time>2026-04-05T13:07:10Z</time></trkpt><trkpt lat="14.540953791420206" lon="120.98354096552185"><ele>4.0</ele><time>2026-04-05T13:07:11Z</time></trkpt><trkpt lat="14.541060236038165" lon="120.98352209875385"><ele>4.0</ele><time>2026-04-05T13:07:12Z</time></trkpt><trkpt lat="14.541165606125777" lon="120.98349951680017"><ele>4.0</ele><time>2026-04-05T13:07:13Z</time></trkpt><trkpt lat="14.541258762185883" lon="120.98347811511887"><ele>3.833333333333333</ele><time>2026-04-05T13:07:14Z</time></trkpt><trkpt lat="14.54134827312406" lon="120.98346053758999"><ele>3.6666666666666665</ele><time>2026-04-05T13:07:15Z</time></trkpt><trkpt lat="14.541430237864704" lon="120.9834420163462"><ele>3.5</ele><time>2026-04-05T13:07:16Z</time></trkpt><trkpt lat="14.5415053816412" lon="120.98342628785872"><ele>3.333333333333333</ele><time>2026-04-05T13:07:17Z</time></trkpt><trkpt lat="14.54157817045535" lon="120.98340600140284"><ele>3.1666666666666665</ele><time>2026-04-05T13:07:18Z</time></trkpt><trkpt lat="14.541640252003386" lon="120.98339272747324"><ele>3.0</ele><time>2026-04-05T13:07:19Z</time></trkpt><trkpt lat="14.541714964658487" lon="120.98336806139838"><ele>3.0</ele><time>2026-04-05T13:07:21Z</time></trkpt><trkpt lat="14.541798595466107" lon="120.98332835687458"><ele>3.0</ele><time>2026-04-05T13:08:25Z</time></trkpt><trkpt lat="14.54192401183003" lon="120.98330283170473"><ele>3.0</ele><time>2026-04-05T13:08:27Z</time></trkpt><trkpt lat="14.541999096698921" lon="120.98329397208954"><ele>3.0</ele><time>2026-04-05T13:08:28Z</time></trkpt><trkpt lat="14.54207046197138" lon="120.98328511779944"><ele>3.0</ele><time>2026-04-05T13:08:29Z</time></trkpt><trkpt lat="14.542142010542916" lon="120.98325611548125"><ele>3.0</ele><time>2026-04-05T13:08:30Z</time></trkpt><trkpt lat="14.542206005123193" lon="120.98323897443089"><ele>3.0</ele><time>2026-04-05T13:08:31Z</time></trkpt><trkpt lat="14.542285923182224" lon="120.98321756825709"><ele>3.0</ele><time>2026-04-05T13:08:32Z</time></trkpt><trkpt lat="14.542372524246462" lon="120.98319437203477"><ele>3.0</ele><time>2026-04-05T13:08:33Z</time></trkpt><trkpt lat="14.54245818897506" lon="120.98318692226627"><ele>3.0</ele><time>2026-04-05T13:08:34Z</time></trkpt><trkpt lat="14.542548059810503" lon="120.9831625736074"><ele>3.0</ele><time>2026-04-05T13:08:35Z</time></trkpt><trkpt lat="14.542634183608381" lon="120.98313824953874"><ele>3.0</ele><time>2026-04-05T13:08:36Z</time></trkpt><trkpt lat="14.542720535398306" lon="120.98311460034827"><ele>3.0</ele><time>2026-04-05T13:08:37Z</time></trkpt><trkpt lat="14.542808764540895" lon="120.9830895642287"><ele>3.0</ele><time>2026-04-05T13:08:38Z</time></trkpt><trkpt lat="14.542899826050967" lon="120.98306532005388"><ele>3.0</ele><time>2026-04-05T13:08:39Z</time></trkpt><trkpt lat="14.542988818412415" lon="120.98304077939021"><ele>3.0</ele><time>2026-04-05T13:08:40Z</time></trkpt><trkpt lat="14.543079921165253" lon="120.98301449297938"><ele>3.0</ele><time>2026-04-05T13:08:41Z</time></trkpt><trkpt lat="14.5431629992634" lon="120.98299283043647"><ele>1.5</ele><time>2026-04-05T13:08:42Z</time></trkpt><trkpt lat="14.543240064672148" lon="120.98297152724442"><ele>0.0</ele><time>2026-04-05T13:08:43Z</time></trkpt><trkpt lat="14.543316619148902" lon="120.98294842274893"><ele>-1.5</ele><time>2026-04-05T13:08:44Z</time></trkpt><trkpt lat="14.543391862374296" lon="120.98292969694053"><ele>-3.0</ele><time>2026-04-05T13:08:45Z</time></trkpt><trkpt lat="14.543470042184964" lon="120.98290955395831"><ele>-4.5</ele><time>2026-04-05T13:08:46Z</time></trkpt><trkpt lat="14.543541747036679" lon="120.98288988249094"><ele>-6.0</ele><time>2026-04-05T13:08:47Z</time></trkpt><trkpt lat="14.543606226640495" lon="120.98287387419802"><ele>-6.0</ele><time>2026-04-05T13:08:48Z</time></trkpt><trkpt lat="14.543705798173608" lon="120.98284323102921"><ele>-6.0</ele><time>2026-04-05T13:08:50Z</time></trkpt><trkpt lat="14.543798839177082" lon="120.98282216330868"><ele>-6.0</ele><time>2026-04-05T13:08:52Z</time></trkpt><trkpt lat="14.543911041900083" lon="120.98277784532364"><ele>-6.0</ele><time>2026-04-05T13:08:54Z</time></trkpt><trkpt lat="14.543976162616318" lon="120.98275107727635"><ele>-6.0</ele><time>2026-04-05T13:08:55Z</time></trkpt><trkpt lat="14.544055259711905" lon="120.98273813200116"><ele>-4.833333333333333</ele><time>2026-04-05T13:08:56Z</time></trkpt><trkpt lat="14.544139294734002" lon="120.98270793870311"><ele>-3.6666666666666665</ele><time>2026-04-05T13:08:57Z</time></trkpt><trkpt lat="14.54421450830652" lon="120.98267287543428"><ele>-2.5</ele><time>2026-04-05T13:08:58Z</time></trkpt><trkpt lat="14.544284193834658" lon="120.98262387712235"><ele>-1.3333333333333335</ele><time>2026-04-05T13:08:59Z</time></trkpt><trkpt lat="14.54436455010674" lon="120.98258997253224"><ele>-0.16666666666666674</ele><time>2026-04-05T13:09:00Z</time></trkpt><trkpt lat="14.54445356516219" lon="120.98254360108477"><ele>1.0</ele><time>2026-04-05T13:09:01Z</time></trkpt><trkpt lat="14.544548840985287" lon="120.98249244026323"><ele>2.0</ele><time>2026-04-05T13:09:02Z</time></trkpt><trkpt lat="14.544653609355148" lon="120.98244632205592"><ele>3.0</ele><time>2026-04-05T13:09:03Z</time></trkpt><trkpt lat="14.544769403236929" lon="120.98240985959018"><ele>4.0</ele><time>2026-04-05T13:09:04Z</time></trkpt><trkpt lat="14.544891845685935" lon="120.98237001411837"><ele>5.0</ele><time>2026-04-05T13:09:05Z</time></trkpt><trkpt lat="14.545018971697246" lon="120.98234076366104"><ele>5.0</ele><time>2026-04-05T13:09:06Z</time></trkpt><trkpt lat="14.545146636349656" lon="120.9823220178774"><ele>5.0</ele><time>2026-04-05T13:09:07Z</time></trkpt><trkpt lat="14.54527350194957" lon="120.98231041222394"><ele>5.0</ele><time>2026-04-05T13:09:08Z</time></trkpt><trkpt lat="14.545393825738893" lon="120.982295624899"><ele>5.0</ele><time>2026-04-05T13:09:09Z</time></trkpt><trkpt lat="14.545506772089956" lon="120.9822821579909"><ele>4.5</ele><time>2026-04-05T13:09:10Z</time></trkpt><trkpt lat="14.5456221097545" lon="120.98226103718139"><ele>4.0</ele><time>2026-04-05T13:09:11Z</time></trkpt><trkpt lat="14.545737704951074" lon="120.98224106821769"><ele>3.5</ele><time>2026-04-05T13:09:12Z</time></trkpt><trkpt lat="14.54586188357426" lon="120.9822215859893"><ele>3.0</ele><time>2026-04-05T13:09:13Z</time></trkpt><trkpt lat="14.545987008589313" lon="120.98220266834295"><ele>3.0</ele><time>2026-04-05T13:09:14Z</time></trkpt><trkpt lat="14.546121208536917" lon="120.98218369983239"><ele>3.0</ele><time>2026-04-05T13:09:15Z</time></trkpt><trkpt lat="14.546259189702443" lon="120.98216542716841"><ele>3.0</ele><time>2026-04-05T13:09:16Z</time></trkpt><trkpt lat="14.546415976909879" lon="120.98214750937728"><ele>3.0</ele><time>2026-04-05T13:09:17Z</time></trkpt><trkpt lat="14.546564523081388" lon="120.98212828183813"><ele>2.75</ele><time>2026-04-05T13:09:18Z</time></trkpt><trkpt lat="14.546712261891203" lon="120.98211210593594"><ele>2.5</ele><time>2026-04-05T13:09:19Z</time></trkpt><trkpt lat="14.546845955444635" lon="120.98210165729961"><ele>2.25</ele><time>2026-04-05T13:09:20Z</time></trkpt><trkpt lat="14.54697668409149" lon="120.98209458096983"><ele>2.0</ele><time>2026-04-05T13:09:21Z</time></trkpt><trkpt lat="14.547109820910467" lon="120.98209224339303"><ele>3.25</ele><time>2026-04-05T13:09:22Z</time></trkpt><trkpt lat="14.547241653569406" lon="120.98209318879336"><ele>4.5</ele><time>2026-04-05T13:09:23Z</time></trkpt><trkpt lat="14.547382247194127" lon="120.98209804446724"><ele>5.75</ele><time>2026-04-05T13:09:24Z</time></trkpt><trkpt lat="14.547511247045398" lon="120.98211753248303"><ele>7.0</ele><time>2026-04-05T13:09:25Z</time></trkpt><trkpt lat="14.547638875618983" lon="120.98213481051093"><ele>7.0</ele><time>2026-04-05T13:09:26Z</time></trkpt><trkpt lat="14.547805282762694" lon="120.98215492093404"><ele>7.0</ele><time>2026-04-05T13:09:27Z</time></trkpt><trkpt lat="14.547954432626739" lon="120.98219649380641"><ele>7.0</ele><time>2026-04-05T13:09:28Z</time></trkpt><trkpt lat="14.548095265178524" lon="120.98223161842456"><ele>7.0</ele><time>2026-04-05T13:09:29Z</time></trkpt><trkpt lat="14.548239828678053" lon="120.98227736298226"><ele>7.0</ele><time>2026-04-05T13:09:30Z</time></trkpt><trkpt lat="14.548380226572224" lon="120.98232182894927"><ele>7.0</ele><time>2026-04-05T13:09:31Z</time></trkpt><trkpt lat="14.548522908272883" lon="120.98238182382899"><ele>7.0</ele><time>2026-04-05T13:09:32Z</time></trkpt><trkpt lat="14.548664376537474" lon="120.98244514494854"><ele>7.0</ele><time>2026-04-05T13:09:33Z</time></trkpt><trkpt lat="14.548806587016514" lon="120.98251417077718"><ele>7.0</ele><time>2026-04-05T13:09:34Z</time></trkpt><trkpt lat="14.548946326083723" lon="120.98259166892925"><ele>6.333333333333334</ele><time>2026-04-05T13:09:35Z</time></trkpt><trkpt lat="14.549088456431612" lon="120.98267501101597"><ele>5.666666666666667</ele><time>2026-04-05T13:09:36Z</time></trkpt><trkpt lat="14.549229068200496" lon="120.98275935148033"><ele>5.0</ele><time>2026-04-05T13:09:37Z</time></trkpt><trkpt lat="14.54936775264893" lon="120.98284752875082"><ele>5.0</ele><time>2026-04-05T13:09:38Z</time></trkpt><trkpt lat="14.549510078888975" lon="120.98293507828217"><ele>5.0</ele><time>2026-04-05T13:09:39Z</time></trkpt><trkpt lat="14.549650845621361" lon="120.98301689564086"><ele>5.0</ele><time>2026-04-05T13:09:40Z</time></trkpt><trkpt lat="14.549782280409229" lon="120.98307703456406"><ele>5.0</ele><time>2026-04-05T13:09:41Z</time></trkpt><trkpt lat="14.549902193841362" lon="120.98313848898802"><ele>5.0</ele><time>2026-04-05T13:09:42Z</time></trkpt><trkpt lat="14.550023021226457" lon="120.98319924493765"><ele>5.0</ele><time>2026-04-05T13:09:43Z</time></trkpt><trkpt lat="14.550136085505137" lon="120.98324109566913"><ele>5.0</ele><time>2026-04-05T13:09:44Z</time></trkpt><trkpt lat="14.550239592625685" lon="120.98327803387471"><ele>5.0</ele><time>2026-04-05T13:09:45Z</time></trkpt><trkpt lat="14.550312214045386" lon="120.98329167431002"><ele>5.0</ele><time>2026-04-05T13:09:46Z</time></trkpt><trkpt lat="14.550381160470252" lon="120.98334271705944"><ele>5.0</ele><time>2026-04-05T13:09:47Z</time></trkpt><trkpt lat="14.550460629460582" lon="120.98334271705976"><ele>5.0</ele><time>2026-04-05T13:09:48Z</time></trkpt><trkpt lat="14.550558620763706" lon="120.98333632129177"><ele>5.0</ele><time>2026-04-05T13:09:49Z</time></trkpt><trkpt lat="14.55064090487024" lon="120.98332264933543"><ele>5.0</ele><time>2026-04-05T13:09:50Z</time></trkpt><trkpt lat="14.550735440902509" lon="120.98325087529295"><ele>5.166666666666667</ele><time>2026-04-05T13:09:51Z</time></trkpt><trkpt lat="14.55080456400086" lon="120.98322111349694"><ele>5.333333333333334</ele><time>2026-04-05T13:09:52Z</time></trkpt><trkpt lat="14.55087235124679" lon="120.98325407524567"><ele>5.5</ele><time>2026-04-05T13:09:53Z</time></trkpt><trkpt lat="14.550941248281017" lon="120.98331003102231"><ele>5.666666666666667</ele><time>2026-04-05T13:09:54Z</time></trkpt><trkpt lat="14.551004806171123" lon="120.98335448387382"><ele>5.833333333333333</ele><time>2026-04-05T13:09:55Z</time></trkpt><trkpt lat="14.551069925316822" lon="120.9833842306611"><ele>6.0</ele><time>2026-04-05T13:09:56Z</time></trkpt><trkpt lat="14.551144072762446" lon="120.98339336212041"><ele>5.833333333333333</ele><time>2026-04-05T13:09:57Z</time></trkpt><trkpt lat="14.551219939379987" lon="120.983382956691"><ele>5.666666666666667</ele><time>2026-04-05T13:09:58Z</time></trkpt><trkpt lat="14.551290944374031" lon="120.98336006738161"><ele>5.5</ele><time>2026-04-05T13:09:59Z</time></trkpt><trkpt lat="14.551353732058216" lon="120.98331670071784"><ele>5.333333333333334</ele><time>2026-04-05T13:10:00Z</time></trkpt><trkpt lat="14.551402031756751" lon="120.9832598906499"><ele>5.166666666666667</ele><time>2026-04-05T13:10:01Z</time></trkpt><trkpt lat="14.551464588573847" lon="120.98321384552818"><ele>5.0</ele><time>2026-04-05T13:10:02Z</time></trkpt><trkpt lat="14.55150894839618" lon="120.98314564727114"><ele>5.0</ele><time>2026-04-05T13:10:03Z</time></trkpt><trkpt lat="14.551535998525297" lon="120.9830774902011"><ele>5.0</ele><time>2026-04-05T13:10:04Z</time></trkpt><trkpt lat="14.551555294190877" lon="120.98294799871042"><ele>5.0</ele><time>2026-04-05T13:10:06Z</time></trkpt><trkpt lat="14.551549410555463" lon="120.98283273929945"><ele>5.0</ele><time>2026-04-05T13:10:08Z</time></trkpt><trkpt lat="14.551550503087068" lon="120.98272525810896"><ele>5.0</ele><time>2026-04-05T13:10:10Z</time></trkpt><trkpt lat="14.551626205869288" lon="120.98269959473511"><ele>5.0</ele><time>2026-04-05T13:10:11Z</time></trkpt><trkpt lat="14.551690667868359" lon="120.9826474912433"><ele>5.0</ele><time>2026-04-05T13:10:12Z</time></trkpt><trkpt lat="14.551773834985639" lon="120.98258133168191"><ele>5.0</ele><time>2026-04-05T13:10:13Z</time></trkpt><trkpt lat="14.551854196205342" lon="120.9825172505229"><ele>5.0</ele><time>2026-04-05T13:10:14Z</time></trkpt><trkpt lat="14.551943050814797" lon="120.98244605035805"><ele>5.0</ele><time>2026-04-05T13:10:15Z</time></trkpt><trkpt lat="14.552027153489098" lon="120.98237893664638"><ele>5.6</ele><time>2026-04-05T13:10:16Z</time></trkpt><trkpt lat="14.552118960548341" lon="120.98230501395015"><ele>6.2</ele><time>2026-04-05T13:10:17Z</time></trkpt><trkpt lat="14.5522020809116" lon="120.98223852211399"><ele>6.800000000000001</ele><time>2026-04-05T13:10:18Z</time></trkpt><trkpt lat="14.552286770525887" lon="120.98217077495492"><ele>7.4</ele><time>2026-04-05T13:10:19Z</time></trkpt><trkpt lat="14.552362561794114" lon="120.98211014600076"><ele>8.0</ele><time>2026-04-05T13:10:20Z</time></trkpt><trkpt lat="14.55244062277029" lon="120.98204770138341"><ele>8.0</ele><time>2026-04-05T13:10:21Z</time></trkpt><trkpt lat="14.552511614588337" lon="120.98199091147991"><ele>8.0</ele><time>2026-04-05T13:10:22Z</time></trkpt><trkpt lat="14.552590266812174" lon="120.98193605744409"><ele>8.0</ele><time>2026-04-05T13:10:23Z</time></trkpt><trkpt lat="14.552679980392426" lon="120.98187993506784"><ele>8.0</ele><time>2026-04-05T13:10:24Z</time></trkpt><trkpt lat="14.55275765829083" lon="120.98181196717135"><ele>8.0</ele><time>2026-04-05T13:10:25Z</time></trkpt><trkpt lat="14.552850200255087" lon="120.9817598356633"><ele>8.4</ele><time>2026-04-05T13:10:26Z</time></trkpt><trkpt lat="14.55294396755022" lon="120.98171060140348"><ele>8.8</ele><time>2026-04-05T13:10:27Z</time></trkpt><trkpt lat="14.553034784881891" lon="120.98166052037875"><ele>9.2</ele><time>2026-04-05T13:10:28Z</time></trkpt><trkpt lat="14.553114345558187" lon="120.9816162251928"><ele>9.6</ele><time>2026-04-05T13:10:29Z</time></trkpt><trkpt lat="14.553193723967684" lon="120.98157258577737"><ele>10.0</ele><time>2026-04-05T13:10:30Z</time></trkpt><trkpt lat="14.553269622391463" lon="120.98154058836997"><ele>10.0</ele><time>2026-04-05T13:10:31Z</time></trkpt><trkpt lat="14.553340409426042" lon="120.98149210773845"><ele>10.0</ele><time>2026-04-05T13:10:32Z</time></trkpt><trkpt lat="14.553429713883597" lon="120.9814514340046"><ele>10.0</ele><time>2026-04-05T13:10:33Z</time></trkpt><trkpt lat="14.553515763572417" lon="120.9814102058542"><ele>10.0</ele><time>2026-04-05T13:10:34Z</time></trkpt><trkpt lat="14.553602465958635" lon="120.98135961164678"><ele>10.0</ele><time>2026-04-05T13:10:35Z</time></trkpt><trkpt lat="14.553695959480061" lon="120.98131147382556"><ele>10.833333333333334</ele><time>2026-04-05T13:10:36Z</time></trkpt><trkpt lat="14.553778962859347" lon="120.98127274009197"><ele>11.666666666666668</ele><time>2026-04-05T13:10:37Z</time></trkpt><trkpt lat="14.553861204926482" lon="120.98122256777481"><ele>12.5</ele><time>2026-04-05T13:10:38Z</time></trkpt><trkpt lat="14.553948314194292" lon="120.98117947683635"><ele>13.333333333333334</ele><time>2026-04-05T13:10:39Z</time></trkpt><trkpt lat="14.554018909256111" lon="120.98114277257416"><ele>14.166666666666666</ele><time>2026-04-05T13:10:40Z</time></trkpt><trkpt lat="14.554090296830148" lon="120.98110559909661"><ele>15.0</ele><time>2026-04-05T13:10:41Z</time></trkpt><trkpt lat="14.554171854862009" lon="120.98106363829456"><ele>15.0</ele><time>2026-04-05T13:10:42Z</time></trkpt><trkpt lat="14.554254773716941" lon="120.98101650365412"><ele>15.0</ele><time>2026-04-05T13:10:43Z</time></trkpt><trkpt lat="14.554329357920237" lon="120.98097050993549"><ele>15.0</ele><time>2026-04-05T13:10:44Z</time></trkpt><trkpt lat="14.554398185665484" lon="120.98092794017052"><ele>15.0</ele><time>2026-04-05T13:10:45Z</time></trkpt><trkpt lat="14.554460612719655" lon="120.98088816164186"><ele>15.0</ele><time>2026-04-05T13:10:46Z</time></trkpt><trkpt lat="14.554521505683907" lon="120.98086353444263"><ele>15.0</ele><time>2026-04-05T13:10:47Z</time></trkpt><trkpt lat="14.554631960964008" lon="120.98083770391854"><ele>14.0</ele><time>2026-04-05T13:10:49Z</time></trkpt><trkpt lat="14.554752279673647" lon="120.98092167738778"><ele>13.0</ele><time>2026-04-05T13:10:51Z</time></trkpt><trkpt lat="14.554746839831417" lon="120.98104662739448"><ele>12.0</ele><time>2026-04-05T13:10:53Z</time></trkpt><trkpt lat="14.554786697390789" lon="120.98113672436575"><ele>11.0</ele><time>2026-04-05T13:10:55Z</time></trkpt><trkpt lat="14.554854099295564" lon="120.98125664385564"><ele>11.0</ele><time>2026-04-05T13:10:57Z</time></trkpt><trkpt lat="14.554896528432948" lon="120.98132747373162"><ele>11.0</ele><time>2026-04-05T13:10:58Z</time></trkpt><trkpt lat="14.554940407460249" lon="120.98140673950185"><ele>11.0</ele><time>2026-04-05T13:10:59Z</time></trkpt><trkpt lat="14.554990401851894" lon="120.981492486896"><ele>11.0</ele><time>2026-04-05T13:11:00Z</time></trkpt><trkpt lat="14.555043003806846" lon="120.98158594024264"><ele>11.0</ele><time>2026-04-05T13:11:01Z</time></trkpt><trkpt lat="14.555143214941896" lon="120.98165585118281"><ele>10.75</ele><time>2026-04-05T13:11:02Z</time></trkpt><trkpt lat="14.555198208650086" lon="120.98175943523778"><ele>10.5</ele><time>2026-04-05T13:11:03Z</time></trkpt><trkpt lat="14.555254604174442" lon="120.98186509525507"><ele>10.25</ele><time>2026-04-05T13:11:04Z</time></trkpt><trkpt lat="14.555312364492652" lon="120.98197310567875"><ele>10.0</ele><time>2026-04-05T13:11:05Z</time></trkpt><trkpt lat="14.55537071027062" lon="120.98208267450063"><ele>9.6</ele><time>2026-04-05T13:11:06Z</time></trkpt><trkpt lat="14.555427341856792" lon="120.98218901486277"><ele>9.2</ele><time>2026-04-05T13:11:07Z</time></trkpt><trkpt lat="14.555477195688658" lon="120.98228249485106"><ele>8.8</ele><time>2026-04-05T13:11:08Z</time></trkpt><trkpt lat="14.555510086340272" lon="120.98234416750357"><ele>8.4</ele><time>2026-04-05T13:11:09Z</time></trkpt><trkpt lat="14.55557235876634" lon="120.9824606138549"><ele>8.0</ele><time>2026-04-05T13:11:12Z</time></trkpt><trkpt lat="14.55560707668972" lon="120.98252523062246"><ele>8.0</ele><time>2026-04-05T13:11:13Z</time></trkpt><trkpt lat="14.555647244797395" lon="120.98260179640121"><ele>8.0</ele><time>2026-04-05T13:11:14Z</time></trkpt><trkpt lat="14.555690051493324" lon="120.9826818889958"><ele>8.0</ele><time>2026-04-05T13:11:15Z</time></trkpt><trkpt lat="14.555737894202442" lon="120.98277152910539"><ele>8.0</ele><time>2026-04-05T13:11:16Z</time></trkpt><trkpt lat="14.55578709361586" lon="120.98286407604519"><ele>8.0</ele><time>2026-04-05T13:11:17Z</time></trkpt><trkpt lat="14.555835897726721" lon="120.98295587940001"><ele>8.0</ele><time>2026-04-05T13:11:18Z</time></trkpt><trkpt lat="14.55589076552643" lon="120.98305908894528"><ele>8.0</ele><time>2026-04-05T13:11:19Z</time></trkpt><trkpt lat="14.555942518574462" lon="120.98315643942486"><ele>8.0</ele><time>2026-04-05T13:11:20Z</time></trkpt><trkpt lat="14.555995471050183" lon="120.98325604612721"><ele>8.0</ele><time>2026-04-05T13:11:21Z</time></trkpt><trkpt lat="14.556045870833408" lon="120.98335085103402"><ele>8.0</ele><time>2026-04-05T13:11:22Z</time></trkpt><trkpt lat="14.556097203565509" lon="120.98344741091151"><ele>8.0</ele><time>2026-04-05T13:11:23Z</time></trkpt><trkpt lat="14.556148251382051" lon="120.98354347577221"><ele>8.0</ele><time>2026-04-05T13:11:24Z</time></trkpt><trkpt lat="14.55619606872948" lon="120.98363353621674"><ele>8.0</ele><time>2026-04-05T13:11:25Z</time></trkpt><trkpt lat="14.556240074248866" lon="120.98371641732908"><ele>8.0</ele><time>2026-04-05T13:11:26Z</time></trkpt><trkpt lat="14.556277484923394" lon="120.9837868776237"><ele>8.0</ele><time>2026-04-05T13:11:27Z</time></trkpt><trkpt lat="14.556315022090368" lon="120.98387842770352"><ele>8.0</ele><time>2026-04-05T13:11:29Z</time></trkpt><trkpt lat="14.556362535746187" lon="120.98397332698251"><ele>8.0</ele><time>2026-04-05T13:11:31Z</time></trkpt><trkpt lat="14.556405382437958" lon="120.98404069506478"><ele>8.0</ele><time>2026-04-05T13:11:32Z</time></trkpt><trkpt lat="14.556444812327484" lon="120.98412070367479"><ele>8.0</ele><time>2026-04-05T13:11:33Z</time></trkpt><trkpt lat="14.55649130191804" lon="120.98420870912454"><ele>8.0</ele><time>2026-04-05T13:11:34Z</time></trkpt><trkpt lat="14.556537788845164" lon="120.98429379543659"><ele>8.0</ele><time>2026-04-05T13:11:35Z</time></trkpt><trkpt lat="14.556586959830753" lon="120.98438633661708"><ele>8.0</ele><time>2026-04-05T13:11:36Z</time></trkpt><trkpt lat="14.556634213748877" lon="120.98447863690967"><ele>8.0</ele><time>2026-04-05T13:11:37Z</time></trkpt><trkpt lat="14.556684173738047" lon="120.98456114078418"><ele>8.0</ele><time>2026-04-05T13:11:38Z</time></trkpt><trkpt lat="14.556734052670791" lon="120.98464536523318"><ele>8.0</ele><time>2026-04-05T13:11:39Z</time></trkpt><trkpt lat="14.556782767645535" lon="120.9847372605494"><ele>8.0</ele><time>2026-04-05T13:11:40Z</time></trkpt><trkpt lat="14.55682822640796" lon="120.98482216108488"><ele>8.0</ele><time>2026-04-05T13:11:41Z</time></trkpt><trkpt lat="14.556876373144114" lon="120.98491709699502"><ele>8.0</ele><time>2026-04-05T13:11:42Z</time></trkpt><trkpt lat="14.55692127886415" lon="120.98499891437713"><ele>8.0</ele><time>2026-04-05T13:11:43Z</time></trkpt><trkpt lat="14.556969801570434" lon="120.98508822135813"><ele>8.0</ele><time>2026-04-05T13:11:44Z</time></trkpt><trkpt lat="14.557015618773706" lon="120.9851791896494"><ele>7.999999999999999</ele><time>2026-04-05T13:11:45Z</time></trkpt><trkpt lat="14.557051898297923" lon="120.98525948989398"><ele>8.0</ele><time>2026-04-05T13:11:46Z</time></trkpt><trkpt lat="14.557108357982004" lon="120.98535967509278"><ele>8.0</ele><time>2026-04-05T13:11:48Z</time></trkpt><trkpt lat="14.55716249888539" lon="120.98543994020409"><ele>8.0</ele><time>2026-04-05T13:11:50Z</time></trkpt><trkpt lat="14.557199120593047" lon="120.98550122331825"><ele>7.999999999999999</ele><time>2026-04-05T13:11:51Z</time></trkpt><trkpt lat="14.557236498154161" lon="120.9855743464503"><ele>8.0</ele><time>2026-04-05T13:11:52Z</time></trkpt><trkpt lat="14.557267637120772" lon="120.98564509013917"><ele>7.999999999999999</ele><time>2026-04-05T13:11:53Z</time></trkpt><trkpt lat="14.55730371528341" lon="120.9857193098106"><ele>8.0</ele><time>2026-04-05T13:11:54Z</time></trkpt><trkpt lat="14.557341232424035" lon="120.98579557910003"><ele>8.0</ele><time>2026-04-05T13:11:55Z</time></trkpt><trkpt lat="14.557387309554283" lon="120.98587744428077"><ele>8.0</ele><time>2026-04-05T13:11:56Z</time></trkpt><trkpt lat="14.557432525079676" lon="120.98595665924346"><ele>7.999999999999999</ele><time>2026-04-05T13:11:57Z</time></trkpt><trkpt lat="14.557481441644157" lon="120.9860399054438"><ele>8.0</ele><time>2026-04-05T13:11:58Z</time></trkpt><trkpt lat="14.557528316511815" lon="120.98612566891293"><ele>7.800000000000001</ele><time>2026-04-05T13:11:59Z</time></trkpt><trkpt lat="14.557574711821585" lon="120.98621484023838"><ele>7.6000000000000005</ele><time>2026-04-05T13:12:00Z</time></trkpt><trkpt lat="14.557623298408966" lon="120.98630489916553"><ele>7.3999999999999995</ele><time>2026-04-05T13:12:01Z</time></trkpt><trkpt lat="14.557667275386168" lon="120.98639317243725"><ele>7.199999999999999</ele><time>2026-04-05T13:12:02Z</time></trkpt><trkpt lat="14.557710909435308" lon="120.98647655906043"><ele>7.0</ele><time>2026-04-05T13:12:03Z</time></trkpt><trkpt lat="14.557758393352113" lon="120.98656467212786"><ele>7.000000000000001</ele><time>2026-04-05T13:12:04Z</time></trkpt><trkpt lat="14.557803681636392" lon="120.98664941525769"><ele>7.0</ele><time>2026-04-05T13:12:05Z</time></trkpt><trkpt lat="14.55784938396516" lon="120.98672518142399"><ele>7.0</ele><time>2026-04-05T13:12:06Z</time></trkpt><trkpt lat="14.557880422359093" lon="120.98679090464981"><ele>7.0</ele><time>2026-04-05T13:12:07Z</time></trkpt><trkpt lat="14.55791058355059" lon="120.98684976168695"><ele>7.000000000000001</ele><time>2026-04-05T13:12:08Z</time></trkpt><trkpt lat="14.557938743293365" lon="120.98690904101302"><ele>7.0</ele><time>2026-04-05T13:12:09Z</time></trkpt><trkpt lat="14.55797787181815" lon="120.98700170897307"><ele>7.3999999999999995</ele><time>2026-04-05T13:12:11.001Z</time></trkpt><trkpt lat="14.55802308118042" lon="120.9870536879909"><ele>7.799999999999999</ele><time>2026-04-05T13:12:18.001Z</time></trkpt><trkpt lat="14.557947398848796" lon="120.98709233029543"><ele>8.2</ele><time>2026-04-05T13:18:22Z</time></trkpt><trkpt lat="14.55801589015329" lon="120.98717484212175"><ele>8.6</ele><time>2026-04-05T13:18:33.001Z</time></trkpt><trkpt lat="14.558063883734048" lon="120.98727658081414"><ele>9.0</ele><time>2026-04-05T13:18:35.001Z</time></trkpt><trkpt lat="14.558169153814834" lon="120.98732502965426"><ele>9.0</ele><time>2026-04-05T13:18:37.001Z</time></trkpt><trkpt lat="14.558206267904547" lon="120.98739385602124"><ele>9.0</ele><time>2026-04-05T13:18:39.001Z</time></trkpt><trkpt lat="14.558064725850981" lon="120.98755866084193"><ele>9.0</ele><time>2026-04-05T13:18:48.001Z</time></trkpt><trkpt lat="14.558002406285137" lon="120.98757816547179"><ele>9.0</ele><time>2026-04-05T13:18:49.001Z</time></trkpt><trkpt lat="14.55793463099869" lon="120.98760047102127"><ele>9.0</ele><time>2026-04-05T13:18:50.001Z</time></trkpt><trkpt lat="14.557869445361034" lon="120.98762178880712"><ele>8.5</ele><time>2026-04-05T13:18:51.001Z</time></trkpt><trkpt lat="14.557786775645292" lon="120.98760985591683"><ele>8.0</ele><time>2026-04-05T13:18:52.001Z</time></trkpt><trkpt lat="14.557708147091073" lon="120.98763421889505"><ele>7.5</ele><time>2026-04-05T13:18:53.001Z</time></trkpt><trkpt lat="14.557617749876982" lon="120.98765727452269"><ele>7.0</ele><time>2026-04-05T13:18:54.001Z</time></trkpt><trkpt lat="14.55753573206108" lon="120.9876749172966"><ele>6.5</ele><time>2026-04-05T13:18:55.001Z</time></trkpt><trkpt lat="14.557453928921747" lon="120.9877094488895"><ele>6.0</ele><time>2026-04-05T13:18:56.001Z</time></trkpt><trkpt lat="14.557352163719807" lon="120.98774117849925"><ele>6.0</ele><time>2026-04-05T13:18:57.001Z</time></trkpt><trkpt lat="14.55725152946382" lon="120.98777420429283"><ele>6.0</ele><time>2026-04-05T13:18:58.001Z</time></trkpt><trkpt lat="14.557143607202914" lon="120.98780654809927"><ele>6.0</ele><time>2026-04-05T13:18:59.001Z</time></trkpt><trkpt lat="14.557027805946262" lon="120.98784269997512"><ele>6.0</ele><time>2026-04-05T13:19:00.001Z</time></trkpt><trkpt lat="14.556916731458088" lon="120.9878708000749"><ele>6.75</ele><time>2026-04-05T13:19:01.001Z</time></trkpt><trkpt lat="14.556797627540227" lon="120.98791162451333"><ele>7.5</ele><time>2026-04-05T13:19:02.001Z</time></trkpt><trkpt lat="14.556679009341572" lon="120.98794793661035"><ele>8.25</ele><time>2026-04-05T13:19:03.001Z</time></trkpt><trkpt lat="14.556558308522673" lon="120.9879861631737"><ele>9.0</ele><time>2026-04-05T13:19:04.001Z</time></trkpt><trkpt lat="14.556436538609937" lon="120.98802107175473"><ele>9.0</ele><time>2026-04-05T13:19:05.001Z</time></trkpt><trkpt lat="14.556316515837521" lon="120.98805890506891"><ele>9.0</ele><time>2026-04-05T13:19:06.001Z</time></trkpt><trkpt lat="14.556188886794951" lon="120.98809730638042"><ele>9.0</ele><time>2026-04-05T13:19:07.001Z</time></trkpt><trkpt lat="14.556060995010013" lon="120.9881379232396"><ele>9.0</ele><time>2026-04-05T13:19:08.001Z</time></trkpt><trkpt lat="14.555935256165016" lon="120.98817792870983"><ele>8.75</ele><time>2026-04-05T13:19:09.001Z</time></trkpt><trkpt lat="14.555810728130908" lon="120.98821714684254"><ele>8.5</ele><time>2026-04-05T13:19:10.001Z</time></trkpt><trkpt lat="14.555690263280509" lon="120.9882544255056"><ele>8.25</ele><time>2026-04-05T13:19:11.001Z</time></trkpt><trkpt lat="14.55557101285335" lon="120.98829134916512"><ele>8.0</ele><time>2026-04-05T13:19:12.001Z</time></trkpt><trkpt lat="14.555451587257549" lon="120.98832907408558"><ele>7.5</ele><time>2026-04-05T13:19:13Z</time></trkpt><trkpt lat="14.555332977964257" lon="120.98836872881043"><ele>7.0</ele><time>2026-04-05T13:19:14Z</time></trkpt><trkpt lat="14.55521618953217" lon="120.98840677683528"><ele>6.5</ele><time>2026-04-05T13:19:15Z</time></trkpt><trkpt lat="14.555100744298015" lon="120.98844540312336"><ele>6.0</ele><time>2026-04-05T13:19:16Z</time></trkpt><trkpt lat="14.554981907339373" lon="120.98848423937203"><ele>6.0</ele><time>2026-04-05T13:19:17Z</time></trkpt><trkpt lat="14.55486621925633" lon="120.98852376047515"><ele>6.0</ele><time>2026-04-05T13:19:18Z</time></trkpt><trkpt lat="14.554757369470433" lon="120.98855988645836"><ele>6.0</ele><time>2026-04-05T13:19:19Z</time></trkpt><trkpt lat="14.554648157906032" lon="120.98859361965673"><ele>6.0</ele><time>2026-04-05T13:19:20Z</time></trkpt><trkpt lat="14.554538467398894" lon="120.98862876768827"><ele>6.199999999999999</ele><time>2026-04-05T13:19:21Z</time></trkpt><trkpt lat="14.554425532937453" lon="120.98866414997563"><ele>6.3999999999999995</ele><time>2026-04-05T13:19:22Z</time></trkpt><trkpt lat="14.554313774221344" lon="120.98869944274041"><ele>6.6</ele><time>2026-04-05T13:19:23Z</time></trkpt><trkpt lat="14.554213108038903" lon="120.9887313581971"><ele>6.8</ele><time>2026-04-05T13:19:24Z</time></trkpt><trkpt lat="14.554119246920115" lon="120.98876412452091"><ele>7.0</ele><time>2026-04-05T13:19:25Z</time></trkpt><trkpt lat="14.554020449304732" lon="120.9888026134457"><ele>7.0</ele><time>2026-04-05T13:19:26Z</time></trkpt><trkpt lat="14.553927445342687" lon="120.9888369262915"><ele>6.999999999999999</ele><time>2026-04-05T13:19:27Z</time></trkpt><trkpt lat="14.55382723596194" lon="120.98887034217503"><ele>6.999999999999999</ele><time>2026-04-05T13:19:28Z</time></trkpt><trkpt lat="14.553723052506257" lon="120.98889744448152"><ele>7.0</ele><time>2026-04-05T13:19:29Z</time></trkpt><trkpt lat="14.553614805099112" lon="120.98892116309595"><ele>7.0</ele><time>2026-04-05T13:19:30Z</time></trkpt><trkpt lat="14.553504032667151" lon="120.98895458897259"><ele>6.75</ele><time>2026-04-05T13:19:31Z</time></trkpt><trkpt lat="14.553388578193664" lon="120.98898753892904"><ele>6.5</ele><time>2026-04-05T13:19:32Z</time></trkpt><trkpt lat="14.553270591062986" lon="120.9890227200621"><ele>6.25</ele><time>2026-04-05T13:19:33Z</time></trkpt><trkpt lat="14.553153318508087" lon="120.98906352288483"><ele>6.0</ele><time>2026-04-05T13:19:34Z</time></trkpt><trkpt lat="14.553046177310078" lon="120.98909910881873"><ele>6.0</ele><time>2026-04-05T13:19:35Z</time></trkpt><trkpt lat="14.552946538943903" lon="120.98913022647858"><ele>6.0</ele><time>2026-04-05T13:19:36Z</time></trkpt><trkpt lat="14.552857268048534" lon="120.98915853092326"><ele>6.0</ele><time>2026-04-05T13:19:37Z</time></trkpt><trkpt lat="14.552768666783228" lon="120.98918712613276"><ele>6.0</ele><time>2026-04-05T13:19:38Z</time></trkpt><trkpt lat="14.552697781444166" lon="120.98921181312248"><ele>6.0</ele><time>2026-04-05T13:19:39Z</time></trkpt><trkpt lat="14.552636371155444" lon="120.98923057035273"><ele>6.0</ele><time>2026-04-05T13:19:40Z</time></trkpt><trkpt lat="14.552525072464665" lon="120.98926851574355"><ele>6.0</ele><time>2026-04-05T13:19:42Z</time></trkpt><trkpt lat="14.552434917521145" lon="120.98929737574704"><ele>6.0</ele><time>2026-04-05T13:19:44Z</time></trkpt><trkpt lat="14.552368787970993" lon="120.98926985789284"><ele>6.0</ele><time>2026-04-05T13:19:48Z</time></trkpt><trkpt lat="14.552314697736112" lon="120.9892095442769"><ele>6.0</ele><time>2026-04-05T13:19:50Z</time></trkpt><trkpt lat="14.55228682927778" lon="120.98914271780468"><ele>6.0</ele><time>2026-04-05T13:19:51Z</time></trkpt><trkpt lat="14.552258996266945" lon="120.98907060632101"><ele>6.0</ele><time>2026-04-05T13:19:52Z</time></trkpt><trkpt lat="14.552228529408703" lon="120.98899441278233"><ele>6.0</ele><time>2026-04-05T13:19:53Z</time></trkpt><trkpt lat="14.552202826446965" lon="120.98891574386853"><ele>6.0</ele><time>2026-04-05T13:19:54Z</time></trkpt><trkpt lat="14.552196046683486" lon="120.98883729914643"><ele>6.0</ele><time>2026-04-05T13:19:55Z</time></trkpt><trkpt lat="14.552176534449844" lon="120.98875939853878"><ele>6.0</ele><time>2026-04-05T13:19:56Z</time></trkpt><trkpt lat="14.55215682388161" lon="120.98868162110047"><ele>6.0</ele><time>2026-04-05T13:19:57Z</time></trkpt><trkpt lat="14.552136432135352" lon="120.98860115572334"><ele>6.0</ele><time>2026-04-05T13:19:58Z</time></trkpt><trkpt lat="14.55211922296754" lon="120.9885332487612"><ele>6.0</ele><time>2026-04-05T13:19:59Z</time></trkpt><trkpt lat="14.552102164515885" lon="120.98846593606365"><ele>6.0</ele><time>2026-04-05T13:20:00Z</time></trkpt><trkpt lat="14.552081599761255" lon="120.9883847872285"><ele>6.0</ele><time>2026-04-05T13:20:02Z</time></trkpt><trkpt lat="14.551995095279711" lon="120.98835047633337"><ele>6.0</ele><time>2026-04-05T13:20:03Z</time></trkpt><trkpt lat="14.551915236959498" lon="120.98836806368602"><ele>6.0</ele><time>2026-04-05T13:20:05Z</time></trkpt><trkpt lat="14.551868138169608" lon="120.98843251447661"><ele>6.0</ele><time>2026-04-05T13:20:07Z</time></trkpt><trkpt lat="14.551877566547157" lon="120.98852142318721"><ele>5.833333333333333</ele><time>2026-04-05T13:20:09Z</time></trkpt><trkpt lat="14.551920386155636" lon="120.9886332737439"><ele>5.666666666666667</ele><time>2026-04-05T13:20:11Z</time></trkpt><trkpt lat="14.551940144153635" lon="120.98870330638744"><ele>5.5</ele><time>2026-04-05T13:20:12Z</time></trkpt><trkpt lat="14.551956105702004" lon="120.98878212461929"><ele>5.333333333333334</ele><time>2026-04-05T13:20:13Z</time></trkpt><trkpt lat="14.551974072020018" lon="120.98887213372126"><ele>5.166666666666667</ele><time>2026-04-05T13:20:14Z</time></trkpt><trkpt lat="14.551997201257667" lon="120.98896282594768"><ele>5.0</ele><time>2026-04-05T13:20:15Z</time></trkpt><trkpt lat="14.55202648293708" lon="120.98905749903938"><ele>5.2</ele><time>2026-04-05T13:20:16Z</time></trkpt><trkpt lat="14.552054582516059" lon="120.9891598532936"><ele>5.4</ele><time>2026-04-05T13:20:17Z</time></trkpt><trkpt lat="14.552084903524014" lon="120.9892632016751"><ele>5.6</ele><time>2026-04-05T13:20:18Z</time></trkpt><trkpt lat="14.552113683087441" lon="120.98936524200919"><ele>5.8</ele><time>2026-04-05T13:20:19Z</time></trkpt><trkpt lat="14.552135558903924" lon="120.98945849969441"><ele>6.0</ele><time>2026-04-05T13:20:20Z</time></trkpt><trkpt lat="14.55215576726589" lon="120.98954247885332"><ele>6.8</ele><time>2026-04-05T13:20:21Z</time></trkpt><trkpt lat="14.55219659445472" lon="120.98962774729792"><ele>7.6</ele><time>2026-04-05T13:20:22Z</time></trkpt><trkpt lat="14.552224773039198" lon="120.98972418966099"><ele>8.4</ele><time>2026-04-05T13:20:23Z</time></trkpt><trkpt lat="14.552246695840099" lon="120.98985035419018"><ele>9.2</ele><time>2026-04-05T13:20:25Z</time></trkpt><trkpt lat="14.552261878532875" lon="120.98993118820123"><ele>10.0</ele><time>2026-04-05T13:20:26Z</time></trkpt><trkpt lat="14.552279055535775" lon="120.98999562501689"><ele>10.0</ele><time>2026-04-05T13:20:27Z</time></trkpt><trkpt lat="14.55229112809938" lon="120.99006926457085"><ele>10.0</ele><time>2026-04-05T13:20:28Z</time></trkpt><trkpt lat="14.55231912176256" lon="120.99012780001254"><ele>10.0</ele><time>2026-04-05T13:20:29.001Z</time></trkpt><trkpt lat="14.552342588377158" lon="120.99021230081999"><ele>10.0</ele><time>2026-04-05T13:20:31.001Z</time></trkpt><trkpt lat="14.552363129250901" lon="120.9902897241427"><ele>10.0</ele><time>2026-04-05T13:20:35.001Z</time></trkpt><trkpt lat="14.55222804492351" lon="120.99034869776233"><ele>10.0</ele><time>2026-04-05T13:20:37.001Z</time></trkpt><trkpt lat="14.552211523569925" lon="120.9904495669577"><ele>10.0</ele><time>2026-04-05T13:23:53Z</time></trkpt><trkpt lat="14.552262142589472" lon="120.9904911735581"><ele>10.0</ele><time>2026-04-05T13:24:33Z</time></trkpt><trkpt lat="14.55229968732886" lon="120.99055294061941"><ele>10.0</ele><time>2026-04-05T13:24:58Z</time></trkpt><trkpt lat="14.55246462027765" lon="120.9906607300727"><ele>10.0</ele><time>2026-04-05T13:25:05Z</time></trkpt><trkpt lat="14.5525143068" lon="120.99077860936502"><ele>10.0</ele><time>2026-04-05T13:25:07Z</time></trkpt><trkpt lat="14.55254236058945" lon="120.99085004883631"><ele>10.0</ele><time>2026-04-05T13:25:08Z</time></trkpt><trkpt lat="14.552573377019138" lon="120.99092676506915"><ele>10.0</ele><time>2026-04-05T13:25:09Z</time></trkpt><trkpt lat="14.552607377532015" lon="120.9910074261431"><ele>10.0</ele><time>2026-04-05T13:25:10Z</time></trkpt><trkpt lat="14.552643293233348" lon="120.99109017114976"><ele>10.0</ele><time>2026-04-05T13:25:11Z</time></trkpt><trkpt lat="14.552672147742701" lon="120.99117724038676"><ele>10.0</ele><time>2026-04-05T13:25:12Z</time></trkpt><trkpt lat="14.552697941078607" lon="120.99126010141359"><ele>10.0</ele><time>2026-04-05T13:25:13Z</time></trkpt><trkpt lat="14.55272982970627" lon="120.99133978312554"><ele>10.0</ele><time>2026-04-05T13:25:14Z</time></trkpt><trkpt lat="14.552760819947586" lon="120.99141483806768"><ele>10.0</ele><time>2026-04-05T13:25:15Z</time></trkpt><trkpt lat="14.552790086057101" lon="120.99149476224827"><ele>10.0</ele><time>2026-04-05T13:25:16Z</time></trkpt><trkpt lat="14.55281860116622" lon="120.99157776043715"><ele>10.0</ele><time>2026-04-05T13:25:17Z</time></trkpt><trkpt lat="14.552847471174921" lon="120.99166511723286"><ele>10.0</ele><time>2026-04-05T13:25:18Z</time></trkpt><trkpt lat="14.552878566380675" lon="120.99175889029146"><ele>10.0</ele><time>2026-04-05T13:25:19Z</time></trkpt><trkpt lat="14.552909599510016" lon="120.9918534655797"><ele>10.0</ele><time>2026-04-05T13:25:20Z</time></trkpt><trkpt lat="14.552942314467655" lon="120.99195280367793"><ele>10.0</ele><time>2026-04-05T13:25:21Z</time></trkpt><trkpt lat="14.552969825966576" lon="120.99206428150356"><ele>10.0</ele><time>2026-04-05T13:25:22Z</time></trkpt><trkpt lat="14.552992077415583" lon="120.99216127691018"><ele>10.0</ele><time>2026-04-05T13:25:23Z</time></trkpt><trkpt lat="14.553012988991096" lon="120.99226348902847"><ele>10.0</ele><time>2026-04-05T13:25:24Z</time></trkpt><trkpt lat="14.55303405369682" lon="120.99237151979968"><ele>10.0</ele><time>2026-04-05T13:25:25Z</time></trkpt><trkpt lat="14.553064092141645" lon="120.99248370839027"><ele>10.0</ele><time>2026-04-05T13:25:26Z</time></trkpt><trkpt lat="14.553097950712734" lon="120.99260136646306"><ele>10.0</ele><time>2026-04-05T13:25:27Z</time></trkpt><trkpt lat="14.553128417554774" lon="120.99272239392802"><ele>9.75</ele><time>2026-04-05T13:25:28Z</time></trkpt><trkpt lat="14.553163881642375" lon="120.99284187881725"><ele>9.5</ele><time>2026-04-05T13:25:29Z</time></trkpt><trkpt lat="14.553195435952496" lon="120.99295906469966"><ele>9.25</ele><time>2026-04-05T13:25:30Z</time></trkpt><trkpt lat="14.553223577391336" lon="120.99307940845502"><ele>9.0</ele><time>2026-04-05T13:25:31Z</time></trkpt><trkpt lat="14.553249626918422" lon="120.99320216422369"><ele>9.0</ele><time>2026-04-05T13:25:32Z</time></trkpt><trkpt lat="14.55327022650884" lon="120.99332157287752"><ele>9.0</ele><time>2026-04-05T13:25:33Z</time></trkpt><trkpt lat="14.55328626216627" lon="120.99343343065"><ele>9.0</ele><time>2026-04-05T13:25:34Z</time></trkpt><trkpt lat="14.553297660477535" lon="120.993539101694"><ele>9.0</ele><time>2026-04-05T13:25:35Z</time></trkpt><trkpt lat="14.553304625322443" lon="120.99364317994694"><ele>9.0</ele><time>2026-04-05T13:25:36Z</time></trkpt><trkpt lat="14.553318751167513" lon="120.99375137222597"><ele>9.2</ele><time>2026-04-05T13:25:37Z</time></trkpt><trkpt lat="14.553329447970446" lon="120.99385689096735"><ele>9.4</ele><time>2026-04-05T13:25:38Z</time></trkpt><trkpt lat="14.553342340273465" lon="120.99396148561891"><ele>9.6</ele><time>2026-04-05T13:25:39Z</time></trkpt><trkpt lat="14.55335404164043" lon="120.9940702197354"><ele>9.8</ele><time>2026-04-05T13:25:40Z</time></trkpt><trkpt lat="14.553368115773818" lon="120.9941759857931"><ele>10.0</ele><time>2026-04-05T13:25:41Z</time></trkpt><trkpt lat="14.553381668393085" lon="120.99428158247852"><ele>9.25</ele><time>2026-04-05T13:25:42Z</time></trkpt><trkpt lat="14.55339729718918" lon="120.99439263489333"><ele>8.5</ele><time>2026-04-05T13:25:43Z</time></trkpt><trkpt lat="14.553410820852882" lon="120.99450743607754"><ele>7.75</ele><time>2026-04-05T13:25:44Z</time></trkpt><trkpt lat="14.553425637938695" lon="120.99462942281397"><ele>7.0</ele><time>2026-04-05T13:25:45Z</time></trkpt><trkpt lat="14.553438495484656" lon="120.99475164910514"><ele>7.0</ele><time>2026-04-05T13:25:46Z</time></trkpt><trkpt lat="14.55345643252233" lon="120.9948666645934"><ele>6.999999999999999</ele><time>2026-04-05T13:25:47Z</time></trkpt><trkpt lat="14.553474753148505" lon="120.99497131627064"><ele>6.999999999999999</ele><time>2026-04-05T13:25:48Z</time></trkpt><trkpt lat="14.553480870153356" lon="120.99506430012627"><ele>7.0</ele><time>2026-04-05T13:25:49Z</time></trkpt><trkpt lat="14.553496785839691" lon="120.99517028482073"><ele>7.0</ele><time>2026-04-05T13:25:50Z</time></trkpt><trkpt lat="14.553515968388014" lon="120.99526867722938"><ele>8.0</ele><time>2026-04-05T13:25:51Z</time></trkpt><trkpt lat="14.553531341146801" lon="120.99535162860411"><ele>9.0</ele><time>2026-04-05T13:25:52Z</time></trkpt><trkpt lat="14.553548017334917" lon="120.995437046688"><ele>10.0</ele><time>2026-04-05T13:25:53Z</time></trkpt><trkpt lat="14.553562989466046" lon="120.9955136529932"><ele>11.0</ele><time>2026-04-05T13:25:54Z</time></trkpt><trkpt lat="14.553580057386258" lon="120.99559646186107"><ele>11.999999999999998</ele><time>2026-04-05T13:25:55Z</time></trkpt><trkpt lat="14.553599781017894" lon="120.99567757327334"><ele>13.0</ele><time>2026-04-05T13:25:56Z</time></trkpt><trkpt lat="14.553621732736309" lon="120.99576981619383"><ele>13.600000000000001</ele><time>2026-04-05T13:25:57Z</time></trkpt><trkpt lat="14.553641290223942" lon="120.99587388262303"><ele>14.200000000000001</ele><time>2026-04-05T13:25:58Z</time></trkpt><trkpt lat="14.553662991659152" lon="120.99597769657275"><ele>14.8</ele><time>2026-04-05T13:25:59Z</time></trkpt><trkpt lat="14.553693413085384" lon="120.99609023621363"><ele>15.4</ele><time>2026-04-05T13:26:00Z</time></trkpt><trkpt lat="14.553718632010243" lon="120.99620238313491"><ele>16.0</ele><time>2026-04-05T13:26:01Z</time></trkpt><trkpt lat="14.553744372832176" lon="120.99630648614006"><ele>14.833333333333332</ele><time>2026-04-05T13:26:02Z</time></trkpt><trkpt lat="14.553765278011056" lon="120.99639522066573"><ele>13.666666666666666</ele><time>2026-04-05T13:26:03Z</time></trkpt><trkpt lat="14.55378236450617" lon="120.99649099223178"><ele>12.5</ele><time>2026-04-05T13:26:04Z</time></trkpt><trkpt lat="14.553803211126455" lon="120.9965780577301"><ele>11.333333333333332</ele><time>2026-04-05T13:26:05Z</time></trkpt><trkpt lat="14.553823906853953" lon="120.99667573038568"><ele>10.166666666666666</ele><time>2026-04-05T13:26:06Z</time></trkpt><trkpt lat="14.55384980278353" lon="120.99675275488966"><ele>9.0</ele><time>2026-04-05T13:26:07Z</time></trkpt><trkpt lat="14.553867855494648" lon="120.99682328326392"><ele>8.5</ele><time>2026-04-05T13:26:08Z</time></trkpt><trkpt lat="14.553883093481314" lon="120.99688883739867"><ele>8.0</ele><time>2026-04-05T13:26:09Z</time></trkpt><trkpt lat="14.553907312734077" lon="120.99698125713111"><ele>7.5</ele><time>2026-04-05T13:26:11Z</time></trkpt><trkpt lat="14.553946975532366" lon="120.99705675666316"><ele>7.0</ele><time>2026-04-05T13:26:14Z</time></trkpt><trkpt lat="14.55396592492176" lon="120.9971346698535"><ele>6.5</ele><time>2026-04-05T13:26:19Z</time></trkpt><trkpt lat="14.554059193709984" lon="120.99717091342104"><ele>6.0</ele><time>2026-04-05T13:26:21Z</time></trkpt><trkpt lat="14.554169832085991" lon="120.99716769534172"><ele>6.0</ele><time>2026-04-05T13:26:24Z</time></trkpt><trkpt lat="14.554393513714" lon="120.99714220508217"><ele>6.0</ele><time>2026-04-05T13:26:38Z</time></trkpt><trkpt lat="14.554647512586854" lon="120.99709902445427"><ele>6.5</ele><time>2026-04-05T13:26:42Z</time></trkpt><trkpt lat="14.554764661944171" lon="120.99709088572202"><ele>7.0</ele><time>2026-04-05T13:26:43Z</time></trkpt><trkpt lat="14.554853979375423" lon="120.99704296968768"><ele>7.5</ele><time>2026-04-05T13:26:44Z</time></trkpt><trkpt lat="14.55493008862729" lon="120.99701541183133"><ele>8.0</ele><time>2026-04-05T13:26:45Z</time></trkpt><trkpt lat="14.554995568324706" lon="120.99699937801176"><ele>8.5</ele><time>2026-04-05T13:26:46Z</time></trkpt><trkpt lat="14.555057469798305" lon="120.9969849318276"><ele>9.0</ele><time>2026-04-05T13:26:47Z</time></trkpt><trkpt lat="14.555166835704538" lon="120.99695672942121"><ele>9.0</ele><time>2026-04-05T13:26:49Z</time></trkpt><trkpt lat="14.555261374494677" lon="120.99694155589285"><ele>9.0</ele><time>2026-04-05T13:26:51Z</time></trkpt><trkpt lat="14.555329780890185" lon="120.99693304826359"><ele>9.0</ele><time>2026-04-05T13:26:53Z</time></trkpt><trkpt lat="14.555398315434797" lon="120.99691018643644"><ele>9.0</ele><time>2026-04-05T13:26:56Z</time></trkpt><trkpt lat="14.555460717812457" lon="120.99690150963869"><ele>9.0</ele><time>2026-04-05T13:26:58Z</time></trkpt><trkpt lat="14.555549680492078" lon="120.9968987146078"><ele>9.0</ele><time>2026-04-05T13:27:01Z</time></trkpt><trkpt lat="14.555622562843805" lon="120.99688200434682"><ele>9.0</ele><time>2026-04-05T13:27:03Z</time></trkpt><trkpt lat="14.555730227315538" lon="120.99686972290056"><ele>9.0</ele><time>2026-04-05T13:27:05Z</time></trkpt><trkpt lat="14.555851562650922" lon="120.99684375763297"><ele>9.0</ele><time>2026-04-05T13:27:07Z</time></trkpt><trkpt lat="14.555912746505191" lon="120.99681985584623"><ele>9.0</ele><time>2026-04-05T13:27:08Z</time></trkpt><trkpt lat="14.555982532455152" lon="120.99679134463429"><ele>9.0</ele><time>2026-04-05T13:27:09Z</time></trkpt><trkpt lat="14.556043993639056" lon="120.99677229521795"><ele>9.0</ele><time>2026-04-05T13:27:10Z</time></trkpt><trkpt lat="14.556110166629054" lon="120.99675366413236"><ele>9.000000000000002</ele><time>2026-04-05T13:27:11Z</time></trkpt><trkpt lat="14.556175827739198" lon="120.99673775250812"><ele>9.0</ele><time>2026-04-05T13:27:12Z</time></trkpt><trkpt lat="14.556243780989831" lon="120.99671458371301"><ele>9.0</ele><time>2026-04-05T13:27:13Z</time></trkpt><trkpt lat="14.556317705432036" lon="120.99670197057841"><ele>9.0</ele><time>2026-04-05T13:27:14Z</time></trkpt><trkpt lat="14.556392191391751" lon="120.99668207927346"><ele>9.0</ele><time>2026-04-05T13:27:15Z</time></trkpt><trkpt lat="14.556467944584027" lon="120.99667014597661"><ele>9.000000000000002</ele><time>2026-04-05T13:27:16Z</time></trkpt><trkpt lat="14.556547483666526" lon="120.99666166176692"><ele>9.0</ele><time>2026-04-05T13:27:17Z</time></trkpt><trkpt lat="14.556634108309911" lon="120.99664591226083"><ele>8.833333333333334</ele><time>2026-04-05T13:27:18Z</time></trkpt><trkpt lat="14.556715855648136" lon="120.99663188652974"><ele>8.666666666666666</ele><time>2026-04-05T13:27:19Z</time></trkpt><trkpt lat="14.556798262783266" lon="120.99661264499396"><ele>8.5</ele><time>2026-04-05T13:27:20Z</time></trkpt><trkpt lat="14.556873958021523" lon="120.99659009132944"><ele>8.333333333333332</ele><time>2026-04-05T13:27:21Z</time></trkpt><trkpt lat="14.556959448398928" lon="120.99656940225397"><ele>8.166666666666666</ele><time>2026-04-05T13:27:22Z</time></trkpt><trkpt lat="14.557040046809805" lon="120.99655382780286"><ele>8.0</ele><time>2026-04-05T13:27:23Z</time></trkpt><trkpt lat="14.557127912799148" lon="120.99654211696453"><ele>8.600000000000001</ele><time>2026-04-05T13:27:24Z</time></trkpt><trkpt lat="14.557207266279075" lon="120.99651773681137"><ele>9.200000000000001</ele><time>2026-04-05T13:27:25Z</time></trkpt><trkpt lat="14.557294062146115" lon="120.99649668158057"><ele>9.8</ele><time>2026-04-05T13:27:26Z</time></trkpt><trkpt lat="14.557382795278778" lon="120.99646375750145"><ele>10.4</ele><time>2026-04-05T13:27:27Z</time></trkpt><trkpt lat="14.557483604249603" lon="120.99645179516868"><ele>11.0</ele><time>2026-04-05T13:27:28Z</time></trkpt><trkpt lat="14.55757590860955" lon="120.99641367133766"><ele>11.0</ele><time>2026-04-05T13:27:29Z</time></trkpt><trkpt lat="14.557670908561844" lon="120.99638637658647"><ele>11.0</ele><time>2026-04-05T13:27:30Z</time></trkpt><trkpt lat="14.557776671373187" lon="120.99637814000182"><ele>11.0</ele><time>2026-04-05T13:27:31Z</time></trkpt><trkpt lat="14.557849067132821" lon="120.99634611112162"><ele>11.0</ele><time>2026-04-05T13:27:32Z</time></trkpt><trkpt lat="14.55792525913982" lon="120.99631555800505"><ele>11.0</ele><time>2026-04-05T13:27:33Z</time></trkpt><trkpt lat="14.557998282329176" lon="120.99627426567118"><ele>11.0</ele><time>2026-04-05T13:27:34Z</time></trkpt><trkpt lat="14.558054051421761" lon="120.99622938204136"><ele>10.5</ele><time>2026-04-05T13:27:35Z</time></trkpt><trkpt lat="14.558140687774902" lon="120.99621439588766"><ele>10.0</ele><time>2026-04-05T13:27:37Z</time></trkpt><trkpt lat="14.558103735422579" lon="120.995943417033"><ele>9.5</ele><time>2026-04-05T13:27:48Z</time></trkpt><trkpt lat="14.558056572672237" lon="120.99588658256083"><ele>9.0</ele><time>2026-04-05T13:27:50Z</time></trkpt><trkpt lat="14.558018157823312" lon="120.99579461263103"><ele>9.0</ele><time>2026-04-05T13:27:53Z</time></trkpt><trkpt lat="14.558000172118932" lon="120.99573097959941"><ele>9.0</ele><time>2026-04-05T13:27:54Z</time></trkpt><trkpt lat="14.557971988499334" lon="120.99561573825905"><ele>9.0</ele><time>2026-04-05T13:27:56Z</time></trkpt><trkpt lat="14.557954197768797" lon="120.99555318603774"><ele>9.0</ele><time>2026-04-05T13:27:57Z</time></trkpt><trkpt lat="14.557934412890617" lon="120.99548792322442"><ele>9.0</ele><time>2026-04-05T13:27:58Z</time></trkpt><trkpt lat="14.557924819433838" lon="120.9954156980557"><ele>9.0</ele><time>2026-04-05T13:27:59Z</time></trkpt><trkpt lat="14.557919881279135" lon="120.99534096001399"><ele>9.0</ele><time>2026-04-05T13:28:00.082Z</time></trkpt><trkpt lat="14.557906489685125" lon="120.99522528792401"><ele>9.0</ele><time>2026-04-05T13:28:02.071Z</time></trkpt><trkpt lat="14.557883064946076" lon="120.99511982653796"><ele>9.0</ele><time>2026-04-05T13:28:04.05Z</time></trkpt><trkpt lat="14.558236446477355" lon="120.99530383247503"><ele>9.0</ele><time>2026-04-05T13:29:41Z</time></trkpt><trkpt lat="14.558298471747362" lon="120.99528965967514"><ele>9.0</ele><time>2026-04-05T13:31:05.001Z</time></trkpt></trkseg></trk></gpx>